<?xml version="1.0" encoding="UTF-8" standalone="no" ?>
<gpx xmlns="http://www.topografix.com/GPX/1/1" xmlns:xsi="http://www.w3.org/2001/XMLSchema-instance" xsi:schemaLocation="http://www.topografix.com/GPX/1/1 http://www.topografix.com/GPX/1/1/gpx.xsd" version="1.1" creator="VisuGPX - https://www.visugpx.com">
  <metadata>
    <name>velo vtt</name>
    <desc><![CDATA[rando vtt du 26/7/13]]></desc>
  </metadata>
  <wpt lat="43.57559" lon="3.74813">
    <ele>95.2</ele>
    <name><![CDATA[Point de cheminement 1]]></name>
    <desc><![CDATA[Distance totale : 10,38 km (6,5 mi)
Durée totale : 30:00
Durée du déplacement : 29:50
Vitesse moyenne : 20,76 km/h (12,9 mi/h)
Vitesse moyenne de déplacement : 20,88 km/h (13,0 mi/h)
Vitesse max. : 34,25 km/h (21,3 mi/h)
Allure moyenne : 2,89 min/km (4,7 min/mi)
Allure moyenne de déplacement : 2,87 min/km (4,6 min/mi)
Allure max. : 1,75 min/km (2,8 min/mi)
Élévation max. : 104 m (342 pi)
Élévation min. : 68 m (222 pi)
Dénivelé : 148 m (485 pi)
Inclinaison max. : 10 %
Inclinaison min. : -15 %
Date d'enregistrement : 26/07/2013 9:23
]]></desc>
    <cmt><![CDATA[STATISTICS]]></cmt>
    <type><![CDATA[]]></type>
  </wpt>
  <wpt lat="43.5797" lon="3.76694">
    <ele>91.6</ele>
    <name><![CDATA[Point de cheminement 2]]></name>
    <desc><![CDATA[Distance totale : 10,15 km (6,3 mi)
Durée totale : 30:00
Durée du déplacement : 28:26
Vitesse moyenne : 20,29 km/h (12,6 mi/h)
Vitesse moyenne de déplacement : 21,41 km/h (13,3 mi/h)
Vitesse max. : 33,30 km/h (20,7 mi/h)
Allure moyenne : 2,96 min/km (4,8 min/mi)
Allure moyenne de déplacement : 2,80 min/km (4,5 min/mi)
Allure max. : 1,80 min/km (2,9 min/mi)
Élévation max. : 116 m (381 pi)
Élévation min. : 85 m (280 pi)
Dénivelé : 131 m (431 pi)
Inclinaison max. : 10 %
Inclinaison min. : -10 %
Date d'enregistrement : 26/07/2013 9:53
]]></desc>
    <cmt><![CDATA[STATISTICS]]></cmt>
    <type><![CDATA[]]></type>
  </wpt>
  <trk>
    <name><![CDATA[26/07/2013 9:23]]></name>
    <desc><![CDATA[]]></desc>
    <trkseg>
      <trkpt lat="43.5711" lon="3.77138">
        <ele>91.3</ele>
        <time>2013-07-26T07:24:04.809Z</time>
      </trkpt>
      <trkpt lat="43.57106" lon="3.77129">
        <ele>80.8</ele>
        <time>2013-07-26T07:24:04.000Z</time>
      </trkpt>
      <trkpt lat="43.57113" lon="3.77135">
        <ele>90.5</ele>
        <time>2013-07-26T07:24:11.411Z</time>
      </trkpt>
      <trkpt lat="43.57115" lon="3.77139">
        <ele>93.6</ele>
        <time>2013-07-26T07:24:14.000Z</time>
      </trkpt>
      <trkpt lat="43.5712" lon="3.77141">
        <ele>92.1</ele>
        <time>2013-07-26T07:24:15.000Z</time>
      </trkpt>
      <trkpt lat="43.57122" lon="3.77143">
        <ele>92.7</ele>
        <time>2013-07-26T07:24:16.000Z</time>
      </trkpt>
      <trkpt lat="43.57124" lon="3.77145">
        <ele>92.1</ele>
        <time>2013-07-26T07:24:17.000Z</time>
      </trkpt>
      <trkpt lat="43.57126" lon="3.77147">
        <ele>92.3</ele>
        <time>2013-07-26T07:24:18.000Z</time>
      </trkpt>
      <trkpt lat="43.5713" lon="3.77152">
        <ele>90.2</ele>
        <time>2013-07-26T07:24:19.000Z</time>
      </trkpt>
      <trkpt lat="43.57133" lon="3.77154">
        <ele>89.7</ele>
        <time>2013-07-26T07:24:20.000Z</time>
      </trkpt>
      <trkpt lat="43.57135" lon="3.77155">
        <ele>91.3</ele>
        <time>2013-07-26T07:24:21.000Z</time>
      </trkpt>
      <trkpt lat="43.57138" lon="3.77157">
        <ele>89.9</ele>
        <time>2013-07-26T07:24:22.000Z</time>
      </trkpt>
      <trkpt lat="43.57139" lon="3.7716">
        <ele>90.1</ele>
        <time>2013-07-26T07:24:23.000Z</time>
      </trkpt>
      <trkpt lat="43.5714" lon="3.77163">
        <ele>89.4</ele>
        <time>2013-07-26T07:24:24.000Z</time>
      </trkpt>
      <trkpt lat="43.5714" lon="3.77167">
        <ele>89.5</ele>
        <time>2013-07-26T07:24:25.000Z</time>
      </trkpt>
      <trkpt lat="43.57139" lon="3.7717">
        <ele>87</ele>
        <time>2013-07-26T07:24:26.000Z</time>
      </trkpt>
      <trkpt lat="43.57136" lon="3.77173">
        <ele>87.4</ele>
        <time>2013-07-26T07:24:27.000Z</time>
      </trkpt>
      <trkpt lat="43.57132" lon="3.77176">
        <ele>84.7</ele>
        <time>2013-07-26T07:24:28.000Z</time>
      </trkpt>
      <trkpt lat="43.57127" lon="3.77178">
        <ele>84.6</ele>
        <time>2013-07-26T07:24:29.000Z</time>
      </trkpt>
      <trkpt lat="43.57122" lon="3.77181">
        <ele>85.2</ele>
        <time>2013-07-26T07:24:30.000Z</time>
      </trkpt>
      <trkpt lat="43.57118" lon="3.77183">
        <ele>84.9</ele>
        <time>2013-07-26T07:24:31.000Z</time>
      </trkpt>
      <trkpt lat="43.57114" lon="3.77186">
        <ele>85.8</ele>
        <time>2013-07-26T07:24:32.000Z</time>
      </trkpt>
      <trkpt lat="43.5711" lon="3.77188">
        <ele>83.9</ele>
        <time>2013-07-26T07:24:33.000Z</time>
      </trkpt>
      <trkpt lat="43.57105" lon="3.7719">
        <ele>84.7</ele>
        <time>2013-07-26T07:24:34.000Z</time>
      </trkpt>
      <trkpt lat="43.57101" lon="3.77192">
        <ele>84.1</ele>
        <time>2013-07-26T07:24:35.000Z</time>
      </trkpt>
      <trkpt lat="43.57097" lon="3.77195">
        <ele>85.6</ele>
        <time>2013-07-26T07:24:36.000Z</time>
      </trkpt>
      <trkpt lat="43.57093" lon="3.77198">
        <ele>87.1</ele>
        <time>2013-07-26T07:24:37.000Z</time>
      </trkpt>
      <trkpt lat="43.5709" lon="3.77201">
        <ele>87.9</ele>
        <time>2013-07-26T07:24:38.000Z</time>
      </trkpt>
      <trkpt lat="43.57087" lon="3.77203">
        <ele>88.2</ele>
        <time>2013-07-26T07:24:39.000Z</time>
      </trkpt>
      <trkpt lat="43.57084" lon="3.77205">
        <ele>88.7</ele>
        <time>2013-07-26T07:24:40.000Z</time>
      </trkpt>
      <trkpt lat="43.57081" lon="3.77207">
        <ele>90.5</ele>
        <time>2013-07-26T07:24:41.000Z</time>
      </trkpt>
      <trkpt lat="43.57077" lon="3.77208">
        <ele>91</ele>
        <time>2013-07-26T07:24:42.000Z</time>
      </trkpt>
      <trkpt lat="43.57074" lon="3.7721">
        <ele>90.2</ele>
        <time>2013-07-26T07:24:43.000Z</time>
      </trkpt>
      <trkpt lat="43.5707" lon="3.77211">
        <ele>88.2</ele>
        <time>2013-07-26T07:24:44.000Z</time>
      </trkpt>
      <trkpt lat="43.57067" lon="3.77212">
        <ele>88.5</ele>
        <time>2013-07-26T07:24:45.000Z</time>
      </trkpt>
      <trkpt lat="43.57063" lon="3.77213">
        <ele>88.2</ele>
        <time>2013-07-26T07:24:46.000Z</time>
      </trkpt>
      <trkpt lat="43.5706" lon="3.77214">
        <ele>88.6</ele>
        <time>2013-07-26T07:24:47.000Z</time>
      </trkpt>
      <trkpt lat="43.57057" lon="3.77215">
        <ele>89.8</ele>
        <time>2013-07-26T07:24:48.000Z</time>
      </trkpt>
      <trkpt lat="43.57054" lon="3.77215">
        <ele>92.4</ele>
        <time>2013-07-26T07:24:49.000Z</time>
      </trkpt>
      <trkpt lat="43.57052" lon="3.77216">
        <ele>93.4</ele>
        <time>2013-07-26T07:24:50.000Z</time>
      </trkpt>
      <trkpt lat="43.57048" lon="3.77216">
        <ele>92.1</ele>
        <time>2013-07-26T07:24:52.000Z</time>
      </trkpt>
      <trkpt lat="43.57046" lon="3.77216">
        <ele>91.4</ele>
        <time>2013-07-26T07:24:53.000Z</time>
      </trkpt>
      <trkpt lat="43.57043" lon="3.77217">
        <ele>91.3</ele>
        <time>2013-07-26T07:24:54.000Z</time>
      </trkpt>
      <trkpt lat="43.5704" lon="3.7722">
        <ele>90.2</ele>
        <time>2013-07-26T07:24:55.000Z</time>
      </trkpt>
      <trkpt lat="43.57037" lon="3.77225">
        <ele>90.1</ele>
        <time>2013-07-26T07:24:56.000Z</time>
      </trkpt>
      <trkpt lat="43.57034" lon="3.7723">
        <ele>89.7</ele>
        <time>2013-07-26T07:24:57.000Z</time>
      </trkpt>
      <trkpt lat="43.57033" lon="3.77236">
        <ele>90</ele>
        <time>2013-07-26T07:24:58.000Z</time>
      </trkpt>
      <trkpt lat="43.57032" lon="3.77242">
        <ele>91.2</ele>
        <time>2013-07-26T07:24:59.000Z</time>
      </trkpt>
      <trkpt lat="43.57032" lon="3.77248">
        <ele>89.9</ele>
        <time>2013-07-26T07:25:00.000Z</time>
      </trkpt>
      <trkpt lat="43.57035" lon="3.77258">
        <ele>91.1</ele>
        <time>2013-07-26T07:25:01.000Z</time>
      </trkpt>
      <trkpt lat="43.57036" lon="3.77264">
        <ele>90.5</ele>
        <time>2013-07-26T07:25:02.000Z</time>
      </trkpt>
      <trkpt lat="43.57037" lon="3.77271">
        <ele>88.9</ele>
        <time>2013-07-26T07:25:03.000Z</time>
      </trkpt>
      <trkpt lat="43.57037" lon="3.77277">
        <ele>88.6</ele>
        <time>2013-07-26T07:25:04.000Z</time>
      </trkpt>
      <trkpt lat="43.57038" lon="3.77282">
        <ele>88</ele>
        <time>2013-07-26T07:25:05.000Z</time>
      </trkpt>
      <trkpt lat="43.57039" lon="3.77288">
        <ele>87.6</ele>
        <time>2013-07-26T07:25:06.000Z</time>
      </trkpt>
      <trkpt lat="43.5704" lon="3.77292">
        <ele>88.5</ele>
        <time>2013-07-26T07:25:07.000Z</time>
      </trkpt>
      <trkpt lat="43.57041" lon="3.77296">
        <ele>88.4</ele>
        <time>2013-07-26T07:25:08.000Z</time>
      </trkpt>
      <trkpt lat="43.57044" lon="3.77302">
        <ele>88.3</ele>
        <time>2013-07-26T07:25:09.000Z</time>
      </trkpt>
      <trkpt lat="43.57048" lon="3.77306">
        <ele>87.4</ele>
        <time>2013-07-26T07:25:10.000Z</time>
      </trkpt>
      <trkpt lat="43.57049" lon="3.7731">
        <ele>86.6</ele>
        <time>2013-07-26T07:25:11.000Z</time>
      </trkpt>
      <trkpt lat="43.57051" lon="3.77315">
        <ele>86.7</ele>
        <time>2013-07-26T07:25:12.000Z</time>
      </trkpt>
      <trkpt lat="43.57052" lon="3.7732">
        <ele>85.1</ele>
        <time>2013-07-26T07:25:13.000Z</time>
      </trkpt>
      <trkpt lat="43.57054" lon="3.77326">
        <ele>84.5</ele>
        <time>2013-07-26T07:25:14.000Z</time>
      </trkpt>
      <trkpt lat="43.57055" lon="3.77331">
        <ele>83.5</ele>
        <time>2013-07-26T07:25:15.000Z</time>
      </trkpt>
      <trkpt lat="43.57056" lon="3.77336">
        <ele>83.3</ele>
        <time>2013-07-26T07:25:16.000Z</time>
      </trkpt>
      <trkpt lat="43.57058" lon="3.77341">
        <ele>84.9</ele>
        <time>2013-07-26T07:25:17.000Z</time>
      </trkpt>
      <trkpt lat="43.5706" lon="3.77346">
        <ele>84.5</ele>
        <time>2013-07-26T07:25:18.000Z</time>
      </trkpt>
      <trkpt lat="43.57062" lon="3.77351">
        <ele>84.6</ele>
        <time>2013-07-26T07:25:19.000Z</time>
      </trkpt>
      <trkpt lat="43.57063" lon="3.77355">
        <ele>84.6</ele>
        <time>2013-07-26T07:25:20.000Z</time>
      </trkpt>
      <trkpt lat="43.57065" lon="3.7736">
        <ele>84.5</ele>
        <time>2013-07-26T07:25:21.000Z</time>
      </trkpt>
      <trkpt lat="43.57067" lon="3.77364">
        <ele>84.2</ele>
        <time>2013-07-26T07:25:22.000Z</time>
      </trkpt>
      <trkpt lat="43.57068" lon="3.77368">
        <ele>84.2</ele>
        <time>2013-07-26T07:25:23.000Z</time>
      </trkpt>
      <trkpt lat="43.57069" lon="3.77372">
        <ele>84</ele>
        <time>2013-07-26T07:25:24.000Z</time>
      </trkpt>
      <trkpt lat="43.5707" lon="3.77374">
        <ele>84.5</ele>
        <time>2013-07-26T07:25:25.000Z</time>
      </trkpt>
      <trkpt lat="43.57071" lon="3.77378">
        <ele>84.4</ele>
        <time>2013-07-26T07:25:26.000Z</time>
      </trkpt>
      <trkpt lat="43.57071" lon="3.77381">
        <ele>84.6</ele>
        <time>2013-07-26T07:25:27.000Z</time>
      </trkpt>
      <trkpt lat="43.57071" lon="3.77385">
        <ele>83.8</ele>
        <time>2013-07-26T07:25:28.000Z</time>
      </trkpt>
      <trkpt lat="43.57072" lon="3.77389">
        <ele>83.6</ele>
        <time>2013-07-26T07:25:29.000Z</time>
      </trkpt>
      <trkpt lat="43.57072" lon="3.77392">
        <ele>83</ele>
        <time>2013-07-26T07:25:30.000Z</time>
      </trkpt>
      <trkpt lat="43.57073" lon="3.77396">
        <ele>83</ele>
        <time>2013-07-26T07:25:31.000Z</time>
      </trkpt>
      <trkpt lat="43.57074" lon="3.774">
        <ele>82.7</ele>
        <time>2013-07-26T07:25:32.000Z</time>
      </trkpt>
      <trkpt lat="43.57075" lon="3.77405">
        <ele>83.3</ele>
        <time>2013-07-26T07:25:33.000Z</time>
      </trkpt>
      <trkpt lat="43.57076" lon="3.77409">
        <ele>83.1</ele>
        <time>2013-07-26T07:25:34.000Z</time>
      </trkpt>
      <trkpt lat="43.57077" lon="3.77413">
        <ele>83.1</ele>
        <time>2013-07-26T07:25:35.000Z</time>
      </trkpt>
      <trkpt lat="43.57077" lon="3.77419">
        <ele>81.3</ele>
        <time>2013-07-26T07:25:36.000Z</time>
      </trkpt>
      <trkpt lat="43.57077" lon="3.77431">
        <ele>82.1</ele>
        <time>2013-07-26T07:25:37.000Z</time>
      </trkpt>
      <trkpt lat="43.57077" lon="3.77436">
        <ele>81.5</ele>
        <time>2013-07-26T07:25:38.000Z</time>
      </trkpt>
      <trkpt lat="43.57075" lon="3.77442">
        <ele>81.2</ele>
        <time>2013-07-26T07:25:39.000Z</time>
      </trkpt>
      <trkpt lat="43.57081" lon="3.77447">
        <ele>77.4</ele>
        <time>2013-07-26T07:25:40.000Z</time>
      </trkpt>
      <trkpt lat="43.57083" lon="3.77453">
        <ele>77.8</ele>
        <time>2013-07-26T07:25:41.000Z</time>
      </trkpt>
      <trkpt lat="43.57085" lon="3.7746">
        <ele>79.1</ele>
        <time>2013-07-26T07:25:42.000Z</time>
      </trkpt>
      <trkpt lat="43.57086" lon="3.77465">
        <ele>78.8</ele>
        <time>2013-07-26T07:25:43.000Z</time>
      </trkpt>
      <trkpt lat="43.57087" lon="3.7747">
        <ele>77.8</ele>
        <time>2013-07-26T07:25:44.000Z</time>
      </trkpt>
      <trkpt lat="43.57088" lon="3.77476">
        <ele>77.7</ele>
        <time>2013-07-26T07:25:45.000Z</time>
      </trkpt>
      <trkpt lat="43.57088" lon="3.77482">
        <ele>76.9</ele>
        <time>2013-07-26T07:25:46.000Z</time>
      </trkpt>
      <trkpt lat="43.57089" lon="3.77488">
        <ele>76.6</ele>
        <time>2013-07-26T07:25:47.000Z</time>
      </trkpt>
      <trkpt lat="43.57091" lon="3.77495">
        <ele>76.9</ele>
        <time>2013-07-26T07:25:48.000Z</time>
      </trkpt>
      <trkpt lat="43.57091" lon="3.77502">
        <ele>78.3</ele>
        <time>2013-07-26T07:25:49.000Z</time>
      </trkpt>
      <trkpt lat="43.57092" lon="3.77508">
        <ele>79</ele>
        <time>2013-07-26T07:25:50.000Z</time>
      </trkpt>
      <trkpt lat="43.57093" lon="3.77515">
        <ele>79.7</ele>
        <time>2013-07-26T07:25:51.000Z</time>
      </trkpt>
      <trkpt lat="43.57093" lon="3.77521">
        <ele>78.8</ele>
        <time>2013-07-26T07:25:52.000Z</time>
      </trkpt>
      <trkpt lat="43.57094" lon="3.77527">
        <ele>79.1</ele>
        <time>2013-07-26T07:25:53.000Z</time>
      </trkpt>
      <trkpt lat="43.57095" lon="3.77532">
        <ele>77.3</ele>
        <time>2013-07-26T07:25:54.000Z</time>
      </trkpt>
      <trkpt lat="43.57097" lon="3.7754">
        <ele>77.3</ele>
        <time>2013-07-26T07:25:55.000Z</time>
      </trkpt>
      <trkpt lat="43.57099" lon="3.77546">
        <ele>77.6</ele>
        <time>2013-07-26T07:25:56.000Z</time>
      </trkpt>
      <trkpt lat="43.571" lon="3.77552">
        <ele>77.6</ele>
        <time>2013-07-26T07:25:57.000Z</time>
      </trkpt>
      <trkpt lat="43.571" lon="3.77559">
        <ele>76.4</ele>
        <time>2013-07-26T07:25:58.000Z</time>
      </trkpt>
      <trkpt lat="43.57101" lon="3.77566">
        <ele>75.6</ele>
        <time>2013-07-26T07:25:59.000Z</time>
      </trkpt>
      <trkpt lat="43.57097" lon="3.77574">
        <ele>76.2</ele>
        <time>2013-07-26T07:26:00.000Z</time>
      </trkpt>
      <trkpt lat="43.57096" lon="3.77581">
        <ele>75.9</ele>
        <time>2013-07-26T07:26:01.000Z</time>
      </trkpt>
      <trkpt lat="43.57091" lon="3.77586">
        <ele>76.6</ele>
        <time>2013-07-26T07:26:02.000Z</time>
      </trkpt>
      <trkpt lat="43.57087" lon="3.77593">
        <ele>78</ele>
        <time>2013-07-26T07:26:03.000Z</time>
      </trkpt>
      <trkpt lat="43.57084" lon="3.77601">
        <ele>78.4</ele>
        <time>2013-07-26T07:26:04.000Z</time>
      </trkpt>
      <trkpt lat="43.57081" lon="3.77608">
        <ele>77.7</ele>
        <time>2013-07-26T07:26:05.000Z</time>
      </trkpt>
      <trkpt lat="43.57077" lon="3.77615">
        <ele>77.4</ele>
        <time>2013-07-26T07:26:06.000Z</time>
      </trkpt>
      <trkpt lat="43.57072" lon="3.77622">
        <ele>77.6</ele>
        <time>2013-07-26T07:26:07.000Z</time>
      </trkpt>
      <trkpt lat="43.57069" lon="3.77629">
        <ele>77.9</ele>
        <time>2013-07-26T07:26:08.000Z</time>
      </trkpt>
      <trkpt lat="43.57066" lon="3.77636">
        <ele>78</ele>
        <time>2013-07-26T07:26:09.000Z</time>
      </trkpt>
      <trkpt lat="43.57062" lon="3.77643">
        <ele>77.1</ele>
        <time>2013-07-26T07:26:10.000Z</time>
      </trkpt>
      <trkpt lat="43.57059" lon="3.7765">
        <ele>76.9</ele>
        <time>2013-07-26T07:26:11.000Z</time>
      </trkpt>
      <trkpt lat="43.57057" lon="3.77657">
        <ele>76.5</ele>
        <time>2013-07-26T07:26:12.000Z</time>
      </trkpt>
      <trkpt lat="43.57054" lon="3.77664">
        <ele>76.8</ele>
        <time>2013-07-26T07:26:13.000Z</time>
      </trkpt>
      <trkpt lat="43.57054" lon="3.77673">
        <ele>75.3</ele>
        <time>2013-07-26T07:26:14.000Z</time>
      </trkpt>
      <trkpt lat="43.57052" lon="3.7768">
        <ele>76.5</ele>
        <time>2013-07-26T07:26:15.000Z</time>
      </trkpt>
      <trkpt lat="43.57051" lon="3.77687">
        <ele>76.9</ele>
        <time>2013-07-26T07:26:16.000Z</time>
      </trkpt>
      <trkpt lat="43.57049" lon="3.77695">
        <ele>77.1</ele>
        <time>2013-07-26T07:26:17.000Z</time>
      </trkpt>
      <trkpt lat="43.57047" lon="3.77703">
        <ele>76.4</ele>
        <time>2013-07-26T07:26:18.000Z</time>
      </trkpt>
      <trkpt lat="43.57045" lon="3.77711">
        <ele>74.6</ele>
        <time>2013-07-26T07:26:19.000Z</time>
      </trkpt>
      <trkpt lat="43.57043" lon="3.77718">
        <ele>74</ele>
        <time>2013-07-26T07:26:20.000Z</time>
      </trkpt>
      <trkpt lat="43.57041" lon="3.77727">
        <ele>74.4</ele>
        <time>2013-07-26T07:26:21.000Z</time>
      </trkpt>
      <trkpt lat="43.5704" lon="3.77734">
        <ele>74.6</ele>
        <time>2013-07-26T07:26:22.000Z</time>
      </trkpt>
      <trkpt lat="43.57038" lon="3.77742">
        <ele>73.8</ele>
        <time>2013-07-26T07:26:23.000Z</time>
      </trkpt>
      <trkpt lat="43.57037" lon="3.7775">
        <ele>73.5</ele>
        <time>2013-07-26T07:26:24.000Z</time>
      </trkpt>
      <trkpt lat="43.57036" lon="3.77758">
        <ele>74.2</ele>
        <time>2013-07-26T07:26:25.000Z</time>
      </trkpt>
      <trkpt lat="43.57035" lon="3.77766">
        <ele>74.3</ele>
        <time>2013-07-26T07:26:26.000Z</time>
      </trkpt>
      <trkpt lat="43.57035" lon="3.77773">
        <ele>74</ele>
        <time>2013-07-26T07:26:27.000Z</time>
      </trkpt>
      <trkpt lat="43.57035" lon="3.77782">
        <ele>74.5</ele>
        <time>2013-07-26T07:26:28.000Z</time>
      </trkpt>
      <trkpt lat="43.57033" lon="3.77789">
        <ele>75</ele>
        <time>2013-07-26T07:26:29.000Z</time>
      </trkpt>
      <trkpt lat="43.57031" lon="3.77797">
        <ele>75.7</ele>
        <time>2013-07-26T07:26:30.000Z</time>
      </trkpt>
      <trkpt lat="43.57027" lon="3.77804">
        <ele>75</ele>
        <time>2013-07-26T07:26:31.000Z</time>
      </trkpt>
      <trkpt lat="43.57026" lon="3.77812">
        <ele>74.9</ele>
        <time>2013-07-26T07:26:32.000Z</time>
      </trkpt>
      <trkpt lat="43.57023" lon="3.7782">
        <ele>75</ele>
        <time>2013-07-26T07:26:33.000Z</time>
      </trkpt>
      <trkpt lat="43.57021" lon="3.77828">
        <ele>74.5</ele>
        <time>2013-07-26T07:26:34.000Z</time>
      </trkpt>
      <trkpt lat="43.57018" lon="3.77836">
        <ele>75.6</ele>
        <time>2013-07-26T07:26:35.000Z</time>
      </trkpt>
      <trkpt lat="43.57016" lon="3.77844">
        <ele>75.3</ele>
        <time>2013-07-26T07:26:36.000Z</time>
      </trkpt>
      <trkpt lat="43.57014" lon="3.77852">
        <ele>75.7</ele>
        <time>2013-07-26T07:26:37.000Z</time>
      </trkpt>
      <trkpt lat="43.5701" lon="3.77858">
        <ele>75.8</ele>
        <time>2013-07-26T07:26:38.000Z</time>
      </trkpt>
      <trkpt lat="43.57007" lon="3.77865">
        <ele>75.4</ele>
        <time>2013-07-26T07:26:39.000Z</time>
      </trkpt>
      <trkpt lat="43.57005" lon="3.77872">
        <ele>75.1</ele>
        <time>2013-07-26T07:26:40.000Z</time>
      </trkpt>
      <trkpt lat="43.57004" lon="3.77878">
        <ele>76.1</ele>
        <time>2013-07-26T07:26:41.000Z</time>
      </trkpt>
      <trkpt lat="43.57003" lon="3.77885">
        <ele>76.4</ele>
        <time>2013-07-26T07:26:42.000Z</time>
      </trkpt>
      <trkpt lat="43.57001" lon="3.77893">
        <ele>77.5</ele>
        <time>2013-07-26T07:26:43.000Z</time>
      </trkpt>
      <trkpt lat="43.56999" lon="3.77899">
        <ele>78.9</ele>
        <time>2013-07-26T07:26:44.000Z</time>
      </trkpt>
      <trkpt lat="43.56996" lon="3.77906">
        <ele>78.7</ele>
        <time>2013-07-26T07:26:45.000Z</time>
      </trkpt>
      <trkpt lat="43.56993" lon="3.77914">
        <ele>77.9</ele>
        <time>2013-07-26T07:26:46.000Z</time>
      </trkpt>
      <trkpt lat="43.5699" lon="3.7792">
        <ele>77.8</ele>
        <time>2013-07-26T07:26:47.000Z</time>
      </trkpt>
      <trkpt lat="43.56987" lon="3.77928">
        <ele>76.3</ele>
        <time>2013-07-26T07:26:48.000Z</time>
      </trkpt>
      <trkpt lat="43.56984" lon="3.77934">
        <ele>75.9</ele>
        <time>2013-07-26T07:26:49.000Z</time>
      </trkpt>
      <trkpt lat="43.56982" lon="3.77941">
        <ele>76.5</ele>
        <time>2013-07-26T07:26:50.000Z</time>
      </trkpt>
      <trkpt lat="43.5698" lon="3.77948">
        <ele>76.1</ele>
        <time>2013-07-26T07:26:51.000Z</time>
      </trkpt>
      <trkpt lat="43.56978" lon="3.77955">
        <ele>76.5</ele>
        <time>2013-07-26T07:26:52.000Z</time>
      </trkpt>
      <trkpt lat="43.56977" lon="3.77962">
        <ele>77.8</ele>
        <time>2013-07-26T07:26:53.000Z</time>
      </trkpt>
      <trkpt lat="43.56974" lon="3.7797">
        <ele>77.9</ele>
        <time>2013-07-26T07:26:54.000Z</time>
      </trkpt>
      <trkpt lat="43.56972" lon="3.77978">
        <ele>78</ele>
        <time>2013-07-26T07:26:55.000Z</time>
      </trkpt>
      <trkpt lat="43.5697" lon="3.77985">
        <ele>77.3</ele>
        <time>2013-07-26T07:26:56.000Z</time>
      </trkpt>
      <trkpt lat="43.56968" lon="3.77992">
        <ele>77.2</ele>
        <time>2013-07-26T07:26:57.000Z</time>
      </trkpt>
      <trkpt lat="43.56966" lon="3.77999">
        <ele>77.3</ele>
        <time>2013-07-26T07:26:58.000Z</time>
      </trkpt>
      <trkpt lat="43.56965" lon="3.78006">
        <ele>77.1</ele>
        <time>2013-07-26T07:26:59.000Z</time>
      </trkpt>
      <trkpt lat="43.56963" lon="3.78012">
        <ele>78.8</ele>
        <time>2013-07-26T07:27:00.000Z</time>
      </trkpt>
      <trkpt lat="43.56961" lon="3.7802">
        <ele>80.3</ele>
        <time>2013-07-26T07:27:01.000Z</time>
      </trkpt>
      <trkpt lat="43.56959" lon="3.78028">
        <ele>81.3</ele>
        <time>2013-07-26T07:27:02.000Z</time>
      </trkpt>
      <trkpt lat="43.56957" lon="3.78036">
        <ele>80.1</ele>
        <time>2013-07-26T07:27:03.000Z</time>
      </trkpt>
      <trkpt lat="43.56955" lon="3.78042">
        <ele>80</ele>
        <time>2013-07-26T07:27:04.000Z</time>
      </trkpt>
      <trkpt lat="43.56954" lon="3.7805">
        <ele>79.4</ele>
        <time>2013-07-26T07:27:05.000Z</time>
      </trkpt>
      <trkpt lat="43.56952" lon="3.78058">
        <ele>79.1</ele>
        <time>2013-07-26T07:27:06.000Z</time>
      </trkpt>
      <trkpt lat="43.5695" lon="3.78066">
        <ele>79.9</ele>
        <time>2013-07-26T07:27:07.000Z</time>
      </trkpt>
      <trkpt lat="43.56947" lon="3.78074">
        <ele>79.8</ele>
        <time>2013-07-26T07:27:08.000Z</time>
      </trkpt>
      <trkpt lat="43.56945" lon="3.78081">
        <ele>79.3</ele>
        <time>2013-07-26T07:27:09.000Z</time>
      </trkpt>
      <trkpt lat="43.56943" lon="3.78089">
        <ele>79.1</ele>
        <time>2013-07-26T07:27:10.000Z</time>
      </trkpt>
      <trkpt lat="43.56942" lon="3.78097">
        <ele>79.1</ele>
        <time>2013-07-26T07:27:11.000Z</time>
      </trkpt>
      <trkpt lat="43.56941" lon="3.78104">
        <ele>79.5</ele>
        <time>2013-07-26T07:27:12.000Z</time>
      </trkpt>
      <trkpt lat="43.56939" lon="3.78112">
        <ele>79.7</ele>
        <time>2013-07-26T07:27:13.000Z</time>
      </trkpt>
      <trkpt lat="43.56937" lon="3.78119">
        <ele>80.2</ele>
        <time>2013-07-26T07:27:14.000Z</time>
      </trkpt>
      <trkpt lat="43.56934" lon="3.78126">
        <ele>79.5</ele>
        <time>2013-07-26T07:27:15.000Z</time>
      </trkpt>
      <trkpt lat="43.56931" lon="3.78133">
        <ele>79.6</ele>
        <time>2013-07-26T07:27:16.000Z</time>
      </trkpt>
      <trkpt lat="43.5693" lon="3.7814">
        <ele>79.6</ele>
        <time>2013-07-26T07:27:17.000Z</time>
      </trkpt>
      <trkpt lat="43.56928" lon="3.78148">
        <ele>79.5</ele>
        <time>2013-07-26T07:27:18.000Z</time>
      </trkpt>
      <trkpt lat="43.56925" lon="3.78155">
        <ele>79</ele>
        <time>2013-07-26T07:27:19.000Z</time>
      </trkpt>
      <trkpt lat="43.56923" lon="3.78163">
        <ele>78.9</ele>
        <time>2013-07-26T07:27:20.000Z</time>
      </trkpt>
      <trkpt lat="43.56921" lon="3.78171">
        <ele>80.8</ele>
        <time>2013-07-26T07:27:21.000Z</time>
      </trkpt>
      <trkpt lat="43.56919" lon="3.78178">
        <ele>81.2</ele>
        <time>2013-07-26T07:27:22.000Z</time>
      </trkpt>
      <trkpt lat="43.56916" lon="3.78186">
        <ele>80.9</ele>
        <time>2013-07-26T07:27:23.000Z</time>
      </trkpt>
      <trkpt lat="43.56915" lon="3.78193">
        <ele>80.9</ele>
        <time>2013-07-26T07:27:24.000Z</time>
      </trkpt>
      <trkpt lat="43.56913" lon="3.78199">
        <ele>81.2</ele>
        <time>2013-07-26T07:27:25.000Z</time>
      </trkpt>
      <trkpt lat="43.56912" lon="3.78206">
        <ele>81</ele>
        <time>2013-07-26T07:27:26.000Z</time>
      </trkpt>
      <trkpt lat="43.5691" lon="3.78213">
        <ele>81</ele>
        <time>2013-07-26T07:27:27.000Z</time>
      </trkpt>
      <trkpt lat="43.56908" lon="3.78219">
        <ele>80.6</ele>
        <time>2013-07-26T07:27:28.000Z</time>
      </trkpt>
      <trkpt lat="43.56906" lon="3.78225">
        <ele>80.3</ele>
        <time>2013-07-26T07:27:29.000Z</time>
      </trkpt>
      <trkpt lat="43.56904" lon="3.78232">
        <ele>80.9</ele>
        <time>2013-07-26T07:27:30.000Z</time>
      </trkpt>
      <trkpt lat="43.56901" lon="3.7824">
        <ele>81.7</ele>
        <time>2013-07-26T07:27:31.000Z</time>
      </trkpt>
      <trkpt lat="43.56899" lon="3.78247">
        <ele>81.4</ele>
        <time>2013-07-26T07:27:32.000Z</time>
      </trkpt>
      <trkpt lat="43.56897" lon="3.78254">
        <ele>80.8</ele>
        <time>2013-07-26T07:27:33.000Z</time>
      </trkpt>
      <trkpt lat="43.56894" lon="3.78261">
        <ele>80.1</ele>
        <time>2013-07-26T07:27:34.000Z</time>
      </trkpt>
      <trkpt lat="43.56892" lon="3.78268">
        <ele>79.6</ele>
        <time>2013-07-26T07:27:35.000Z</time>
      </trkpt>
      <trkpt lat="43.5689" lon="3.78276">
        <ele>80</ele>
        <time>2013-07-26T07:27:36.000Z</time>
      </trkpt>
      <trkpt lat="43.56888" lon="3.78284">
        <ele>79.8</ele>
        <time>2013-07-26T07:27:37.000Z</time>
      </trkpt>
      <trkpt lat="43.56887" lon="3.7829">
        <ele>79.9</ele>
        <time>2013-07-26T07:27:38.000Z</time>
      </trkpt>
      <trkpt lat="43.56884" lon="3.78297">
        <ele>79.7</ele>
        <time>2013-07-26T07:27:39.000Z</time>
      </trkpt>
      <trkpt lat="43.56882" lon="3.78304">
        <ele>80</ele>
        <time>2013-07-26T07:27:40.000Z</time>
      </trkpt>
      <trkpt lat="43.56882" lon="3.78311">
        <ele>79.7</ele>
        <time>2013-07-26T07:27:41.000Z</time>
      </trkpt>
      <trkpt lat="43.56879" lon="3.78317">
        <ele>78.7</ele>
        <time>2013-07-26T07:27:42.000Z</time>
      </trkpt>
      <trkpt lat="43.56876" lon="3.78323">
        <ele>78.9</ele>
        <time>2013-07-26T07:27:43.000Z</time>
      </trkpt>
      <trkpt lat="43.56872" lon="3.78327">
        <ele>79</ele>
        <time>2013-07-26T07:27:44.000Z</time>
      </trkpt>
      <trkpt lat="43.56869" lon="3.78332">
        <ele>80.4</ele>
        <time>2013-07-26T07:27:45.000Z</time>
      </trkpt>
      <trkpt lat="43.56867" lon="3.78338">
        <ele>79.5</ele>
        <time>2013-07-26T07:27:46.000Z</time>
      </trkpt>
      <trkpt lat="43.56866" lon="3.78344">
        <ele>79.9</ele>
        <time>2013-07-26T07:27:47.000Z</time>
      </trkpt>
      <trkpt lat="43.56866" lon="3.7835">
        <ele>80.1</ele>
        <time>2013-07-26T07:27:48.000Z</time>
      </trkpt>
      <trkpt lat="43.56867" lon="3.78357">
        <ele>80.2</ele>
        <time>2013-07-26T07:27:49.000Z</time>
      </trkpt>
      <trkpt lat="43.56868" lon="3.78363">
        <ele>79.7</ele>
        <time>2013-07-26T07:27:50.000Z</time>
      </trkpt>
      <trkpt lat="43.56869" lon="3.78369">
        <ele>78.9</ele>
        <time>2013-07-26T07:27:51.000Z</time>
      </trkpt>
      <trkpt lat="43.5687" lon="3.78376">
        <ele>78.8</ele>
        <time>2013-07-26T07:27:52.000Z</time>
      </trkpt>
      <trkpt lat="43.56871" lon="3.78383">
        <ele>78.7</ele>
        <time>2013-07-26T07:27:53.000Z</time>
      </trkpt>
      <trkpt lat="43.56872" lon="3.7839">
        <ele>79.4</ele>
        <time>2013-07-26T07:27:54.000Z</time>
      </trkpt>
      <trkpt lat="43.56873" lon="3.78398">
        <ele>78.8</ele>
        <time>2013-07-26T07:27:55.000Z</time>
      </trkpt>
      <trkpt lat="43.56874" lon="3.78405">
        <ele>79.2</ele>
        <time>2013-07-26T07:27:56.000Z</time>
      </trkpt>
      <trkpt lat="43.56876" lon="3.78412">
        <ele>79</ele>
        <time>2013-07-26T07:27:57.000Z</time>
      </trkpt>
      <trkpt lat="43.56878" lon="3.78418">
        <ele>78.6</ele>
        <time>2013-07-26T07:27:58.000Z</time>
      </trkpt>
      <trkpt lat="43.56881" lon="3.78424">
        <ele>79.2</ele>
        <time>2013-07-26T07:27:59.000Z</time>
      </trkpt>
      <trkpt lat="43.56884" lon="3.78431">
        <ele>80.1</ele>
        <time>2013-07-26T07:28:00.000Z</time>
      </trkpt>
      <trkpt lat="43.56888" lon="3.78434">
        <ele>79.2</ele>
        <time>2013-07-26T07:28:01.000Z</time>
      </trkpt>
      <trkpt lat="43.56892" lon="3.78439">
        <ele>79.2</ele>
        <time>2013-07-26T07:28:02.000Z</time>
      </trkpt>
      <trkpt lat="43.56897" lon="3.78441">
        <ele>79.1</ele>
        <time>2013-07-26T07:28:03.000Z</time>
      </trkpt>
      <trkpt lat="43.56903" lon="3.78444">
        <ele>79</ele>
        <time>2013-07-26T07:28:04.000Z</time>
      </trkpt>
      <trkpt lat="43.56908" lon="3.78448">
        <ele>79</ele>
        <time>2013-07-26T07:28:05.000Z</time>
      </trkpt>
      <trkpt lat="43.56914" lon="3.78451">
        <ele>77.5</ele>
        <time>2013-07-26T07:28:06.000Z</time>
      </trkpt>
      <trkpt lat="43.56919" lon="3.78454">
        <ele>78</ele>
        <time>2013-07-26T07:28:07.000Z</time>
      </trkpt>
      <trkpt lat="43.56924" lon="3.78456">
        <ele>77.1</ele>
        <time>2013-07-26T07:28:08.000Z</time>
      </trkpt>
      <trkpt lat="43.56929" lon="3.78459">
        <ele>76.4</ele>
        <time>2013-07-26T07:28:09.000Z</time>
      </trkpt>
      <trkpt lat="43.56934" lon="3.78461">
        <ele>76.6</ele>
        <time>2013-07-26T07:28:10.000Z</time>
      </trkpt>
      <trkpt lat="43.56939" lon="3.78464">
        <ele>76.3</ele>
        <time>2013-07-26T07:28:11.000Z</time>
      </trkpt>
      <trkpt lat="43.56944" lon="3.78467">
        <ele>76.5</ele>
        <time>2013-07-26T07:28:12.000Z</time>
      </trkpt>
      <trkpt lat="43.5695" lon="3.7847">
        <ele>74.3</ele>
        <time>2013-07-26T07:28:13.000Z</time>
      </trkpt>
      <trkpt lat="43.56955" lon="3.78473">
        <ele>74.6</ele>
        <time>2013-07-26T07:28:14.000Z</time>
      </trkpt>
      <trkpt lat="43.56959" lon="3.78476">
        <ele>74.7</ele>
        <time>2013-07-26T07:28:15.000Z</time>
      </trkpt>
      <trkpt lat="43.56965" lon="3.78478">
        <ele>74.4</ele>
        <time>2013-07-26T07:28:16.000Z</time>
      </trkpt>
      <trkpt lat="43.56971" lon="3.78481">
        <ele>75.1</ele>
        <time>2013-07-26T07:28:17.000Z</time>
      </trkpt>
      <trkpt lat="43.56975" lon="3.78485">
        <ele>75.6</ele>
        <time>2013-07-26T07:28:18.000Z</time>
      </trkpt>
      <trkpt lat="43.56979" lon="3.78488">
        <ele>75.3</ele>
        <time>2013-07-26T07:28:19.000Z</time>
      </trkpt>
      <trkpt lat="43.56983" lon="3.7849">
        <ele>76</ele>
        <time>2013-07-26T07:28:20.000Z</time>
      </trkpt>
      <trkpt lat="43.56988" lon="3.78492">
        <ele>75.9</ele>
        <time>2013-07-26T07:28:21.000Z</time>
      </trkpt>
      <trkpt lat="43.56995" lon="3.78494">
        <ele>75</ele>
        <time>2013-07-26T07:28:22.000Z</time>
      </trkpt>
      <trkpt lat="43.57" lon="3.78497">
        <ele>75</ele>
        <time>2013-07-26T07:28:23.000Z</time>
      </trkpt>
      <trkpt lat="43.57005" lon="3.785">
        <ele>75.6</ele>
        <time>2013-07-26T07:28:24.000Z</time>
      </trkpt>
      <trkpt lat="43.57009" lon="3.78503">
        <ele>76.3</ele>
        <time>2013-07-26T07:28:25.000Z</time>
      </trkpt>
      <trkpt lat="43.57014" lon="3.78506">
        <ele>76.8</ele>
        <time>2013-07-26T07:28:26.000Z</time>
      </trkpt>
      <trkpt lat="43.57019" lon="3.7851">
        <ele>77.6</ele>
        <time>2013-07-26T07:28:27.000Z</time>
      </trkpt>
      <trkpt lat="43.57023" lon="3.78514">
        <ele>78.5</ele>
        <time>2013-07-26T07:28:28.000Z</time>
      </trkpt>
      <trkpt lat="43.57028" lon="3.78517">
        <ele>77.4</ele>
        <time>2013-07-26T07:28:29.000Z</time>
      </trkpt>
      <trkpt lat="43.57034" lon="3.78521">
        <ele>76.7</ele>
        <time>2013-07-26T07:28:30.000Z</time>
      </trkpt>
      <trkpt lat="43.57038" lon="3.78524">
        <ele>76.9</ele>
        <time>2013-07-26T07:28:31.000Z</time>
      </trkpt>
      <trkpt lat="43.57044" lon="3.78528">
        <ele>77.9</ele>
        <time>2013-07-26T07:28:32.000Z</time>
      </trkpt>
      <trkpt lat="43.57049" lon="3.78532">
        <ele>77</ele>
        <time>2013-07-26T07:28:33.000Z</time>
      </trkpt>
      <trkpt lat="43.57054" lon="3.78536">
        <ele>76.8</ele>
        <time>2013-07-26T07:28:34.000Z</time>
      </trkpt>
      <trkpt lat="43.57058" lon="3.78539">
        <ele>76.5</ele>
        <time>2013-07-26T07:28:35.000Z</time>
      </trkpt>
      <trkpt lat="43.57062" lon="3.78543">
        <ele>77.6</ele>
        <time>2013-07-26T07:28:36.000Z</time>
      </trkpt>
      <trkpt lat="43.57066" lon="3.78548">
        <ele>78.1</ele>
        <time>2013-07-26T07:28:37.000Z</time>
      </trkpt>
      <trkpt lat="43.57071" lon="3.78555">
        <ele>79.2</ele>
        <time>2013-07-26T07:28:38.000Z</time>
      </trkpt>
      <trkpt lat="43.57075" lon="3.78559">
        <ele>79.7</ele>
        <time>2013-07-26T07:28:39.000Z</time>
      </trkpt>
      <trkpt lat="43.57078" lon="3.78564">
        <ele>79.6</ele>
        <time>2013-07-26T07:28:40.000Z</time>
      </trkpt>
      <trkpt lat="43.57081" lon="3.78569">
        <ele>79.3</ele>
        <time>2013-07-26T07:28:41.000Z</time>
      </trkpt>
      <trkpt lat="43.57085" lon="3.78574">
        <ele>80.2</ele>
        <time>2013-07-26T07:28:42.000Z</time>
      </trkpt>
      <trkpt lat="43.57088" lon="3.7858">
        <ele>80.7</ele>
        <time>2013-07-26T07:28:43.000Z</time>
      </trkpt>
      <trkpt lat="43.57091" lon="3.78585">
        <ele>80.1</ele>
        <time>2013-07-26T07:28:44.000Z</time>
      </trkpt>
      <trkpt lat="43.57095" lon="3.78591">
        <ele>79.4</ele>
        <time>2013-07-26T07:28:45.000Z</time>
      </trkpt>
      <trkpt lat="43.57099" lon="3.78596">
        <ele>79.1</ele>
        <time>2013-07-26T07:28:46.000Z</time>
      </trkpt>
      <trkpt lat="43.57103" lon="3.78601">
        <ele>79.5</ele>
        <time>2013-07-26T07:28:47.000Z</time>
      </trkpt>
      <trkpt lat="43.57107" lon="3.78606">
        <ele>78.5</ele>
        <time>2013-07-26T07:28:48.000Z</time>
      </trkpt>
      <trkpt lat="43.57111" lon="3.78612">
        <ele>78.3</ele>
        <time>2013-07-26T07:28:49.000Z</time>
      </trkpt>
      <trkpt lat="43.57114" lon="3.78617">
        <ele>77.6</ele>
        <time>2013-07-26T07:28:50.000Z</time>
      </trkpt>
      <trkpt lat="43.57118" lon="3.78623">
        <ele>78.2</ele>
        <time>2013-07-26T07:28:51.000Z</time>
      </trkpt>
      <trkpt lat="43.57121" lon="3.78627">
        <ele>78.3</ele>
        <time>2013-07-26T07:28:52.000Z</time>
      </trkpt>
      <trkpt lat="43.57125" lon="3.78631">
        <ele>78.6</ele>
        <time>2013-07-26T07:28:53.000Z</time>
      </trkpt>
      <trkpt lat="43.57128" lon="3.78637">
        <ele>78.3</ele>
        <time>2013-07-26T07:28:54.000Z</time>
      </trkpt>
      <trkpt lat="43.5713" lon="3.78642">
        <ele>78.2</ele>
        <time>2013-07-26T07:28:55.000Z</time>
      </trkpt>
      <trkpt lat="43.57134" lon="3.78646">
        <ele>78.3</ele>
        <time>2013-07-26T07:28:56.000Z</time>
      </trkpt>
      <trkpt lat="43.57138" lon="3.78652">
        <ele>77.8</ele>
        <time>2013-07-26T07:28:57.000Z</time>
      </trkpt>
      <trkpt lat="43.57142" lon="3.78658">
        <ele>78.7</ele>
        <time>2013-07-26T07:28:58.000Z</time>
      </trkpt>
      <trkpt lat="43.57145" lon="3.78663">
        <ele>78.3</ele>
        <time>2013-07-26T07:28:59.000Z</time>
      </trkpt>
      <trkpt lat="43.5715" lon="3.78667">
        <ele>78.8</ele>
        <time>2013-07-26T07:29:00.000Z</time>
      </trkpt>
      <trkpt lat="43.57153" lon="3.78672">
        <ele>79.1</ele>
        <time>2013-07-26T07:29:01.000Z</time>
      </trkpt>
      <trkpt lat="43.57157" lon="3.78677">
        <ele>79.4</ele>
        <time>2013-07-26T07:29:02.000Z</time>
      </trkpt>
      <trkpt lat="43.57161" lon="3.78681">
        <ele>80</ele>
        <time>2013-07-26T07:29:03.000Z</time>
      </trkpt>
      <trkpt lat="43.57163" lon="3.78686">
        <ele>80.1</ele>
        <time>2013-07-26T07:29:04.000Z</time>
      </trkpt>
      <trkpt lat="43.57167" lon="3.78691">
        <ele>80.6</ele>
        <time>2013-07-26T07:29:05.000Z</time>
      </trkpt>
      <trkpt lat="43.57171" lon="3.78696">
        <ele>81.6</ele>
        <time>2013-07-26T07:29:06.000Z</time>
      </trkpt>
      <trkpt lat="43.57174" lon="3.78702">
        <ele>82.5</ele>
        <time>2013-07-26T07:29:07.000Z</time>
      </trkpt>
      <trkpt lat="43.57176" lon="3.78708">
        <ele>81.9</ele>
        <time>2013-07-26T07:29:08.000Z</time>
      </trkpt>
      <trkpt lat="43.57181" lon="3.78712">
        <ele>82.3</ele>
        <time>2013-07-26T07:29:09.000Z</time>
      </trkpt>
      <trkpt lat="43.57185" lon="3.78718">
        <ele>81.6</ele>
        <time>2013-07-26T07:29:10.000Z</time>
      </trkpt>
      <trkpt lat="43.57188" lon="3.78723">
        <ele>82.3</ele>
        <time>2013-07-26T07:29:11.000Z</time>
      </trkpt>
      <trkpt lat="43.57192" lon="3.78728">
        <ele>82.8</ele>
        <time>2013-07-26T07:29:12.000Z</time>
      </trkpt>
      <trkpt lat="43.57196" lon="3.78734">
        <ele>82.3</ele>
        <time>2013-07-26T07:29:13.000Z</time>
      </trkpt>
      <trkpt lat="43.572" lon="3.78739">
        <ele>81.1</ele>
        <time>2013-07-26T07:29:14.000Z</time>
      </trkpt>
      <trkpt lat="43.57204" lon="3.78744">
        <ele>80.8</ele>
        <time>2013-07-26T07:29:15.000Z</time>
      </trkpt>
      <trkpt lat="43.57207" lon="3.7875">
        <ele>81.8</ele>
        <time>2013-07-26T07:29:16.000Z</time>
      </trkpt>
      <trkpt lat="43.5721" lon="3.78754">
        <ele>81</ele>
        <time>2013-07-26T07:29:17.000Z</time>
      </trkpt>
      <trkpt lat="43.57214" lon="3.78761">
        <ele>81.5</ele>
        <time>2013-07-26T07:29:18.000Z</time>
      </trkpt>
      <trkpt lat="43.57217" lon="3.78766">
        <ele>81.3</ele>
        <time>2013-07-26T07:29:19.000Z</time>
      </trkpt>
      <trkpt lat="43.57222" lon="3.78773">
        <ele>81</ele>
        <time>2013-07-26T07:29:20.000Z</time>
      </trkpt>
      <trkpt lat="43.57225" lon="3.78778">
        <ele>80.5</ele>
        <time>2013-07-26T07:29:21.000Z</time>
      </trkpt>
      <trkpt lat="43.57229" lon="3.78782">
        <ele>80.3</ele>
        <time>2013-07-26T07:29:22.000Z</time>
      </trkpt>
      <trkpt lat="43.57232" lon="3.78787">
        <ele>81</ele>
        <time>2013-07-26T07:29:23.000Z</time>
      </trkpt>
      <trkpt lat="43.57236" lon="3.78792">
        <ele>80.8</ele>
        <time>2013-07-26T07:29:24.000Z</time>
      </trkpt>
      <trkpt lat="43.57238" lon="3.78797">
        <ele>80.9</ele>
        <time>2013-07-26T07:29:25.000Z</time>
      </trkpt>
      <trkpt lat="43.57241" lon="3.78802">
        <ele>80.4</ele>
        <time>2013-07-26T07:29:26.000Z</time>
      </trkpt>
      <trkpt lat="43.57245" lon="3.78807">
        <ele>80.1</ele>
        <time>2013-07-26T07:29:27.000Z</time>
      </trkpt>
      <trkpt lat="43.57249" lon="3.78813">
        <ele>81.3</ele>
        <time>2013-07-26T07:29:28.000Z</time>
      </trkpt>
      <trkpt lat="43.57252" lon="3.78817">
        <ele>81.6</ele>
        <time>2013-07-26T07:29:29.000Z</time>
      </trkpt>
      <trkpt lat="43.57255" lon="3.78823">
        <ele>81.8</ele>
        <time>2013-07-26T07:29:30.000Z</time>
      </trkpt>
      <trkpt lat="43.57258" lon="3.78828">
        <ele>81.9</ele>
        <time>2013-07-26T07:29:31.000Z</time>
      </trkpt>
      <trkpt lat="43.57261" lon="3.78833">
        <ele>82.2</ele>
        <time>2013-07-26T07:29:32.000Z</time>
      </trkpt>
      <trkpt lat="43.57265" lon="3.78837">
        <ele>82.2</ele>
        <time>2013-07-26T07:29:33.000Z</time>
      </trkpt>
      <trkpt lat="43.57268" lon="3.78841">
        <ele>83.5</ele>
        <time>2013-07-26T07:29:34.000Z</time>
      </trkpt>
      <trkpt lat="43.57271" lon="3.78847">
        <ele>83</ele>
        <time>2013-07-26T07:29:35.000Z</time>
      </trkpt>
      <trkpt lat="43.57275" lon="3.78851">
        <ele>82</ele>
        <time>2013-07-26T07:29:36.000Z</time>
      </trkpt>
      <trkpt lat="43.57278" lon="3.78856">
        <ele>81.9</ele>
        <time>2013-07-26T07:29:37.000Z</time>
      </trkpt>
      <trkpt lat="43.57281" lon="3.78862">
        <ele>82</ele>
        <time>2013-07-26T07:29:38.000Z</time>
      </trkpt>
      <trkpt lat="43.57284" lon="3.78867">
        <ele>82.5</ele>
        <time>2013-07-26T07:29:39.000Z</time>
      </trkpt>
      <trkpt lat="43.57287" lon="3.78872">
        <ele>82.3</ele>
        <time>2013-07-26T07:29:40.000Z</time>
      </trkpt>
      <trkpt lat="43.5729" lon="3.78877">
        <ele>82.5</ele>
        <time>2013-07-26T07:29:41.000Z</time>
      </trkpt>
      <trkpt lat="43.57293" lon="3.78882">
        <ele>82.8</ele>
        <time>2013-07-26T07:29:42.000Z</time>
      </trkpt>
      <trkpt lat="43.57296" lon="3.78888">
        <ele>82.8</ele>
        <time>2013-07-26T07:29:43.000Z</time>
      </trkpt>
      <trkpt lat="43.573" lon="3.78892">
        <ele>83.2</ele>
        <time>2013-07-26T07:29:44.000Z</time>
      </trkpt>
      <trkpt lat="43.57303" lon="3.78897">
        <ele>83.7</ele>
        <time>2013-07-26T07:29:45.000Z</time>
      </trkpt>
      <trkpt lat="43.57306" lon="3.78903">
        <ele>83.7</ele>
        <time>2013-07-26T07:29:46.000Z</time>
      </trkpt>
      <trkpt lat="43.5731" lon="3.78908">
        <ele>83.2</ele>
        <time>2013-07-26T07:29:47.000Z</time>
      </trkpt>
      <trkpt lat="43.57313" lon="3.78913">
        <ele>83.3</ele>
        <time>2013-07-26T07:29:48.000Z</time>
      </trkpt>
      <trkpt lat="43.57316" lon="3.78918">
        <ele>83.8</ele>
        <time>2013-07-26T07:29:49.000Z</time>
      </trkpt>
      <trkpt lat="43.5732" lon="3.78923">
        <ele>83.5</ele>
        <time>2013-07-26T07:29:50.000Z</time>
      </trkpt>
      <trkpt lat="43.57324" lon="3.78928">
        <ele>83.3</ele>
        <time>2013-07-26T07:29:51.000Z</time>
      </trkpt>
      <trkpt lat="43.57328" lon="3.78932">
        <ele>83.4</ele>
        <time>2013-07-26T07:29:52.000Z</time>
      </trkpt>
      <trkpt lat="43.57331" lon="3.78937">
        <ele>82.6</ele>
        <time>2013-07-26T07:29:53.000Z</time>
      </trkpt>
      <trkpt lat="43.57334" lon="3.78942">
        <ele>82.1</ele>
        <time>2013-07-26T07:29:54.000Z</time>
      </trkpt>
      <trkpt lat="43.57338" lon="3.78947">
        <ele>82.7</ele>
        <time>2013-07-26T07:29:55.000Z</time>
      </trkpt>
      <trkpt lat="43.57341" lon="3.78953">
        <ele>83.1</ele>
        <time>2013-07-26T07:29:56.000Z</time>
      </trkpt>
      <trkpt lat="43.57344" lon="3.78957">
        <ele>83</ele>
        <time>2013-07-26T07:29:57.000Z</time>
      </trkpt>
      <trkpt lat="43.57347" lon="3.78961">
        <ele>83.1</ele>
        <time>2013-07-26T07:29:58.000Z</time>
      </trkpt>
      <trkpt lat="43.5735" lon="3.78966">
        <ele>82.7</ele>
        <time>2013-07-26T07:29:59.000Z</time>
      </trkpt>
      <trkpt lat="43.57353" lon="3.78971">
        <ele>82.6</ele>
        <time>2013-07-26T07:30:00.000Z</time>
      </trkpt>
      <trkpt lat="43.57356" lon="3.78976">
        <ele>82.5</ele>
        <time>2013-07-26T07:30:01.000Z</time>
      </trkpt>
      <trkpt lat="43.57358" lon="3.7898">
        <ele>82.3</ele>
        <time>2013-07-26T07:30:02.000Z</time>
      </trkpt>
      <trkpt lat="43.57362" lon="3.78984">
        <ele>81.9</ele>
        <time>2013-07-26T07:30:03.000Z</time>
      </trkpt>
      <trkpt lat="43.57366" lon="3.78989">
        <ele>81</ele>
        <time>2013-07-26T07:30:04.000Z</time>
      </trkpt>
      <trkpt lat="43.57368" lon="3.78994">
        <ele>81.4</ele>
        <time>2013-07-26T07:30:05.000Z</time>
      </trkpt>
      <trkpt lat="43.57372" lon="3.79">
        <ele>80.9</ele>
        <time>2013-07-26T07:30:06.000Z</time>
      </trkpt>
      <trkpt lat="43.57375" lon="3.79005">
        <ele>81.1</ele>
        <time>2013-07-26T07:30:07.000Z</time>
      </trkpt>
      <trkpt lat="43.57378" lon="3.79011">
        <ele>81.6</ele>
        <time>2013-07-26T07:30:08.000Z</time>
      </trkpt>
      <trkpt lat="43.57382" lon="3.79016">
        <ele>81.5</ele>
        <time>2013-07-26T07:30:09.000Z</time>
      </trkpt>
      <trkpt lat="43.57385" lon="3.79022">
        <ele>81.7</ele>
        <time>2013-07-26T07:30:10.000Z</time>
      </trkpt>
      <trkpt lat="43.57389" lon="3.79027">
        <ele>81.4</ele>
        <time>2013-07-26T07:30:11.000Z</time>
      </trkpt>
      <trkpt lat="43.57392" lon="3.79031">
        <ele>80.5</ele>
        <time>2013-07-26T07:30:12.000Z</time>
      </trkpt>
      <trkpt lat="43.57395" lon="3.79035">
        <ele>79.7</ele>
        <time>2013-07-26T07:30:13.000Z</time>
      </trkpt>
      <trkpt lat="43.57398" lon="3.79041">
        <ele>80.8</ele>
        <time>2013-07-26T07:30:14.000Z</time>
      </trkpt>
      <trkpt lat="43.574" lon="3.79046">
        <ele>80.7</ele>
        <time>2013-07-26T07:30:15.000Z</time>
      </trkpt>
      <trkpt lat="43.57404" lon="3.7905">
        <ele>80.6</ele>
        <time>2013-07-26T07:30:16.000Z</time>
      </trkpt>
      <trkpt lat="43.57408" lon="3.79055">
        <ele>81.1</ele>
        <time>2013-07-26T07:30:17.000Z</time>
      </trkpt>
      <trkpt lat="43.57411" lon="3.7906">
        <ele>81.2</ele>
        <time>2013-07-26T07:30:18.000Z</time>
      </trkpt>
      <trkpt lat="43.57414" lon="3.79066">
        <ele>81.5</ele>
        <time>2013-07-26T07:30:19.000Z</time>
      </trkpt>
      <trkpt lat="43.57417" lon="3.79072">
        <ele>81.4</ele>
        <time>2013-07-26T07:30:20.000Z</time>
      </trkpt>
      <trkpt lat="43.57422" lon="3.79077">
        <ele>80.7</ele>
        <time>2013-07-26T07:30:21.000Z</time>
      </trkpt>
      <trkpt lat="43.57426" lon="3.79083">
        <ele>80.1</ele>
        <time>2013-07-26T07:30:22.000Z</time>
      </trkpt>
      <trkpt lat="43.5743" lon="3.79089">
        <ele>79.1</ele>
        <time>2013-07-26T07:30:23.000Z</time>
      </trkpt>
      <trkpt lat="43.57434" lon="3.79094">
        <ele>79.8</ele>
        <time>2013-07-26T07:30:24.000Z</time>
      </trkpt>
      <trkpt lat="43.57437" lon="3.791">
        <ele>80.1</ele>
        <time>2013-07-26T07:30:25.000Z</time>
      </trkpt>
      <trkpt lat="43.57441" lon="3.79106">
        <ele>79.9</ele>
        <time>2013-07-26T07:30:26.000Z</time>
      </trkpt>
      <trkpt lat="43.57444" lon="3.79112">
        <ele>80.3</ele>
        <time>2013-07-26T07:30:27.000Z</time>
      </trkpt>
      <trkpt lat="43.57447" lon="3.79117">
        <ele>80.9</ele>
        <time>2013-07-26T07:30:28.000Z</time>
      </trkpt>
      <trkpt lat="43.57451" lon="3.79122">
        <ele>81.4</ele>
        <time>2013-07-26T07:30:29.000Z</time>
      </trkpt>
      <trkpt lat="43.57455" lon="3.79128">
        <ele>81.2</ele>
        <time>2013-07-26T07:30:30.000Z</time>
      </trkpt>
      <trkpt lat="43.57458" lon="3.79133">
        <ele>80.8</ele>
        <time>2013-07-26T07:30:31.000Z</time>
      </trkpt>
      <trkpt lat="43.57462" lon="3.79138">
        <ele>81.4</ele>
        <time>2013-07-26T07:30:32.000Z</time>
      </trkpt>
      <trkpt lat="43.57465" lon="3.79144">
        <ele>81.3</ele>
        <time>2013-07-26T07:30:33.000Z</time>
      </trkpt>
      <trkpt lat="43.57468" lon="3.79149">
        <ele>81.9</ele>
        <time>2013-07-26T07:30:34.000Z</time>
      </trkpt>
      <trkpt lat="43.57471" lon="3.79155">
        <ele>82.1</ele>
        <time>2013-07-26T07:30:35.000Z</time>
      </trkpt>
      <trkpt lat="43.57474" lon="3.7916">
        <ele>81.7</ele>
        <time>2013-07-26T07:30:36.000Z</time>
      </trkpt>
      <trkpt lat="43.57478" lon="3.79165">
        <ele>81.3</ele>
        <time>2013-07-26T07:30:37.000Z</time>
      </trkpt>
      <trkpt lat="43.57481" lon="3.7917">
        <ele>81.7</ele>
        <time>2013-07-26T07:30:38.000Z</time>
      </trkpt>
      <trkpt lat="43.57484" lon="3.79175">
        <ele>81.8</ele>
        <time>2013-07-26T07:30:39.000Z</time>
      </trkpt>
      <trkpt lat="43.57487" lon="3.79181">
        <ele>81.8</ele>
        <time>2013-07-26T07:30:40.000Z</time>
      </trkpt>
      <trkpt lat="43.5749" lon="3.79186">
        <ele>82.2</ele>
        <time>2013-07-26T07:30:41.000Z</time>
      </trkpt>
      <trkpt lat="43.57493" lon="3.79191">
        <ele>82.1</ele>
        <time>2013-07-26T07:30:42.000Z</time>
      </trkpt>
      <trkpt lat="43.57497" lon="3.79196">
        <ele>82.6</ele>
        <time>2013-07-26T07:30:43.000Z</time>
      </trkpt>
      <trkpt lat="43.57501" lon="3.79202">
        <ele>82.5</ele>
        <time>2013-07-26T07:30:44.000Z</time>
      </trkpt>
      <trkpt lat="43.57505" lon="3.79206">
        <ele>82.6</ele>
        <time>2013-07-26T07:30:45.000Z</time>
      </trkpt>
      <trkpt lat="43.57508" lon="3.79212">
        <ele>82.8</ele>
        <time>2013-07-26T07:30:46.000Z</time>
      </trkpt>
      <trkpt lat="43.57512" lon="3.79217">
        <ele>82.4</ele>
        <time>2013-07-26T07:30:47.000Z</time>
      </trkpt>
      <trkpt lat="43.57516" lon="3.79222">
        <ele>82.6</ele>
        <time>2013-07-26T07:30:48.000Z</time>
      </trkpt>
      <trkpt lat="43.57519" lon="3.79226">
        <ele>82.5</ele>
        <time>2013-07-26T07:30:49.000Z</time>
      </trkpt>
      <trkpt lat="43.57522" lon="3.79231">
        <ele>83</ele>
        <time>2013-07-26T07:30:50.000Z</time>
      </trkpt>
      <trkpt lat="43.57526" lon="3.79236">
        <ele>83.7</ele>
        <time>2013-07-26T07:30:51.000Z</time>
      </trkpt>
      <trkpt lat="43.5753" lon="3.79242">
        <ele>84.2</ele>
        <time>2013-07-26T07:30:52.000Z</time>
      </trkpt>
      <trkpt lat="43.57533" lon="3.79246">
        <ele>84.3</ele>
        <time>2013-07-26T07:30:53.000Z</time>
      </trkpt>
      <trkpt lat="43.57536" lon="3.7925">
        <ele>84.6</ele>
        <time>2013-07-26T07:30:54.000Z</time>
      </trkpt>
      <trkpt lat="43.57539" lon="3.79255">
        <ele>85.3</ele>
        <time>2013-07-26T07:30:55.000Z</time>
      </trkpt>
      <trkpt lat="43.57542" lon="3.79261">
        <ele>85.5</ele>
        <time>2013-07-26T07:30:56.000Z</time>
      </trkpt>
      <trkpt lat="43.57546" lon="3.79265">
        <ele>85.4</ele>
        <time>2013-07-26T07:30:57.000Z</time>
      </trkpt>
      <trkpt lat="43.57549" lon="3.7927">
        <ele>85</ele>
        <time>2013-07-26T07:30:58.000Z</time>
      </trkpt>
      <trkpt lat="43.57552" lon="3.79274">
        <ele>84.1</ele>
        <time>2013-07-26T07:30:59.000Z</time>
      </trkpt>
      <trkpt lat="43.57555" lon="3.7928">
        <ele>83.9</ele>
        <time>2013-07-26T07:31:00.000Z</time>
      </trkpt>
      <trkpt lat="43.57558" lon="3.79284">
        <ele>83.4</ele>
        <time>2013-07-26T07:31:01.000Z</time>
      </trkpt>
      <trkpt lat="43.57562" lon="3.79288">
        <ele>83.2</ele>
        <time>2013-07-26T07:31:02.000Z</time>
      </trkpt>
      <trkpt lat="43.57565" lon="3.79294">
        <ele>83.9</ele>
        <time>2013-07-26T07:31:03.000Z</time>
      </trkpt>
      <trkpt lat="43.57569" lon="3.79299">
        <ele>84.8</ele>
        <time>2013-07-26T07:31:04.000Z</time>
      </trkpt>
      <trkpt lat="43.57573" lon="3.79304">
        <ele>84.8</ele>
        <time>2013-07-26T07:31:05.000Z</time>
      </trkpt>
      <trkpt lat="43.57576" lon="3.79308">
        <ele>84.9</ele>
        <time>2013-07-26T07:31:06.000Z</time>
      </trkpt>
      <trkpt lat="43.5758" lon="3.79314">
        <ele>84.4</ele>
        <time>2013-07-26T07:31:07.000Z</time>
      </trkpt>
      <trkpt lat="43.57584" lon="3.79319">
        <ele>83.3</ele>
        <time>2013-07-26T07:31:08.000Z</time>
      </trkpt>
      <trkpt lat="43.57587" lon="3.79326">
        <ele>83.9</ele>
        <time>2013-07-26T07:31:09.000Z</time>
      </trkpt>
      <trkpt lat="43.57591" lon="3.79332">
        <ele>84.2</ele>
        <time>2013-07-26T07:31:10.000Z</time>
      </trkpt>
      <trkpt lat="43.57594" lon="3.79337">
        <ele>84.3</ele>
        <time>2013-07-26T07:31:11.000Z</time>
      </trkpt>
      <trkpt lat="43.57597" lon="3.79341">
        <ele>83.7</ele>
        <time>2013-07-26T07:31:12.000Z</time>
      </trkpt>
      <trkpt lat="43.57601" lon="3.79347">
        <ele>83.5</ele>
        <time>2013-07-26T07:31:13.000Z</time>
      </trkpt>
      <trkpt lat="43.57605" lon="3.79353">
        <ele>84</ele>
        <time>2013-07-26T07:31:14.000Z</time>
      </trkpt>
      <trkpt lat="43.57608" lon="3.79358">
        <ele>83.9</ele>
        <time>2013-07-26T07:31:15.000Z</time>
      </trkpt>
      <trkpt lat="43.57612" lon="3.79364">
        <ele>83.2</ele>
        <time>2013-07-26T07:31:16.000Z</time>
      </trkpt>
      <trkpt lat="43.57616" lon="3.7937">
        <ele>83.4</ele>
        <time>2013-07-26T07:31:17.000Z</time>
      </trkpt>
      <trkpt lat="43.5762" lon="3.79376">
        <ele>83.8</ele>
        <time>2013-07-26T07:31:18.000Z</time>
      </trkpt>
      <trkpt lat="43.57623" lon="3.79382">
        <ele>82.9</ele>
        <time>2013-07-26T07:31:19.000Z</time>
      </trkpt>
      <trkpt lat="43.57626" lon="3.79387">
        <ele>82.3</ele>
        <time>2013-07-26T07:31:20.000Z</time>
      </trkpt>
      <trkpt lat="43.5763" lon="3.79393">
        <ele>81.9</ele>
        <time>2013-07-26T07:31:21.000Z</time>
      </trkpt>
      <trkpt lat="43.57633" lon="3.79398">
        <ele>82.2</ele>
        <time>2013-07-26T07:31:22.000Z</time>
      </trkpt>
      <trkpt lat="43.57637" lon="3.79405">
        <ele>82.8</ele>
        <time>2013-07-26T07:31:23.000Z</time>
      </trkpt>
      <trkpt lat="43.5764" lon="3.79411">
        <ele>82.3</ele>
        <time>2013-07-26T07:31:24.000Z</time>
      </trkpt>
      <trkpt lat="43.57644" lon="3.79417">
        <ele>82.7</ele>
        <time>2013-07-26T07:31:25.000Z</time>
      </trkpt>
      <trkpt lat="43.57648" lon="3.79423">
        <ele>82.6</ele>
        <time>2013-07-26T07:31:26.000Z</time>
      </trkpt>
      <trkpt lat="43.57652" lon="3.79429">
        <ele>82.6</ele>
        <time>2013-07-26T07:31:27.000Z</time>
      </trkpt>
      <trkpt lat="43.57656" lon="3.79435">
        <ele>84.7</ele>
        <time>2013-07-26T07:31:28.000Z</time>
      </trkpt>
      <trkpt lat="43.5766" lon="3.79441">
        <ele>85</ele>
        <time>2013-07-26T07:31:29.000Z</time>
      </trkpt>
      <trkpt lat="43.57663" lon="3.79447">
        <ele>84.2</ele>
        <time>2013-07-26T07:31:30.000Z</time>
      </trkpt>
      <trkpt lat="43.57667" lon="3.79453">
        <ele>83.9</ele>
        <time>2013-07-26T07:31:31.000Z</time>
      </trkpt>
      <trkpt lat="43.57671" lon="3.7946">
        <ele>83.6</ele>
        <time>2013-07-26T07:31:32.000Z</time>
      </trkpt>
      <trkpt lat="43.57675" lon="3.79466">
        <ele>84</ele>
        <time>2013-07-26T07:31:33.000Z</time>
      </trkpt>
      <trkpt lat="43.5768" lon="3.79473">
        <ele>84.6</ele>
        <time>2013-07-26T07:31:34.000Z</time>
      </trkpt>
      <trkpt lat="43.57683" lon="3.7948">
        <ele>84.3</ele>
        <time>2013-07-26T07:31:35.000Z</time>
      </trkpt>
      <trkpt lat="43.57687" lon="3.79486">
        <ele>84.5</ele>
        <time>2013-07-26T07:31:36.000Z</time>
      </trkpt>
      <trkpt lat="43.57691" lon="3.79494">
        <ele>84.9</ele>
        <time>2013-07-26T07:31:37.000Z</time>
      </trkpt>
      <trkpt lat="43.57696" lon="3.79501">
        <ele>84.7</ele>
        <time>2013-07-26T07:31:38.000Z</time>
      </trkpt>
      <trkpt lat="43.57701" lon="3.79507">
        <ele>84.7</ele>
        <time>2013-07-26T07:31:39.000Z</time>
      </trkpt>
      <trkpt lat="43.57704" lon="3.79512">
        <ele>83.9</ele>
        <time>2013-07-26T07:31:40.000Z</time>
      </trkpt>
      <trkpt lat="43.57709" lon="3.79518">
        <ele>82.9</ele>
        <time>2013-07-26T07:31:41.000Z</time>
      </trkpt>
      <trkpt lat="43.57713" lon="3.79525">
        <ele>82.9</ele>
        <time>2013-07-26T07:31:42.000Z</time>
      </trkpt>
      <trkpt lat="43.57716" lon="3.79531">
        <ele>82.8</ele>
        <time>2013-07-26T07:31:43.000Z</time>
      </trkpt>
      <trkpt lat="43.57721" lon="3.79537">
        <ele>83</ele>
        <time>2013-07-26T07:31:44.000Z</time>
      </trkpt>
      <trkpt lat="43.57725" lon="3.79543">
        <ele>82.5</ele>
        <time>2013-07-26T07:31:45.000Z</time>
      </trkpt>
      <trkpt lat="43.57729" lon="3.7955">
        <ele>81.8</ele>
        <time>2013-07-26T07:31:46.000Z</time>
      </trkpt>
      <trkpt lat="43.57733" lon="3.79558">
        <ele>82.4</ele>
        <time>2013-07-26T07:31:47.000Z</time>
      </trkpt>
      <trkpt lat="43.57737" lon="3.79564">
        <ele>82.7</ele>
        <time>2013-07-26T07:31:48.000Z</time>
      </trkpt>
      <trkpt lat="43.5774" lon="3.79571">
        <ele>82.6</ele>
        <time>2013-07-26T07:31:49.000Z</time>
      </trkpt>
      <trkpt lat="43.57744" lon="3.79578">
        <ele>82.4</ele>
        <time>2013-07-26T07:31:50.000Z</time>
      </trkpt>
      <trkpt lat="43.57749" lon="3.79584">
        <ele>83.8</ele>
        <time>2013-07-26T07:31:51.000Z</time>
      </trkpt>
      <trkpt lat="43.57753" lon="3.79591">
        <ele>84.2</ele>
        <time>2013-07-26T07:31:52.000Z</time>
      </trkpt>
      <trkpt lat="43.57757" lon="3.79597">
        <ele>84</ele>
        <time>2013-07-26T07:31:53.000Z</time>
      </trkpt>
      <trkpt lat="43.5776" lon="3.79604">
        <ele>83.8</ele>
        <time>2013-07-26T07:31:54.000Z</time>
      </trkpt>
      <trkpt lat="43.57763" lon="3.79611">
        <ele>82.8</ele>
        <time>2013-07-26T07:31:55.000Z</time>
      </trkpt>
      <trkpt lat="43.57766" lon="3.79617">
        <ele>82.5</ele>
        <time>2013-07-26T07:31:56.000Z</time>
      </trkpt>
      <trkpt lat="43.5777" lon="3.79624">
        <ele>82.7</ele>
        <time>2013-07-26T07:31:57.000Z</time>
      </trkpt>
      <trkpt lat="43.57774" lon="3.79631">
        <ele>83.3</ele>
        <time>2013-07-26T07:31:58.000Z</time>
      </trkpt>
      <trkpt lat="43.57776" lon="3.79638">
        <ele>81.6</ele>
        <time>2013-07-26T07:31:59.000Z</time>
      </trkpt>
      <trkpt lat="43.57779" lon="3.79644">
        <ele>80.7</ele>
        <time>2013-07-26T07:32:00.000Z</time>
      </trkpt>
      <trkpt lat="43.57786" lon="3.79652">
        <ele>81.8</ele>
        <time>2013-07-26T07:32:01.000Z</time>
      </trkpt>
      <trkpt lat="43.57792" lon="3.79659">
        <ele>82.4</ele>
        <time>2013-07-26T07:32:02.000Z</time>
      </trkpt>
      <trkpt lat="43.57798" lon="3.79666">
        <ele>82.9</ele>
        <time>2013-07-26T07:32:03.000Z</time>
      </trkpt>
      <trkpt lat="43.578" lon="3.79673">
        <ele>82.7</ele>
        <time>2013-07-26T07:32:04.000Z</time>
      </trkpt>
      <trkpt lat="43.57803" lon="3.79679">
        <ele>81.8</ele>
        <time>2013-07-26T07:32:05.000Z</time>
      </trkpt>
      <trkpt lat="43.57806" lon="3.79688">
        <ele>80.5</ele>
        <time>2013-07-26T07:32:06.000Z</time>
      </trkpt>
      <trkpt lat="43.5781" lon="3.79696">
        <ele>79.3</ele>
        <time>2013-07-26T07:32:07.000Z</time>
      </trkpt>
      <trkpt lat="43.57813" lon="3.79703">
        <ele>79.5</ele>
        <time>2013-07-26T07:32:08.000Z</time>
      </trkpt>
      <trkpt lat="43.57816" lon="3.7971">
        <ele>78.8</ele>
        <time>2013-07-26T07:32:09.000Z</time>
      </trkpt>
      <trkpt lat="43.57818" lon="3.79716">
        <ele>77.4</ele>
        <time>2013-07-26T07:32:10.000Z</time>
      </trkpt>
      <trkpt lat="43.57819" lon="3.79723">
        <ele>76.2</ele>
        <time>2013-07-26T07:32:11.000Z</time>
      </trkpt>
      <trkpt lat="43.57823" lon="3.7973">
        <ele>77</ele>
        <time>2013-07-26T07:32:12.000Z</time>
      </trkpt>
      <trkpt lat="43.57826" lon="3.79736">
        <ele>76.4</ele>
        <time>2013-07-26T07:32:13.000Z</time>
      </trkpt>
      <trkpt lat="43.5783" lon="3.79742">
        <ele>75.8</ele>
        <time>2013-07-26T07:32:14.000Z</time>
      </trkpt>
      <trkpt lat="43.57833" lon="3.79748">
        <ele>76</ele>
        <time>2013-07-26T07:32:15.000Z</time>
      </trkpt>
      <trkpt lat="43.57836" lon="3.79755">
        <ele>77</ele>
        <time>2013-07-26T07:32:16.000Z</time>
      </trkpt>
      <trkpt lat="43.57839" lon="3.79761">
        <ele>78</ele>
        <time>2013-07-26T07:32:17.000Z</time>
      </trkpt>
      <trkpt lat="43.57843" lon="3.79767">
        <ele>77.8</ele>
        <time>2013-07-26T07:32:18.000Z</time>
      </trkpt>
      <trkpt lat="43.57846" lon="3.79773">
        <ele>77.3</ele>
        <time>2013-07-26T07:32:19.000Z</time>
      </trkpt>
      <trkpt lat="43.5785" lon="3.79778">
        <ele>76.8</ele>
        <time>2013-07-26T07:32:20.000Z</time>
      </trkpt>
      <trkpt lat="43.57855" lon="3.79783">
        <ele>77.5</ele>
        <time>2013-07-26T07:32:21.000Z</time>
      </trkpt>
      <trkpt lat="43.57859" lon="3.79789">
        <ele>78</ele>
        <time>2013-07-26T07:32:22.000Z</time>
      </trkpt>
      <trkpt lat="43.57863" lon="3.79794">
        <ele>78.2</ele>
        <time>2013-07-26T07:32:23.000Z</time>
      </trkpt>
      <trkpt lat="43.57866" lon="3.79799">
        <ele>77.8</ele>
        <time>2013-07-26T07:32:24.000Z</time>
      </trkpt>
      <trkpt lat="43.5787" lon="3.79804">
        <ele>78</ele>
        <time>2013-07-26T07:32:25.000Z</time>
      </trkpt>
      <trkpt lat="43.57874" lon="3.79808">
        <ele>79.3</ele>
        <time>2013-07-26T07:32:26.000Z</time>
      </trkpt>
      <trkpt lat="43.57878" lon="3.79813">
        <ele>79.6</ele>
        <time>2013-07-26T07:32:27.000Z</time>
      </trkpt>
      <trkpt lat="43.57882" lon="3.79817">
        <ele>78.8</ele>
        <time>2013-07-26T07:32:28.000Z</time>
      </trkpt>
      <trkpt lat="43.57886" lon="3.79822">
        <ele>78.9</ele>
        <time>2013-07-26T07:32:29.000Z</time>
      </trkpt>
      <trkpt lat="43.5789" lon="3.79826">
        <ele>79</ele>
        <time>2013-07-26T07:32:30.000Z</time>
      </trkpt>
      <trkpt lat="43.57892" lon="3.79829">
        <ele>78.6</ele>
        <time>2013-07-26T07:32:31.000Z</time>
      </trkpt>
      <trkpt lat="43.57896" lon="3.79834">
        <ele>79.5</ele>
        <time>2013-07-26T07:32:32.000Z</time>
      </trkpt>
      <trkpt lat="43.57898" lon="3.79839">
        <ele>80.3</ele>
        <time>2013-07-26T07:32:34.000Z</time>
      </trkpt>
      <trkpt lat="43.57903" lon="3.79843">
        <ele>80.1</ele>
        <time>2013-07-26T07:32:35.000Z</time>
      </trkpt>
      <trkpt lat="43.57905" lon="3.79847">
        <ele>79.7</ele>
        <time>2013-07-26T07:32:36.000Z</time>
      </trkpt>
      <trkpt lat="43.57908" lon="3.7985">
        <ele>79</ele>
        <time>2013-07-26T07:32:37.000Z</time>
      </trkpt>
      <trkpt lat="43.57913" lon="3.79853">
        <ele>79.6</ele>
        <time>2013-07-26T07:32:38.000Z</time>
      </trkpt>
      <trkpt lat="43.57917" lon="3.79857">
        <ele>80.2</ele>
        <time>2013-07-26T07:32:39.000Z</time>
      </trkpt>
      <trkpt lat="43.57922" lon="3.79863">
        <ele>79</ele>
        <time>2013-07-26T07:32:40.000Z</time>
      </trkpt>
      <trkpt lat="43.57926" lon="3.79868">
        <ele>79.6</ele>
        <time>2013-07-26T07:32:41.000Z</time>
      </trkpt>
      <trkpt lat="43.57931" lon="3.79872">
        <ele>78.9</ele>
        <time>2013-07-26T07:32:42.000Z</time>
      </trkpt>
      <trkpt lat="43.57936" lon="3.79876">
        <ele>78.7</ele>
        <time>2013-07-26T07:32:43.000Z</time>
      </trkpt>
      <trkpt lat="43.5794" lon="3.79881">
        <ele>80.5</ele>
        <time>2013-07-26T07:32:44.000Z</time>
      </trkpt>
      <trkpt lat="43.57944" lon="3.79885">
        <ele>80.9</ele>
        <time>2013-07-26T07:32:45.000Z</time>
      </trkpt>
      <trkpt lat="43.57947" lon="3.79891">
        <ele>81.3</ele>
        <time>2013-07-26T07:32:46.000Z</time>
      </trkpt>
      <trkpt lat="43.57951" lon="3.79895">
        <ele>81</ele>
        <time>2013-07-26T07:32:47.000Z</time>
      </trkpt>
      <trkpt lat="43.57955" lon="3.79898">
        <ele>81.5</ele>
        <time>2013-07-26T07:32:48.000Z</time>
      </trkpt>
      <trkpt lat="43.57958" lon="3.79902">
        <ele>82</ele>
        <time>2013-07-26T07:32:49.000Z</time>
      </trkpt>
      <trkpt lat="43.57962" lon="3.79906">
        <ele>82.7</ele>
        <time>2013-07-26T07:32:50.000Z</time>
      </trkpt>
      <trkpt lat="43.57965" lon="3.79911">
        <ele>82.4</ele>
        <time>2013-07-26T07:32:51.000Z</time>
      </trkpt>
      <trkpt lat="43.57968" lon="3.79915">
        <ele>81.5</ele>
        <time>2013-07-26T07:32:52.000Z</time>
      </trkpt>
      <trkpt lat="43.57971" lon="3.79919">
        <ele>81.1</ele>
        <time>2013-07-26T07:32:53.000Z</time>
      </trkpt>
      <trkpt lat="43.57975" lon="3.79924">
        <ele>81.4</ele>
        <time>2013-07-26T07:32:54.000Z</time>
      </trkpt>
      <trkpt lat="43.57979" lon="3.79928">
        <ele>81.9</ele>
        <time>2013-07-26T07:32:55.000Z</time>
      </trkpt>
      <trkpt lat="43.57982" lon="3.79932">
        <ele>81.3</ele>
        <time>2013-07-26T07:32:56.000Z</time>
      </trkpt>
      <trkpt lat="43.57986" lon="3.79936">
        <ele>81.3</ele>
        <time>2013-07-26T07:32:57.000Z</time>
      </trkpt>
      <trkpt lat="43.57989" lon="3.7994">
        <ele>80.8</ele>
        <time>2013-07-26T07:32:58.000Z</time>
      </trkpt>
      <trkpt lat="43.57992" lon="3.79945">
        <ele>82</ele>
        <time>2013-07-26T07:32:59.000Z</time>
      </trkpt>
      <trkpt lat="43.57993" lon="3.79948">
        <ele>82.5</ele>
        <time>2013-07-26T07:33:00.000Z</time>
      </trkpt>
      <trkpt lat="43.57994" lon="3.79954">
        <ele>82.9</ele>
        <time>2013-07-26T07:33:01.000Z</time>
      </trkpt>
      <trkpt lat="43.57996" lon="3.79959">
        <ele>81.3</ele>
        <time>2013-07-26T07:33:02.000Z</time>
      </trkpt>
      <trkpt lat="43.57998" lon="3.79962">
        <ele>81.4</ele>
        <time>2013-07-26T07:33:03.000Z</time>
      </trkpt>
      <trkpt lat="43.58001" lon="3.79966">
        <ele>82.5</ele>
        <time>2013-07-26T07:33:04.000Z</time>
      </trkpt>
      <trkpt lat="43.58004" lon="3.79967">
        <ele>83.1</ele>
        <time>2013-07-26T07:33:05.000Z</time>
      </trkpt>
      <trkpt lat="43.58008" lon="3.79969">
        <ele>82.8</ele>
        <time>2013-07-26T07:33:06.000Z</time>
      </trkpt>
      <trkpt lat="43.58011" lon="3.7997">
        <ele>82.4</ele>
        <time>2013-07-26T07:33:07.000Z</time>
      </trkpt>
      <trkpt lat="43.58015" lon="3.79972">
        <ele>82.8</ele>
        <time>2013-07-26T07:33:08.000Z</time>
      </trkpt>
      <trkpt lat="43.58019" lon="3.79974">
        <ele>83.3</ele>
        <time>2013-07-26T07:33:09.000Z</time>
      </trkpt>
      <trkpt lat="43.58023" lon="3.79977">
        <ele>83.9</ele>
        <time>2013-07-26T07:33:10.000Z</time>
      </trkpt>
      <trkpt lat="43.58026" lon="3.79981">
        <ele>83.8</ele>
        <time>2013-07-26T07:33:11.000Z</time>
      </trkpt>
      <trkpt lat="43.5803" lon="3.79985">
        <ele>84.2</ele>
        <time>2013-07-26T07:33:12.000Z</time>
      </trkpt>
      <trkpt lat="43.58034" lon="3.79989">
        <ele>85.4</ele>
        <time>2013-07-26T07:33:13.000Z</time>
      </trkpt>
      <trkpt lat="43.58037" lon="3.79993">
        <ele>85.9</ele>
        <time>2013-07-26T07:33:14.000Z</time>
      </trkpt>
      <trkpt lat="43.5804" lon="3.79998">
        <ele>86.3</ele>
        <time>2013-07-26T07:33:15.000Z</time>
      </trkpt>
      <trkpt lat="43.58043" lon="3.80003">
        <ele>86.6</ele>
        <time>2013-07-26T07:33:16.000Z</time>
      </trkpt>
      <trkpt lat="43.58046" lon="3.80008">
        <ele>86.9</ele>
        <time>2013-07-26T07:33:17.000Z</time>
      </trkpt>
      <trkpt lat="43.58049" lon="3.80013">
        <ele>87.2</ele>
        <time>2013-07-26T07:33:18.000Z</time>
      </trkpt>
      <trkpt lat="43.58051" lon="3.80018">
        <ele>87.5</ele>
        <time>2013-07-26T07:33:19.000Z</time>
      </trkpt>
      <trkpt lat="43.58054" lon="3.80023">
        <ele>87.7</ele>
        <time>2013-07-26T07:33:20.000Z</time>
      </trkpt>
      <trkpt lat="43.58057" lon="3.80027">
        <ele>87.1</ele>
        <time>2013-07-26T07:33:21.000Z</time>
      </trkpt>
      <trkpt lat="43.58059" lon="3.80032">
        <ele>87.7</ele>
        <time>2013-07-26T07:33:22.000Z</time>
      </trkpt>
      <trkpt lat="43.58062" lon="3.80036">
        <ele>88.4</ele>
        <time>2013-07-26T07:33:23.000Z</time>
      </trkpt>
      <trkpt lat="43.58065" lon="3.80041">
        <ele>88.7</ele>
        <time>2013-07-26T07:33:24.000Z</time>
      </trkpt>
      <trkpt lat="43.58067" lon="3.80045">
        <ele>89.1</ele>
        <time>2013-07-26T07:33:25.000Z</time>
      </trkpt>
      <trkpt lat="43.5807" lon="3.80049">
        <ele>89.2</ele>
        <time>2013-07-26T07:33:26.000Z</time>
      </trkpt>
      <trkpt lat="43.58072" lon="3.80054">
        <ele>89</ele>
        <time>2013-07-26T07:33:27.000Z</time>
      </trkpt>
      <trkpt lat="43.58075" lon="3.80058">
        <ele>89.2</ele>
        <time>2013-07-26T07:33:28.000Z</time>
      </trkpt>
      <trkpt lat="43.58078" lon="3.80062">
        <ele>89.9</ele>
        <time>2013-07-26T07:33:29.000Z</time>
      </trkpt>
      <trkpt lat="43.5808" lon="3.80066">
        <ele>90</ele>
        <time>2013-07-26T07:33:30.000Z</time>
      </trkpt>
      <trkpt lat="43.58083" lon="3.8007">
        <ele>89.2</ele>
        <time>2013-07-26T07:33:31.000Z</time>
      </trkpt>
      <trkpt lat="43.58086" lon="3.80075">
        <ele>89.7</ele>
        <time>2013-07-26T07:33:32.000Z</time>
      </trkpt>
      <trkpt lat="43.58089" lon="3.80079">
        <ele>89.9</ele>
        <time>2013-07-26T07:33:33.000Z</time>
      </trkpt>
      <trkpt lat="43.58092" lon="3.80083">
        <ele>89.7</ele>
        <time>2013-07-26T07:33:34.000Z</time>
      </trkpt>
      <trkpt lat="43.58095" lon="3.80086">
        <ele>90.3</ele>
        <time>2013-07-26T07:33:35.000Z</time>
      </trkpt>
      <trkpt lat="43.58098" lon="3.80091">
        <ele>90.4</ele>
        <time>2013-07-26T07:33:36.000Z</time>
      </trkpt>
      <trkpt lat="43.58101" lon="3.80095">
        <ele>91</ele>
        <time>2013-07-26T07:33:37.000Z</time>
      </trkpt>
      <trkpt lat="43.58105" lon="3.80098">
        <ele>90.5</ele>
        <time>2013-07-26T07:33:38.000Z</time>
      </trkpt>
      <trkpt lat="43.58108" lon="3.80102">
        <ele>90.1</ele>
        <time>2013-07-26T07:33:39.000Z</time>
      </trkpt>
      <trkpt lat="43.58112" lon="3.80106">
        <ele>90.1</ele>
        <time>2013-07-26T07:33:40.000Z</time>
      </trkpt>
      <trkpt lat="43.58116" lon="3.80109">
        <ele>90</ele>
        <time>2013-07-26T07:33:41.000Z</time>
      </trkpt>
      <trkpt lat="43.5812" lon="3.80111">
        <ele>90.4</ele>
        <time>2013-07-26T07:33:42.000Z</time>
      </trkpt>
      <trkpt lat="43.58124" lon="3.80112">
        <ele>90.4</ele>
        <time>2013-07-26T07:33:43.000Z</time>
      </trkpt>
      <trkpt lat="43.58128" lon="3.80114">
        <ele>91.3</ele>
        <time>2013-07-26T07:33:44.000Z</time>
      </trkpt>
      <trkpt lat="43.58132" lon="3.80117">
        <ele>90.5</ele>
        <time>2013-07-26T07:33:45.000Z</time>
      </trkpt>
      <trkpt lat="43.58135" lon="3.80119">
        <ele>89.9</ele>
        <time>2013-07-26T07:33:46.000Z</time>
      </trkpt>
      <trkpt lat="43.58139" lon="3.80119">
        <ele>89.3</ele>
        <time>2013-07-26T07:33:47.000Z</time>
      </trkpt>
      <trkpt lat="43.58143" lon="3.80119">
        <ele>89.1</ele>
        <time>2013-07-26T07:33:48.000Z</time>
      </trkpt>
      <trkpt lat="43.58148" lon="3.80121">
        <ele>88.7</ele>
        <time>2013-07-26T07:33:49.000Z</time>
      </trkpt>
      <trkpt lat="43.58153" lon="3.80122">
        <ele>88.4</ele>
        <time>2013-07-26T07:33:50.000Z</time>
      </trkpt>
      <trkpt lat="43.58158" lon="3.80122">
        <ele>88</ele>
        <time>2013-07-26T07:33:51.000Z</time>
      </trkpt>
      <trkpt lat="43.58163" lon="3.80125">
        <ele>87.1</ele>
        <time>2013-07-26T07:33:52.000Z</time>
      </trkpt>
      <trkpt lat="43.58169" lon="3.80127">
        <ele>87.1</ele>
        <time>2013-07-26T07:33:53.000Z</time>
      </trkpt>
      <trkpt lat="43.58176" lon="3.80129">
        <ele>87.6</ele>
        <time>2013-07-26T07:33:54.000Z</time>
      </trkpt>
      <trkpt lat="43.5818" lon="3.80131">
        <ele>86.7</ele>
        <time>2013-07-26T07:33:55.000Z</time>
      </trkpt>
      <trkpt lat="43.58185" lon="3.8013">
        <ele>86.5</ele>
        <time>2013-07-26T07:33:56.000Z</time>
      </trkpt>
      <trkpt lat="43.5819" lon="3.80131">
        <ele>86.3</ele>
        <time>2013-07-26T07:33:57.000Z</time>
      </trkpt>
      <trkpt lat="43.58194" lon="3.80131">
        <ele>86</ele>
        <time>2013-07-26T07:33:58.000Z</time>
      </trkpt>
      <trkpt lat="43.582" lon="3.80131">
        <ele>86.1</ele>
        <time>2013-07-26T07:33:59.000Z</time>
      </trkpt>
      <trkpt lat="43.58205" lon="3.80132">
        <ele>84.8</ele>
        <time>2013-07-26T07:34:00.000Z</time>
      </trkpt>
      <trkpt lat="43.5821" lon="3.80133">
        <ele>84.4</ele>
        <time>2013-07-26T07:34:01.000Z</time>
      </trkpt>
      <trkpt lat="43.58215" lon="3.80132">
        <ele>84.7</ele>
        <time>2013-07-26T07:34:02.000Z</time>
      </trkpt>
      <trkpt lat="43.58221" lon="3.80133">
        <ele>83.5</ele>
        <time>2013-07-26T07:34:03.000Z</time>
      </trkpt>
      <trkpt lat="43.58226" lon="3.80134">
        <ele>83.3</ele>
        <time>2013-07-26T07:34:04.000Z</time>
      </trkpt>
      <trkpt lat="43.58231" lon="3.80135">
        <ele>83.4</ele>
        <time>2013-07-26T07:34:05.000Z</time>
      </trkpt>
      <trkpt lat="43.58237" lon="3.80136">
        <ele>82.7</ele>
        <time>2013-07-26T07:34:06.000Z</time>
      </trkpt>
      <trkpt lat="43.58243" lon="3.80137">
        <ele>82.6</ele>
        <time>2013-07-26T07:34:07.000Z</time>
      </trkpt>
      <trkpt lat="43.58249" lon="3.80137">
        <ele>82.1</ele>
        <time>2013-07-26T07:34:08.000Z</time>
      </trkpt>
      <trkpt lat="43.58254" lon="3.80139">
        <ele>82.2</ele>
        <time>2013-07-26T07:34:09.000Z</time>
      </trkpt>
      <trkpt lat="43.58259" lon="3.8014">
        <ele>81.8</ele>
        <time>2013-07-26T07:34:10.000Z</time>
      </trkpt>
      <trkpt lat="43.58266" lon="3.80141">
        <ele>81.3</ele>
        <time>2013-07-26T07:34:11.000Z</time>
      </trkpt>
      <trkpt lat="43.58271" lon="3.80142">
        <ele>81.6</ele>
        <time>2013-07-26T07:34:12.000Z</time>
      </trkpt>
      <trkpt lat="43.58277" lon="3.80143">
        <ele>81.2</ele>
        <time>2013-07-26T07:34:13.000Z</time>
      </trkpt>
      <trkpt lat="43.58282" lon="3.80142">
        <ele>81.1</ele>
        <time>2013-07-26T07:34:14.000Z</time>
      </trkpt>
      <trkpt lat="43.58288" lon="3.80144">
        <ele>80.7</ele>
        <time>2013-07-26T07:34:15.000Z</time>
      </trkpt>
      <trkpt lat="43.58293" lon="3.80145">
        <ele>80.2</ele>
        <time>2013-07-26T07:34:16.000Z</time>
      </trkpt>
      <trkpt lat="43.58298" lon="3.80145">
        <ele>80.2</ele>
        <time>2013-07-26T07:34:17.000Z</time>
      </trkpt>
      <trkpt lat="43.58303" lon="3.80146">
        <ele>80.7</ele>
        <time>2013-07-26T07:34:18.000Z</time>
      </trkpt>
      <trkpt lat="43.58308" lon="3.80147">
        <ele>80.4</ele>
        <time>2013-07-26T07:34:19.000Z</time>
      </trkpt>
      <trkpt lat="43.58314" lon="3.80149">
        <ele>79.7</ele>
        <time>2013-07-26T07:34:20.000Z</time>
      </trkpt>
      <trkpt lat="43.5832" lon="3.80149">
        <ele>79.1</ele>
        <time>2013-07-26T07:34:21.000Z</time>
      </trkpt>
      <trkpt lat="43.58325" lon="3.80149">
        <ele>78.5</ele>
        <time>2013-07-26T07:34:22.000Z</time>
      </trkpt>
      <trkpt lat="43.58329" lon="3.80151">
        <ele>78.6</ele>
        <time>2013-07-26T07:34:23.000Z</time>
      </trkpt>
      <trkpt lat="43.58334" lon="3.80152">
        <ele>78.4</ele>
        <time>2013-07-26T07:34:24.000Z</time>
      </trkpt>
      <trkpt lat="43.58342" lon="3.80151">
        <ele>79.3</ele>
        <time>2013-07-26T07:34:25.000Z</time>
      </trkpt>
      <trkpt lat="43.58348" lon="3.80154">
        <ele>79.9</ele>
        <time>2013-07-26T07:34:26.000Z</time>
      </trkpt>
      <trkpt lat="43.58353" lon="3.80153">
        <ele>80.1</ele>
        <time>2013-07-26T07:34:27.000Z</time>
      </trkpt>
      <trkpt lat="43.58358" lon="3.80151">
        <ele>80</ele>
        <time>2013-07-26T07:34:28.000Z</time>
      </trkpt>
      <trkpt lat="43.58363" lon="3.8015">
        <ele>80.2</ele>
        <time>2013-07-26T07:34:29.000Z</time>
      </trkpt>
      <trkpt lat="43.58369" lon="3.80154">
        <ele>81.4</ele>
        <time>2013-07-26T07:34:30.000Z</time>
      </trkpt>
      <trkpt lat="43.58374" lon="3.80156">
        <ele>81.6</ele>
        <time>2013-07-26T07:34:31.000Z</time>
      </trkpt>
      <trkpt lat="43.58378" lon="3.80158">
        <ele>80.7</ele>
        <time>2013-07-26T07:34:32.000Z</time>
      </trkpt>
      <trkpt lat="43.58383" lon="3.80157">
        <ele>80.1</ele>
        <time>2013-07-26T07:34:33.000Z</time>
      </trkpt>
      <trkpt lat="43.58386" lon="3.8016">
        <ele>81</ele>
        <time>2013-07-26T07:34:34.000Z</time>
      </trkpt>
      <trkpt lat="43.58389" lon="3.80165">
        <ele>80.9</ele>
        <time>2013-07-26T07:34:35.000Z</time>
      </trkpt>
      <trkpt lat="43.58394" lon="3.80172">
        <ele>80.5</ele>
        <time>2013-07-26T07:34:36.000Z</time>
      </trkpt>
      <trkpt lat="43.58396" lon="3.80175">
        <ele>80.8</ele>
        <time>2013-07-26T07:34:37.000Z</time>
      </trkpt>
      <trkpt lat="43.58398" lon="3.80179">
        <ele>81.2</ele>
        <time>2013-07-26T07:34:38.000Z</time>
      </trkpt>
      <trkpt lat="43.58401" lon="3.80186">
        <ele>81</ele>
        <time>2013-07-26T07:34:39.000Z</time>
      </trkpt>
      <trkpt lat="43.58401" lon="3.80192">
        <ele>80.6</ele>
        <time>2013-07-26T07:34:40.000Z</time>
      </trkpt>
      <trkpt lat="43.58406" lon="3.802">
        <ele>81.4</ele>
        <time>2013-07-26T07:34:41.000Z</time>
      </trkpt>
      <trkpt lat="43.58409" lon="3.80204">
        <ele>84</ele>
        <time>2013-07-26T07:34:42.000Z</time>
      </trkpt>
      <trkpt lat="43.58411" lon="3.8021">
        <ele>84.3</ele>
        <time>2013-07-26T07:34:43.000Z</time>
      </trkpt>
      <trkpt lat="43.58412" lon="3.80218">
        <ele>86</ele>
        <time>2013-07-26T07:34:44.000Z</time>
      </trkpt>
      <trkpt lat="43.58415" lon="3.80225">
        <ele>85.5</ele>
        <time>2013-07-26T07:34:45.000Z</time>
      </trkpt>
      <trkpt lat="43.58418" lon="3.80232">
        <ele>86.2</ele>
        <time>2013-07-26T07:34:46.000Z</time>
      </trkpt>
      <trkpt lat="43.58419" lon="3.80241">
        <ele>85.4</ele>
        <time>2013-07-26T07:34:47.000Z</time>
      </trkpt>
      <trkpt lat="43.5842" lon="3.80247">
        <ele>85.4</ele>
        <time>2013-07-26T07:34:48.000Z</time>
      </trkpt>
      <trkpt lat="43.58422" lon="3.80252">
        <ele>87.7</ele>
        <time>2013-07-26T07:34:49.000Z</time>
      </trkpt>
      <trkpt lat="43.58424" lon="3.80257">
        <ele>88.3</ele>
        <time>2013-07-26T07:34:50.000Z</time>
      </trkpt>
      <trkpt lat="43.58426" lon="3.80262">
        <ele>89.3</ele>
        <time>2013-07-26T07:34:51.000Z</time>
      </trkpt>
      <trkpt lat="43.58426" lon="3.80269">
        <ele>88.7</ele>
        <time>2013-07-26T07:34:52.000Z</time>
      </trkpt>
      <trkpt lat="43.58428" lon="3.80274">
        <ele>88.7</ele>
        <time>2013-07-26T07:34:53.000Z</time>
      </trkpt>
      <trkpt lat="43.5843" lon="3.80279">
        <ele>88.9</ele>
        <time>2013-07-26T07:34:54.000Z</time>
      </trkpt>
      <trkpt lat="43.58431" lon="3.80285">
        <ele>91</ele>
        <time>2013-07-26T07:34:55.000Z</time>
      </trkpt>
      <trkpt lat="43.58434" lon="3.80293">
        <ele>91</ele>
        <time>2013-07-26T07:34:56.787Z</time>
      </trkpt>
      <trkpt lat="43.58435" lon="3.80297">
        <ele>91</ele>
        <time>2013-07-26T07:34:58.000Z</time>
      </trkpt>
      <trkpt lat="43.58438" lon="3.803">
        <ele>92</ele>
        <time>2013-07-26T07:34:59.000Z</time>
      </trkpt>
      <trkpt lat="43.5844" lon="3.80305">
        <ele>92.2</ele>
        <time>2013-07-26T07:35:00.000Z</time>
      </trkpt>
      <trkpt lat="43.58441" lon="3.80309">
        <ele>92.3</ele>
        <time>2013-07-26T07:35:01.000Z</time>
      </trkpt>
      <trkpt lat="43.58442" lon="3.80315">
        <ele>91.4</ele>
        <time>2013-07-26T07:35:02.000Z</time>
      </trkpt>
      <trkpt lat="43.58443" lon="3.80319">
        <ele>91.8</ele>
        <time>2013-07-26T07:35:03.000Z</time>
      </trkpt>
      <trkpt lat="43.58448" lon="3.80331">
        <ele>94.7</ele>
        <time>2013-07-26T07:35:04.000Z</time>
      </trkpt>
      <trkpt lat="43.58452" lon="3.80335">
        <ele>94.3</ele>
        <time>2013-07-26T07:35:05.000Z</time>
      </trkpt>
      <trkpt lat="43.58456" lon="3.80339">
        <ele>94.6</ele>
        <time>2013-07-26T07:35:06.000Z</time>
      </trkpt>
      <trkpt lat="43.58458" lon="3.80343">
        <ele>94.1</ele>
        <time>2013-07-26T07:35:07.000Z</time>
      </trkpt>
      <trkpt lat="43.58461" lon="3.8035">
        <ele>93.6</ele>
        <time>2013-07-26T07:35:08.000Z</time>
      </trkpt>
      <trkpt lat="43.58464" lon="3.80356">
        <ele>93.3</ele>
        <time>2013-07-26T07:35:09.000Z</time>
      </trkpt>
      <trkpt lat="43.58466" lon="3.80361">
        <ele>92.5</ele>
        <time>2013-07-26T07:35:10.000Z</time>
      </trkpt>
      <trkpt lat="43.58467" lon="3.80368">
        <ele>91.6</ele>
        <time>2013-07-26T07:35:11.000Z</time>
      </trkpt>
      <trkpt lat="43.58468" lon="3.80374">
        <ele>89.4</ele>
        <time>2013-07-26T07:35:12.000Z</time>
      </trkpt>
      <trkpt lat="43.58469" lon="3.8038">
        <ele>89.1</ele>
        <time>2013-07-26T07:35:13.000Z</time>
      </trkpt>
      <trkpt lat="43.5847" lon="3.80386">
        <ele>88.9</ele>
        <time>2013-07-26T07:35:14.000Z</time>
      </trkpt>
      <trkpt lat="43.5847" lon="3.80393">
        <ele>87.3</ele>
        <time>2013-07-26T07:35:15.000Z</time>
      </trkpt>
      <trkpt lat="43.58471" lon="3.804">
        <ele>85.6</ele>
        <time>2013-07-26T07:35:16.000Z</time>
      </trkpt>
      <trkpt lat="43.58472" lon="3.80407">
        <ele>85.8</ele>
        <time>2013-07-26T07:35:17.000Z</time>
      </trkpt>
      <trkpt lat="43.58473" lon="3.80413">
        <ele>85.3</ele>
        <time>2013-07-26T07:35:18.000Z</time>
      </trkpt>
      <trkpt lat="43.58475" lon="3.80417">
        <ele>85.7</ele>
        <time>2013-07-26T07:35:19.000Z</time>
      </trkpt>
      <trkpt lat="43.58471" lon="3.80426">
        <ele>81.5</ele>
        <time>2013-07-26T07:35:20.000Z</time>
      </trkpt>
      <trkpt lat="43.58472" lon="3.80432">
        <ele>79.4</ele>
        <time>2013-07-26T07:35:21.000Z</time>
      </trkpt>
      <trkpt lat="43.58472" lon="3.8044">
        <ele>80.5</ele>
        <time>2013-07-26T07:35:22.000Z</time>
      </trkpt>
      <trkpt lat="43.58471" lon="3.80447">
        <ele>78</ele>
        <time>2013-07-26T07:35:23.000Z</time>
      </trkpt>
      <trkpt lat="43.5847" lon="3.80452">
        <ele>77.9</ele>
        <time>2013-07-26T07:35:24.000Z</time>
      </trkpt>
      <trkpt lat="43.58467" lon="3.80455">
        <ele>75.7</ele>
        <time>2013-07-26T07:35:25.000Z</time>
      </trkpt>
      <trkpt lat="43.58463" lon="3.80459">
        <ele>74.5</ele>
        <time>2013-07-26T07:35:26.000Z</time>
      </trkpt>
      <trkpt lat="43.58461" lon="3.80463">
        <ele>74.5</ele>
        <time>2013-07-26T07:35:27.000Z</time>
      </trkpt>
      <trkpt lat="43.58458" lon="3.80467">
        <ele>75.9</ele>
        <time>2013-07-26T07:35:29.000Z</time>
      </trkpt>
      <trkpt lat="43.58454" lon="3.80467">
        <ele>74.9</ele>
        <time>2013-07-26T07:35:30.000Z</time>
      </trkpt>
      <trkpt lat="43.58453" lon="3.80469">
        <ele>75.4</ele>
        <time>2013-07-26T07:35:31.000Z</time>
      </trkpt>
      <trkpt lat="43.58451" lon="3.80472">
        <ele>76.1</ele>
        <time>2013-07-26T07:35:32.000Z</time>
      </trkpt>
      <trkpt lat="43.58449" lon="3.80474">
        <ele>76</ele>
        <time>2013-07-26T07:35:33.000Z</time>
      </trkpt>
      <trkpt lat="43.58444" lon="3.80479">
        <ele>72.6</ele>
        <time>2013-07-26T07:35:34.000Z</time>
      </trkpt>
      <trkpt lat="43.5844" lon="3.80482">
        <ele>72.7</ele>
        <time>2013-07-26T07:35:35.000Z</time>
      </trkpt>
      <trkpt lat="43.58433" lon="3.80483">
        <ele>73.9</ele>
        <time>2013-07-26T07:35:36.000Z</time>
      </trkpt>
      <trkpt lat="43.5843" lon="3.80485">
        <ele>72.4</ele>
        <time>2013-07-26T07:35:37.000Z</time>
      </trkpt>
      <trkpt lat="43.58428" lon="3.80486">
        <ele>70.5</ele>
        <time>2013-07-26T07:35:38.000Z</time>
      </trkpt>
      <trkpt lat="43.58425" lon="3.80486">
        <ele>69.2</ele>
        <time>2013-07-26T07:35:39.000Z</time>
      </trkpt>
      <trkpt lat="43.58427" lon="3.80492">
        <ele>65.9</ele>
        <time>2013-07-26T07:35:40.000Z</time>
      </trkpt>
      <trkpt lat="43.58424" lon="3.80493">
        <ele>63.3</ele>
        <time>2013-07-26T07:35:41.000Z</time>
      </trkpt>
      <trkpt lat="43.58418" lon="3.80491">
        <ele>63.5</ele>
        <time>2013-07-26T07:35:42.000Z</time>
      </trkpt>
      <trkpt lat="43.58415" lon="3.80492">
        <ele>61.2</ele>
        <time>2013-07-26T07:35:43.000Z</time>
      </trkpt>
      <trkpt lat="43.58412" lon="3.80493">
        <ele>59.7</ele>
        <time>2013-07-26T07:35:44.000Z</time>
      </trkpt>
      <trkpt lat="43.58409" lon="3.80493">
        <ele>59.4</ele>
        <time>2013-07-26T07:35:45.000Z</time>
      </trkpt>
      <trkpt lat="43.58406" lon="3.80494">
        <ele>59.8</ele>
        <time>2013-07-26T07:35:46.000Z</time>
      </trkpt>
      <trkpt lat="43.58402" lon="3.80494">
        <ele>61.9</ele>
        <time>2013-07-26T07:35:47.000Z</time>
      </trkpt>
      <trkpt lat="43.58399" lon="3.80495">
        <ele>61.7</ele>
        <time>2013-07-26T07:35:48.000Z</time>
      </trkpt>
      <trkpt lat="43.58393" lon="3.80497">
        <ele>65.5</ele>
        <time>2013-07-26T07:35:49.000Z</time>
      </trkpt>
      <trkpt lat="43.5839" lon="3.80502">
        <ele>69.2</ele>
        <time>2013-07-26T07:35:51.000Z</time>
      </trkpt>
      <trkpt lat="43.58391" lon="3.80505">
        <ele>69.7</ele>
        <time>2013-07-26T07:35:52.000Z</time>
      </trkpt>
      <trkpt lat="43.58392" lon="3.80508">
        <ele>70.4</ele>
        <time>2013-07-26T07:35:53.000Z</time>
      </trkpt>
      <trkpt lat="43.58394" lon="3.80512">
        <ele>70.7</ele>
        <time>2013-07-26T07:35:54.000Z</time>
      </trkpt>
      <trkpt lat="43.58395" lon="3.80516">
        <ele>70.4</ele>
        <time>2013-07-26T07:35:55.000Z</time>
      </trkpt>
      <trkpt lat="43.58396" lon="3.80519">
        <ele>70.4</ele>
        <time>2013-07-26T07:35:56.000Z</time>
      </trkpt>
      <trkpt lat="43.58398" lon="3.80524">
        <ele>70</ele>
        <time>2013-07-26T07:35:57.000Z</time>
      </trkpt>
      <trkpt lat="43.58401" lon="3.8054">
        <ele>73.1</ele>
        <time>2013-07-26T07:36:00.000Z</time>
      </trkpt>
      <trkpt lat="43.58401" lon="3.80548">
        <ele>74</ele>
        <time>2013-07-26T07:36:01.000Z</time>
      </trkpt>
      <trkpt lat="43.58402" lon="3.80556">
        <ele>74.9</ele>
        <time>2013-07-26T07:36:02.000Z</time>
      </trkpt>
      <trkpt lat="43.58403" lon="3.80564">
        <ele>74.4</ele>
        <time>2013-07-26T07:36:03.000Z</time>
      </trkpt>
      <trkpt lat="43.58404" lon="3.80572">
        <ele>78.4</ele>
        <time>2013-07-26T07:36:04.000Z</time>
      </trkpt>
      <trkpt lat="43.58405" lon="3.80577">
        <ele>77.1</ele>
        <time>2013-07-26T07:36:05.000Z</time>
      </trkpt>
      <trkpt lat="43.58406" lon="3.80585">
        <ele>79.4</ele>
        <time>2013-07-26T07:36:06.000Z</time>
      </trkpt>
      <trkpt lat="43.58409" lon="3.8059">
        <ele>78.3</ele>
        <time>2013-07-26T07:36:07.000Z</time>
      </trkpt>
      <trkpt lat="43.58411" lon="3.80596">
        <ele>77.3</ele>
        <time>2013-07-26T07:36:08.000Z</time>
      </trkpt>
      <trkpt lat="43.58416" lon="3.80606">
        <ele>74.3</ele>
        <time>2013-07-26T07:36:09.000Z</time>
      </trkpt>
      <trkpt lat="43.5842" lon="3.80609">
        <ele>72.6</ele>
        <time>2013-07-26T07:36:10.000Z</time>
      </trkpt>
      <trkpt lat="43.58422" lon="3.80613">
        <ele>72.4</ele>
        <time>2013-07-26T07:36:11.000Z</time>
      </trkpt>
      <trkpt lat="43.58424" lon="3.80617">
        <ele>71.8</ele>
        <time>2013-07-26T07:36:12.000Z</time>
      </trkpt>
      <trkpt lat="43.58424" lon="3.80623">
        <ele>70.4</ele>
        <time>2013-07-26T07:36:13.000Z</time>
      </trkpt>
      <trkpt lat="43.58426" lon="3.80627">
        <ele>69.3</ele>
        <time>2013-07-26T07:36:14.000Z</time>
      </trkpt>
      <trkpt lat="43.58427" lon="3.80632">
        <ele>68.9</ele>
        <time>2013-07-26T07:36:15.000Z</time>
      </trkpt>
      <trkpt lat="43.58429" lon="3.80637">
        <ele>68.3</ele>
        <time>2013-07-26T07:36:16.000Z</time>
      </trkpt>
      <trkpt lat="43.58431" lon="3.8064">
        <ele>68.4</ele>
        <time>2013-07-26T07:36:17.000Z</time>
      </trkpt>
      <trkpt lat="43.58433" lon="3.80644">
        <ele>68.3</ele>
        <time>2013-07-26T07:36:18.000Z</time>
      </trkpt>
      <trkpt lat="43.58435" lon="3.80649">
        <ele>68.7</ele>
        <time>2013-07-26T07:36:19.000Z</time>
      </trkpt>
      <trkpt lat="43.58437" lon="3.80653">
        <ele>71.4</ele>
        <time>2013-07-26T07:36:20.000Z</time>
      </trkpt>
      <trkpt lat="43.58439" lon="3.80657">
        <ele>73</ele>
        <time>2013-07-26T07:36:21.000Z</time>
      </trkpt>
      <trkpt lat="43.58441" lon="3.80661">
        <ele>74.6</ele>
        <time>2013-07-26T07:36:22.000Z</time>
      </trkpt>
      <trkpt lat="43.58443" lon="3.80664">
        <ele>69.5</ele>
        <time>2013-07-26T07:36:23.000Z</time>
      </trkpt>
      <trkpt lat="43.58445" lon="3.80668">
        <ele>72.3</ele>
        <time>2013-07-26T07:36:24.000Z</time>
      </trkpt>
      <trkpt lat="43.58447" lon="3.80672">
        <ele>72.1</ele>
        <time>2013-07-26T07:36:25.000Z</time>
      </trkpt>
      <trkpt lat="43.58448" lon="3.80676">
        <ele>73</ele>
        <time>2013-07-26T07:36:26.000Z</time>
      </trkpt>
      <trkpt lat="43.58449" lon="3.80681">
        <ele>71.9</ele>
        <time>2013-07-26T07:36:27.000Z</time>
      </trkpt>
      <trkpt lat="43.58451" lon="3.80685">
        <ele>71.2</ele>
        <time>2013-07-26T07:36:28.000Z</time>
      </trkpt>
      <trkpt lat="43.58452" lon="3.80688">
        <ele>70.6</ele>
        <time>2013-07-26T07:36:29.000Z</time>
      </trkpt>
      <trkpt lat="43.58454" lon="3.80692">
        <ele>70.1</ele>
        <time>2013-07-26T07:36:30.000Z</time>
      </trkpt>
      <trkpt lat="43.58455" lon="3.80694">
        <ele>68.5</ele>
        <time>2013-07-26T07:36:31.000Z</time>
      </trkpt>
      <trkpt lat="43.58451" lon="3.80695">
        <ele>62.8</ele>
        <time>2013-07-26T07:36:37.000Z</time>
      </trkpt>
      <trkpt lat="43.5845" lon="3.80695">
        <ele>66.6</ele>
        <time>2013-07-26T07:36:38.000Z</time>
      </trkpt>
      <trkpt lat="43.58452" lon="3.80691">
        <ele>74.8</ele>
        <time>2013-07-26T07:37:14.000Z</time>
      </trkpt>
      <trkpt lat="43.58453" lon="3.80689">
        <ele>75.4</ele>
        <time>2013-07-26T07:37:15.000Z</time>
      </trkpt>
      <trkpt lat="43.58452" lon="3.80685">
        <ele>75.5</ele>
        <time>2013-07-26T07:37:16.000Z</time>
      </trkpt>
      <trkpt lat="43.58452" lon="3.80682">
        <ele>75.1</ele>
        <time>2013-07-26T07:37:17.000Z</time>
      </trkpt>
      <trkpt lat="43.58451" lon="3.80679">
        <ele>76.1</ele>
        <time>2013-07-26T07:37:18.000Z</time>
      </trkpt>
      <trkpt lat="43.5845" lon="3.80676">
        <ele>75.8</ele>
        <time>2013-07-26T07:37:19.000Z</time>
      </trkpt>
      <trkpt lat="43.58452" lon="3.80672">
        <ele>76.3</ele>
        <time>2013-07-26T07:37:21.000Z</time>
      </trkpt>
      <trkpt lat="43.58454" lon="3.80672">
        <ele>77</ele>
        <time>2013-07-26T07:37:22.000Z</time>
      </trkpt>
      <trkpt lat="43.58458" lon="3.80674">
        <ele>75.8</ele>
        <time>2013-07-26T07:37:27.000Z</time>
      </trkpt>
      <trkpt lat="43.58459" lon="3.80676">
        <ele>75.5</ele>
        <time>2013-07-26T07:37:28.000Z</time>
      </trkpt>
      <trkpt lat="43.58461" lon="3.80678">
        <ele>74.9</ele>
        <time>2013-07-26T07:37:29.000Z</time>
      </trkpt>
      <trkpt lat="43.58463" lon="3.80681">
        <ele>74.4</ele>
        <time>2013-07-26T07:37:30.000Z</time>
      </trkpt>
      <trkpt lat="43.58464" lon="3.80683">
        <ele>74.3</ele>
        <time>2013-07-26T07:37:31.000Z</time>
      </trkpt>
      <trkpt lat="43.58466" lon="3.80688">
        <ele>73.5</ele>
        <time>2013-07-26T07:37:32.000Z</time>
      </trkpt>
      <trkpt lat="43.58468" lon="3.8069">
        <ele>73.2</ele>
        <time>2013-07-26T07:37:33.000Z</time>
      </trkpt>
      <trkpt lat="43.58469" lon="3.80694">
        <ele>73</ele>
        <time>2013-07-26T07:37:34.000Z</time>
      </trkpt>
      <trkpt lat="43.58471" lon="3.80697">
        <ele>73.7</ele>
        <time>2013-07-26T07:37:35.000Z</time>
      </trkpt>
      <trkpt lat="43.58473" lon="3.80702">
        <ele>75.6</ele>
        <time>2013-07-26T07:37:36.000Z</time>
      </trkpt>
      <trkpt lat="43.58476" lon="3.80707">
        <ele>74.2</ele>
        <time>2013-07-26T07:37:37.000Z</time>
      </trkpt>
      <trkpt lat="43.58479" lon="3.80711">
        <ele>75.9</ele>
        <time>2013-07-26T07:37:38.000Z</time>
      </trkpt>
      <trkpt lat="43.58482" lon="3.80716">
        <ele>77.2</ele>
        <time>2013-07-26T07:37:39.000Z</time>
      </trkpt>
      <trkpt lat="43.58484" lon="3.80721">
        <ele>75.1</ele>
        <time>2013-07-26T07:37:40.000Z</time>
      </trkpt>
      <trkpt lat="43.58486" lon="3.80725">
        <ele>73.6</ele>
        <time>2013-07-26T07:37:41.000Z</time>
      </trkpt>
      <trkpt lat="43.58488" lon="3.80732">
        <ele>73.6</ele>
        <time>2013-07-26T07:37:42.000Z</time>
      </trkpt>
      <trkpt lat="43.58489" lon="3.80737">
        <ele>73.8</ele>
        <time>2013-07-26T07:37:43.000Z</time>
      </trkpt>
      <trkpt lat="43.5849" lon="3.80743">
        <ele>74.2</ele>
        <time>2013-07-26T07:37:44.000Z</time>
      </trkpt>
      <trkpt lat="43.58491" lon="3.80749">
        <ele>74.5</ele>
        <time>2013-07-26T07:37:45.000Z</time>
      </trkpt>
      <trkpt lat="43.58493" lon="3.80754">
        <ele>72.5</ele>
        <time>2013-07-26T07:37:46.000Z</time>
      </trkpt>
      <trkpt lat="43.58495" lon="3.80759">
        <ele>76.1</ele>
        <time>2013-07-26T07:37:47.000Z</time>
      </trkpt>
      <trkpt lat="43.58497" lon="3.80764">
        <ele>77.9</ele>
        <time>2013-07-26T07:37:48.000Z</time>
      </trkpt>
      <trkpt lat="43.58501" lon="3.80767">
        <ele>80.1</ele>
        <time>2013-07-26T07:37:49.000Z</time>
      </trkpt>
      <trkpt lat="43.58508" lon="3.80772">
        <ele>80.4</ele>
        <time>2013-07-26T07:37:50.000Z</time>
      </trkpt>
      <trkpt lat="43.58512" lon="3.80776">
        <ele>80.8</ele>
        <time>2013-07-26T07:37:51.000Z</time>
      </trkpt>
      <trkpt lat="43.58515" lon="3.8078">
        <ele>80.7</ele>
        <time>2013-07-26T07:37:52.000Z</time>
      </trkpt>
      <trkpt lat="43.58519" lon="3.80785">
        <ele>80.5</ele>
        <time>2013-07-26T07:37:53.000Z</time>
      </trkpt>
      <trkpt lat="43.58524" lon="3.80791">
        <ele>82.8</ele>
        <time>2013-07-26T07:37:54.000Z</time>
      </trkpt>
      <trkpt lat="43.58528" lon="3.80797">
        <ele>83.1</ele>
        <time>2013-07-26T07:37:55.000Z</time>
      </trkpt>
      <trkpt lat="43.58531" lon="3.80801">
        <ele>82.3</ele>
        <time>2013-07-26T07:37:56.000Z</time>
      </trkpt>
      <trkpt lat="43.58533" lon="3.80806">
        <ele>81.7</ele>
        <time>2013-07-26T07:37:57.000Z</time>
      </trkpt>
      <trkpt lat="43.58536" lon="3.80811">
        <ele>81.5</ele>
        <time>2013-07-26T07:37:58.039Z</time>
      </trkpt>
      <trkpt lat="43.58539" lon="3.80816">
        <ele>81.6</ele>
        <time>2013-07-26T07:37:59.000Z</time>
      </trkpt>
      <trkpt lat="43.58542" lon="3.8082">
        <ele>81.7</ele>
        <time>2013-07-26T07:38:00.000Z</time>
      </trkpt>
      <trkpt lat="43.58545" lon="3.80825">
        <ele>81.8</ele>
        <time>2013-07-26T07:38:01.000Z</time>
      </trkpt>
      <trkpt lat="43.58549" lon="3.8083">
        <ele>82.7</ele>
        <time>2013-07-26T07:38:02.000Z</time>
      </trkpt>
      <trkpt lat="43.58553" lon="3.80836">
        <ele>81.2</ele>
        <time>2013-07-26T07:38:03.000Z</time>
      </trkpt>
      <trkpt lat="43.58555" lon="3.80839">
        <ele>78.9</ele>
        <time>2013-07-26T07:38:04.000Z</time>
      </trkpt>
      <trkpt lat="43.58552" lon="3.80846">
        <ele>80.6</ele>
        <time>2013-07-26T07:38:05.000Z</time>
      </trkpt>
      <trkpt lat="43.58554" lon="3.8085">
        <ele>78.3</ele>
        <time>2013-07-26T07:38:06.000Z</time>
      </trkpt>
      <trkpt lat="43.58562" lon="3.80856">
        <ele>83.2</ele>
        <time>2013-07-26T07:38:07.000Z</time>
      </trkpt>
      <trkpt lat="43.58567" lon="3.8086">
        <ele>83.4</ele>
        <time>2013-07-26T07:38:08.000Z</time>
      </trkpt>
      <trkpt lat="43.5857" lon="3.80867">
        <ele>83.7</ele>
        <time>2013-07-26T07:38:09.000Z</time>
      </trkpt>
      <trkpt lat="43.58573" lon="3.80869">
        <ele>83.4</ele>
        <time>2013-07-26T07:38:10.000Z</time>
      </trkpt>
      <trkpt lat="43.58577" lon="3.80873">
        <ele>84</ele>
        <time>2013-07-26T07:38:11.000Z</time>
      </trkpt>
      <trkpt lat="43.5858" lon="3.80876">
        <ele>83.5</ele>
        <time>2013-07-26T07:38:12.000Z</time>
      </trkpt>
      <trkpt lat="43.58583" lon="3.8088">
        <ele>83.5</ele>
        <time>2013-07-26T07:38:13.000Z</time>
      </trkpt>
      <trkpt lat="43.58585" lon="3.80884">
        <ele>83.5</ele>
        <time>2013-07-26T07:38:14.000Z</time>
      </trkpt>
      <trkpt lat="43.58589" lon="3.80888">
        <ele>83.8</ele>
        <time>2013-07-26T07:38:15.000Z</time>
      </trkpt>
      <trkpt lat="43.58594" lon="3.80894">
        <ele>82.4</ele>
        <time>2013-07-26T07:38:16.000Z</time>
      </trkpt>
      <trkpt lat="43.58597" lon="3.80898">
        <ele>81.9</ele>
        <time>2013-07-26T07:38:17.000Z</time>
      </trkpt>
      <trkpt lat="43.58601" lon="3.80902">
        <ele>82.1</ele>
        <time>2013-07-26T07:38:18.000Z</time>
      </trkpt>
      <trkpt lat="43.58602" lon="3.80905">
        <ele>78.5</ele>
        <time>2013-07-26T07:38:19.000Z</time>
      </trkpt>
      <trkpt lat="43.58605" lon="3.80909">
        <ele>76.5</ele>
        <time>2013-07-26T07:38:20.000Z</time>
      </trkpt>
      <trkpt lat="43.58606" lon="3.80912">
        <ele>75</ele>
        <time>2013-07-26T07:38:21.000Z</time>
      </trkpt>
      <trkpt lat="43.58614" lon="3.80921">
        <ele>75.5</ele>
        <time>2013-07-26T07:38:22.000Z</time>
      </trkpt>
      <trkpt lat="43.58618" lon="3.80929">
        <ele>78.3</ele>
        <time>2013-07-26T07:38:23.000Z</time>
      </trkpt>
      <trkpt lat="43.58621" lon="3.80934">
        <ele>78.7</ele>
        <time>2013-07-26T07:38:24.000Z</time>
      </trkpt>
      <trkpt lat="43.58625" lon="3.80938">
        <ele>78.4</ele>
        <time>2013-07-26T07:38:25.000Z</time>
      </trkpt>
      <trkpt lat="43.58625" lon="3.80942">
        <ele>77.8</ele>
        <time>2013-07-26T07:38:26.000Z</time>
      </trkpt>
      <trkpt lat="43.58631" lon="3.80945">
        <ele>76.4</ele>
        <time>2013-07-26T07:38:27.000Z</time>
      </trkpt>
      <trkpt lat="43.58636" lon="3.80951">
        <ele>76.2</ele>
        <time>2013-07-26T07:38:28.000Z</time>
      </trkpt>
      <trkpt lat="43.5864" lon="3.80953">
        <ele>72.2</ele>
        <time>2013-07-26T07:38:29.000Z</time>
      </trkpt>
      <trkpt lat="43.58645" lon="3.80957">
        <ele>71.3</ele>
        <time>2013-07-26T07:38:30.000Z</time>
      </trkpt>
      <trkpt lat="43.58647" lon="3.80962">
        <ele>69.8</ele>
        <time>2013-07-26T07:38:31.000Z</time>
      </trkpt>
      <trkpt lat="43.58652" lon="3.80967">
        <ele>68.5</ele>
        <time>2013-07-26T07:38:32.000Z</time>
      </trkpt>
      <trkpt lat="43.58656" lon="3.80972">
        <ele>67</ele>
        <time>2013-07-26T07:38:33.000Z</time>
      </trkpt>
      <trkpt lat="43.5866" lon="3.80979">
        <ele>68.9</ele>
        <time>2013-07-26T07:38:34.000Z</time>
      </trkpt>
      <trkpt lat="43.58663" lon="3.80981">
        <ele>70.4</ele>
        <time>2013-07-26T07:38:35.000Z</time>
      </trkpt>
      <trkpt lat="43.58667" lon="3.80987">
        <ele>71.3</ele>
        <time>2013-07-26T07:38:36.000Z</time>
      </trkpt>
      <trkpt lat="43.5867" lon="3.80991">
        <ele>71.9</ele>
        <time>2013-07-26T07:38:37.000Z</time>
      </trkpt>
      <trkpt lat="43.58675" lon="3.80994">
        <ele>72.5</ele>
        <time>2013-07-26T07:38:38.000Z</time>
      </trkpt>
      <trkpt lat="43.58682" lon="3.81">
        <ele>72.9</ele>
        <time>2013-07-26T07:38:39.000Z</time>
      </trkpt>
      <trkpt lat="43.58687" lon="3.81004">
        <ele>72.3</ele>
        <time>2013-07-26T07:38:40.000Z</time>
      </trkpt>
      <trkpt lat="43.58689" lon="3.81008">
        <ele>71.9</ele>
        <time>2013-07-26T07:38:41.000Z</time>
      </trkpt>
      <trkpt lat="43.58693" lon="3.81013">
        <ele>72.7</ele>
        <time>2013-07-26T07:38:42.000Z</time>
      </trkpt>
      <trkpt lat="43.58696" lon="3.81017">
        <ele>73.1</ele>
        <time>2013-07-26T07:38:43.000Z</time>
      </trkpt>
      <trkpt lat="43.58698" lon="3.8102">
        <ele>74.4</ele>
        <time>2013-07-26T07:38:44.000Z</time>
      </trkpt>
      <trkpt lat="43.587" lon="3.81024">
        <ele>74.6</ele>
        <time>2013-07-26T07:38:45.000Z</time>
      </trkpt>
      <trkpt lat="43.58703" lon="3.81028">
        <ele>73.8</ele>
        <time>2013-07-26T07:38:46.000Z</time>
      </trkpt>
      <trkpt lat="43.58706" lon="3.81033">
        <ele>73.2</ele>
        <time>2013-07-26T07:38:47.000Z</time>
      </trkpt>
      <trkpt lat="43.58709" lon="3.81038">
        <ele>73.3</ele>
        <time>2013-07-26T07:38:48.000Z</time>
      </trkpt>
      <trkpt lat="43.58709" lon="3.81041">
        <ele>70.6</ele>
        <time>2013-07-26T07:38:49.000Z</time>
      </trkpt>
      <trkpt lat="43.58711" lon="3.81046">
        <ele>67.7</ele>
        <time>2013-07-26T07:38:50.000Z</time>
      </trkpt>
      <trkpt lat="43.58714" lon="3.81051">
        <ele>68.7</ele>
        <time>2013-07-26T07:38:51.000Z</time>
      </trkpt>
      <trkpt lat="43.58718" lon="3.81056">
        <ele>69.2</ele>
        <time>2013-07-26T07:38:52.000Z</time>
      </trkpt>
      <trkpt lat="43.58721" lon="3.8106">
        <ele>69.7</ele>
        <time>2013-07-26T07:38:53.000Z</time>
      </trkpt>
      <trkpt lat="43.58726" lon="3.81066">
        <ele>70.5</ele>
        <time>2013-07-26T07:38:54.000Z</time>
      </trkpt>
      <trkpt lat="43.58731" lon="3.81074">
        <ele>72</ele>
        <time>2013-07-26T07:38:55.000Z</time>
      </trkpt>
      <trkpt lat="43.58734" lon="3.81079">
        <ele>71.2</ele>
        <time>2013-07-26T07:38:56.000Z</time>
      </trkpt>
      <trkpt lat="43.58739" lon="3.81084">
        <ele>72.3</ele>
        <time>2013-07-26T07:38:57.000Z</time>
      </trkpt>
      <trkpt lat="43.58744" lon="3.81089">
        <ele>72.4</ele>
        <time>2013-07-26T07:38:58.056Z</time>
      </trkpt>
      <trkpt lat="43.58749" lon="3.81093">
        <ele>74.1</ele>
        <time>2013-07-26T07:38:59.000Z</time>
      </trkpt>
      <trkpt lat="43.58753" lon="3.81098">
        <ele>74.5</ele>
        <time>2013-07-26T07:39:00.000Z</time>
      </trkpt>
      <trkpt lat="43.58757" lon="3.81102">
        <ele>75.4</ele>
        <time>2013-07-26T07:39:01.000Z</time>
      </trkpt>
      <trkpt lat="43.58762" lon="3.81107">
        <ele>76.4</ele>
        <time>2013-07-26T07:39:02.000Z</time>
      </trkpt>
      <trkpt lat="43.58765" lon="3.8111">
        <ele>77.6</ele>
        <time>2013-07-26T07:39:03.000Z</time>
      </trkpt>
      <trkpt lat="43.58769" lon="3.8111">
        <ele>78.5</ele>
        <time>2013-07-26T07:39:04.000Z</time>
      </trkpt>
      <trkpt lat="43.58774" lon="3.81108">
        <ele>80.9</ele>
        <time>2013-07-26T07:39:05.000Z</time>
      </trkpt>
      <trkpt lat="43.58776" lon="3.81104">
        <ele>81</ele>
        <time>2013-07-26T07:39:06.000Z</time>
      </trkpt>
      <trkpt lat="43.58777" lon="3.81102">
        <ele>81.2</ele>
        <time>2013-07-26T07:39:07.000Z</time>
      </trkpt>
      <trkpt lat="43.58776" lon="3.81098">
        <ele>80.9</ele>
        <time>2013-07-26T07:39:08.000Z</time>
      </trkpt>
      <trkpt lat="43.58778" lon="3.81096">
        <ele>81</ele>
        <time>2013-07-26T07:39:09.000Z</time>
      </trkpt>
      <trkpt lat="43.58781" lon="3.81093">
        <ele>80.7</ele>
        <time>2013-07-26T07:39:11.000Z</time>
      </trkpt>
      <trkpt lat="43.58782" lon="3.81092">
        <ele>81.1</ele>
        <time>2013-07-26T07:39:12.000Z</time>
      </trkpt>
      <trkpt lat="43.58784" lon="3.8109">
        <ele>81.1</ele>
        <time>2013-07-26T07:39:13.000Z</time>
      </trkpt>
      <trkpt lat="43.58786" lon="3.81089">
        <ele>81</ele>
        <time>2013-07-26T07:39:14.000Z</time>
      </trkpt>
      <trkpt lat="43.58789" lon="3.81087">
        <ele>81.2</ele>
        <time>2013-07-26T07:39:15.000Z</time>
      </trkpt>
      <trkpt lat="43.58791" lon="3.81085">
        <ele>81.7</ele>
        <time>2013-07-26T07:39:16.000Z</time>
      </trkpt>
      <trkpt lat="43.58797" lon="3.81078">
        <ele>84.2</ele>
        <time>2013-07-26T07:39:17.000Z</time>
      </trkpt>
      <trkpt lat="43.58801" lon="3.81074">
        <ele>83.9</ele>
        <time>2013-07-26T07:39:18.000Z</time>
      </trkpt>
      <trkpt lat="43.58805" lon="3.81069">
        <ele>83.7</ele>
        <time>2013-07-26T07:39:19.000Z</time>
      </trkpt>
      <trkpt lat="43.58808" lon="3.81063">
        <ele>83.8</ele>
        <time>2013-07-26T07:39:20.000Z</time>
      </trkpt>
      <trkpt lat="43.5881" lon="3.81056">
        <ele>84.4</ele>
        <time>2013-07-26T07:39:21.000Z</time>
      </trkpt>
      <trkpt lat="43.5881" lon="3.8105">
        <ele>84.8</ele>
        <time>2013-07-26T07:39:22.000Z</time>
      </trkpt>
      <trkpt lat="43.58812" lon="3.81043">
        <ele>84.6</ele>
        <time>2013-07-26T07:39:23.000Z</time>
      </trkpt>
      <trkpt lat="43.58812" lon="3.81035">
        <ele>85.6</ele>
        <time>2013-07-26T07:39:24.000Z</time>
      </trkpt>
      <trkpt lat="43.58812" lon="3.81028">
        <ele>85.7</ele>
        <time>2013-07-26T07:39:25.000Z</time>
      </trkpt>
      <trkpt lat="43.58812" lon="3.8102">
        <ele>84</ele>
        <time>2013-07-26T07:39:26.000Z</time>
      </trkpt>
      <trkpt lat="43.58812" lon="3.81013">
        <ele>83.4</ele>
        <time>2013-07-26T07:39:27.000Z</time>
      </trkpt>
      <trkpt lat="43.58812" lon="3.81006">
        <ele>84</ele>
        <time>2013-07-26T07:39:28.000Z</time>
      </trkpt>
      <trkpt lat="43.58811" lon="3.80998">
        <ele>83.9</ele>
        <time>2013-07-26T07:39:29.000Z</time>
      </trkpt>
      <trkpt lat="43.58808" lon="3.80992">
        <ele>84.1</ele>
        <time>2013-07-26T07:39:30.000Z</time>
      </trkpt>
      <trkpt lat="43.58806" lon="3.80986">
        <ele>83.6</ele>
        <time>2013-07-26T07:39:31.000Z</time>
      </trkpt>
      <trkpt lat="43.58803" lon="3.80982">
        <ele>83.4</ele>
        <time>2013-07-26T07:39:32.000Z</time>
      </trkpt>
      <trkpt lat="43.58798" lon="3.80975">
        <ele>83.3</ele>
        <time>2013-07-26T07:39:33.000Z</time>
      </trkpt>
      <trkpt lat="43.58797" lon="3.80966">
        <ele>83.8</ele>
        <time>2013-07-26T07:39:34.000Z</time>
      </trkpt>
      <trkpt lat="43.58797" lon="3.80959">
        <ele>82.8</ele>
        <time>2013-07-26T07:39:35.000Z</time>
      </trkpt>
      <trkpt lat="43.58797" lon="3.80951">
        <ele>82.9</ele>
        <time>2013-07-26T07:39:36.000Z</time>
      </trkpt>
      <trkpt lat="43.58799" lon="3.80944">
        <ele>83.5</ele>
        <time>2013-07-26T07:39:37.000Z</time>
      </trkpt>
      <trkpt lat="43.588" lon="3.80935">
        <ele>83.3</ele>
        <time>2013-07-26T07:39:38.000Z</time>
      </trkpt>
      <trkpt lat="43.58802" lon="3.80928">
        <ele>83.2</ele>
        <time>2013-07-26T07:39:39.000Z</time>
      </trkpt>
      <trkpt lat="43.58805" lon="3.80922">
        <ele>83.5</ele>
        <time>2013-07-26T07:39:40.000Z</time>
      </trkpt>
      <trkpt lat="43.58806" lon="3.80915">
        <ele>83.2</ele>
        <time>2013-07-26T07:39:41.000Z</time>
      </trkpt>
      <trkpt lat="43.58809" lon="3.80909">
        <ele>83.2</ele>
        <time>2013-07-26T07:39:42.000Z</time>
      </trkpt>
      <trkpt lat="43.58811" lon="3.80902">
        <ele>84</ele>
        <time>2013-07-26T07:39:43.000Z</time>
      </trkpt>
      <trkpt lat="43.58814" lon="3.80896">
        <ele>85.3</ele>
        <time>2013-07-26T07:39:44.000Z</time>
      </trkpt>
      <trkpt lat="43.58817" lon="3.80891">
        <ele>85</ele>
        <time>2013-07-26T07:39:45.000Z</time>
      </trkpt>
      <trkpt lat="43.5882" lon="3.80887">
        <ele>85.3</ele>
        <time>2013-07-26T07:39:46.000Z</time>
      </trkpt>
      <trkpt lat="43.58825" lon="3.80882">
        <ele>85.4</ele>
        <time>2013-07-26T07:39:47.000Z</time>
      </trkpt>
      <trkpt lat="43.58829" lon="3.80876">
        <ele>85</ele>
        <time>2013-07-26T07:39:48.000Z</time>
      </trkpt>
      <trkpt lat="43.58833" lon="3.8087">
        <ele>85</ele>
        <time>2013-07-26T07:39:49.000Z</time>
      </trkpt>
      <trkpt lat="43.58836" lon="3.80864">
        <ele>85.1</ele>
        <time>2013-07-26T07:39:50.000Z</time>
      </trkpt>
      <trkpt lat="43.5884" lon="3.80859">
        <ele>85.2</ele>
        <time>2013-07-26T07:39:51.000Z</time>
      </trkpt>
      <trkpt lat="43.58843" lon="3.80853">
        <ele>84.2</ele>
        <time>2013-07-26T07:39:52.000Z</time>
      </trkpt>
      <trkpt lat="43.58847" lon="3.80848">
        <ele>83.9</ele>
        <time>2013-07-26T07:39:53.000Z</time>
      </trkpt>
      <trkpt lat="43.58851" lon="3.80843">
        <ele>84.1</ele>
        <time>2013-07-26T07:39:54.000Z</time>
      </trkpt>
      <trkpt lat="43.58854" lon="3.80838">
        <ele>84.5</ele>
        <time>2013-07-26T07:39:55.000Z</time>
      </trkpt>
      <trkpt lat="43.58858" lon="3.80834">
        <ele>84.9</ele>
        <time>2013-07-26T07:39:56.000Z</time>
      </trkpt>
      <trkpt lat="43.58862" lon="3.8083">
        <ele>85.6</ele>
        <time>2013-07-26T07:39:57.000Z</time>
      </trkpt>
      <trkpt lat="43.58866" lon="3.80825">
        <ele>86.4</ele>
        <time>2013-07-26T07:39:58.041Z</time>
      </trkpt>
      <trkpt lat="43.58868" lon="3.80821">
        <ele>86.9</ele>
        <time>2013-07-26T07:39:59.000Z</time>
      </trkpt>
      <trkpt lat="43.58871" lon="3.80815">
        <ele>86.8</ele>
        <time>2013-07-26T07:40:00.000Z</time>
      </trkpt>
      <trkpt lat="43.58875" lon="3.80812">
        <ele>87</ele>
        <time>2013-07-26T07:40:01.000Z</time>
      </trkpt>
      <trkpt lat="43.58878" lon="3.80808">
        <ele>87.6</ele>
        <time>2013-07-26T07:40:02.000Z</time>
      </trkpt>
      <trkpt lat="43.58881" lon="3.80804">
        <ele>89.1</ele>
        <time>2013-07-26T07:40:03.000Z</time>
      </trkpt>
      <trkpt lat="43.58883" lon="3.80798">
        <ele>88.7</ele>
        <time>2013-07-26T07:40:04.000Z</time>
      </trkpt>
      <trkpt lat="43.58888" lon="3.80791">
        <ele>88</ele>
        <time>2013-07-26T07:40:05.000Z</time>
      </trkpt>
      <trkpt lat="43.58892" lon="3.80788">
        <ele>88.4</ele>
        <time>2013-07-26T07:40:06.000Z</time>
      </trkpt>
      <trkpt lat="43.58896" lon="3.80783">
        <ele>88.4</ele>
        <time>2013-07-26T07:40:07.000Z</time>
      </trkpt>
      <trkpt lat="43.58901" lon="3.80777">
        <ele>88.4</ele>
        <time>2013-07-26T07:40:08.000Z</time>
      </trkpt>
      <trkpt lat="43.58905" lon="3.80772">
        <ele>87.9</ele>
        <time>2013-07-26T07:40:09.000Z</time>
      </trkpt>
      <trkpt lat="43.58908" lon="3.80766">
        <ele>86.7</ele>
        <time>2013-07-26T07:40:10.000Z</time>
      </trkpt>
      <trkpt lat="43.58911" lon="3.80761">
        <ele>87</ele>
        <time>2013-07-26T07:40:11.000Z</time>
      </trkpt>
      <trkpt lat="43.58914" lon="3.80755">
        <ele>86.9</ele>
        <time>2013-07-26T07:40:12.000Z</time>
      </trkpt>
      <trkpt lat="43.58918" lon="3.8075">
        <ele>87.4</ele>
        <time>2013-07-26T07:40:13.000Z</time>
      </trkpt>
      <trkpt lat="43.58922" lon="3.80744">
        <ele>87</ele>
        <time>2013-07-26T07:40:14.000Z</time>
      </trkpt>
      <trkpt lat="43.58926" lon="3.80738">
        <ele>87.6</ele>
        <time>2013-07-26T07:40:15.000Z</time>
      </trkpt>
      <trkpt lat="43.5893" lon="3.80732">
        <ele>88.9</ele>
        <time>2013-07-26T07:40:16.000Z</time>
      </trkpt>
      <trkpt lat="43.58934" lon="3.80727">
        <ele>89.6</ele>
        <time>2013-07-26T07:40:17.000Z</time>
      </trkpt>
      <trkpt lat="43.58937" lon="3.80721">
        <ele>89.4</ele>
        <time>2013-07-26T07:40:18.000Z</time>
      </trkpt>
      <trkpt lat="43.58941" lon="3.80716">
        <ele>89.8</ele>
        <time>2013-07-26T07:40:19.000Z</time>
      </trkpt>
      <trkpt lat="43.58945" lon="3.80712">
        <ele>90</ele>
        <time>2013-07-26T07:40:20.000Z</time>
      </trkpt>
      <trkpt lat="43.58947" lon="3.80707">
        <ele>90.7</ele>
        <time>2013-07-26T07:40:21.000Z</time>
      </trkpt>
      <trkpt lat="43.58951" lon="3.80703">
        <ele>89.6</ele>
        <time>2013-07-26T07:40:22.000Z</time>
      </trkpt>
      <trkpt lat="43.58954" lon="3.80698">
        <ele>89.2</ele>
        <time>2013-07-26T07:40:23.000Z</time>
      </trkpt>
      <trkpt lat="43.58957" lon="3.80693">
        <ele>89.9</ele>
        <time>2013-07-26T07:40:24.000Z</time>
      </trkpt>
      <trkpt lat="43.58962" lon="3.80688">
        <ele>90.7</ele>
        <time>2013-07-26T07:40:25.000Z</time>
      </trkpt>
      <trkpt lat="43.58965" lon="3.80683">
        <ele>91.1</ele>
        <time>2013-07-26T07:40:26.000Z</time>
      </trkpt>
      <trkpt lat="43.58969" lon="3.80677">
        <ele>91.3</ele>
        <time>2013-07-26T07:40:27.000Z</time>
      </trkpt>
      <trkpt lat="43.58973" lon="3.80672">
        <ele>91.2</ele>
        <time>2013-07-26T07:40:28.000Z</time>
      </trkpt>
      <trkpt lat="43.58977" lon="3.80668">
        <ele>90.4</ele>
        <time>2013-07-26T07:40:29.000Z</time>
      </trkpt>
      <trkpt lat="43.58982" lon="3.80663">
        <ele>92.1</ele>
        <time>2013-07-26T07:40:30.000Z</time>
      </trkpt>
      <trkpt lat="43.58985" lon="3.80658">
        <ele>92.8</ele>
        <time>2013-07-26T07:40:31.000Z</time>
      </trkpt>
      <trkpt lat="43.58989" lon="3.80653">
        <ele>92.4</ele>
        <time>2013-07-26T07:40:32.000Z</time>
      </trkpt>
      <trkpt lat="43.58991" lon="3.80647">
        <ele>92.7</ele>
        <time>2013-07-26T07:40:33.000Z</time>
      </trkpt>
      <trkpt lat="43.58994" lon="3.80643">
        <ele>91.6</ele>
        <time>2013-07-26T07:40:34.000Z</time>
      </trkpt>
      <trkpt lat="43.58997" lon="3.80639">
        <ele>90.9</ele>
        <time>2013-07-26T07:40:35.000Z</time>
      </trkpt>
      <trkpt lat="43.59" lon="3.80635">
        <ele>90.8</ele>
        <time>2013-07-26T07:40:36.000Z</time>
      </trkpt>
      <trkpt lat="43.59004" lon="3.80629">
        <ele>90.3</ele>
        <time>2013-07-26T07:40:37.000Z</time>
      </trkpt>
      <trkpt lat="43.59008" lon="3.80623">
        <ele>90.3</ele>
        <time>2013-07-26T07:40:38.000Z</time>
      </trkpt>
      <trkpt lat="43.59011" lon="3.8062">
        <ele>91.9</ele>
        <time>2013-07-26T07:40:39.000Z</time>
      </trkpt>
      <trkpt lat="43.59013" lon="3.80616">
        <ele>92.2</ele>
        <time>2013-07-26T07:40:40.000Z</time>
      </trkpt>
      <trkpt lat="43.59017" lon="3.8061">
        <ele>90.7</ele>
        <time>2013-07-26T07:40:41.000Z</time>
      </trkpt>
      <trkpt lat="43.59022" lon="3.80606">
        <ele>90</ele>
        <time>2013-07-26T07:40:42.000Z</time>
      </trkpt>
      <trkpt lat="43.59026" lon="3.806">
        <ele>89.2</ele>
        <time>2013-07-26T07:40:43.000Z</time>
      </trkpt>
      <trkpt lat="43.59029" lon="3.80596">
        <ele>89.6</ele>
        <time>2013-07-26T07:40:44.000Z</time>
      </trkpt>
      <trkpt lat="43.59032" lon="3.80592">
        <ele>89.9</ele>
        <time>2013-07-26T07:40:45.000Z</time>
      </trkpt>
      <trkpt lat="43.59035" lon="3.80585">
        <ele>89.8</ele>
        <time>2013-07-26T07:40:46.000Z</time>
      </trkpt>
      <trkpt lat="43.59037" lon="3.8058">
        <ele>89.8</ele>
        <time>2013-07-26T07:40:47.000Z</time>
      </trkpt>
      <trkpt lat="43.5904" lon="3.80577">
        <ele>92</ele>
        <time>2013-07-26T07:40:48.000Z</time>
      </trkpt>
      <trkpt lat="43.59044" lon="3.80573">
        <ele>92.5</ele>
        <time>2013-07-26T07:40:49.000Z</time>
      </trkpt>
      <trkpt lat="43.59046" lon="3.80567">
        <ele>93.6</ele>
        <time>2013-07-26T07:40:50.000Z</time>
      </trkpt>
      <trkpt lat="43.59049" lon="3.80563">
        <ele>94.3</ele>
        <time>2013-07-26T07:40:51.000Z</time>
      </trkpt>
      <trkpt lat="43.59051" lon="3.80559">
        <ele>94.6</ele>
        <time>2013-07-26T07:40:52.000Z</time>
      </trkpt>
      <trkpt lat="43.59054" lon="3.80554">
        <ele>96.1</ele>
        <time>2013-07-26T07:40:53.000Z</time>
      </trkpt>
      <trkpt lat="43.59057" lon="3.80548">
        <ele>95.4</ele>
        <time>2013-07-26T07:40:54.000Z</time>
      </trkpt>
      <trkpt lat="43.59059" lon="3.80543">
        <ele>95.1</ele>
        <time>2013-07-26T07:40:55.000Z</time>
      </trkpt>
      <trkpt lat="43.59062" lon="3.80537">
        <ele>95.4</ele>
        <time>2013-07-26T07:40:56.000Z</time>
      </trkpt>
      <trkpt lat="43.59064" lon="3.80531">
        <ele>95.4</ele>
        <time>2013-07-26T07:40:57.000Z</time>
      </trkpt>
      <trkpt lat="43.59066" lon="3.80526">
        <ele>95.4</ele>
        <time>2013-07-26T07:40:57.997Z</time>
      </trkpt>
      <trkpt lat="43.59068" lon="3.80521">
        <ele>95.3</ele>
        <time>2013-07-26T07:40:59.000Z</time>
      </trkpt>
      <trkpt lat="43.5907" lon="3.80517">
        <ele>95.5</ele>
        <time>2013-07-26T07:41:00.000Z</time>
      </trkpt>
      <trkpt lat="43.59072" lon="3.80512">
        <ele>93.8</ele>
        <time>2013-07-26T07:41:01.000Z</time>
      </trkpt>
      <trkpt lat="43.59073" lon="3.80507">
        <ele>95.4</ele>
        <time>2013-07-26T07:41:02.000Z</time>
      </trkpt>
      <trkpt lat="43.59075" lon="3.80502">
        <ele>96.9</ele>
        <time>2013-07-26T07:41:03.000Z</time>
      </trkpt>
      <trkpt lat="43.59077" lon="3.80497">
        <ele>97.9</ele>
        <time>2013-07-26T07:41:04.000Z</time>
      </trkpt>
      <trkpt lat="43.59079" lon="3.80491">
        <ele>98.3</ele>
        <time>2013-07-26T07:41:05.000Z</time>
      </trkpt>
      <trkpt lat="43.59081" lon="3.80485">
        <ele>97.8</ele>
        <time>2013-07-26T07:41:06.000Z</time>
      </trkpt>
      <trkpt lat="43.59083" lon="3.80479">
        <ele>97.1</ele>
        <time>2013-07-26T07:41:07.000Z</time>
      </trkpt>
      <trkpt lat="43.59084" lon="3.80474">
        <ele>98.6</ele>
        <time>2013-07-26T07:41:08.000Z</time>
      </trkpt>
      <trkpt lat="43.59086" lon="3.80467">
        <ele>99.1</ele>
        <time>2013-07-26T07:41:09.000Z</time>
      </trkpt>
      <trkpt lat="43.59088" lon="3.80461">
        <ele>99.7</ele>
        <time>2013-07-26T07:41:10.000Z</time>
      </trkpt>
      <trkpt lat="43.59089" lon="3.80454">
        <ele>100.4</ele>
        <time>2013-07-26T07:41:11.000Z</time>
      </trkpt>
      <trkpt lat="43.59091" lon="3.80449">
        <ele>101.1</ele>
        <time>2013-07-26T07:41:12.000Z</time>
      </trkpt>
      <trkpt lat="43.59092" lon="3.80443">
        <ele>101.3</ele>
        <time>2013-07-26T07:41:13.000Z</time>
      </trkpt>
      <trkpt lat="43.59094" lon="3.80437">
        <ele>101.4</ele>
        <time>2013-07-26T07:41:14.000Z</time>
      </trkpt>
      <trkpt lat="43.59096" lon="3.80432">
        <ele>100.9</ele>
        <time>2013-07-26T07:41:15.000Z</time>
      </trkpt>
      <trkpt lat="43.59097" lon="3.80426">
        <ele>100.7</ele>
        <time>2013-07-26T07:41:16.000Z</time>
      </trkpt>
      <trkpt lat="43.59098" lon="3.80419">
        <ele>101.1</ele>
        <time>2013-07-26T07:41:17.000Z</time>
      </trkpt>
      <trkpt lat="43.59099" lon="3.80413">
        <ele>103.5</ele>
        <time>2013-07-26T07:41:18.000Z</time>
      </trkpt>
      <trkpt lat="43.59099" lon="3.80406">
        <ele>104.3</ele>
        <time>2013-07-26T07:41:19.000Z</time>
      </trkpt>
      <trkpt lat="43.59099" lon="3.80401">
        <ele>104.2</ele>
        <time>2013-07-26T07:41:20.000Z</time>
      </trkpt>
      <trkpt lat="43.59099" lon="3.80396">
        <ele>105.8</ele>
        <time>2013-07-26T07:41:21.000Z</time>
      </trkpt>
      <trkpt lat="43.59099" lon="3.8039">
        <ele>106</ele>
        <time>2013-07-26T07:41:22.000Z</time>
      </trkpt>
      <trkpt lat="43.591" lon="3.80384">
        <ele>106.1</ele>
        <time>2013-07-26T07:41:23.000Z</time>
      </trkpt>
      <trkpt lat="43.59099" lon="3.80377">
        <ele>107.6</ele>
        <time>2013-07-26T07:41:24.000Z</time>
      </trkpt>
      <trkpt lat="43.59098" lon="3.80371">
        <ele>107.2</ele>
        <time>2013-07-26T07:41:25.000Z</time>
      </trkpt>
      <trkpt lat="43.59098" lon="3.80365">
        <ele>106.6</ele>
        <time>2013-07-26T07:41:26.000Z</time>
      </trkpt>
      <trkpt lat="43.59098" lon="3.80358">
        <ele>105.9</ele>
        <time>2013-07-26T07:41:27.000Z</time>
      </trkpt>
      <trkpt lat="43.59097" lon="3.80353">
        <ele>106.4</ele>
        <time>2013-07-26T07:41:28.000Z</time>
      </trkpt>
      <trkpt lat="43.59097" lon="3.80347">
        <ele>105.6</ele>
        <time>2013-07-26T07:41:29.000Z</time>
      </trkpt>
      <trkpt lat="43.59097" lon="3.80341">
        <ele>104.3</ele>
        <time>2013-07-26T07:41:30.000Z</time>
      </trkpt>
      <trkpt lat="43.59096" lon="3.80334">
        <ele>102.9</ele>
        <time>2013-07-26T07:41:31.000Z</time>
      </trkpt>
      <trkpt lat="43.59096" lon="3.80328">
        <ele>101.6</ele>
        <time>2013-07-26T07:41:32.000Z</time>
      </trkpt>
      <trkpt lat="43.59096" lon="3.80321">
        <ele>101.6</ele>
        <time>2013-07-26T07:41:33.000Z</time>
      </trkpt>
      <trkpt lat="43.59095" lon="3.80315">
        <ele>99.9</ele>
        <time>2013-07-26T07:41:34.000Z</time>
      </trkpt>
      <trkpt lat="43.59095" lon="3.80308">
        <ele>99.8</ele>
        <time>2013-07-26T07:41:35.000Z</time>
      </trkpt>
      <trkpt lat="43.59093" lon="3.80302">
        <ele>100.1</ele>
        <time>2013-07-26T07:41:36.000Z</time>
      </trkpt>
      <trkpt lat="43.59092" lon="3.80296">
        <ele>100.4</ele>
        <time>2013-07-26T07:41:37.000Z</time>
      </trkpt>
      <trkpt lat="43.59091" lon="3.8029">
        <ele>99.7</ele>
        <time>2013-07-26T07:41:38.000Z</time>
      </trkpt>
      <trkpt lat="43.5909" lon="3.80282">
        <ele>98.9</ele>
        <time>2013-07-26T07:41:39.000Z</time>
      </trkpt>
      <trkpt lat="43.59088" lon="3.80275">
        <ele>99.1</ele>
        <time>2013-07-26T07:41:40.000Z</time>
      </trkpt>
      <trkpt lat="43.59087" lon="3.80267">
        <ele>98.2</ele>
        <time>2013-07-26T07:41:41.000Z</time>
      </trkpt>
      <trkpt lat="43.59084" lon="3.8026">
        <ele>98.4</ele>
        <time>2013-07-26T07:41:42.000Z</time>
      </trkpt>
      <trkpt lat="43.59082" lon="3.80253">
        <ele>98.5</ele>
        <time>2013-07-26T07:41:43.000Z</time>
      </trkpt>
      <trkpt lat="43.5908" lon="3.80247">
        <ele>98.5</ele>
        <time>2013-07-26T07:41:44.000Z</time>
      </trkpt>
      <trkpt lat="43.59078" lon="3.8024">
        <ele>99.2</ele>
        <time>2013-07-26T07:41:45.000Z</time>
      </trkpt>
      <trkpt lat="43.59076" lon="3.80231">
        <ele>99.6</ele>
        <time>2013-07-26T07:41:46.000Z</time>
      </trkpt>
      <trkpt lat="43.59073" lon="3.80223">
        <ele>101.1</ele>
        <time>2013-07-26T07:41:47.000Z</time>
      </trkpt>
      <trkpt lat="43.5907" lon="3.80216">
        <ele>101.8</ele>
        <time>2013-07-26T07:41:48.000Z</time>
      </trkpt>
      <trkpt lat="43.59067" lon="3.80209">
        <ele>102.6</ele>
        <time>2013-07-26T07:41:49.000Z</time>
      </trkpt>
      <trkpt lat="43.59064" lon="3.80201">
        <ele>101.7</ele>
        <time>2013-07-26T07:41:50.000Z</time>
      </trkpt>
      <trkpt lat="43.59061" lon="3.80194">
        <ele>101.8</ele>
        <time>2013-07-26T07:41:51.000Z</time>
      </trkpt>
      <trkpt lat="43.59058" lon="3.80187">
        <ele>100.5</ele>
        <time>2013-07-26T07:41:52.000Z</time>
      </trkpt>
      <trkpt lat="43.59055" lon="3.8018">
        <ele>101.7</ele>
        <time>2013-07-26T07:41:53.000Z</time>
      </trkpt>
      <trkpt lat="43.59052" lon="3.80173">
        <ele>101.8</ele>
        <time>2013-07-26T07:41:54.000Z</time>
      </trkpt>
      <trkpt lat="43.59049" lon="3.80165">
        <ele>101.1</ele>
        <time>2013-07-26T07:41:55.000Z</time>
      </trkpt>
      <trkpt lat="43.59046" lon="3.80158">
        <ele>100.6</ele>
        <time>2013-07-26T07:41:56.000Z</time>
      </trkpt>
      <trkpt lat="43.59042" lon="3.80151">
        <ele>99.4</ele>
        <time>2013-07-26T07:41:57.000Z</time>
      </trkpt>
      <trkpt lat="43.59038" lon="3.80144">
        <ele>99.3</ele>
        <time>2013-07-26T07:41:58.042Z</time>
      </trkpt>
      <trkpt lat="43.59035" lon="3.80138">
        <ele>99.4</ele>
        <time>2013-07-26T07:41:59.000Z</time>
      </trkpt>
      <trkpt lat="43.59031" lon="3.80128">
        <ele>99.1</ele>
        <time>2013-07-26T07:42:00.000Z</time>
      </trkpt>
      <trkpt lat="43.59026" lon="3.80119">
        <ele>98.9</ele>
        <time>2013-07-26T07:42:01.000Z</time>
      </trkpt>
      <trkpt lat="43.59022" lon="3.80109">
        <ele>97.8</ele>
        <time>2013-07-26T07:42:02.000Z</time>
      </trkpt>
      <trkpt lat="43.5902" lon="3.801">
        <ele>97.2</ele>
        <time>2013-07-26T07:42:03.000Z</time>
      </trkpt>
      <trkpt lat="43.59023" lon="3.80091">
        <ele>96.3</ele>
        <time>2013-07-26T07:42:04.000Z</time>
      </trkpt>
      <trkpt lat="43.59023" lon="3.80083">
        <ele>95.9</ele>
        <time>2013-07-26T07:42:05.000Z</time>
      </trkpt>
      <trkpt lat="43.5902" lon="3.80077">
        <ele>95.9</ele>
        <time>2013-07-26T07:42:06.000Z</time>
      </trkpt>
      <trkpt lat="43.59017" lon="3.80071">
        <ele>95.9</ele>
        <time>2013-07-26T07:42:07.000Z</time>
      </trkpt>
      <trkpt lat="43.59012" lon="3.80069">
        <ele>96.4</ele>
        <time>2013-07-26T07:42:08.000Z</time>
      </trkpt>
      <trkpt lat="43.59006" lon="3.80068">
        <ele>97.5</ele>
        <time>2013-07-26T07:42:09.000Z</time>
      </trkpt>
      <trkpt lat="43.59001" lon="3.80063">
        <ele>97.3</ele>
        <time>2013-07-26T07:42:10.000Z</time>
      </trkpt>
      <trkpt lat="43.58997" lon="3.80056">
        <ele>97.9</ele>
        <time>2013-07-26T07:42:11.000Z</time>
      </trkpt>
      <trkpt lat="43.58995" lon="3.80049">
        <ele>99.9</ele>
        <time>2013-07-26T07:42:12.000Z</time>
      </trkpt>
      <trkpt lat="43.58992" lon="3.80042">
        <ele>99.4</ele>
        <time>2013-07-26T07:42:13.000Z</time>
      </trkpt>
      <trkpt lat="43.58989" lon="3.80034">
        <ele>100.7</ele>
        <time>2013-07-26T07:42:14.000Z</time>
      </trkpt>
      <trkpt lat="43.58985" lon="3.80027">
        <ele>101.7</ele>
        <time>2013-07-26T07:42:15.000Z</time>
      </trkpt>
      <trkpt lat="43.58982" lon="3.80021">
        <ele>102.1</ele>
        <time>2013-07-26T07:42:16.000Z</time>
      </trkpt>
      <trkpt lat="43.58979" lon="3.80013">
        <ele>102.8</ele>
        <time>2013-07-26T07:42:17.000Z</time>
      </trkpt>
      <trkpt lat="43.58975" lon="3.80006">
        <ele>103.5</ele>
        <time>2013-07-26T07:42:18.000Z</time>
      </trkpt>
      <trkpt lat="43.58971" lon="3.79999">
        <ele>103.8</ele>
        <time>2013-07-26T07:42:19.000Z</time>
      </trkpt>
      <trkpt lat="43.58967" lon="3.79992">
        <ele>102.2</ele>
        <time>2013-07-26T07:42:20.000Z</time>
      </trkpt>
      <trkpt lat="43.58963" lon="3.79985">
        <ele>101.4</ele>
        <time>2013-07-26T07:42:21.000Z</time>
      </trkpt>
      <trkpt lat="43.58959" lon="3.79977">
        <ele>101.7</ele>
        <time>2013-07-26T07:42:22.000Z</time>
      </trkpt>
      <trkpt lat="43.58955" lon="3.79969">
        <ele>103.1</ele>
        <time>2013-07-26T07:42:23.000Z</time>
      </trkpt>
      <trkpt lat="43.5895" lon="3.79962">
        <ele>101.7</ele>
        <time>2013-07-26T07:42:24.000Z</time>
      </trkpt>
      <trkpt lat="43.58946" lon="3.79954">
        <ele>99.7</ele>
        <time>2013-07-26T07:42:25.000Z</time>
      </trkpt>
      <trkpt lat="43.58943" lon="3.79947">
        <ele>98.4</ele>
        <time>2013-07-26T07:42:26.000Z</time>
      </trkpt>
      <trkpt lat="43.58939" lon="3.79939">
        <ele>98.4</ele>
        <time>2013-07-26T07:42:27.000Z</time>
      </trkpt>
      <trkpt lat="43.58936" lon="3.7993">
        <ele>96.9</ele>
        <time>2013-07-26T07:42:28.000Z</time>
      </trkpt>
      <trkpt lat="43.58933" lon="3.79922">
        <ele>95</ele>
        <time>2013-07-26T07:42:29.000Z</time>
      </trkpt>
      <trkpt lat="43.58929" lon="3.79913">
        <ele>92.6</ele>
        <time>2013-07-26T07:42:30.000Z</time>
      </trkpt>
      <trkpt lat="43.58924" lon="3.79905">
        <ele>92</ele>
        <time>2013-07-26T07:42:31.000Z</time>
      </trkpt>
      <trkpt lat="43.5892" lon="3.79896">
        <ele>92.7</ele>
        <time>2013-07-26T07:42:32.000Z</time>
      </trkpt>
      <trkpt lat="43.58916" lon="3.79889">
        <ele>93.3</ele>
        <time>2013-07-26T07:42:33.000Z</time>
      </trkpt>
      <trkpt lat="43.58911" lon="3.79881">
        <ele>94</ele>
        <time>2013-07-26T07:42:34.000Z</time>
      </trkpt>
      <trkpt lat="43.58906" lon="3.79872">
        <ele>93.6</ele>
        <time>2013-07-26T07:42:35.000Z</time>
      </trkpt>
      <trkpt lat="43.58904" lon="3.79863">
        <ele>93.6</ele>
        <time>2013-07-26T07:42:36.000Z</time>
      </trkpt>
      <trkpt lat="43.58899" lon="3.79854">
        <ele>94</ele>
        <time>2013-07-26T07:42:37.000Z</time>
      </trkpt>
      <trkpt lat="43.58896" lon="3.79847">
        <ele>93.2</ele>
        <time>2013-07-26T07:42:38.000Z</time>
      </trkpt>
      <trkpt lat="43.58891" lon="3.79839">
        <ele>93.1</ele>
        <time>2013-07-26T07:42:39.000Z</time>
      </trkpt>
      <trkpt lat="43.58888" lon="3.7983">
        <ele>93.7</ele>
        <time>2013-07-26T07:42:40.000Z</time>
      </trkpt>
      <trkpt lat="43.58886" lon="3.79823">
        <ele>92.6</ele>
        <time>2013-07-26T07:42:41.000Z</time>
      </trkpt>
      <trkpt lat="43.58881" lon="3.79815">
        <ele>93</ele>
        <time>2013-07-26T07:42:42.000Z</time>
      </trkpt>
      <trkpt lat="43.58877" lon="3.79807">
        <ele>92.7</ele>
        <time>2013-07-26T07:42:43.000Z</time>
      </trkpt>
      <trkpt lat="43.58873" lon="3.79799">
        <ele>92.8</ele>
        <time>2013-07-26T07:42:44.000Z</time>
      </trkpt>
      <trkpt lat="43.5887" lon="3.79791">
        <ele>93.7</ele>
        <time>2013-07-26T07:42:45.000Z</time>
      </trkpt>
      <trkpt lat="43.58867" lon="3.79783">
        <ele>93.9</ele>
        <time>2013-07-26T07:42:46.000Z</time>
      </trkpt>
      <trkpt lat="43.58863" lon="3.79775">
        <ele>94.9</ele>
        <time>2013-07-26T07:42:47.000Z</time>
      </trkpt>
      <trkpt lat="43.58859" lon="3.79768">
        <ele>94.8</ele>
        <time>2013-07-26T07:42:48.000Z</time>
      </trkpt>
      <trkpt lat="43.58855" lon="3.79759">
        <ele>95</ele>
        <time>2013-07-26T07:42:49.000Z</time>
      </trkpt>
      <trkpt lat="43.58851" lon="3.79751">
        <ele>94.7</ele>
        <time>2013-07-26T07:42:50.000Z</time>
      </trkpt>
      <trkpt lat="43.58847" lon="3.79742">
        <ele>95.4</ele>
        <time>2013-07-26T07:42:51.001Z</time>
      </trkpt>
      <trkpt lat="43.58845" lon="3.79735">
        <ele>95.5</ele>
        <time>2013-07-26T07:42:52.000Z</time>
      </trkpt>
      <trkpt lat="43.58842" lon="3.79728">
        <ele>95.3</ele>
        <time>2013-07-26T07:42:53.000Z</time>
      </trkpt>
      <trkpt lat="43.58836" lon="3.79719">
        <ele>93.4</ele>
        <time>2013-07-26T07:42:54.000Z</time>
      </trkpt>
      <trkpt lat="43.58832" lon="3.79712">
        <ele>93.8</ele>
        <time>2013-07-26T07:42:55.000Z</time>
      </trkpt>
      <trkpt lat="43.58828" lon="3.79704">
        <ele>93.2</ele>
        <time>2013-07-26T07:42:56.000Z</time>
      </trkpt>
      <trkpt lat="43.58826" lon="3.79697">
        <ele>96.8</ele>
        <time>2013-07-26T07:42:57.000Z</time>
      </trkpt>
      <trkpt lat="43.58823" lon="3.7969">
        <ele>98.2</ele>
        <time>2013-07-26T07:42:58.054Z</time>
      </trkpt>
      <trkpt lat="43.58819" lon="3.79682">
        <ele>98.7</ele>
        <time>2013-07-26T07:42:59.000Z</time>
      </trkpt>
      <trkpt lat="43.58813" lon="3.79672">
        <ele>97.8</ele>
        <time>2013-07-26T07:43:00.000Z</time>
      </trkpt>
      <trkpt lat="43.58809" lon="3.79663">
        <ele>92.2</ele>
        <time>2013-07-26T07:43:01.000Z</time>
      </trkpt>
      <trkpt lat="43.58804" lon="3.79654">
        <ele>93.6</ele>
        <time>2013-07-26T07:43:02.000Z</time>
      </trkpt>
      <trkpt lat="43.588" lon="3.79647">
        <ele>94.3</ele>
        <time>2013-07-26T07:43:03.000Z</time>
      </trkpt>
      <trkpt lat="43.58795" lon="3.79639">
        <ele>93.2</ele>
        <time>2013-07-26T07:43:04.000Z</time>
      </trkpt>
      <trkpt lat="43.58791" lon="3.79631">
        <ele>92.2</ele>
        <time>2013-07-26T07:43:05.000Z</time>
      </trkpt>
      <trkpt lat="43.58787" lon="3.79622">
        <ele>91.6</ele>
        <time>2013-07-26T07:43:06.000Z</time>
      </trkpt>
      <trkpt lat="43.58783" lon="3.79614">
        <ele>91.9</ele>
        <time>2013-07-26T07:43:07.000Z</time>
      </trkpt>
      <trkpt lat="43.58779" lon="3.79607">
        <ele>92.2</ele>
        <time>2013-07-26T07:43:08.000Z</time>
      </trkpt>
      <trkpt lat="43.58776" lon="3.796">
        <ele>92.2</ele>
        <time>2013-07-26T07:43:09.000Z</time>
      </trkpt>
      <trkpt lat="43.58772" lon="3.79592">
        <ele>91.9</ele>
        <time>2013-07-26T07:43:10.000Z</time>
      </trkpt>
      <trkpt lat="43.58768" lon="3.79585">
        <ele>92</ele>
        <time>2013-07-26T07:43:11.000Z</time>
      </trkpt>
      <trkpt lat="43.58764" lon="3.79578">
        <ele>91.3</ele>
        <time>2013-07-26T07:43:12.000Z</time>
      </trkpt>
      <trkpt lat="43.5876" lon="3.79569">
        <ele>90.9</ele>
        <time>2013-07-26T07:43:13.000Z</time>
      </trkpt>
      <trkpt lat="43.58756" lon="3.79561">
        <ele>90.6</ele>
        <time>2013-07-26T07:43:14.000Z</time>
      </trkpt>
      <trkpt lat="43.58752" lon="3.79553">
        <ele>89.9</ele>
        <time>2013-07-26T07:43:15.000Z</time>
      </trkpt>
      <trkpt lat="43.58748" lon="3.79545">
        <ele>90.8</ele>
        <time>2013-07-26T07:43:16.000Z</time>
      </trkpt>
      <trkpt lat="43.58744" lon="3.79538">
        <ele>90.2</ele>
        <time>2013-07-26T07:43:17.000Z</time>
      </trkpt>
      <trkpt lat="43.5874" lon="3.7953">
        <ele>89.7</ele>
        <time>2013-07-26T07:43:18.000Z</time>
      </trkpt>
      <trkpt lat="43.58736" lon="3.79522">
        <ele>87.6</ele>
        <time>2013-07-26T07:43:19.000Z</time>
      </trkpt>
      <trkpt lat="43.58733" lon="3.79515">
        <ele>86.6</ele>
        <time>2013-07-26T07:43:20.000Z</time>
      </trkpt>
      <trkpt lat="43.58729" lon="3.79507">
        <ele>86.6</ele>
        <time>2013-07-26T07:43:21.000Z</time>
      </trkpt>
      <trkpt lat="43.58725" lon="3.795">
        <ele>87</ele>
        <time>2013-07-26T07:43:22.000Z</time>
      </trkpt>
      <trkpt lat="43.58721" lon="3.79492">
        <ele>86.5</ele>
        <time>2013-07-26T07:43:23.000Z</time>
      </trkpt>
      <trkpt lat="43.58717" lon="3.79485">
        <ele>86.4</ele>
        <time>2013-07-26T07:43:24.000Z</time>
      </trkpt>
      <trkpt lat="43.58714" lon="3.79478">
        <ele>87.7</ele>
        <time>2013-07-26T07:43:25.000Z</time>
      </trkpt>
      <trkpt lat="43.5871" lon="3.79472">
        <ele>87.6</ele>
        <time>2013-07-26T07:43:26.000Z</time>
      </trkpt>
      <trkpt lat="43.58706" lon="3.79464">
        <ele>88.1</ele>
        <time>2013-07-26T07:43:27.000Z</time>
      </trkpt>
      <trkpt lat="43.58702" lon="3.79459">
        <ele>88.4</ele>
        <time>2013-07-26T07:43:28.000Z</time>
      </trkpt>
      <trkpt lat="43.58699" lon="3.7945">
        <ele>88.6</ele>
        <time>2013-07-26T07:43:29.000Z</time>
      </trkpt>
      <trkpt lat="43.58695" lon="3.79443">
        <ele>87</ele>
        <time>2013-07-26T07:43:30.000Z</time>
      </trkpt>
      <trkpt lat="43.58692" lon="3.79435">
        <ele>86.9</ele>
        <time>2013-07-26T07:43:31.000Z</time>
      </trkpt>
      <trkpt lat="43.58689" lon="3.79428">
        <ele>86.7</ele>
        <time>2013-07-26T07:43:32.000Z</time>
      </trkpt>
      <trkpt lat="43.58686" lon="3.7942">
        <ele>86.6</ele>
        <time>2013-07-26T07:43:33.000Z</time>
      </trkpt>
      <trkpt lat="43.58681" lon="3.79413">
        <ele>85.8</ele>
        <time>2013-07-26T07:43:34.000Z</time>
      </trkpt>
      <trkpt lat="43.58678" lon="3.79406">
        <ele>86</ele>
        <time>2013-07-26T07:43:35.000Z</time>
      </trkpt>
      <trkpt lat="43.58676" lon="3.79399">
        <ele>86.2</ele>
        <time>2013-07-26T07:43:36.000Z</time>
      </trkpt>
      <trkpt lat="43.58672" lon="3.79391">
        <ele>85.2</ele>
        <time>2013-07-26T07:43:37.000Z</time>
      </trkpt>
      <trkpt lat="43.58668" lon="3.79383">
        <ele>84.4</ele>
        <time>2013-07-26T07:43:38.000Z</time>
      </trkpt>
      <trkpt lat="43.58665" lon="3.79376">
        <ele>84.7</ele>
        <time>2013-07-26T07:43:39.000Z</time>
      </trkpt>
      <trkpt lat="43.58663" lon="3.79368">
        <ele>84.3</ele>
        <time>2013-07-26T07:43:40.000Z</time>
      </trkpt>
      <trkpt lat="43.5866" lon="3.79361">
        <ele>84.9</ele>
        <time>2013-07-26T07:43:41.000Z</time>
      </trkpt>
      <trkpt lat="43.58658" lon="3.79353">
        <ele>87.2</ele>
        <time>2013-07-26T07:43:42.000Z</time>
      </trkpt>
      <trkpt lat="43.58655" lon="3.79344">
        <ele>88</ele>
        <time>2013-07-26T07:43:43.000Z</time>
      </trkpt>
      <trkpt lat="43.58652" lon="3.79337">
        <ele>87.3</ele>
        <time>2013-07-26T07:43:44.000Z</time>
      </trkpt>
      <trkpt lat="43.5865" lon="3.79328">
        <ele>87.9</ele>
        <time>2013-07-26T07:43:45.000Z</time>
      </trkpt>
      <trkpt lat="43.58646" lon="3.7932">
        <ele>87.9</ele>
        <time>2013-07-26T07:43:46.000Z</time>
      </trkpt>
      <trkpt lat="43.58643" lon="3.79312">
        <ele>87.2</ele>
        <time>2013-07-26T07:43:47.000Z</time>
      </trkpt>
      <trkpt lat="43.58641" lon="3.79304">
        <ele>87.1</ele>
        <time>2013-07-26T07:43:48.000Z</time>
      </trkpt>
      <trkpt lat="43.58639" lon="3.79297">
        <ele>85.9</ele>
        <time>2013-07-26T07:43:49.000Z</time>
      </trkpt>
      <trkpt lat="43.58637" lon="3.79288">
        <ele>86.3</ele>
        <time>2013-07-26T07:43:50.000Z</time>
      </trkpt>
      <trkpt lat="43.58636" lon="3.79278">
        <ele>83.8</ele>
        <time>2013-07-26T07:43:51.000Z</time>
      </trkpt>
      <trkpt lat="43.58634" lon="3.7927">
        <ele>83.3</ele>
        <time>2013-07-26T07:43:52.000Z</time>
      </trkpt>
      <trkpt lat="43.58632" lon="3.79261">
        <ele>83.1</ele>
        <time>2013-07-26T07:43:53.000Z</time>
      </trkpt>
      <trkpt lat="43.5863" lon="3.79252">
        <ele>83.8</ele>
        <time>2013-07-26T07:43:54.000Z</time>
      </trkpt>
      <trkpt lat="43.58628" lon="3.79243">
        <ele>84.3</ele>
        <time>2013-07-26T07:43:55.000Z</time>
      </trkpt>
      <trkpt lat="43.58625" lon="3.79234">
        <ele>83.8</ele>
        <time>2013-07-26T07:43:56.000Z</time>
      </trkpt>
      <trkpt lat="43.58622" lon="3.79225">
        <ele>83.6</ele>
        <time>2013-07-26T07:43:57.000Z</time>
      </trkpt>
      <trkpt lat="43.5862" lon="3.79215">
        <ele>83.4</ele>
        <time>2013-07-26T07:43:58.132Z</time>
      </trkpt>
      <trkpt lat="43.58618" lon="3.79207">
        <ele>83.7</ele>
        <time>2013-07-26T07:43:59.000Z</time>
      </trkpt>
      <trkpt lat="43.58615" lon="3.79197">
        <ele>84.2</ele>
        <time>2013-07-26T07:44:00.000Z</time>
      </trkpt>
      <trkpt lat="43.58613" lon="3.79187">
        <ele>84.8</ele>
        <time>2013-07-26T07:44:01.000Z</time>
      </trkpt>
      <trkpt lat="43.5861" lon="3.79178">
        <ele>84.5</ele>
        <time>2013-07-26T07:44:02.000Z</time>
      </trkpt>
      <trkpt lat="43.58609" lon="3.7917">
        <ele>83.9</ele>
        <time>2013-07-26T07:44:03.000Z</time>
      </trkpt>
      <trkpt lat="43.58607" lon="3.79162">
        <ele>83.7</ele>
        <time>2013-07-26T07:44:04.000Z</time>
      </trkpt>
      <trkpt lat="43.58606" lon="3.79154">
        <ele>83.9</ele>
        <time>2013-07-26T07:44:05.000Z</time>
      </trkpt>
      <trkpt lat="43.58604" lon="3.79145">
        <ele>84.2</ele>
        <time>2013-07-26T07:44:06.000Z</time>
      </trkpt>
      <trkpt lat="43.58604" lon="3.79135">
        <ele>85.4</ele>
        <time>2013-07-26T07:44:07.000Z</time>
      </trkpt>
      <trkpt lat="43.58603" lon="3.79125">
        <ele>85.1</ele>
        <time>2013-07-26T07:44:08.000Z</time>
      </trkpt>
      <trkpt lat="43.58601" lon="3.79115">
        <ele>84.8</ele>
        <time>2013-07-26T07:44:09.000Z</time>
      </trkpt>
      <trkpt lat="43.586" lon="3.79105">
        <ele>85</ele>
        <time>2013-07-26T07:44:10.000Z</time>
      </trkpt>
      <trkpt lat="43.586" lon="3.79096">
        <ele>87</ele>
        <time>2013-07-26T07:44:11.000Z</time>
      </trkpt>
      <trkpt lat="43.586" lon="3.79088">
        <ele>86.2</ele>
        <time>2013-07-26T07:44:12.000Z</time>
      </trkpt>
      <trkpt lat="43.58599" lon="3.79079">
        <ele>85.6</ele>
        <time>2013-07-26T07:44:13.000Z</time>
      </trkpt>
      <trkpt lat="43.58598" lon="3.7907">
        <ele>85</ele>
        <time>2013-07-26T07:44:14.000Z</time>
      </trkpt>
      <trkpt lat="43.58598" lon="3.79061">
        <ele>84.9</ele>
        <time>2013-07-26T07:44:15.000Z</time>
      </trkpt>
      <trkpt lat="43.58597" lon="3.79053">
        <ele>85.1</ele>
        <time>2013-07-26T07:44:16.000Z</time>
      </trkpt>
      <trkpt lat="43.58598" lon="3.79044">
        <ele>84.1</ele>
        <time>2013-07-26T07:44:17.000Z</time>
      </trkpt>
      <trkpt lat="43.58598" lon="3.79036">
        <ele>84</ele>
        <time>2013-07-26T07:44:18.000Z</time>
      </trkpt>
      <trkpt lat="43.58597" lon="3.79026">
        <ele>84.8</ele>
        <time>2013-07-26T07:44:19.000Z</time>
      </trkpt>
      <trkpt lat="43.58597" lon="3.79017">
        <ele>85</ele>
        <time>2013-07-26T07:44:20.000Z</time>
      </trkpt>
      <trkpt lat="43.58597" lon="3.7901">
        <ele>86</ele>
        <time>2013-07-26T07:44:21.000Z</time>
      </trkpt>
      <trkpt lat="43.58596" lon="3.79004">
        <ele>88.4</ele>
        <time>2013-07-26T07:44:22.000Z</time>
      </trkpt>
      <trkpt lat="43.58597" lon="3.78995">
        <ele>88.6</ele>
        <time>2013-07-26T07:44:23.000Z</time>
      </trkpt>
      <trkpt lat="43.58599" lon="3.78987">
        <ele>88.5</ele>
        <time>2013-07-26T07:44:24.000Z</time>
      </trkpt>
      <trkpt lat="43.58599" lon="3.78978">
        <ele>89.6</ele>
        <time>2013-07-26T07:44:25.000Z</time>
      </trkpt>
      <trkpt lat="43.58601" lon="3.78969">
        <ele>90.7</ele>
        <time>2013-07-26T07:44:26.000Z</time>
      </trkpt>
      <trkpt lat="43.586" lon="3.78961">
        <ele>91.6</ele>
        <time>2013-07-26T07:44:27.000Z</time>
      </trkpt>
      <trkpt lat="43.58601" lon="3.78955">
        <ele>91.7</ele>
        <time>2013-07-26T07:44:28.000Z</time>
      </trkpt>
      <trkpt lat="43.586" lon="3.78946">
        <ele>89.7</ele>
        <time>2013-07-26T07:44:29.000Z</time>
      </trkpt>
      <trkpt lat="43.58599" lon="3.78937">
        <ele>88.3</ele>
        <time>2013-07-26T07:44:30.000Z</time>
      </trkpt>
      <trkpt lat="43.58597" lon="3.78928">
        <ele>88.6</ele>
        <time>2013-07-26T07:44:31.000Z</time>
      </trkpt>
      <trkpt lat="43.58598" lon="3.78921">
        <ele>89.2</ele>
        <time>2013-07-26T07:44:32.000Z</time>
      </trkpt>
      <trkpt lat="43.58598" lon="3.78913">
        <ele>87.8</ele>
        <time>2013-07-26T07:44:33.000Z</time>
      </trkpt>
      <trkpt lat="43.58599" lon="3.78905">
        <ele>86</ele>
        <time>2013-07-26T07:44:34.000Z</time>
      </trkpt>
      <trkpt lat="43.586" lon="3.78898">
        <ele>84.9</ele>
        <time>2013-07-26T07:44:35.000Z</time>
      </trkpt>
      <trkpt lat="43.58601" lon="3.7889">
        <ele>84.6</ele>
        <time>2013-07-26T07:44:36.000Z</time>
      </trkpt>
      <trkpt lat="43.586" lon="3.78882">
        <ele>83.9</ele>
        <time>2013-07-26T07:44:37.000Z</time>
      </trkpt>
      <trkpt lat="43.586" lon="3.78873">
        <ele>82.9</ele>
        <time>2013-07-26T07:44:38.000Z</time>
      </trkpt>
      <trkpt lat="43.586" lon="3.78865">
        <ele>82.5</ele>
        <time>2013-07-26T07:44:39.000Z</time>
      </trkpt>
      <trkpt lat="43.586" lon="3.78856">
        <ele>82.7</ele>
        <time>2013-07-26T07:44:40.000Z</time>
      </trkpt>
      <trkpt lat="43.586" lon="3.78847">
        <ele>81.9</ele>
        <time>2013-07-26T07:44:41.000Z</time>
      </trkpt>
      <trkpt lat="43.586" lon="3.78839">
        <ele>81.3</ele>
        <time>2013-07-26T07:44:42.000Z</time>
      </trkpt>
      <trkpt lat="43.586" lon="3.78831">
        <ele>80.8</ele>
        <time>2013-07-26T07:44:43.000Z</time>
      </trkpt>
      <trkpt lat="43.58601" lon="3.78823">
        <ele>79.1</ele>
        <time>2013-07-26T07:44:44.000Z</time>
      </trkpt>
      <trkpt lat="43.58601" lon="3.78816">
        <ele>78.8</ele>
        <time>2013-07-26T07:44:45.000Z</time>
      </trkpt>
      <trkpt lat="43.58601" lon="3.78808">
        <ele>78.2</ele>
        <time>2013-07-26T07:44:46.000Z</time>
      </trkpt>
      <trkpt lat="43.586" lon="3.78799">
        <ele>77.6</ele>
        <time>2013-07-26T07:44:47.000Z</time>
      </trkpt>
      <trkpt lat="43.586" lon="3.78791">
        <ele>77.8</ele>
        <time>2013-07-26T07:44:48.000Z</time>
      </trkpt>
      <trkpt lat="43.58599" lon="3.78783">
        <ele>78.3</ele>
        <time>2013-07-26T07:44:49.000Z</time>
      </trkpt>
      <trkpt lat="43.58598" lon="3.78776">
        <ele>78.4</ele>
        <time>2013-07-26T07:44:50.000Z</time>
      </trkpt>
      <trkpt lat="43.58596" lon="3.78767">
        <ele>77.4</ele>
        <time>2013-07-26T07:44:51.000Z</time>
      </trkpt>
      <trkpt lat="43.58595" lon="3.78759">
        <ele>77.3</ele>
        <time>2013-07-26T07:44:52.000Z</time>
      </trkpt>
      <trkpt lat="43.58595" lon="3.78751">
        <ele>77.7</ele>
        <time>2013-07-26T07:44:53.000Z</time>
      </trkpt>
      <trkpt lat="43.58594" lon="3.78744">
        <ele>77.3</ele>
        <time>2013-07-26T07:44:54.000Z</time>
      </trkpt>
      <trkpt lat="43.58593" lon="3.78735">
        <ele>77.7</ele>
        <time>2013-07-26T07:44:55.000Z</time>
      </trkpt>
      <trkpt lat="43.58592" lon="3.78728">
        <ele>79</ele>
        <time>2013-07-26T07:44:56.000Z</time>
      </trkpt>
      <trkpt lat="43.5859" lon="3.78721">
        <ele>78.8</ele>
        <time>2013-07-26T07:44:57.000Z</time>
      </trkpt>
      <trkpt lat="43.58588" lon="3.78713">
        <ele>79</ele>
        <time>2013-07-26T07:44:57.957Z</time>
      </trkpt>
      <trkpt lat="43.58586" lon="3.78706">
        <ele>79.5</ele>
        <time>2013-07-26T07:44:59.000Z</time>
      </trkpt>
      <trkpt lat="43.58583" lon="3.78698">
        <ele>80.9</ele>
        <time>2013-07-26T07:45:00.000Z</time>
      </trkpt>
      <trkpt lat="43.58581" lon="3.78691">
        <ele>82.2</ele>
        <time>2013-07-26T07:45:01.000Z</time>
      </trkpt>
      <trkpt lat="43.5858" lon="3.78683">
        <ele>82.9</ele>
        <time>2013-07-26T07:45:02.000Z</time>
      </trkpt>
      <trkpt lat="43.58578" lon="3.78675">
        <ele>83.6</ele>
        <time>2013-07-26T07:45:03.000Z</time>
      </trkpt>
      <trkpt lat="43.58575" lon="3.78668">
        <ele>84.5</ele>
        <time>2013-07-26T07:45:04.000Z</time>
      </trkpt>
      <trkpt lat="43.58573" lon="3.78661">
        <ele>84.8</ele>
        <time>2013-07-26T07:45:05.000Z</time>
      </trkpt>
      <trkpt lat="43.58572" lon="3.78653">
        <ele>85</ele>
        <time>2013-07-26T07:45:06.000Z</time>
      </trkpt>
      <trkpt lat="43.5857" lon="3.78646">
        <ele>85.6</ele>
        <time>2013-07-26T07:45:07.000Z</time>
      </trkpt>
      <trkpt lat="43.58567" lon="3.78638">
        <ele>85.7</ele>
        <time>2013-07-26T07:45:08.000Z</time>
      </trkpt>
      <trkpt lat="43.58566" lon="3.78631">
        <ele>85.6</ele>
        <time>2013-07-26T07:45:09.000Z</time>
      </trkpt>
      <trkpt lat="43.58564" lon="3.78623">
        <ele>86.8</ele>
        <time>2013-07-26T07:45:10.000Z</time>
      </trkpt>
      <trkpt lat="43.58562" lon="3.78616">
        <ele>87.4</ele>
        <time>2013-07-26T07:45:11.000Z</time>
      </trkpt>
      <trkpt lat="43.58561" lon="3.78608">
        <ele>88.3</ele>
        <time>2013-07-26T07:45:12.000Z</time>
      </trkpt>
      <trkpt lat="43.5856" lon="3.78601">
        <ele>88.4</ele>
        <time>2013-07-26T07:45:13.000Z</time>
      </trkpt>
      <trkpt lat="43.58559" lon="3.78594">
        <ele>88.4</ele>
        <time>2013-07-26T07:45:14.000Z</time>
      </trkpt>
      <trkpt lat="43.58557" lon="3.78586">
        <ele>88.4</ele>
        <time>2013-07-26T07:45:15.000Z</time>
      </trkpt>
      <trkpt lat="43.58557" lon="3.78579">
        <ele>87.2</ele>
        <time>2013-07-26T07:45:16.000Z</time>
      </trkpt>
      <trkpt lat="43.58555" lon="3.78572">
        <ele>88</ele>
        <time>2013-07-26T07:45:17.000Z</time>
      </trkpt>
      <trkpt lat="43.58554" lon="3.78564">
        <ele>88.7</ele>
        <time>2013-07-26T07:45:18.000Z</time>
      </trkpt>
      <trkpt lat="43.58553" lon="3.78558">
        <ele>88.9</ele>
        <time>2013-07-26T07:45:19.000Z</time>
      </trkpt>
      <trkpt lat="43.58551" lon="3.7855">
        <ele>89.9</ele>
        <time>2013-07-26T07:45:20.000Z</time>
      </trkpt>
      <trkpt lat="43.58549" lon="3.78542">
        <ele>89.7</ele>
        <time>2013-07-26T07:45:21.000Z</time>
      </trkpt>
      <trkpt lat="43.58548" lon="3.78535">
        <ele>90</ele>
        <time>2013-07-26T07:45:22.000Z</time>
      </trkpt>
      <trkpt lat="43.58546" lon="3.78528">
        <ele>89.9</ele>
        <time>2013-07-26T07:45:23.000Z</time>
      </trkpt>
      <trkpt lat="43.58544" lon="3.78521">
        <ele>89</ele>
        <time>2013-07-26T07:45:24.000Z</time>
      </trkpt>
      <trkpt lat="43.58542" lon="3.78515">
        <ele>89.2</ele>
        <time>2013-07-26T07:45:25.000Z</time>
      </trkpt>
      <trkpt lat="43.58539" lon="3.78508">
        <ele>89.6</ele>
        <time>2013-07-26T07:45:26.000Z</time>
      </trkpt>
      <trkpt lat="43.58538" lon="3.78501">
        <ele>89.8</ele>
        <time>2013-07-26T07:45:27.000Z</time>
      </trkpt>
      <trkpt lat="43.58535" lon="3.78497">
        <ele>92.5</ele>
        <time>2013-07-26T07:45:28.000Z</time>
      </trkpt>
      <trkpt lat="43.58531" lon="3.78491">
        <ele>94.7</ele>
        <time>2013-07-26T07:45:29.000Z</time>
      </trkpt>
      <trkpt lat="43.58529" lon="3.78484">
        <ele>95.2</ele>
        <time>2013-07-26T07:45:30.000Z</time>
      </trkpt>
      <trkpt lat="43.58527" lon="3.78477">
        <ele>94.9</ele>
        <time>2013-07-26T07:45:31.000Z</time>
      </trkpt>
      <trkpt lat="43.58527" lon="3.7847">
        <ele>95.2</ele>
        <time>2013-07-26T07:45:32.000Z</time>
      </trkpt>
      <trkpt lat="43.58527" lon="3.78464">
        <ele>94.8</ele>
        <time>2013-07-26T07:45:33.000Z</time>
      </trkpt>
      <trkpt lat="43.58526" lon="3.78455">
        <ele>94.7</ele>
        <time>2013-07-26T07:45:34.000Z</time>
      </trkpt>
      <trkpt lat="43.58524" lon="3.78447">
        <ele>94.7</ele>
        <time>2013-07-26T07:45:35.000Z</time>
      </trkpt>
      <trkpt lat="43.58524" lon="3.78441">
        <ele>93.6</ele>
        <time>2013-07-26T07:45:36.000Z</time>
      </trkpt>
      <trkpt lat="43.58522" lon="3.78435">
        <ele>92.8</ele>
        <time>2013-07-26T07:45:37.000Z</time>
      </trkpt>
      <trkpt lat="43.5852" lon="3.78429">
        <ele>92.9</ele>
        <time>2013-07-26T07:45:38.000Z</time>
      </trkpt>
      <trkpt lat="43.58519" lon="3.78423">
        <ele>92.9</ele>
        <time>2013-07-26T07:45:39.000Z</time>
      </trkpt>
      <trkpt lat="43.58518" lon="3.78417">
        <ele>93.2</ele>
        <time>2013-07-26T07:45:40.000Z</time>
      </trkpt>
      <trkpt lat="43.58516" lon="3.7841">
        <ele>93.6</ele>
        <time>2013-07-26T07:45:41.000Z</time>
      </trkpt>
      <trkpt lat="43.58514" lon="3.78403">
        <ele>93.6</ele>
        <time>2013-07-26T07:45:42.000Z</time>
      </trkpt>
      <trkpt lat="43.58513" lon="3.78396">
        <ele>93.4</ele>
        <time>2013-07-26T07:45:43.000Z</time>
      </trkpt>
      <trkpt lat="43.58513" lon="3.78389">
        <ele>95</ele>
        <time>2013-07-26T07:45:44.000Z</time>
      </trkpt>
      <trkpt lat="43.58511" lon="3.78383">
        <ele>94.9</ele>
        <time>2013-07-26T07:45:45.000Z</time>
      </trkpt>
      <trkpt lat="43.5851" lon="3.78375">
        <ele>94.4</ele>
        <time>2013-07-26T07:45:46.000Z</time>
      </trkpt>
      <trkpt lat="43.58508" lon="3.78369">
        <ele>94.6</ele>
        <time>2013-07-26T07:45:47.000Z</time>
      </trkpt>
      <trkpt lat="43.58507" lon="3.78362">
        <ele>94</ele>
        <time>2013-07-26T07:45:48.000Z</time>
      </trkpt>
      <trkpt lat="43.58507" lon="3.78354">
        <ele>93.6</ele>
        <time>2013-07-26T07:45:49.000Z</time>
      </trkpt>
      <trkpt lat="43.58504" lon="3.78348">
        <ele>94.2</ele>
        <time>2013-07-26T07:45:50.000Z</time>
      </trkpt>
      <trkpt lat="43.58503" lon="3.78341">
        <ele>93.4</ele>
        <time>2013-07-26T07:45:51.000Z</time>
      </trkpt>
      <trkpt lat="43.58503" lon="3.78333">
        <ele>94.8</ele>
        <time>2013-07-26T07:45:52.000Z</time>
      </trkpt>
      <trkpt lat="43.58501" lon="3.78326">
        <ele>93.7</ele>
        <time>2013-07-26T07:45:53.000Z</time>
      </trkpt>
      <trkpt lat="43.585" lon="3.78319">
        <ele>91.3</ele>
        <time>2013-07-26T07:45:54.000Z</time>
      </trkpt>
      <trkpt lat="43.58499" lon="3.78311">
        <ele>90.1</ele>
        <time>2013-07-26T07:45:55.000Z</time>
      </trkpt>
      <trkpt lat="43.58497" lon="3.78304">
        <ele>91.8</ele>
        <time>2013-07-26T07:45:56.000Z</time>
      </trkpt>
      <trkpt lat="43.58496" lon="3.78297">
        <ele>92.4</ele>
        <time>2013-07-26T07:45:57.000Z</time>
      </trkpt>
      <trkpt lat="43.58494" lon="3.7829">
        <ele>92.5</ele>
        <time>2013-07-26T07:45:58.029Z</time>
      </trkpt>
      <trkpt lat="43.58494" lon="3.78285">
        <ele>93.4</ele>
        <time>2013-07-26T07:45:59.000Z</time>
      </trkpt>
      <trkpt lat="43.58493" lon="3.78278">
        <ele>93.9</ele>
        <time>2013-07-26T07:46:00.000Z</time>
      </trkpt>
      <trkpt lat="43.58493" lon="3.7827">
        <ele>92.7</ele>
        <time>2013-07-26T07:46:01.000Z</time>
      </trkpt>
      <trkpt lat="43.58493" lon="3.78262">
        <ele>93.3</ele>
        <time>2013-07-26T07:46:02.000Z</time>
      </trkpt>
      <trkpt lat="43.58493" lon="3.78254">
        <ele>93.3</ele>
        <time>2013-07-26T07:46:03.000Z</time>
      </trkpt>
      <trkpt lat="43.58492" lon="3.78247">
        <ele>93.6</ele>
        <time>2013-07-26T07:46:04.000Z</time>
      </trkpt>
      <trkpt lat="43.58491" lon="3.78239">
        <ele>93.9</ele>
        <time>2013-07-26T07:46:05.000Z</time>
      </trkpt>
      <trkpt lat="43.58492" lon="3.78233">
        <ele>93.2</ele>
        <time>2013-07-26T07:46:06.000Z</time>
      </trkpt>
      <trkpt lat="43.58491" lon="3.78224">
        <ele>93.8</ele>
        <time>2013-07-26T07:46:07.000Z</time>
      </trkpt>
      <trkpt lat="43.58491" lon="3.78215">
        <ele>94.4</ele>
        <time>2013-07-26T07:46:08.000Z</time>
      </trkpt>
      <trkpt lat="43.58491" lon="3.78207">
        <ele>95.7</ele>
        <time>2013-07-26T07:46:09.000Z</time>
      </trkpt>
      <trkpt lat="43.5849" lon="3.78197">
        <ele>96.6</ele>
        <time>2013-07-26T07:46:10.000Z</time>
      </trkpt>
      <trkpt lat="43.58491" lon="3.78188">
        <ele>96.4</ele>
        <time>2013-07-26T07:46:11.000Z</time>
      </trkpt>
      <trkpt lat="43.58491" lon="3.78179">
        <ele>96.6</ele>
        <time>2013-07-26T07:46:12.000Z</time>
      </trkpt>
      <trkpt lat="43.5849" lon="3.7817">
        <ele>98.6</ele>
        <time>2013-07-26T07:46:13.000Z</time>
      </trkpt>
      <trkpt lat="43.58488" lon="3.78163">
        <ele>100.2</ele>
        <time>2013-07-26T07:46:14.000Z</time>
      </trkpt>
      <trkpt lat="43.58488" lon="3.78155">
        <ele>100.2</ele>
        <time>2013-07-26T07:46:15.000Z</time>
      </trkpt>
      <trkpt lat="43.58489" lon="3.78145">
        <ele>99.4</ele>
        <time>2013-07-26T07:46:16.000Z</time>
      </trkpt>
      <trkpt lat="43.58488" lon="3.78136">
        <ele>99.9</ele>
        <time>2013-07-26T07:46:17.000Z</time>
      </trkpt>
      <trkpt lat="43.58488" lon="3.78126">
        <ele>98.7</ele>
        <time>2013-07-26T07:46:18.000Z</time>
      </trkpt>
      <trkpt lat="43.58488" lon="3.78116">
        <ele>99.3</ele>
        <time>2013-07-26T07:46:19.000Z</time>
      </trkpt>
      <trkpt lat="43.5849" lon="3.78105">
        <ele>98.9</ele>
        <time>2013-07-26T07:46:20.000Z</time>
      </trkpt>
      <trkpt lat="43.5849" lon="3.78094">
        <ele>97.9</ele>
        <time>2013-07-26T07:46:21.000Z</time>
      </trkpt>
      <trkpt lat="43.5849" lon="3.78085">
        <ele>97.3</ele>
        <time>2013-07-26T07:46:22.000Z</time>
      </trkpt>
      <trkpt lat="43.58489" lon="3.78074">
        <ele>97.4</ele>
        <time>2013-07-26T07:46:23.000Z</time>
      </trkpt>
      <trkpt lat="43.58489" lon="3.78064">
        <ele>96.4</ele>
        <time>2013-07-26T07:46:24.000Z</time>
      </trkpt>
      <trkpt lat="43.58489" lon="3.78056">
        <ele>95.8</ele>
        <time>2013-07-26T07:46:25.000Z</time>
      </trkpt>
      <trkpt lat="43.58489" lon="3.78045">
        <ele>96</ele>
        <time>2013-07-26T07:46:26.000Z</time>
      </trkpt>
      <trkpt lat="43.5849" lon="3.78035">
        <ele>96.3</ele>
        <time>2013-07-26T07:46:27.000Z</time>
      </trkpt>
      <trkpt lat="43.5849" lon="3.78025">
        <ele>96.9</ele>
        <time>2013-07-26T07:46:28.000Z</time>
      </trkpt>
      <trkpt lat="43.5849" lon="3.78016">
        <ele>94.8</ele>
        <time>2013-07-26T07:46:29.000Z</time>
      </trkpt>
      <trkpt lat="43.5849" lon="3.78006">
        <ele>93.6</ele>
        <time>2013-07-26T07:46:30.000Z</time>
      </trkpt>
      <trkpt lat="43.58491" lon="3.77997">
        <ele>94</ele>
        <time>2013-07-26T07:46:31.000Z</time>
      </trkpt>
      <trkpt lat="43.58491" lon="3.77988">
        <ele>94.7</ele>
        <time>2013-07-26T07:46:32.000Z</time>
      </trkpt>
      <trkpt lat="43.58491" lon="3.77978">
        <ele>94</ele>
        <time>2013-07-26T07:46:33.000Z</time>
      </trkpt>
      <trkpt lat="43.58492" lon="3.7797">
        <ele>94.1</ele>
        <time>2013-07-26T07:46:34.000Z</time>
      </trkpt>
      <trkpt lat="43.58493" lon="3.77961">
        <ele>93.4</ele>
        <time>2013-07-26T07:46:35.000Z</time>
      </trkpt>
      <trkpt lat="43.58495" lon="3.77952">
        <ele>94.5</ele>
        <time>2013-07-26T07:46:36.000Z</time>
      </trkpt>
      <trkpt lat="43.58496" lon="3.77944">
        <ele>95.5</ele>
        <time>2013-07-26T07:46:37.000Z</time>
      </trkpt>
      <trkpt lat="43.58498" lon="3.77934">
        <ele>93.4</ele>
        <time>2013-07-26T07:46:38.000Z</time>
      </trkpt>
      <trkpt lat="43.585" lon="3.77926">
        <ele>92.6</ele>
        <time>2013-07-26T07:46:39.000Z</time>
      </trkpt>
      <trkpt lat="43.58502" lon="3.77919">
        <ele>92.9</ele>
        <time>2013-07-26T07:46:40.000Z</time>
      </trkpt>
      <trkpt lat="43.58502" lon="3.7791">
        <ele>92.7</ele>
        <time>2013-07-26T07:46:41.000Z</time>
      </trkpt>
      <trkpt lat="43.58502" lon="3.77902">
        <ele>92.6</ele>
        <time>2013-07-26T07:46:42.000Z</time>
      </trkpt>
      <trkpt lat="43.58501" lon="3.77894">
        <ele>92.1</ele>
        <time>2013-07-26T07:46:43.000Z</time>
      </trkpt>
      <trkpt lat="43.58493" lon="3.77886">
        <ele>89.7</ele>
        <time>2013-07-26T07:46:44.000Z</time>
      </trkpt>
      <trkpt lat="43.58489" lon="3.77881">
        <ele>90.2</ele>
        <time>2013-07-26T07:46:45.000Z</time>
      </trkpt>
      <trkpt lat="43.58485" lon="3.77876">
        <ele>90.1</ele>
        <time>2013-07-26T07:46:46.000Z</time>
      </trkpt>
      <trkpt lat="43.58482" lon="3.7787">
        <ele>89.5</ele>
        <time>2013-07-26T07:46:47.000Z</time>
      </trkpt>
      <trkpt lat="43.58478" lon="3.77864">
        <ele>89.4</ele>
        <time>2013-07-26T07:46:48.000Z</time>
      </trkpt>
      <trkpt lat="43.58476" lon="3.77856">
        <ele>88.9</ele>
        <time>2013-07-26T07:46:49.000Z</time>
      </trkpt>
      <trkpt lat="43.58476" lon="3.77849">
        <ele>88.8</ele>
        <time>2013-07-26T07:46:50.000Z</time>
      </trkpt>
      <trkpt lat="43.58478" lon="3.77842">
        <ele>88.6</ele>
        <time>2013-07-26T07:46:51.000Z</time>
      </trkpt>
      <trkpt lat="43.58478" lon="3.77834">
        <ele>87.9</ele>
        <time>2013-07-26T07:46:52.000Z</time>
      </trkpt>
      <trkpt lat="43.58479" lon="3.77826">
        <ele>87.2</ele>
        <time>2013-07-26T07:46:53.000Z</time>
      </trkpt>
      <trkpt lat="43.5848" lon="3.77821">
        <ele>87.4</ele>
        <time>2013-07-26T07:46:54.000Z</time>
      </trkpt>
      <trkpt lat="43.58478" lon="3.77816">
        <ele>88</ele>
        <time>2013-07-26T07:46:55.000Z</time>
      </trkpt>
      <trkpt lat="43.58474" lon="3.77812">
        <ele>88.5</ele>
        <time>2013-07-26T07:46:56.000Z</time>
      </trkpt>
      <trkpt lat="43.58472" lon="3.77807">
        <ele>89.6</ele>
        <time>2013-07-26T07:46:57.000Z</time>
      </trkpt>
      <trkpt lat="43.58469" lon="3.77801">
        <ele>90</ele>
        <time>2013-07-26T07:46:58.084Z</time>
      </trkpt>
      <trkpt lat="43.58467" lon="3.77793">
        <ele>90.7</ele>
        <time>2013-07-26T07:46:59.000Z</time>
      </trkpt>
      <trkpt lat="43.58466" lon="3.77785">
        <ele>91.6</ele>
        <time>2013-07-26T07:47:00.000Z</time>
      </trkpt>
      <trkpt lat="43.58464" lon="3.77777">
        <ele>91.6</ele>
        <time>2013-07-26T07:47:01.000Z</time>
      </trkpt>
      <trkpt lat="43.58463" lon="3.77768">
        <ele>91.4</ele>
        <time>2013-07-26T07:47:02.000Z</time>
      </trkpt>
      <trkpt lat="43.58461" lon="3.77759">
        <ele>91.6</ele>
        <time>2013-07-26T07:47:03.000Z</time>
      </trkpt>
      <trkpt lat="43.5846" lon="3.77751">
        <ele>91.4</ele>
        <time>2013-07-26T07:47:04.000Z</time>
      </trkpt>
      <trkpt lat="43.58457" lon="3.77742">
        <ele>91.2</ele>
        <time>2013-07-26T07:47:05.000Z</time>
      </trkpt>
      <trkpt lat="43.58453" lon="3.77734">
        <ele>91.2</ele>
        <time>2013-07-26T07:47:06.000Z</time>
      </trkpt>
      <trkpt lat="43.5845" lon="3.77726">
        <ele>91.6</ele>
        <time>2013-07-26T07:47:07.000Z</time>
      </trkpt>
      <trkpt lat="43.58448" lon="3.77717">
        <ele>92.3</ele>
        <time>2013-07-26T07:47:08.000Z</time>
      </trkpt>
      <trkpt lat="43.58445" lon="3.77709">
        <ele>92.2</ele>
        <time>2013-07-26T07:47:09.000Z</time>
      </trkpt>
      <trkpt lat="43.58442" lon="3.777">
        <ele>92.2</ele>
        <time>2013-07-26T07:47:10.000Z</time>
      </trkpt>
      <trkpt lat="43.58439" lon="3.77692">
        <ele>91.3</ele>
        <time>2013-07-26T07:47:11.000Z</time>
      </trkpt>
      <trkpt lat="43.58436" lon="3.77685">
        <ele>91</ele>
        <time>2013-07-26T07:47:12.000Z</time>
      </trkpt>
      <trkpt lat="43.58432" lon="3.77676">
        <ele>91.1</ele>
        <time>2013-07-26T07:47:13.000Z</time>
      </trkpt>
      <trkpt lat="43.58429" lon="3.77668">
        <ele>91.1</ele>
        <time>2013-07-26T07:47:14.000Z</time>
      </trkpt>
      <trkpt lat="43.58425" lon="3.7766">
        <ele>91.4</ele>
        <time>2013-07-26T07:47:15.000Z</time>
      </trkpt>
      <trkpt lat="43.58421" lon="3.77652">
        <ele>90.8</ele>
        <time>2013-07-26T07:47:16.000Z</time>
      </trkpt>
      <trkpt lat="43.58417" lon="3.77644">
        <ele>90.6</ele>
        <time>2013-07-26T07:47:17.000Z</time>
      </trkpt>
      <trkpt lat="43.58411" lon="3.77636">
        <ele>90.8</ele>
        <time>2013-07-26T07:47:18.000Z</time>
      </trkpt>
      <trkpt lat="43.58407" lon="3.77627">
        <ele>90.3</ele>
        <time>2013-07-26T07:47:19.000Z</time>
      </trkpt>
      <trkpt lat="43.58404" lon="3.77619">
        <ele>89.4</ele>
        <time>2013-07-26T07:47:20.000Z</time>
      </trkpt>
      <trkpt lat="43.58401" lon="3.7761">
        <ele>88.7</ele>
        <time>2013-07-26T07:47:21.000Z</time>
      </trkpt>
      <trkpt lat="43.58396" lon="3.77603">
        <ele>89.5</ele>
        <time>2013-07-26T07:47:22.000Z</time>
      </trkpt>
      <trkpt lat="43.58393" lon="3.77595">
        <ele>90.8</ele>
        <time>2013-07-26T07:47:23.000Z</time>
      </trkpt>
      <trkpt lat="43.58388" lon="3.77587">
        <ele>92.4</ele>
        <time>2013-07-26T07:47:24.000Z</time>
      </trkpt>
      <trkpt lat="43.58385" lon="3.77578">
        <ele>92.4</ele>
        <time>2013-07-26T07:47:25.000Z</time>
      </trkpt>
      <trkpt lat="43.58379" lon="3.7757">
        <ele>92.6</ele>
        <time>2013-07-26T07:47:26.000Z</time>
      </trkpt>
      <trkpt lat="43.58374" lon="3.7756">
        <ele>91.6</ele>
        <time>2013-07-26T07:47:27.000Z</time>
      </trkpt>
      <trkpt lat="43.58371" lon="3.77552">
        <ele>91.6</ele>
        <time>2013-07-26T07:47:28.000Z</time>
      </trkpt>
      <trkpt lat="43.58367" lon="3.77546">
        <ele>91.7</ele>
        <time>2013-07-26T07:47:29.000Z</time>
      </trkpt>
      <trkpt lat="43.58363" lon="3.77538">
        <ele>92.6</ele>
        <time>2013-07-26T07:47:30.000Z</time>
      </trkpt>
      <trkpt lat="43.5836" lon="3.77531">
        <ele>92.5</ele>
        <time>2013-07-26T07:47:31.000Z</time>
      </trkpt>
      <trkpt lat="43.58356" lon="3.77523">
        <ele>92.2</ele>
        <time>2013-07-26T07:47:32.000Z</time>
      </trkpt>
      <trkpt lat="43.58352" lon="3.77516">
        <ele>91.4</ele>
        <time>2013-07-26T07:47:33.000Z</time>
      </trkpt>
      <trkpt lat="43.58349" lon="3.77509">
        <ele>91.8</ele>
        <time>2013-07-26T07:47:34.000Z</time>
      </trkpt>
      <trkpt lat="43.58344" lon="3.77501">
        <ele>90.7</ele>
        <time>2013-07-26T07:47:35.000Z</time>
      </trkpt>
      <trkpt lat="43.58339" lon="3.77493">
        <ele>89.9</ele>
        <time>2013-07-26T07:47:36.000Z</time>
      </trkpt>
      <trkpt lat="43.58334" lon="3.77484">
        <ele>88.3</ele>
        <time>2013-07-26T07:47:37.000Z</time>
      </trkpt>
      <trkpt lat="43.58329" lon="3.77477">
        <ele>88.2</ele>
        <time>2013-07-26T07:47:38.000Z</time>
      </trkpt>
      <trkpt lat="43.58325" lon="3.77467">
        <ele>89.3</ele>
        <time>2013-07-26T07:47:39.000Z</time>
      </trkpt>
      <trkpt lat="43.58322" lon="3.77461">
        <ele>89.2</ele>
        <time>2013-07-26T07:47:40.000Z</time>
      </trkpt>
      <trkpt lat="43.58319" lon="3.77454">
        <ele>88.5</ele>
        <time>2013-07-26T07:47:41.000Z</time>
      </trkpt>
      <trkpt lat="43.58315" lon="3.77445">
        <ele>89.2</ele>
        <time>2013-07-26T07:47:42.000Z</time>
      </trkpt>
      <trkpt lat="43.58312" lon="3.77437">
        <ele>90.3</ele>
        <time>2013-07-26T07:47:43.000Z</time>
      </trkpt>
      <trkpt lat="43.58308" lon="3.7743">
        <ele>90.8</ele>
        <time>2013-07-26T07:47:44.000Z</time>
      </trkpt>
      <trkpt lat="43.58304" lon="3.77423">
        <ele>90.1</ele>
        <time>2013-07-26T07:47:45.000Z</time>
      </trkpt>
      <trkpt lat="43.583" lon="3.77415">
        <ele>90.3</ele>
        <time>2013-07-26T07:47:46.000Z</time>
      </trkpt>
      <trkpt lat="43.58297" lon="3.77408">
        <ele>90.6</ele>
        <time>2013-07-26T07:47:47.000Z</time>
      </trkpt>
      <trkpt lat="43.58294" lon="3.774">
        <ele>90.5</ele>
        <time>2013-07-26T07:47:48.000Z</time>
      </trkpt>
      <trkpt lat="43.58291" lon="3.77393">
        <ele>91.2</ele>
        <time>2013-07-26T07:47:49.000Z</time>
      </trkpt>
      <trkpt lat="43.58287" lon="3.77385">
        <ele>91.2</ele>
        <time>2013-07-26T07:47:50.000Z</time>
      </trkpt>
      <trkpt lat="43.58284" lon="3.77378">
        <ele>92</ele>
        <time>2013-07-26T07:47:51.000Z</time>
      </trkpt>
      <trkpt lat="43.5828" lon="3.77371">
        <ele>92.1</ele>
        <time>2013-07-26T07:47:52.000Z</time>
      </trkpt>
      <trkpt lat="43.58276" lon="3.77363">
        <ele>90.9</ele>
        <time>2013-07-26T07:47:53.000Z</time>
      </trkpt>
      <trkpt lat="43.58273" lon="3.77355">
        <ele>91.3</ele>
        <time>2013-07-26T07:47:54.000Z</time>
      </trkpt>
      <trkpt lat="43.58269" lon="3.77348">
        <ele>91.4</ele>
        <time>2013-07-26T07:47:55.000Z</time>
      </trkpt>
      <trkpt lat="43.58265" lon="3.7734">
        <ele>90.9</ele>
        <time>2013-07-26T07:47:56.000Z</time>
      </trkpt>
      <trkpt lat="43.58261" lon="3.77333">
        <ele>90.7</ele>
        <time>2013-07-26T07:47:57.000Z</time>
      </trkpt>
      <trkpt lat="43.58257" lon="3.77326">
        <ele>90.6</ele>
        <time>2013-07-26T07:47:58.029Z</time>
      </trkpt>
      <trkpt lat="43.58254" lon="3.77317">
        <ele>90.7</ele>
        <time>2013-07-26T07:47:59.000Z</time>
      </trkpt>
      <trkpt lat="43.58251" lon="3.7731">
        <ele>91.3</ele>
        <time>2013-07-26T07:48:00.000Z</time>
      </trkpt>
      <trkpt lat="43.58247" lon="3.77303">
        <ele>91.9</ele>
        <time>2013-07-26T07:48:01.000Z</time>
      </trkpt>
      <trkpt lat="43.58243" lon="3.77296">
        <ele>92.3</ele>
        <time>2013-07-26T07:48:02.000Z</time>
      </trkpt>
      <trkpt lat="43.5824" lon="3.7729">
        <ele>92.3</ele>
        <time>2013-07-26T07:48:03.000Z</time>
      </trkpt>
      <trkpt lat="43.58234" lon="3.77281">
        <ele>91</ele>
        <time>2013-07-26T07:48:04.000Z</time>
      </trkpt>
      <trkpt lat="43.5823" lon="3.77275">
        <ele>90.6</ele>
        <time>2013-07-26T07:48:05.000Z</time>
      </trkpt>
      <trkpt lat="43.58229" lon="3.77267">
        <ele>91.9</ele>
        <time>2013-07-26T07:48:06.000Z</time>
      </trkpt>
      <trkpt lat="43.58226" lon="3.7726">
        <ele>92.1</ele>
        <time>2013-07-26T07:48:07.000Z</time>
      </trkpt>
      <trkpt lat="43.58221" lon="3.77252">
        <ele>92.3</ele>
        <time>2013-07-26T07:48:08.000Z</time>
      </trkpt>
      <trkpt lat="43.58217" lon="3.77244">
        <ele>91.6</ele>
        <time>2013-07-26T07:48:09.000Z</time>
      </trkpt>
      <trkpt lat="43.58214" lon="3.77238">
        <ele>92.3</ele>
        <time>2013-07-26T07:48:10.000Z</time>
      </trkpt>
      <trkpt lat="43.58212" lon="3.77232">
        <ele>95.4</ele>
        <time>2013-07-26T07:48:11.000Z</time>
      </trkpt>
      <trkpt lat="43.58208" lon="3.77225">
        <ele>95.4</ele>
        <time>2013-07-26T07:48:12.000Z</time>
      </trkpt>
      <trkpt lat="43.58203" lon="3.77218">
        <ele>94.4</ele>
        <time>2013-07-26T07:48:13.000Z</time>
      </trkpt>
      <trkpt lat="43.58198" lon="3.7721">
        <ele>93.2</ele>
        <time>2013-07-26T07:48:14.000Z</time>
      </trkpt>
      <trkpt lat="43.58196" lon="3.77202">
        <ele>92.5</ele>
        <time>2013-07-26T07:48:15.000Z</time>
      </trkpt>
      <trkpt lat="43.58192" lon="3.77196">
        <ele>92.6</ele>
        <time>2013-07-26T07:48:16.000Z</time>
      </trkpt>
      <trkpt lat="43.58189" lon="3.77189">
        <ele>91.5</ele>
        <time>2013-07-26T07:48:17.000Z</time>
      </trkpt>
      <trkpt lat="43.58185" lon="3.77182">
        <ele>90.8</ele>
        <time>2013-07-26T07:48:18.000Z</time>
      </trkpt>
      <trkpt lat="43.58182" lon="3.77175">
        <ele>91.4</ele>
        <time>2013-07-26T07:48:19.000Z</time>
      </trkpt>
      <trkpt lat="43.5818" lon="3.77169">
        <ele>92.1</ele>
        <time>2013-07-26T07:48:20.000Z</time>
      </trkpt>
      <trkpt lat="43.58175" lon="3.77161">
        <ele>90.6</ele>
        <time>2013-07-26T07:48:21.000Z</time>
      </trkpt>
      <trkpt lat="43.58172" lon="3.77153">
        <ele>90.5</ele>
        <time>2013-07-26T07:48:22.000Z</time>
      </trkpt>
      <trkpt lat="43.58168" lon="3.77148">
        <ele>91.3</ele>
        <time>2013-07-26T07:48:23.000Z</time>
      </trkpt>
      <trkpt lat="43.58166" lon="3.7714">
        <ele>91.4</ele>
        <time>2013-07-26T07:48:24.000Z</time>
      </trkpt>
      <trkpt lat="43.58163" lon="3.77134">
        <ele>91.9</ele>
        <time>2013-07-26T07:48:25.000Z</time>
      </trkpt>
      <trkpt lat="43.5816" lon="3.77128">
        <ele>92.7</ele>
        <time>2013-07-26T07:48:26.000Z</time>
      </trkpt>
      <trkpt lat="43.58156" lon="3.7712">
        <ele>91.8</ele>
        <time>2013-07-26T07:48:27.000Z</time>
      </trkpt>
      <trkpt lat="43.58152" lon="3.77112">
        <ele>90.9</ele>
        <time>2013-07-26T07:48:28.000Z</time>
      </trkpt>
      <trkpt lat="43.58149" lon="3.77107">
        <ele>92.2</ele>
        <time>2013-07-26T07:48:29.000Z</time>
      </trkpt>
      <trkpt lat="43.58146" lon="3.77099">
        <ele>93.2</ele>
        <time>2013-07-26T07:48:30.000Z</time>
      </trkpt>
      <trkpt lat="43.58141" lon="3.77092">
        <ele>92.2</ele>
        <time>2013-07-26T07:48:31.000Z</time>
      </trkpt>
      <trkpt lat="43.58138" lon="3.77086">
        <ele>92</ele>
        <time>2013-07-26T07:48:32.000Z</time>
      </trkpt>
      <trkpt lat="43.58135" lon="3.7708">
        <ele>93.1</ele>
        <time>2013-07-26T07:48:33.000Z</time>
      </trkpt>
      <trkpt lat="43.58132" lon="3.77074">
        <ele>94.3</ele>
        <time>2013-07-26T07:48:34.000Z</time>
      </trkpt>
      <trkpt lat="43.58129" lon="3.77066">
        <ele>92.9</ele>
        <time>2013-07-26T07:48:35.000Z</time>
      </trkpt>
      <trkpt lat="43.58125" lon="3.77058">
        <ele>91.1</ele>
        <time>2013-07-26T07:48:36.000Z</time>
      </trkpt>
      <trkpt lat="43.5812" lon="3.77051">
        <ele>90.5</ele>
        <time>2013-07-26T07:48:37.000Z</time>
      </trkpt>
      <trkpt lat="43.58116" lon="3.77044">
        <ele>90.5</ele>
        <time>2013-07-26T07:48:38.000Z</time>
      </trkpt>
      <trkpt lat="43.58112" lon="3.77037">
        <ele>89.8</ele>
        <time>2013-07-26T07:48:39.000Z</time>
      </trkpt>
      <trkpt lat="43.58109" lon="3.7703">
        <ele>89.6</ele>
        <time>2013-07-26T07:48:40.000Z</time>
      </trkpt>
      <trkpt lat="43.58104" lon="3.77024">
        <ele>87.4</ele>
        <time>2013-07-26T07:48:41.000Z</time>
      </trkpt>
      <trkpt lat="43.581" lon="3.77016">
        <ele>85.5</ele>
        <time>2013-07-26T07:48:42.000Z</time>
      </trkpt>
      <trkpt lat="43.58099" lon="3.77011">
        <ele>88.8</ele>
        <time>2013-07-26T07:48:43.000Z</time>
      </trkpt>
      <trkpt lat="43.58096" lon="3.77003">
        <ele>88.3</ele>
        <time>2013-07-26T07:48:44.000Z</time>
      </trkpt>
      <trkpt lat="43.58093" lon="3.76997">
        <ele>88.6</ele>
        <time>2013-07-26T07:48:45.000Z</time>
      </trkpt>
      <trkpt lat="43.58091" lon="3.7699">
        <ele>90.4</ele>
        <time>2013-07-26T07:48:46.000Z</time>
      </trkpt>
      <trkpt lat="43.58087" lon="3.76984">
        <ele>90.9</ele>
        <time>2013-07-26T07:48:47.000Z</time>
      </trkpt>
      <trkpt lat="43.58084" lon="3.76977">
        <ele>91.3</ele>
        <time>2013-07-26T07:48:48.000Z</time>
      </trkpt>
      <trkpt lat="43.5808" lon="3.7697">
        <ele>91</ele>
        <time>2013-07-26T07:48:49.000Z</time>
      </trkpt>
      <trkpt lat="43.58077" lon="3.76965">
        <ele>91.2</ele>
        <time>2013-07-26T07:48:50.000Z</time>
      </trkpt>
      <trkpt lat="43.58073" lon="3.76957">
        <ele>91.9</ele>
        <time>2013-07-26T07:48:51.000Z</time>
      </trkpt>
      <trkpt lat="43.58069" lon="3.76951">
        <ele>91.1</ele>
        <time>2013-07-26T07:48:52.000Z</time>
      </trkpt>
      <trkpt lat="43.58065" lon="3.76944">
        <ele>91</ele>
        <time>2013-07-26T07:48:53.000Z</time>
      </trkpt>
      <trkpt lat="43.58063" lon="3.76937">
        <ele>91.9</ele>
        <time>2013-07-26T07:48:54.000Z</time>
      </trkpt>
      <trkpt lat="43.58059" lon="3.76929">
        <ele>91.8</ele>
        <time>2013-07-26T07:48:55.000Z</time>
      </trkpt>
      <trkpt lat="43.58055" lon="3.76922">
        <ele>91.3</ele>
        <time>2013-07-26T07:48:56.000Z</time>
      </trkpt>
      <trkpt lat="43.58052" lon="3.76915">
        <ele>90.5</ele>
        <time>2013-07-26T07:48:57.000Z</time>
      </trkpt>
      <trkpt lat="43.58048" lon="3.76907">
        <ele>90.5</ele>
        <time>2013-07-26T07:48:58.102Z</time>
      </trkpt>
      <trkpt lat="43.58045" lon="3.76901">
        <ele>90.5</ele>
        <time>2013-07-26T07:48:59.000Z</time>
      </trkpt>
      <trkpt lat="43.58042" lon="3.76896">
        <ele>90.9</ele>
        <time>2013-07-26T07:49:00.000Z</time>
      </trkpt>
      <trkpt lat="43.58039" lon="3.76889">
        <ele>91.1</ele>
        <time>2013-07-26T07:49:01.000Z</time>
      </trkpt>
      <trkpt lat="43.58037" lon="3.76881">
        <ele>91.4</ele>
        <time>2013-07-26T07:49:02.000Z</time>
      </trkpt>
      <trkpt lat="43.58034" lon="3.76876">
        <ele>92.2</ele>
        <time>2013-07-26T07:49:03.000Z</time>
      </trkpt>
      <trkpt lat="43.5803" lon="3.7687">
        <ele>93.3</ele>
        <time>2013-07-26T07:49:04.000Z</time>
      </trkpt>
      <trkpt lat="43.58028" lon="3.76863">
        <ele>94.6</ele>
        <time>2013-07-26T07:49:05.000Z</time>
      </trkpt>
      <trkpt lat="43.58025" lon="3.76856">
        <ele>95.1</ele>
        <time>2013-07-26T07:49:06.000Z</time>
      </trkpt>
      <trkpt lat="43.58023" lon="3.7685">
        <ele>93.5</ele>
        <time>2013-07-26T07:49:07.000Z</time>
      </trkpt>
      <trkpt lat="43.58021" lon="3.76843">
        <ele>92.3</ele>
        <time>2013-07-26T07:49:08.000Z</time>
      </trkpt>
      <trkpt lat="43.5802" lon="3.76836">
        <ele>92.9</ele>
        <time>2013-07-26T07:49:09.000Z</time>
      </trkpt>
      <trkpt lat="43.58019" lon="3.76828">
        <ele>93.3</ele>
        <time>2013-07-26T07:49:10.000Z</time>
      </trkpt>
      <trkpt lat="43.5802" lon="3.7682">
        <ele>94.7</ele>
        <time>2013-07-26T07:49:11.000Z</time>
      </trkpt>
      <trkpt lat="43.5802" lon="3.76813">
        <ele>94.1</ele>
        <time>2013-07-26T07:49:12.000Z</time>
      </trkpt>
      <trkpt lat="43.5802" lon="3.76804">
        <ele>94.4</ele>
        <time>2013-07-26T07:49:13.000Z</time>
      </trkpt>
      <trkpt lat="43.5802" lon="3.76797">
        <ele>94.4</ele>
        <time>2013-07-26T07:49:14.000Z</time>
      </trkpt>
      <trkpt lat="43.5802" lon="3.7679">
        <ele>94.6</ele>
        <time>2013-07-26T07:49:15.000Z</time>
      </trkpt>
      <trkpt lat="43.5802" lon="3.76782">
        <ele>94.3</ele>
        <time>2013-07-26T07:49:16.000Z</time>
      </trkpt>
      <trkpt lat="43.58019" lon="3.76775">
        <ele>94.4</ele>
        <time>2013-07-26T07:49:17.000Z</time>
      </trkpt>
      <trkpt lat="43.58017" lon="3.7677">
        <ele>94.3</ele>
        <time>2013-07-26T07:49:18.000Z</time>
      </trkpt>
      <trkpt lat="43.58015" lon="3.76765">
        <ele>94.5</ele>
        <time>2013-07-26T07:49:19.000Z</time>
      </trkpt>
      <trkpt lat="43.58013" lon="3.76759">
        <ele>95</ele>
        <time>2013-07-26T07:49:20.000Z</time>
      </trkpt>
      <trkpt lat="43.5801" lon="3.76754">
        <ele>97.2</ele>
        <time>2013-07-26T07:49:21.000Z</time>
      </trkpt>
      <trkpt lat="43.58005" lon="3.7675">
        <ele>98</ele>
        <time>2013-07-26T07:49:22.000Z</time>
      </trkpt>
      <trkpt lat="43.58001" lon="3.76747">
        <ele>98.2</ele>
        <time>2013-07-26T07:49:23.000Z</time>
      </trkpt>
      <trkpt lat="43.57997" lon="3.76745">
        <ele>97.5</ele>
        <time>2013-07-26T07:49:24.000Z</time>
      </trkpt>
      <trkpt lat="43.57992" lon="3.76743">
        <ele>97.5</ele>
        <time>2013-07-26T07:49:25.000Z</time>
      </trkpt>
      <trkpt lat="43.57987" lon="3.76741">
        <ele>98.1</ele>
        <time>2013-07-26T07:49:26.000Z</time>
      </trkpt>
      <trkpt lat="43.57982" lon="3.76739">
        <ele>97.9</ele>
        <time>2013-07-26T07:49:27.000Z</time>
      </trkpt>
      <trkpt lat="43.57977" lon="3.76736">
        <ele>97.5</ele>
        <time>2013-07-26T07:49:28.000Z</time>
      </trkpt>
      <trkpt lat="43.57972" lon="3.76733">
        <ele>97.1</ele>
        <time>2013-07-26T07:49:29.000Z</time>
      </trkpt>
      <trkpt lat="43.57966" lon="3.76729">
        <ele>96.8</ele>
        <time>2013-07-26T07:49:30.000Z</time>
      </trkpt>
      <trkpt lat="43.57962" lon="3.76724">
        <ele>97.1</ele>
        <time>2013-07-26T07:49:31.000Z</time>
      </trkpt>
      <trkpt lat="43.57958" lon="3.76719">
        <ele>95.6</ele>
        <time>2013-07-26T07:49:32.000Z</time>
      </trkpt>
      <trkpt lat="43.57955" lon="3.76713">
        <ele>96</ele>
        <time>2013-07-26T07:49:33.000Z</time>
      </trkpt>
      <trkpt lat="43.57951" lon="3.76708">
        <ele>95.5</ele>
        <time>2013-07-26T07:49:34.000Z</time>
      </trkpt>
      <trkpt lat="43.57946" lon="3.76701">
        <ele>94.5</ele>
        <time>2013-07-26T07:49:35.000Z</time>
      </trkpt>
      <trkpt lat="43.57942" lon="3.76694">
        <ele>93.8</ele>
        <time>2013-07-26T07:49:36.000Z</time>
      </trkpt>
      <trkpt lat="43.5794" lon="3.76688">
        <ele>95.1</ele>
        <time>2013-07-26T07:49:37.000Z</time>
      </trkpt>
      <trkpt lat="43.57937" lon="3.76682">
        <ele>95.9</ele>
        <time>2013-07-26T07:49:38.000Z</time>
      </trkpt>
      <trkpt lat="43.57932" lon="3.76676">
        <ele>95.1</ele>
        <time>2013-07-26T07:49:39.000Z</time>
      </trkpt>
      <trkpt lat="43.5793" lon="3.76667">
        <ele>96</ele>
        <time>2013-07-26T07:49:40.000Z</time>
      </trkpt>
      <trkpt lat="43.57927" lon="3.7666">
        <ele>95.9</ele>
        <time>2013-07-26T07:49:41.000Z</time>
      </trkpt>
      <trkpt lat="43.57924" lon="3.76653">
        <ele>96.2</ele>
        <time>2013-07-26T07:49:42.000Z</time>
      </trkpt>
      <trkpt lat="43.57921" lon="3.76646">
        <ele>96.1</ele>
        <time>2013-07-26T07:49:43.000Z</time>
      </trkpt>
      <trkpt lat="43.57918" lon="3.76639">
        <ele>94.8</ele>
        <time>2013-07-26T07:49:44.000Z</time>
      </trkpt>
      <trkpt lat="43.57915" lon="3.76633">
        <ele>94</ele>
        <time>2013-07-26T07:49:45.000Z</time>
      </trkpt>
      <trkpt lat="43.57911" lon="3.76627">
        <ele>94.9</ele>
        <time>2013-07-26T07:49:46.000Z</time>
      </trkpt>
      <trkpt lat="43.57909" lon="3.76621">
        <ele>95.5</ele>
        <time>2013-07-26T07:49:47.000Z</time>
      </trkpt>
      <trkpt lat="43.57906" lon="3.76614">
        <ele>94.1</ele>
        <time>2013-07-26T07:49:48.000Z</time>
      </trkpt>
      <trkpt lat="43.57904" lon="3.76607">
        <ele>93</ele>
        <time>2013-07-26T07:49:49.000Z</time>
      </trkpt>
      <trkpt lat="43.579" lon="3.76601">
        <ele>95.2</ele>
        <time>2013-07-26T07:49:50.000Z</time>
      </trkpt>
      <trkpt lat="43.57896" lon="3.76594">
        <ele>94.2</ele>
        <time>2013-07-26T07:49:51.000Z</time>
      </trkpt>
      <trkpt lat="43.57893" lon="3.76588">
        <ele>93.5</ele>
        <time>2013-07-26T07:49:52.000Z</time>
      </trkpt>
      <trkpt lat="43.57889" lon="3.76581">
        <ele>94.4</ele>
        <time>2013-07-26T07:49:53.000Z</time>
      </trkpt>
      <trkpt lat="43.57886" lon="3.76574">
        <ele>94.1</ele>
        <time>2013-07-26T07:49:54.000Z</time>
      </trkpt>
      <trkpt lat="43.57883" lon="3.76567">
        <ele>94</ele>
        <time>2013-07-26T07:49:55.000Z</time>
      </trkpt>
      <trkpt lat="43.57879" lon="3.7656">
        <ele>94.8</ele>
        <time>2013-07-26T07:49:56.000Z</time>
      </trkpt>
      <trkpt lat="43.57875" lon="3.76553">
        <ele>94.6</ele>
        <time>2013-07-26T07:49:57.000Z</time>
      </trkpt>
      <trkpt lat="43.57871" lon="3.76543">
        <ele>94.9</ele>
        <time>2013-07-26T07:49:58.440Z</time>
      </trkpt>
      <trkpt lat="43.57867" lon="3.76531">
        <ele>94.6</ele>
        <time>2013-07-26T07:50:00.000Z</time>
      </trkpt>
      <trkpt lat="43.57864" lon="3.76523">
        <ele>94.6</ele>
        <time>2013-07-26T07:50:01.000Z</time>
      </trkpt>
      <trkpt lat="43.57862" lon="3.76516">
        <ele>94.9</ele>
        <time>2013-07-26T07:50:02.000Z</time>
      </trkpt>
      <trkpt lat="43.57861" lon="3.76509">
        <ele>95.7</ele>
        <time>2013-07-26T07:50:03.000Z</time>
      </trkpt>
      <trkpt lat="43.57859" lon="3.76501">
        <ele>95.8</ele>
        <time>2013-07-26T07:50:04.000Z</time>
      </trkpt>
      <trkpt lat="43.57855" lon="3.76492">
        <ele>95.1</ele>
        <time>2013-07-26T07:50:05.000Z</time>
      </trkpt>
      <trkpt lat="43.57851" lon="3.76486">
        <ele>94.3</ele>
        <time>2013-07-26T07:50:06.000Z</time>
      </trkpt>
      <trkpt lat="43.57849" lon="3.76478">
        <ele>93.8</ele>
        <time>2013-07-26T07:50:07.000Z</time>
      </trkpt>
      <trkpt lat="43.57847" lon="3.7647">
        <ele>94</ele>
        <time>2013-07-26T07:50:08.000Z</time>
      </trkpt>
      <trkpt lat="43.57846" lon="3.76463">
        <ele>93.7</ele>
        <time>2013-07-26T07:50:09.000Z</time>
      </trkpt>
      <trkpt lat="43.57845" lon="3.76455">
        <ele>96.3</ele>
        <time>2013-07-26T07:50:10.000Z</time>
      </trkpt>
      <trkpt lat="43.57843" lon="3.76448">
        <ele>97.6</ele>
        <time>2013-07-26T07:50:11.000Z</time>
      </trkpt>
      <trkpt lat="43.5784" lon="3.76442">
        <ele>99.5</ele>
        <time>2013-07-26T07:50:12.000Z</time>
      </trkpt>
      <trkpt lat="43.57837" lon="3.76435">
        <ele>99.5</ele>
        <time>2013-07-26T07:50:13.000Z</time>
      </trkpt>
      <trkpt lat="43.57836" lon="3.76427">
        <ele>100.2</ele>
        <time>2013-07-26T07:50:14.000Z</time>
      </trkpt>
      <trkpt lat="43.57834" lon="3.76419">
        <ele>100.2</ele>
        <time>2013-07-26T07:50:15.000Z</time>
      </trkpt>
      <trkpt lat="43.57833" lon="3.76411">
        <ele>100.6</ele>
        <time>2013-07-26T07:50:16.000Z</time>
      </trkpt>
      <trkpt lat="43.5783" lon="3.76402">
        <ele>100.5</ele>
        <time>2013-07-26T07:50:17.000Z</time>
      </trkpt>
      <trkpt lat="43.57828" lon="3.76395">
        <ele>101.2</ele>
        <time>2013-07-26T07:50:18.000Z</time>
      </trkpt>
      <trkpt lat="43.57826" lon="3.76387">
        <ele>101.7</ele>
        <time>2013-07-26T07:50:19.000Z</time>
      </trkpt>
      <trkpt lat="43.57824" lon="3.76378">
        <ele>100.4</ele>
        <time>2013-07-26T07:50:20.000Z</time>
      </trkpt>
      <trkpt lat="43.57823" lon="3.7637">
        <ele>101.1</ele>
        <time>2013-07-26T07:50:21.000Z</time>
      </trkpt>
      <trkpt lat="43.5782" lon="3.7636">
        <ele>100.5</ele>
        <time>2013-07-26T07:50:22.000Z</time>
      </trkpt>
      <trkpt lat="43.57819" lon="3.76353">
        <ele>99.8</ele>
        <time>2013-07-26T07:50:23.000Z</time>
      </trkpt>
      <trkpt lat="43.57817" lon="3.76346">
        <ele>98.6</ele>
        <time>2013-07-26T07:50:24.000Z</time>
      </trkpt>
      <trkpt lat="43.57817" lon="3.76338">
        <ele>99.8</ele>
        <time>2013-07-26T07:50:25.000Z</time>
      </trkpt>
      <trkpt lat="43.57816" lon="3.76329">
        <ele>100.5</ele>
        <time>2013-07-26T07:50:26.000Z</time>
      </trkpt>
      <trkpt lat="43.57815" lon="3.7632">
        <ele>100.3</ele>
        <time>2013-07-26T07:50:27.000Z</time>
      </trkpt>
      <trkpt lat="43.57814" lon="3.76312">
        <ele>99.6</ele>
        <time>2013-07-26T07:50:28.000Z</time>
      </trkpt>
      <trkpt lat="43.57812" lon="3.76304">
        <ele>98.2</ele>
        <time>2013-07-26T07:50:29.000Z</time>
      </trkpt>
      <trkpt lat="43.57811" lon="3.76297">
        <ele>97.6</ele>
        <time>2013-07-26T07:50:30.000Z</time>
      </trkpt>
      <trkpt lat="43.5781" lon="3.76288">
        <ele>97.9</ele>
        <time>2013-07-26T07:50:31.000Z</time>
      </trkpt>
      <trkpt lat="43.57809" lon="3.76281">
        <ele>98.4</ele>
        <time>2013-07-26T07:50:32.000Z</time>
      </trkpt>
      <trkpt lat="43.57809" lon="3.76273">
        <ele>98.1</ele>
        <time>2013-07-26T07:50:33.000Z</time>
      </trkpt>
      <trkpt lat="43.57809" lon="3.76265">
        <ele>98</ele>
        <time>2013-07-26T07:50:34.000Z</time>
      </trkpt>
      <trkpt lat="43.57808" lon="3.76257">
        <ele>98.6</ele>
        <time>2013-07-26T07:50:35.000Z</time>
      </trkpt>
      <trkpt lat="43.57808" lon="3.76249">
        <ele>98.1</ele>
        <time>2013-07-26T07:50:36.000Z</time>
      </trkpt>
      <trkpt lat="43.57808" lon="3.76242">
        <ele>97.5</ele>
        <time>2013-07-26T07:50:37.000Z</time>
      </trkpt>
      <trkpt lat="43.57807" lon="3.76232">
        <ele>96.9</ele>
        <time>2013-07-26T07:50:38.000Z</time>
      </trkpt>
      <trkpt lat="43.57806" lon="3.76224">
        <ele>96.5</ele>
        <time>2013-07-26T07:50:39.000Z</time>
      </trkpt>
      <trkpt lat="43.57806" lon="3.76216">
        <ele>96.1</ele>
        <time>2013-07-26T07:50:40.000Z</time>
      </trkpt>
      <trkpt lat="43.57806" lon="3.76207">
        <ele>95.6</ele>
        <time>2013-07-26T07:50:41.000Z</time>
      </trkpt>
      <trkpt lat="43.57806" lon="3.76199">
        <ele>95</ele>
        <time>2013-07-26T07:50:42.000Z</time>
      </trkpt>
      <trkpt lat="43.57806" lon="3.76191">
        <ele>93.9</ele>
        <time>2013-07-26T07:50:43.000Z</time>
      </trkpt>
      <trkpt lat="43.57807" lon="3.76183">
        <ele>93.3</ele>
        <time>2013-07-26T07:50:44.000Z</time>
      </trkpt>
      <trkpt lat="43.57807" lon="3.76176">
        <ele>93.8</ele>
        <time>2013-07-26T07:50:45.000Z</time>
      </trkpt>
      <trkpt lat="43.57808" lon="3.76167">
        <ele>93.8</ele>
        <time>2013-07-26T07:50:46.000Z</time>
      </trkpt>
      <trkpt lat="43.57809" lon="3.7616">
        <ele>94.2</ele>
        <time>2013-07-26T07:50:47.000Z</time>
      </trkpt>
      <trkpt lat="43.57811" lon="3.76152">
        <ele>93.9</ele>
        <time>2013-07-26T07:50:48.000Z</time>
      </trkpt>
      <trkpt lat="43.57812" lon="3.76144">
        <ele>92.6</ele>
        <time>2013-07-26T07:50:49.000Z</time>
      </trkpt>
      <trkpt lat="43.57814" lon="3.76138">
        <ele>91.8</ele>
        <time>2013-07-26T07:50:50.000Z</time>
      </trkpt>
      <trkpt lat="43.57815" lon="3.76131">
        <ele>91.7</ele>
        <time>2013-07-26T07:50:51.000Z</time>
      </trkpt>
      <trkpt lat="43.57815" lon="3.76123">
        <ele>91.1</ele>
        <time>2013-07-26T07:50:52.000Z</time>
      </trkpt>
      <trkpt lat="43.57816" lon="3.76116">
        <ele>90.2</ele>
        <time>2013-07-26T07:50:53.000Z</time>
      </trkpt>
      <trkpt lat="43.57816" lon="3.76107">
        <ele>89.7</ele>
        <time>2013-07-26T07:50:54.000Z</time>
      </trkpt>
      <trkpt lat="43.57815" lon="3.76098">
        <ele>91.8</ele>
        <time>2013-07-26T07:50:55.000Z</time>
      </trkpt>
      <trkpt lat="43.57815" lon="3.7609">
        <ele>94</ele>
        <time>2013-07-26T07:50:56.000Z</time>
      </trkpt>
      <trkpt lat="43.57814" lon="3.76083">
        <ele>92.5</ele>
        <time>2013-07-26T07:50:57.000Z</time>
      </trkpt>
      <trkpt lat="43.57813" lon="3.76075">
        <ele>93.2</ele>
        <time>2013-07-26T07:50:57.963Z</time>
      </trkpt>
      <trkpt lat="43.57815" lon="3.76068">
        <ele>93.2</ele>
        <time>2013-07-26T07:50:59.000Z</time>
      </trkpt>
      <trkpt lat="43.57815" lon="3.76061">
        <ele>93</ele>
        <time>2013-07-26T07:51:00.000Z</time>
      </trkpt>
      <trkpt lat="43.57815" lon="3.76053">
        <ele>92.6</ele>
        <time>2013-07-26T07:51:01.000Z</time>
      </trkpt>
      <trkpt lat="43.57816" lon="3.76045">
        <ele>94.6</ele>
        <time>2013-07-26T07:51:02.000Z</time>
      </trkpt>
      <trkpt lat="43.57816" lon="3.76037">
        <ele>93.5</ele>
        <time>2013-07-26T07:51:03.000Z</time>
      </trkpt>
      <trkpt lat="43.57817" lon="3.76029">
        <ele>93</ele>
        <time>2013-07-26T07:51:04.000Z</time>
      </trkpt>
      <trkpt lat="43.57817" lon="3.76021">
        <ele>92.5</ele>
        <time>2013-07-26T07:51:05.000Z</time>
      </trkpt>
      <trkpt lat="43.57819" lon="3.76014">
        <ele>91.3</ele>
        <time>2013-07-26T07:51:06.000Z</time>
      </trkpt>
      <trkpt lat="43.5782" lon="3.76006">
        <ele>90.2</ele>
        <time>2013-07-26T07:51:07.000Z</time>
      </trkpt>
      <trkpt lat="43.57821" lon="3.75998">
        <ele>88.9</ele>
        <time>2013-07-26T07:51:08.000Z</time>
      </trkpt>
      <trkpt lat="43.57821" lon="3.75992">
        <ele>88.3</ele>
        <time>2013-07-26T07:51:09.000Z</time>
      </trkpt>
      <trkpt lat="43.57822" lon="3.75984">
        <ele>88.6</ele>
        <time>2013-07-26T07:51:10.000Z</time>
      </trkpt>
      <trkpt lat="43.57823" lon="3.75977">
        <ele>87.4</ele>
        <time>2013-07-26T07:51:11.000Z</time>
      </trkpt>
      <trkpt lat="43.57823" lon="3.7597">
        <ele>88.4</ele>
        <time>2013-07-26T07:51:12.000Z</time>
      </trkpt>
      <trkpt lat="43.57824" lon="3.75962">
        <ele>88.8</ele>
        <time>2013-07-26T07:51:13.000Z</time>
      </trkpt>
      <trkpt lat="43.57825" lon="3.75953">
        <ele>88.8</ele>
        <time>2013-07-26T07:51:14.000Z</time>
      </trkpt>
      <trkpt lat="43.57828" lon="3.75946">
        <ele>88.3</ele>
        <time>2013-07-26T07:51:15.000Z</time>
      </trkpt>
      <trkpt lat="43.57828" lon="3.7594">
        <ele>88.7</ele>
        <time>2013-07-26T07:51:16.000Z</time>
      </trkpt>
      <trkpt lat="43.57829" lon="3.75932">
        <ele>88.4</ele>
        <time>2013-07-26T07:51:17.000Z</time>
      </trkpt>
      <trkpt lat="43.57831" lon="3.75925">
        <ele>86.8</ele>
        <time>2013-07-26T07:51:18.000Z</time>
      </trkpt>
      <trkpt lat="43.57831" lon="3.75918">
        <ele>86.9</ele>
        <time>2013-07-26T07:51:19.000Z</time>
      </trkpt>
      <trkpt lat="43.57832" lon="3.75911">
        <ele>87</ele>
        <time>2013-07-26T07:51:20.000Z</time>
      </trkpt>
      <trkpt lat="43.57834" lon="3.75904">
        <ele>87.2</ele>
        <time>2013-07-26T07:51:21.000Z</time>
      </trkpt>
      <trkpt lat="43.57835" lon="3.75898">
        <ele>85.4</ele>
        <time>2013-07-26T07:51:22.000Z</time>
      </trkpt>
      <trkpt lat="43.57836" lon="3.75889">
        <ele>85.7</ele>
        <time>2013-07-26T07:51:23.000Z</time>
      </trkpt>
      <trkpt lat="43.57837" lon="3.75883">
        <ele>86.3</ele>
        <time>2013-07-26T07:51:24.000Z</time>
      </trkpt>
      <trkpt lat="43.57837" lon="3.75875">
        <ele>86.8</ele>
        <time>2013-07-26T07:51:25.000Z</time>
      </trkpt>
      <trkpt lat="43.57839" lon="3.75868">
        <ele>86.1</ele>
        <time>2013-07-26T07:51:26.000Z</time>
      </trkpt>
      <trkpt lat="43.5784" lon="3.75861">
        <ele>85.7</ele>
        <time>2013-07-26T07:51:27.000Z</time>
      </trkpt>
      <trkpt lat="43.5784" lon="3.75853">
        <ele>86.3</ele>
        <time>2013-07-26T07:51:28.000Z</time>
      </trkpt>
      <trkpt lat="43.57841" lon="3.75847">
        <ele>86.2</ele>
        <time>2013-07-26T07:51:29.000Z</time>
      </trkpt>
      <trkpt lat="43.57842" lon="3.7584">
        <ele>86.3</ele>
        <time>2013-07-26T07:51:30.000Z</time>
      </trkpt>
      <trkpt lat="43.57843" lon="3.75833">
        <ele>86.2</ele>
        <time>2013-07-26T07:51:31.000Z</time>
      </trkpt>
      <trkpt lat="43.57843" lon="3.75826">
        <ele>86.3</ele>
        <time>2013-07-26T07:51:32.000Z</time>
      </trkpt>
      <trkpt lat="43.57844" lon="3.75819">
        <ele>86.6</ele>
        <time>2013-07-26T07:51:33.000Z</time>
      </trkpt>
      <trkpt lat="43.57845" lon="3.75812">
        <ele>87.4</ele>
        <time>2013-07-26T07:51:34.000Z</time>
      </trkpt>
      <trkpt lat="43.57846" lon="3.75805">
        <ele>88</ele>
        <time>2013-07-26T07:51:35.000Z</time>
      </trkpt>
      <trkpt lat="43.57846" lon="3.75799">
        <ele>88.2</ele>
        <time>2013-07-26T07:51:36.000Z</time>
      </trkpt>
      <trkpt lat="43.57847" lon="3.75792">
        <ele>88.8</ele>
        <time>2013-07-26T07:51:37.000Z</time>
      </trkpt>
      <trkpt lat="43.57847" lon="3.75785">
        <ele>89.3</ele>
        <time>2013-07-26T07:51:38.000Z</time>
      </trkpt>
      <trkpt lat="43.57847" lon="3.75778">
        <ele>89.6</ele>
        <time>2013-07-26T07:51:39.000Z</time>
      </trkpt>
      <trkpt lat="43.57847" lon="3.7577">
        <ele>90.5</ele>
        <time>2013-07-26T07:51:40.000Z</time>
      </trkpt>
      <trkpt lat="43.5785" lon="3.75762">
        <ele>90</ele>
        <time>2013-07-26T07:51:41.000Z</time>
      </trkpt>
      <trkpt lat="43.57851" lon="3.75755">
        <ele>91.1</ele>
        <time>2013-07-26T07:51:42.000Z</time>
      </trkpt>
      <trkpt lat="43.57852" lon="3.75749">
        <ele>91.6</ele>
        <time>2013-07-26T07:51:43.000Z</time>
      </trkpt>
      <trkpt lat="43.57852" lon="3.75743">
        <ele>90.9</ele>
        <time>2013-07-26T07:51:44.000Z</time>
      </trkpt>
      <trkpt lat="43.57853" lon="3.75734">
        <ele>92.2</ele>
        <time>2013-07-26T07:51:45.000Z</time>
      </trkpt>
      <trkpt lat="43.57854" lon="3.75728">
        <ele>92.1</ele>
        <time>2013-07-26T07:51:46.000Z</time>
      </trkpt>
      <trkpt lat="43.57855" lon="3.7572">
        <ele>91.2</ele>
        <time>2013-07-26T07:51:47.000Z</time>
      </trkpt>
      <trkpt lat="43.57856" lon="3.75712">
        <ele>91.8</ele>
        <time>2013-07-26T07:51:48.000Z</time>
      </trkpt>
      <trkpt lat="43.57855" lon="3.75706">
        <ele>92.1</ele>
        <time>2013-07-26T07:51:49.000Z</time>
      </trkpt>
      <trkpt lat="43.57855" lon="3.75697">
        <ele>91.5</ele>
        <time>2013-07-26T07:51:50.000Z</time>
      </trkpt>
      <trkpt lat="43.57855" lon="3.75689">
        <ele>91.6</ele>
        <time>2013-07-26T07:51:51.000Z</time>
      </trkpt>
      <trkpt lat="43.57856" lon="3.75683">
        <ele>91.9</ele>
        <time>2013-07-26T07:51:52.000Z</time>
      </trkpt>
      <trkpt lat="43.57857" lon="3.75674">
        <ele>92.9</ele>
        <time>2013-07-26T07:51:53.000Z</time>
      </trkpt>
      <trkpt lat="43.57858" lon="3.75666">
        <ele>92</ele>
        <time>2013-07-26T07:51:54.000Z</time>
      </trkpt>
      <trkpt lat="43.57861" lon="3.7566">
        <ele>91.2</ele>
        <time>2013-07-26T07:51:55.000Z</time>
      </trkpt>
      <trkpt lat="43.57863" lon="3.75653">
        <ele>91.7</ele>
        <time>2013-07-26T07:51:56.000Z</time>
      </trkpt>
      <trkpt lat="43.57865" lon="3.75647">
        <ele>92.5</ele>
        <time>2013-07-26T07:51:57.000Z</time>
      </trkpt>
      <trkpt lat="43.57867" lon="3.75641">
        <ele>92.6</ele>
        <time>2013-07-26T07:51:58.011Z</time>
      </trkpt>
      <trkpt lat="43.57868" lon="3.75636">
        <ele>92.7</ele>
        <time>2013-07-26T07:51:59.000Z</time>
      </trkpt>
      <trkpt lat="43.57868" lon="3.75629">
        <ele>94.2</ele>
        <time>2013-07-26T07:52:00.000Z</time>
      </trkpt>
      <trkpt lat="43.57869" lon="3.75623">
        <ele>94.1</ele>
        <time>2013-07-26T07:52:01.000Z</time>
      </trkpt>
      <trkpt lat="43.57868" lon="3.75618">
        <ele>95.5</ele>
        <time>2013-07-26T07:52:02.000Z</time>
      </trkpt>
      <trkpt lat="43.57868" lon="3.75612">
        <ele>95.2</ele>
        <time>2013-07-26T07:52:03.000Z</time>
      </trkpt>
      <trkpt lat="43.57868" lon="3.75607">
        <ele>95.2</ele>
        <time>2013-07-26T07:52:04.000Z</time>
      </trkpt>
      <trkpt lat="43.57866" lon="3.75603">
        <ele>95.5</ele>
        <time>2013-07-26T07:52:05.000Z</time>
      </trkpt>
      <trkpt lat="43.57864" lon="3.75599">
        <ele>96.3</ele>
        <time>2013-07-26T07:52:06.000Z</time>
      </trkpt>
      <trkpt lat="43.5786" lon="3.75593">
        <ele>95.3</ele>
        <time>2013-07-26T07:52:07.000Z</time>
      </trkpt>
      <trkpt lat="43.57857" lon="3.75589">
        <ele>94</ele>
        <time>2013-07-26T07:52:08.000Z</time>
      </trkpt>
      <trkpt lat="43.57853" lon="3.75585">
        <ele>95.2</ele>
        <time>2013-07-26T07:52:09.000Z</time>
      </trkpt>
      <trkpt lat="43.57849" lon="3.7558">
        <ele>94.6</ele>
        <time>2013-07-26T07:52:10.000Z</time>
      </trkpt>
      <trkpt lat="43.57847" lon="3.75572">
        <ele>96.1</ele>
        <time>2013-07-26T07:52:11.000Z</time>
      </trkpt>
      <trkpt lat="43.57844" lon="3.75563">
        <ele>96.9</ele>
        <time>2013-07-26T07:52:12.000Z</time>
      </trkpt>
      <trkpt lat="43.57843" lon="3.75556">
        <ele>97.4</ele>
        <time>2013-07-26T07:52:13.000Z</time>
      </trkpt>
      <trkpt lat="43.57841" lon="3.75547">
        <ele>98.9</ele>
        <time>2013-07-26T07:52:14.000Z</time>
      </trkpt>
      <trkpt lat="43.57839" lon="3.75539">
        <ele>100.4</ele>
        <time>2013-07-26T07:52:15.000Z</time>
      </trkpt>
      <trkpt lat="43.57838" lon="3.75532">
        <ele>101.6</ele>
        <time>2013-07-26T07:52:16.000Z</time>
      </trkpt>
      <trkpt lat="43.57835" lon="3.75524">
        <ele>102.8</ele>
        <time>2013-07-26T07:52:17.000Z</time>
      </trkpt>
      <trkpt lat="43.57834" lon="3.75514">
        <ele>102.8</ele>
        <time>2013-07-26T07:52:18.000Z</time>
      </trkpt>
      <trkpt lat="43.57831" lon="3.75506">
        <ele>102.9</ele>
        <time>2013-07-26T07:52:19.000Z</time>
      </trkpt>
      <trkpt lat="43.57828" lon="3.75498">
        <ele>103</ele>
        <time>2013-07-26T07:52:20.000Z</time>
      </trkpt>
      <trkpt lat="43.57826" lon="3.75491">
        <ele>103.7</ele>
        <time>2013-07-26T07:52:21.000Z</time>
      </trkpt>
      <trkpt lat="43.57823" lon="3.75483">
        <ele>102.7</ele>
        <time>2013-07-26T07:52:22.000Z</time>
      </trkpt>
      <trkpt lat="43.5782" lon="3.75475">
        <ele>102.4</ele>
        <time>2013-07-26T07:52:23.000Z</time>
      </trkpt>
      <trkpt lat="43.57817" lon="3.75468">
        <ele>102.5</ele>
        <time>2013-07-26T07:52:24.000Z</time>
      </trkpt>
      <trkpt lat="43.57814" lon="3.7546">
        <ele>102</ele>
        <time>2013-07-26T07:52:25.000Z</time>
      </trkpt>
      <trkpt lat="43.5781" lon="3.75453">
        <ele>102.3</ele>
        <time>2013-07-26T07:52:26.000Z</time>
      </trkpt>
      <trkpt lat="43.57807" lon="3.75447">
        <ele>101.7</ele>
        <time>2013-07-26T07:52:27.000Z</time>
      </trkpt>
      <trkpt lat="43.57804" lon="3.75438">
        <ele>101</ele>
        <time>2013-07-26T07:52:28.000Z</time>
      </trkpt>
      <trkpt lat="43.578" lon="3.75431">
        <ele>100.9</ele>
        <time>2013-07-26T07:52:29.000Z</time>
      </trkpt>
      <trkpt lat="43.57797" lon="3.75424">
        <ele>100.2</ele>
        <time>2013-07-26T07:52:30.000Z</time>
      </trkpt>
      <trkpt lat="43.57794" lon="3.75417">
        <ele>100</ele>
        <time>2013-07-26T07:52:31.000Z</time>
      </trkpt>
      <trkpt lat="43.5779" lon="3.75411">
        <ele>98.9</ele>
        <time>2013-07-26T07:52:32.000Z</time>
      </trkpt>
      <trkpt lat="43.57787" lon="3.75402">
        <ele>99.2</ele>
        <time>2013-07-26T07:52:33.000Z</time>
      </trkpt>
      <trkpt lat="43.57783" lon="3.75394">
        <ele>99.1</ele>
        <time>2013-07-26T07:52:34.000Z</time>
      </trkpt>
      <trkpt lat="43.5778" lon="3.75385">
        <ele>99.5</ele>
        <time>2013-07-26T07:52:35.000Z</time>
      </trkpt>
      <trkpt lat="43.5778" lon="3.75377">
        <ele>100.2</ele>
        <time>2013-07-26T07:52:36.000Z</time>
      </trkpt>
      <trkpt lat="43.5778" lon="3.75368">
        <ele>102.7</ele>
        <time>2013-07-26T07:52:37.000Z</time>
      </trkpt>
      <trkpt lat="43.57778" lon="3.75357">
        <ele>101.7</ele>
        <time>2013-07-26T07:52:38.000Z</time>
      </trkpt>
      <trkpt lat="43.57776" lon="3.75348">
        <ele>101.3</ele>
        <time>2013-07-26T07:52:39.000Z</time>
      </trkpt>
      <trkpt lat="43.57774" lon="3.75341">
        <ele>100.8</ele>
        <time>2013-07-26T07:52:40.000Z</time>
      </trkpt>
      <trkpt lat="43.5777" lon="3.75336">
        <ele>100.8</ele>
        <time>2013-07-26T07:52:41.000Z</time>
      </trkpt>
      <trkpt lat="43.57767" lon="3.75333">
        <ele>100.5</ele>
        <time>2013-07-26T07:52:42.000Z</time>
      </trkpt>
      <trkpt lat="43.57763" lon="3.75327">
        <ele>100.4</ele>
        <time>2013-07-26T07:52:43.000Z</time>
      </trkpt>
      <trkpt lat="43.57757" lon="3.75319">
        <ele>101</ele>
        <time>2013-07-26T07:52:44.000Z</time>
      </trkpt>
      <trkpt lat="43.57752" lon="3.75312">
        <ele>101.1</ele>
        <time>2013-07-26T07:52:45.000Z</time>
      </trkpt>
      <trkpt lat="43.57749" lon="3.75302">
        <ele>102.6</ele>
        <time>2013-07-26T07:52:46.000Z</time>
      </trkpt>
      <trkpt lat="43.57745" lon="3.75295">
        <ele>102.5</ele>
        <time>2013-07-26T07:52:47.000Z</time>
      </trkpt>
      <trkpt lat="43.57742" lon="3.75288">
        <ele>103.1</ele>
        <time>2013-07-26T07:52:48.000Z</time>
      </trkpt>
      <trkpt lat="43.57739" lon="3.75281">
        <ele>104.3</ele>
        <time>2013-07-26T07:52:49.000Z</time>
      </trkpt>
      <trkpt lat="43.57735" lon="3.75274">
        <ele>105.4</ele>
        <time>2013-07-26T07:52:50.000Z</time>
      </trkpt>
      <trkpt lat="43.5773" lon="3.75268">
        <ele>104.2</ele>
        <time>2013-07-26T07:52:51.000Z</time>
      </trkpt>
      <trkpt lat="43.57727" lon="3.75261">
        <ele>104.7</ele>
        <time>2013-07-26T07:52:52.000Z</time>
      </trkpt>
      <trkpt lat="43.57723" lon="3.75254">
        <ele>104.4</ele>
        <time>2013-07-26T07:52:53.000Z</time>
      </trkpt>
      <trkpt lat="43.5772" lon="3.75245">
        <ele>104.4</ele>
        <time>2013-07-26T07:52:54.000Z</time>
      </trkpt>
      <trkpt lat="43.57717" lon="3.75237">
        <ele>104.8</ele>
        <time>2013-07-26T07:52:55.000Z</time>
      </trkpt>
      <trkpt lat="43.57713" lon="3.7523">
        <ele>105.3</ele>
        <time>2013-07-26T07:52:56.000Z</time>
      </trkpt>
      <trkpt lat="43.57709" lon="3.75222">
        <ele>105.2</ele>
        <time>2013-07-26T07:52:57.000Z</time>
      </trkpt>
      <trkpt lat="43.57705" lon="3.75214">
        <ele>105</ele>
        <time>2013-07-26T07:52:58.032Z</time>
      </trkpt>
      <trkpt lat="43.57701" lon="3.75207">
        <ele>104.3</ele>
        <time>2013-07-26T07:52:59.000Z</time>
      </trkpt>
      <trkpt lat="43.57697" lon="3.75199">
        <ele>105</ele>
        <time>2013-07-26T07:53:00.000Z</time>
      </trkpt>
      <trkpt lat="43.57695" lon="3.75192">
        <ele>104.1</ele>
        <time>2013-07-26T07:53:01.000Z</time>
      </trkpt>
      <trkpt lat="43.57693" lon="3.75183">
        <ele>103.9</ele>
        <time>2013-07-26T07:53:02.000Z</time>
      </trkpt>
      <trkpt lat="43.57691" lon="3.75175">
        <ele>103.9</ele>
        <time>2013-07-26T07:53:03.000Z</time>
      </trkpt>
      <trkpt lat="43.57689" lon="3.75169">
        <ele>103.8</ele>
        <time>2013-07-26T07:53:04.000Z</time>
      </trkpt>
      <trkpt lat="43.57686" lon="3.75161">
        <ele>104.4</ele>
        <time>2013-07-26T07:53:05.000Z</time>
      </trkpt>
      <trkpt lat="43.57684" lon="3.75152">
        <ele>104.7</ele>
        <time>2013-07-26T07:53:06.000Z</time>
      </trkpt>
      <trkpt lat="43.57679" lon="3.75145">
        <ele>104.4</ele>
        <time>2013-07-26T07:53:07.000Z</time>
      </trkpt>
      <trkpt lat="43.57676" lon="3.75138">
        <ele>103.9</ele>
        <time>2013-07-26T07:53:08.000Z</time>
      </trkpt>
      <trkpt lat="43.57673" lon="3.7513">
        <ele>103.9</ele>
        <time>2013-07-26T07:53:09.000Z</time>
      </trkpt>
      <trkpt lat="43.57669" lon="3.75123">
        <ele>103.2</ele>
        <time>2013-07-26T07:53:10.000Z</time>
      </trkpt>
      <trkpt lat="43.57665" lon="3.75115">
        <ele>102.9</ele>
        <time>2013-07-26T07:53:11.000Z</time>
      </trkpt>
      <trkpt lat="43.57662" lon="3.75108">
        <ele>102.4</ele>
        <time>2013-07-26T07:53:12.000Z</time>
      </trkpt>
      <trkpt lat="43.57659" lon="3.75101">
        <ele>101.7</ele>
        <time>2013-07-26T07:53:13.000Z</time>
      </trkpt>
      <trkpt lat="43.57655" lon="3.75092">
        <ele>101.4</ele>
        <time>2013-07-26T07:53:14.000Z</time>
      </trkpt>
      <trkpt lat="43.57652" lon="3.75087">
        <ele>99.4</ele>
        <time>2013-07-26T07:53:15.000Z</time>
      </trkpt>
      <trkpt lat="43.57648" lon="3.75079">
        <ele>98.7</ele>
        <time>2013-07-26T07:53:16.000Z</time>
      </trkpt>
      <trkpt lat="43.57645" lon="3.75072">
        <ele>98.6</ele>
        <time>2013-07-26T07:53:17.000Z</time>
      </trkpt>
      <trkpt lat="43.57642" lon="3.75065">
        <ele>97.9</ele>
        <time>2013-07-26T07:53:18.000Z</time>
      </trkpt>
      <trkpt lat="43.57639" lon="3.75058">
        <ele>97.8</ele>
        <time>2013-07-26T07:53:19.000Z</time>
      </trkpt>
      <trkpt lat="43.57636" lon="3.75051">
        <ele>98.5</ele>
        <time>2013-07-26T07:53:20.000Z</time>
      </trkpt>
      <trkpt lat="43.57632" lon="3.75043">
        <ele>97.9</ele>
        <time>2013-07-26T07:53:21.000Z</time>
      </trkpt>
      <trkpt lat="43.57629" lon="3.75034">
        <ele>97.5</ele>
        <time>2013-07-26T07:53:22.000Z</time>
      </trkpt>
      <trkpt lat="43.57626" lon="3.75028">
        <ele>99.2</ele>
        <time>2013-07-26T07:53:23.000Z</time>
      </trkpt>
      <trkpt lat="43.57624" lon="3.75022">
        <ele>99.4</ele>
        <time>2013-07-26T07:53:24.000Z</time>
      </trkpt>
      <trkpt lat="43.57622" lon="3.75017">
        <ele>100.2</ele>
        <time>2013-07-26T07:53:25.000Z</time>
      </trkpt>
      <trkpt lat="43.57618" lon="3.7501">
        <ele>97.8</ele>
        <time>2013-07-26T07:53:26.000Z</time>
      </trkpt>
      <trkpt lat="43.57616" lon="3.75004">
        <ele>98</ele>
        <time>2013-07-26T07:53:27.000Z</time>
      </trkpt>
      <trkpt lat="43.57613" lon="3.74996">
        <ele>98.4</ele>
        <time>2013-07-26T07:53:28.000Z</time>
      </trkpt>
      <trkpt lat="43.57612" lon="3.7499">
        <ele>98.9</ele>
        <time>2013-07-26T07:53:29.000Z</time>
      </trkpt>
      <trkpt lat="43.57609" lon="3.74982">
        <ele>98.3</ele>
        <time>2013-07-26T07:53:30.000Z</time>
      </trkpt>
      <trkpt lat="43.57607" lon="3.74974">
        <ele>98.9</ele>
        <time>2013-07-26T07:53:31.000Z</time>
      </trkpt>
      <trkpt lat="43.57605" lon="3.74967">
        <ele>99.1</ele>
        <time>2013-07-26T07:53:32.000Z</time>
      </trkpt>
      <trkpt lat="43.57603" lon="3.7496">
        <ele>99.8</ele>
        <time>2013-07-26T07:53:33.000Z</time>
      </trkpt>
      <trkpt lat="43.57601" lon="3.74954">
        <ele>98.9</ele>
        <time>2013-07-26T07:53:34.000Z</time>
      </trkpt>
      <trkpt lat="43.57599" lon="3.74947">
        <ele>98.4</ele>
        <time>2013-07-26T07:53:35.000Z</time>
      </trkpt>
      <trkpt lat="43.57597" lon="3.7494">
        <ele>98.1</ele>
        <time>2013-07-26T07:53:36.000Z</time>
      </trkpt>
      <trkpt lat="43.57595" lon="3.74934">
        <ele>98</ele>
        <time>2013-07-26T07:53:37.000Z</time>
      </trkpt>
      <trkpt lat="43.57594" lon="3.74927">
        <ele>98.4</ele>
        <time>2013-07-26T07:53:38.000Z</time>
      </trkpt>
      <trkpt lat="43.57591" lon="3.74922">
        <ele>98.8</ele>
        <time>2013-07-26T07:53:39.000Z</time>
      </trkpt>
      <trkpt lat="43.57589" lon="3.74914">
        <ele>98.2</ele>
        <time>2013-07-26T07:53:40.000Z</time>
      </trkpt>
      <trkpt lat="43.57586" lon="3.74907">
        <ele>98.7</ele>
        <time>2013-07-26T07:53:41.000Z</time>
      </trkpt>
      <trkpt lat="43.57584" lon="3.749">
        <ele>98.6</ele>
        <time>2013-07-26T07:53:42.000Z</time>
      </trkpt>
      <trkpt lat="43.57581" lon="3.74893">
        <ele>98.8</ele>
        <time>2013-07-26T07:53:43.000Z</time>
      </trkpt>
      <trkpt lat="43.5758" lon="3.74888">
        <ele>100</ele>
        <time>2013-07-26T07:53:44.000Z</time>
      </trkpt>
      <trkpt lat="43.57578" lon="3.74881">
        <ele>99.9</ele>
        <time>2013-07-26T07:53:45.000Z</time>
      </trkpt>
      <trkpt lat="43.57577" lon="3.74873">
        <ele>98.8</ele>
        <time>2013-07-26T07:53:46.000Z</time>
      </trkpt>
      <trkpt lat="43.57575" lon="3.74866">
        <ele>98</ele>
        <time>2013-07-26T07:53:47.000Z</time>
      </trkpt>
      <trkpt lat="43.57573" lon="3.74859">
        <ele>98.4</ele>
        <time>2013-07-26T07:53:48.000Z</time>
      </trkpt>
      <trkpt lat="43.57572" lon="3.74852">
        <ele>99.5</ele>
        <time>2013-07-26T07:53:49.000Z</time>
      </trkpt>
      <trkpt lat="43.5757" lon="3.74845">
        <ele>100.5</ele>
        <time>2013-07-26T07:53:50.000Z</time>
      </trkpt>
      <trkpt lat="43.57568" lon="3.74838">
        <ele>99.6</ele>
        <time>2013-07-26T07:53:51.000Z</time>
      </trkpt>
      <trkpt lat="43.57566" lon="3.74832">
        <ele>99</ele>
        <time>2013-07-26T07:53:52.000Z</time>
      </trkpt>
      <trkpt lat="43.57564" lon="3.74826">
        <ele>97.6</ele>
        <time>2013-07-26T07:53:53.000Z</time>
      </trkpt>
      <trkpt lat="43.57561" lon="3.7482">
        <ele>96.1</ele>
        <time>2013-07-26T07:53:54.000Z</time>
      </trkpt>
      <trkpt lat="43.57559" lon="3.74813">
        <ele>95.2</ele>
        <time>2013-07-26T07:53:55.000Z</time>
      </trkpt>
      <trkpt lat="43.57557" lon="3.74807">
        <ele>95.6</ele>
        <time>2013-07-26T07:53:56.000Z</time>
      </trkpt>
      <trkpt lat="43.57555" lon="3.74802">
        <ele>96.2</ele>
        <time>2013-07-26T07:53:57.000Z</time>
      </trkpt>
      <trkpt lat="43.57554" lon="3.74795">
        <ele>96.3</ele>
        <time>2013-07-26T07:53:57.985Z</time>
      </trkpt>
      <trkpt lat="43.57553" lon="3.74787">
        <ele>98.5</ele>
        <time>2013-07-26T07:53:59.000Z</time>
      </trkpt>
      <trkpt lat="43.5755" lon="3.74781">
        <ele>98.7</ele>
        <time>2013-07-26T07:54:00.000Z</time>
      </trkpt>
      <trkpt lat="43.57547" lon="3.74774">
        <ele>95.7</ele>
        <time>2013-07-26T07:54:01.000Z</time>
      </trkpt>
      <trkpt lat="43.57545" lon="3.74766">
        <ele>96.3</ele>
        <time>2013-07-26T07:54:02.000Z</time>
      </trkpt>
      <trkpt lat="43.57544" lon="3.74758">
        <ele>98</ele>
        <time>2013-07-26T07:54:03.000Z</time>
      </trkpt>
      <trkpt lat="43.57542" lon="3.74751">
        <ele>99.2</ele>
        <time>2013-07-26T07:54:04.000Z</time>
      </trkpt>
      <trkpt lat="43.57539" lon="3.74744">
        <ele>98.8</ele>
        <time>2013-07-26T07:54:05.000Z</time>
      </trkpt>
      <trkpt lat="43.57536" lon="3.74736">
        <ele>97.2</ele>
        <time>2013-07-26T07:54:06.000Z</time>
      </trkpt>
      <trkpt lat="43.57532" lon="3.74729">
        <ele>97.5</ele>
        <time>2013-07-26T07:54:07.000Z</time>
      </trkpt>
      <trkpt lat="43.57529" lon="3.74723">
        <ele>98.2</ele>
        <time>2013-07-26T07:54:08.000Z</time>
      </trkpt>
      <trkpt lat="43.57526" lon="3.74717">
        <ele>97.9</ele>
        <time>2013-07-26T07:54:09.000Z</time>
      </trkpt>
      <trkpt lat="43.57522" lon="3.7471">
        <ele>97.8</ele>
        <time>2013-07-26T07:54:10.000Z</time>
      </trkpt>
      <trkpt lat="43.57517" lon="3.74705">
        <ele>98.3</ele>
        <time>2013-07-26T07:54:11.000Z</time>
      </trkpt>
      <trkpt lat="43.57513" lon="3.74699">
        <ele>98.4</ele>
        <time>2013-07-26T07:54:12.000Z</time>
      </trkpt>
      <trkpt lat="43.57511" lon="3.74692">
        <ele>100.5</ele>
        <time>2013-07-26T07:54:13.000Z</time>
      </trkpt>
      <trkpt lat="43.57509" lon="3.74684">
        <ele>98.3</ele>
        <time>2013-07-26T07:54:14.000Z</time>
      </trkpt>
      <trkpt lat="43.57507" lon="3.74677">
        <ele>98.5</ele>
        <time>2013-07-26T07:54:15.000Z</time>
      </trkpt>
      <trkpt lat="43.57505" lon="3.74668">
        <ele>98.4</ele>
        <time>2013-07-26T07:54:16.000Z</time>
      </trkpt>
      <trkpt lat="43.57503" lon="3.74661">
        <ele>98.8</ele>
        <time>2013-07-26T07:54:17.000Z</time>
      </trkpt>
      <trkpt lat="43.57499" lon="3.74655">
        <ele>99.4</ele>
        <time>2013-07-26T07:54:18.000Z</time>
      </trkpt>
      <trkpt lat="43.57496" lon="3.74648">
        <ele>100.3</ele>
        <time>2013-07-26T07:54:19.000Z</time>
      </trkpt>
      <trkpt lat="43.57492" lon="3.74642">
        <ele>101.4</ele>
        <time>2013-07-26T07:54:20.000Z</time>
      </trkpt>
      <trkpt lat="43.57489" lon="3.74636">
        <ele>102.2</ele>
        <time>2013-07-26T07:54:21.000Z</time>
      </trkpt>
      <trkpt lat="43.57485" lon="3.74629">
        <ele>102.2</ele>
        <time>2013-07-26T07:54:22.000Z</time>
      </trkpt>
      <trkpt lat="43.57483" lon="3.74623">
        <ele>102.7</ele>
        <time>2013-07-26T07:54:23.000Z</time>
      </trkpt>
      <trkpt lat="43.57481" lon="3.74616">
        <ele>105.6</ele>
        <time>2013-07-26T07:54:24.000Z</time>
      </trkpt>
      <trkpt lat="43.57476" lon="3.74609">
        <ele>106.3</ele>
        <time>2013-07-26T07:54:25.000Z</time>
      </trkpt>
      <trkpt lat="43.57472" lon="3.74603">
        <ele>108</ele>
        <time>2013-07-26T07:54:26.000Z</time>
      </trkpt>
      <trkpt lat="43.57468" lon="3.74596">
        <ele>108.4</ele>
        <time>2013-07-26T07:54:27.000Z</time>
      </trkpt>
      <trkpt lat="43.57465" lon="3.74591">
        <ele>109.4</ele>
        <time>2013-07-26T07:54:28.000Z</time>
      </trkpt>
      <trkpt lat="43.57461" lon="3.74585">
        <ele>109.7</ele>
        <time>2013-07-26T07:54:29.000Z</time>
      </trkpt>
      <trkpt lat="43.57458" lon="3.74578">
        <ele>112.3</ele>
        <time>2013-07-26T07:54:30.000Z</time>
      </trkpt>
      <trkpt lat="43.57455" lon="3.74572">
        <ele>113.2</ele>
        <time>2013-07-26T07:54:31.000Z</time>
      </trkpt>
      <trkpt lat="43.57451" lon="3.74565">
        <ele>113.9</ele>
        <time>2013-07-26T07:54:32.000Z</time>
      </trkpt>
      <trkpt lat="43.57448" lon="3.74558">
        <ele>113.9</ele>
        <time>2013-07-26T07:54:33.000Z</time>
      </trkpt>
      <trkpt lat="43.57443" lon="3.74552">
        <ele>113.7</ele>
        <time>2013-07-26T07:54:34.000Z</time>
      </trkpt>
      <trkpt lat="43.57441" lon="3.74546">
        <ele>114.3</ele>
        <time>2013-07-26T07:54:35.000Z</time>
      </trkpt>
      <trkpt lat="43.57437" lon="3.7454">
        <ele>113.8</ele>
        <time>2013-07-26T07:54:36.000Z</time>
      </trkpt>
      <trkpt lat="43.57434" lon="3.74533">
        <ele>114.2</ele>
        <time>2013-07-26T07:54:37.000Z</time>
      </trkpt>
      <trkpt lat="43.57429" lon="3.74526">
        <ele>113.2</ele>
        <time>2013-07-26T07:54:38.000Z</time>
      </trkpt>
      <trkpt lat="43.57425" lon="3.74519">
        <ele>112.2</ele>
        <time>2013-07-26T07:54:39.000Z</time>
      </trkpt>
      <trkpt lat="43.57422" lon="3.74511">
        <ele>112.3</ele>
        <time>2013-07-26T07:54:40.000Z</time>
      </trkpt>
      <trkpt lat="43.57417" lon="3.74505">
        <ele>111.6</ele>
        <time>2013-07-26T07:54:41.000Z</time>
      </trkpt>
      <trkpt lat="43.57414" lon="3.74498">
        <ele>111.8</ele>
        <time>2013-07-26T07:54:42.000Z</time>
      </trkpt>
      <trkpt lat="43.5741" lon="3.7449">
        <ele>112.8</ele>
        <time>2013-07-26T07:54:43.000Z</time>
      </trkpt>
      <trkpt lat="43.57408" lon="3.74483">
        <ele>112.5</ele>
        <time>2013-07-26T07:54:44.000Z</time>
      </trkpt>
      <trkpt lat="43.57405" lon="3.74476">
        <ele>113.1</ele>
        <time>2013-07-26T07:54:45.000Z</time>
      </trkpt>
      <trkpt lat="43.57402" lon="3.74469">
        <ele>111.9</ele>
        <time>2013-07-26T07:54:46.000Z</time>
      </trkpt>
      <trkpt lat="43.57399" lon="3.74461">
        <ele>110.7</ele>
        <time>2013-07-26T07:54:47.000Z</time>
      </trkpt>
      <trkpt lat="43.57396" lon="3.74453">
        <ele>110.9</ele>
        <time>2013-07-26T07:54:48.000Z</time>
      </trkpt>
      <trkpt lat="43.57393" lon="3.74445">
        <ele>109.7</ele>
        <time>2013-07-26T07:54:49.000Z</time>
      </trkpt>
      <trkpt lat="43.5739" lon="3.74438">
        <ele>108.3</ele>
        <time>2013-07-26T07:54:50.000Z</time>
      </trkpt>
      <trkpt lat="43.57388" lon="3.74431">
        <ele>107.1</ele>
        <time>2013-07-26T07:54:51.000Z</time>
      </trkpt>
      <trkpt lat="43.57385" lon="3.74424">
        <ele>104.1</ele>
        <time>2013-07-26T07:54:52.000Z</time>
      </trkpt>
      <trkpt lat="43.57382" lon="3.74416">
        <ele>104</ele>
        <time>2013-07-26T07:54:53.000Z</time>
      </trkpt>
      <trkpt lat="43.5738" lon="3.74408">
        <ele>102.8</ele>
        <time>2013-07-26T07:54:54.000Z</time>
      </trkpt>
      <trkpt lat="43.57378" lon="3.74401">
        <ele>101.6</ele>
        <time>2013-07-26T07:54:55.000Z</time>
      </trkpt>
      <trkpt lat="43.57376" lon="3.74393">
        <ele>100.7</ele>
        <time>2013-07-26T07:54:56.000Z</time>
      </trkpt>
      <trkpt lat="43.57373" lon="3.74386">
        <ele>100.2</ele>
        <time>2013-07-26T07:54:57.000Z</time>
      </trkpt>
      <trkpt lat="43.57372" lon="3.74379">
        <ele>99.8</ele>
        <time>2013-07-26T07:54:58.000Z</time>
      </trkpt>
      <trkpt lat="43.5737" lon="3.74372">
        <ele>99.8</ele>
        <time>2013-07-26T07:54:59.000Z</time>
      </trkpt>
      <trkpt lat="43.57369" lon="3.74364">
        <ele>100.3</ele>
        <time>2013-07-26T07:55:00.000Z</time>
      </trkpt>
      <trkpt lat="43.57367" lon="3.74357">
        <ele>99</ele>
        <time>2013-07-26T07:55:01.000Z</time>
      </trkpt>
      <trkpt lat="43.57365" lon="3.7435">
        <ele>97.9</ele>
        <time>2013-07-26T07:55:02.000Z</time>
      </trkpt>
      <trkpt lat="43.57364" lon="3.74343">
        <ele>95.3</ele>
        <time>2013-07-26T07:55:03.000Z</time>
      </trkpt>
      <trkpt lat="43.57362" lon="3.74336">
        <ele>94.6</ele>
        <time>2013-07-26T07:55:04.000Z</time>
      </trkpt>
      <trkpt lat="43.5736" lon="3.74329">
        <ele>95.1</ele>
        <time>2013-07-26T07:55:05.000Z</time>
      </trkpt>
      <trkpt lat="43.57358" lon="3.74322">
        <ele>94.9</ele>
        <time>2013-07-26T07:55:06.000Z</time>
      </trkpt>
      <trkpt lat="43.57356" lon="3.74314">
        <ele>95.5</ele>
        <time>2013-07-26T07:55:07.000Z</time>
      </trkpt>
      <trkpt lat="43.57355" lon="3.74306">
        <ele>96.7</ele>
        <time>2013-07-26T07:55:08.000Z</time>
      </trkpt>
      <trkpt lat="43.57353" lon="3.743">
        <ele>95.8</ele>
        <time>2013-07-26T07:55:09.000Z</time>
      </trkpt>
      <trkpt lat="43.5735" lon="3.74292">
        <ele>95.1</ele>
        <time>2013-07-26T07:55:10.000Z</time>
      </trkpt>
      <trkpt lat="43.57348" lon="3.74285">
        <ele>95.3</ele>
        <time>2013-07-26T07:55:11.000Z</time>
      </trkpt>
      <trkpt lat="43.57347" lon="3.74278">
        <ele>94.8</ele>
        <time>2013-07-26T07:55:12.000Z</time>
      </trkpt>
      <trkpt lat="43.57345" lon="3.74269">
        <ele>94.2</ele>
        <time>2013-07-26T07:55:13.000Z</time>
      </trkpt>
      <trkpt lat="43.57344" lon="3.74261">
        <ele>93.9</ele>
        <time>2013-07-26T07:55:14.000Z</time>
      </trkpt>
      <trkpt lat="43.57344" lon="3.74252">
        <ele>95.2</ele>
        <time>2013-07-26T07:55:15.000Z</time>
      </trkpt>
      <trkpt lat="43.57343" lon="3.74242">
        <ele>95.4</ele>
        <time>2013-07-26T07:55:16.000Z</time>
      </trkpt>
      <trkpt lat="43.57342" lon="3.74233">
        <ele>95.2</ele>
        <time>2013-07-26T07:55:17.000Z</time>
      </trkpt>
      <trkpt lat="43.57341" lon="3.74225">
        <ele>95.6</ele>
        <time>2013-07-26T07:55:18.000Z</time>
      </trkpt>
      <trkpt lat="43.57339" lon="3.74217">
        <ele>96.8</ele>
        <time>2013-07-26T07:55:19.000Z</time>
      </trkpt>
      <trkpt lat="43.57336" lon="3.7421">
        <ele>96.7</ele>
        <time>2013-07-26T07:55:20.000Z</time>
      </trkpt>
      <trkpt lat="43.57333" lon="3.74203">
        <ele>96.9</ele>
        <time>2013-07-26T07:55:21.000Z</time>
      </trkpt>
      <trkpt lat="43.5733" lon="3.74196">
        <ele>96.6</ele>
        <time>2013-07-26T07:55:22.000Z</time>
      </trkpt>
      <trkpt lat="43.57326" lon="3.7419">
        <ele>97.3</ele>
        <time>2013-07-26T07:55:23.000Z</time>
      </trkpt>
      <trkpt lat="43.57323" lon="3.74183">
        <ele>96.2</ele>
        <time>2013-07-26T07:55:24.000Z</time>
      </trkpt>
      <trkpt lat="43.5732" lon="3.74176">
        <ele>95.6</ele>
        <time>2013-07-26T07:55:25.000Z</time>
      </trkpt>
      <trkpt lat="43.57315" lon="3.74168">
        <ele>95.4</ele>
        <time>2013-07-26T07:55:26.000Z</time>
      </trkpt>
      <trkpt lat="43.57311" lon="3.74163">
        <ele>94.9</ele>
        <time>2013-07-26T07:55:27.000Z</time>
      </trkpt>
      <trkpt lat="43.57307" lon="3.74155">
        <ele>94.9</ele>
        <time>2013-07-26T07:55:28.000Z</time>
      </trkpt>
      <trkpt lat="43.57304" lon="3.74149">
        <ele>95</ele>
        <time>2013-07-26T07:55:29.000Z</time>
      </trkpt>
      <trkpt lat="43.57299" lon="3.74142">
        <ele>94.5</ele>
        <time>2013-07-26T07:55:30.000Z</time>
      </trkpt>
      <trkpt lat="43.57295" lon="3.74136">
        <ele>95.7</ele>
        <time>2013-07-26T07:55:31.000Z</time>
      </trkpt>
      <trkpt lat="43.5729" lon="3.74129">
        <ele>95.9</ele>
        <time>2013-07-26T07:55:32.000Z</time>
      </trkpt>
      <trkpt lat="43.57287" lon="3.74123">
        <ele>96.6</ele>
        <time>2013-07-26T07:55:33.000Z</time>
      </trkpt>
      <trkpt lat="43.57283" lon="3.74118">
        <ele>98</ele>
        <time>2013-07-26T07:55:34.000Z</time>
      </trkpt>
      <trkpt lat="43.5728" lon="3.74113">
        <ele>97.6</ele>
        <time>2013-07-26T07:55:35.000Z</time>
      </trkpt>
      <trkpt lat="43.57275" lon="3.74107">
        <ele>96</ele>
        <time>2013-07-26T07:55:36.000Z</time>
      </trkpt>
      <trkpt lat="43.5727" lon="3.74099">
        <ele>93.6</ele>
        <time>2013-07-26T07:55:37.000Z</time>
      </trkpt>
      <trkpt lat="43.57264" lon="3.74092">
        <ele>93.1</ele>
        <time>2013-07-26T07:55:38.000Z</time>
      </trkpt>
      <trkpt lat="43.57259" lon="3.74086">
        <ele>92.5</ele>
        <time>2013-07-26T07:55:39.000Z</time>
      </trkpt>
      <trkpt lat="43.57255" lon="3.74081">
        <ele>93.5</ele>
        <time>2013-07-26T07:55:40.000Z</time>
      </trkpt>
      <trkpt lat="43.57251" lon="3.74075">
        <ele>93.4</ele>
        <time>2013-07-26T07:55:41.000Z</time>
      </trkpt>
      <trkpt lat="43.57246" lon="3.74069">
        <ele>93.6</ele>
        <time>2013-07-26T07:55:42.000Z</time>
      </trkpt>
      <trkpt lat="43.57243" lon="3.74064">
        <ele>93.5</ele>
        <time>2013-07-26T07:55:43.000Z</time>
      </trkpt>
      <trkpt lat="43.57239" lon="3.74059">
        <ele>97.2</ele>
        <time>2013-07-26T07:55:44.000Z</time>
      </trkpt>
      <trkpt lat="43.57235" lon="3.74055">
        <ele>98.9</ele>
        <time>2013-07-26T07:55:45.000Z</time>
      </trkpt>
      <trkpt lat="43.5723" lon="3.74051">
        <ele>98.9</ele>
        <time>2013-07-26T07:55:46.000Z</time>
      </trkpt>
      <trkpt lat="43.57224" lon="3.74046">
        <ele>99.4</ele>
        <time>2013-07-26T07:55:47.000Z</time>
      </trkpt>
      <trkpt lat="43.57219" lon="3.7404">
        <ele>102</ele>
        <time>2013-07-26T07:55:48.000Z</time>
      </trkpt>
      <trkpt lat="43.57213" lon="3.74034">
        <ele>102.6</ele>
        <time>2013-07-26T07:55:49.000Z</time>
      </trkpt>
      <trkpt lat="43.57208" lon="3.74028">
        <ele>101.6</ele>
        <time>2013-07-26T07:55:50.000Z</time>
      </trkpt>
      <trkpt lat="43.57204" lon="3.74023">
        <ele>101.2</ele>
        <time>2013-07-26T07:55:51.000Z</time>
      </trkpt>
      <trkpt lat="43.57199" lon="3.7402">
        <ele>101.9</ele>
        <time>2013-07-26T07:55:52.000Z</time>
      </trkpt>
      <trkpt lat="43.57194" lon="3.74016">
        <ele>100.2</ele>
        <time>2013-07-26T07:55:53.000Z</time>
      </trkpt>
      <trkpt lat="43.57189" lon="3.74011">
        <ele>99.1</ele>
        <time>2013-07-26T07:55:54.000Z</time>
      </trkpt>
      <trkpt lat="43.57184" lon="3.74005">
        <ele>98.4</ele>
        <time>2013-07-26T07:55:55.000Z</time>
      </trkpt>
      <trkpt lat="43.57179" lon="3.73999">
        <ele>99</ele>
        <time>2013-07-26T07:55:56.000Z</time>
      </trkpt>
      <trkpt lat="43.57174" lon="3.73993">
        <ele>99.3</ele>
        <time>2013-07-26T07:55:57.000Z</time>
      </trkpt>
      <trkpt lat="43.5717" lon="3.73989">
        <ele>100.7</ele>
        <time>2013-07-26T07:55:58.000Z</time>
      </trkpt>
      <trkpt lat="43.57167" lon="3.73985">
        <ele>100.1</ele>
        <time>2013-07-26T07:55:59.000Z</time>
      </trkpt>
      <trkpt lat="43.57163" lon="3.7398">
        <ele>100.7</ele>
        <time>2013-07-26T07:56:00.000Z</time>
      </trkpt>
      <trkpt lat="43.57158" lon="3.73975">
        <ele>102.2</ele>
        <time>2013-07-26T07:56:01.000Z</time>
      </trkpt>
      <trkpt lat="43.57155" lon="3.7397">
        <ele>102.7</ele>
        <time>2013-07-26T07:56:02.000Z</time>
      </trkpt>
      <trkpt lat="43.57151" lon="3.73966">
        <ele>102.9</ele>
        <time>2013-07-26T07:56:03.000Z</time>
      </trkpt>
      <trkpt lat="43.57147" lon="3.73962">
        <ele>103.1</ele>
        <time>2013-07-26T07:56:04.000Z</time>
      </trkpt>
      <trkpt lat="43.57143" lon="3.73957">
        <ele>103.3</ele>
        <time>2013-07-26T07:56:05.000Z</time>
      </trkpt>
      <trkpt lat="43.57139" lon="3.73951">
        <ele>106.3</ele>
        <time>2013-07-26T07:56:06.000Z</time>
      </trkpt>
      <trkpt lat="43.57136" lon="3.73946">
        <ele>108.1</ele>
        <time>2013-07-26T07:56:07.000Z</time>
      </trkpt>
      <trkpt lat="43.57132" lon="3.73941">
        <ele>108</ele>
        <time>2013-07-26T07:56:08.000Z</time>
      </trkpt>
      <trkpt lat="43.57128" lon="3.73936">
        <ele>106.7</ele>
        <time>2013-07-26T07:56:09.000Z</time>
      </trkpt>
      <trkpt lat="43.57122" lon="3.7393">
        <ele>105.4</ele>
        <time>2013-07-26T07:56:10.000Z</time>
      </trkpt>
      <trkpt lat="43.57118" lon="3.73924">
        <ele>105.7</ele>
        <time>2013-07-26T07:56:11.000Z</time>
      </trkpt>
      <trkpt lat="43.57114" lon="3.7392">
        <ele>106.8</ele>
        <time>2013-07-26T07:56:12.000Z</time>
      </trkpt>
      <trkpt lat="43.5711" lon="3.73915">
        <ele>106.5</ele>
        <time>2013-07-26T07:56:13.000Z</time>
      </trkpt>
      <trkpt lat="43.57107" lon="3.7391">
        <ele>107.1</ele>
        <time>2013-07-26T07:56:14.000Z</time>
      </trkpt>
      <trkpt lat="43.57102" lon="3.73905">
        <ele>107.4</ele>
        <time>2013-07-26T07:56:15.000Z</time>
      </trkpt>
      <trkpt lat="43.57099" lon="3.73901">
        <ele>106.9</ele>
        <time>2013-07-26T07:56:16.000Z</time>
      </trkpt>
      <trkpt lat="43.57096" lon="3.73896">
        <ele>107.5</ele>
        <time>2013-07-26T07:56:17.000Z</time>
      </trkpt>
      <trkpt lat="43.57092" lon="3.7389">
        <ele>107.8</ele>
        <time>2013-07-26T07:56:18.000Z</time>
      </trkpt>
      <trkpt lat="43.57087" lon="3.73884">
        <ele>107.8</ele>
        <time>2013-07-26T07:56:19.000Z</time>
      </trkpt>
      <trkpt lat="43.57083" lon="3.73878">
        <ele>107.6</ele>
        <time>2013-07-26T07:56:20.000Z</time>
      </trkpt>
      <trkpt lat="43.57079" lon="3.73873">
        <ele>107.2</ele>
        <time>2013-07-26T07:56:21.000Z</time>
      </trkpt>
      <trkpt lat="43.57075" lon="3.73869">
        <ele>107.5</ele>
        <time>2013-07-26T07:56:22.000Z</time>
      </trkpt>
      <trkpt lat="43.5707" lon="3.73862">
        <ele>106.3</ele>
        <time>2013-07-26T07:56:23.000Z</time>
      </trkpt>
      <trkpt lat="43.57066" lon="3.73856">
        <ele>105</ele>
        <time>2013-07-26T07:56:24.000Z</time>
      </trkpt>
      <trkpt lat="43.57062" lon="3.73851">
        <ele>104.5</ele>
        <time>2013-07-26T07:56:25.000Z</time>
      </trkpt>
      <trkpt lat="43.57059" lon="3.73846">
        <ele>105.3</ele>
        <time>2013-07-26T07:56:26.000Z</time>
      </trkpt>
      <trkpt lat="43.57055" lon="3.73839">
        <ele>105.6</ele>
        <time>2013-07-26T07:56:27.000Z</time>
      </trkpt>
      <trkpt lat="43.57051" lon="3.73833">
        <ele>106.2</ele>
        <time>2013-07-26T07:56:28.000Z</time>
      </trkpt>
      <trkpt lat="43.57046" lon="3.73828">
        <ele>105.8</ele>
        <time>2013-07-26T07:56:29.000Z</time>
      </trkpt>
      <trkpt lat="43.57042" lon="3.73822">
        <ele>105.1</ele>
        <time>2013-07-26T07:56:30.000Z</time>
      </trkpt>
      <trkpt lat="43.57037" lon="3.73818">
        <ele>101.1</ele>
        <time>2013-07-26T07:56:31.000Z</time>
      </trkpt>
      <trkpt lat="43.57032" lon="3.73813">
        <ele>100</ele>
        <time>2013-07-26T07:56:32.000Z</time>
      </trkpt>
      <trkpt lat="43.57028" lon="3.73808">
        <ele>100.6</ele>
        <time>2013-07-26T07:56:33.000Z</time>
      </trkpt>
      <trkpt lat="43.57024" lon="3.73801">
        <ele>100.5</ele>
        <time>2013-07-26T07:56:34.000Z</time>
      </trkpt>
      <trkpt lat="43.57019" lon="3.73795">
        <ele>102.3</ele>
        <time>2013-07-26T07:56:35.000Z</time>
      </trkpt>
      <trkpt lat="43.57016" lon="3.73791">
        <ele>103.6</ele>
        <time>2013-07-26T07:56:36.000Z</time>
      </trkpt>
      <trkpt lat="43.57012" lon="3.73784">
        <ele>103.5</ele>
        <time>2013-07-26T07:56:37.000Z</time>
      </trkpt>
      <trkpt lat="43.57007" lon="3.73777">
        <ele>104.4</ele>
        <time>2013-07-26T07:56:38.000Z</time>
      </trkpt>
      <trkpt lat="43.57003" lon="3.73771">
        <ele>102.2</ele>
        <time>2013-07-26T07:56:39.000Z</time>
      </trkpt>
      <trkpt lat="43.56999" lon="3.73763">
        <ele>103.6</ele>
        <time>2013-07-26T07:56:40.000Z</time>
      </trkpt>
      <trkpt lat="43.56994" lon="3.73756">
        <ele>104.3</ele>
        <time>2013-07-26T07:56:41.000Z</time>
      </trkpt>
      <trkpt lat="43.56989" lon="3.73748">
        <ele>105.9</ele>
        <time>2013-07-26T07:56:42.000Z</time>
      </trkpt>
      <trkpt lat="43.56984" lon="3.73741">
        <ele>106.3</ele>
        <time>2013-07-26T07:56:43.000Z</time>
      </trkpt>
      <trkpt lat="43.56981" lon="3.73733">
        <ele>107.9</ele>
        <time>2013-07-26T07:56:44.000Z</time>
      </trkpt>
      <trkpt lat="43.56976" lon="3.73726">
        <ele>108.6</ele>
        <time>2013-07-26T07:56:45.000Z</time>
      </trkpt>
      <trkpt lat="43.56971" lon="3.73719">
        <ele>108.4</ele>
        <time>2013-07-26T07:56:46.000Z</time>
      </trkpt>
      <trkpt lat="43.56968" lon="3.73713">
        <ele>109</ele>
        <time>2013-07-26T07:56:47.000Z</time>
      </trkpt>
      <trkpt lat="43.56963" lon="3.73705">
        <ele>108.6</ele>
        <time>2013-07-26T07:56:48.000Z</time>
      </trkpt>
      <trkpt lat="43.5696" lon="3.73698">
        <ele>109.9</ele>
        <time>2013-07-26T07:56:49.000Z</time>
      </trkpt>
      <trkpt lat="43.56955" lon="3.7369">
        <ele>108.2</ele>
        <time>2013-07-26T07:56:50.000Z</time>
      </trkpt>
      <trkpt lat="43.56951" lon="3.73684">
        <ele>103.9</ele>
        <time>2013-07-26T07:56:51.000Z</time>
      </trkpt>
      <trkpt lat="43.56946" lon="3.73678">
        <ele>103.5</ele>
        <time>2013-07-26T07:56:52.000Z</time>
      </trkpt>
      <trkpt lat="43.56945" lon="3.73671">
        <ele>107.8</ele>
        <time>2013-07-26T07:56:53.000Z</time>
      </trkpt>
      <trkpt lat="43.5694" lon="3.73665">
        <ele>107.8</ele>
        <time>2013-07-26T07:56:54.000Z</time>
      </trkpt>
      <trkpt lat="43.56936" lon="3.73658">
        <ele>106.9</ele>
        <time>2013-07-26T07:56:55.000Z</time>
      </trkpt>
      <trkpt lat="43.56931" lon="3.73653">
        <ele>106.9</ele>
        <time>2013-07-26T07:56:56.000Z</time>
      </trkpt>
      <trkpt lat="43.56927" lon="3.73646">
        <ele>107.6</ele>
        <time>2013-07-26T07:56:57.000Z</time>
      </trkpt>
      <trkpt lat="43.56923" lon="3.73639">
        <ele>108</ele>
        <time>2013-07-26T07:56:58.030Z</time>
      </trkpt>
      <trkpt lat="43.56919" lon="3.73632">
        <ele>107.9</ele>
        <time>2013-07-26T07:56:59.000Z</time>
      </trkpt>
      <trkpt lat="43.56914" lon="3.73625">
        <ele>107</ele>
        <time>2013-07-26T07:57:00.000Z</time>
      </trkpt>
      <trkpt lat="43.56909" lon="3.73619">
        <ele>106.3</ele>
        <time>2013-07-26T07:57:01.000Z</time>
      </trkpt>
      <trkpt lat="43.56905" lon="3.73611">
        <ele>106.1</ele>
        <time>2013-07-26T07:57:02.000Z</time>
      </trkpt>
      <trkpt lat="43.569" lon="3.73605">
        <ele>107.3</ele>
        <time>2013-07-26T07:57:03.000Z</time>
      </trkpt>
      <trkpt lat="43.56896" lon="3.73598">
        <ele>108.6</ele>
        <time>2013-07-26T07:57:04.000Z</time>
      </trkpt>
      <trkpt lat="43.56891" lon="3.73591">
        <ele>111</ele>
        <time>2013-07-26T07:57:05.000Z</time>
      </trkpt>
      <trkpt lat="43.56887" lon="3.73584">
        <ele>113.7</ele>
        <time>2013-07-26T07:57:06.000Z</time>
      </trkpt>
      <trkpt lat="43.56883" lon="3.73577">
        <ele>113.3</ele>
        <time>2013-07-26T07:57:07.000Z</time>
      </trkpt>
      <trkpt lat="43.56879" lon="3.73571">
        <ele>112.1</ele>
        <time>2013-07-26T07:57:08.000Z</time>
      </trkpt>
      <trkpt lat="43.56875" lon="3.73566">
        <ele>112.3</ele>
        <time>2013-07-26T07:57:09.000Z</time>
      </trkpt>
      <trkpt lat="43.5687" lon="3.7356">
        <ele>111.9</ele>
        <time>2013-07-26T07:57:10.000Z</time>
      </trkpt>
      <trkpt lat="43.56866" lon="3.73554">
        <ele>111.1</ele>
        <time>2013-07-26T07:57:11.000Z</time>
      </trkpt>
      <trkpt lat="43.56861" lon="3.73547">
        <ele>111.8</ele>
        <time>2013-07-26T07:57:12.000Z</time>
      </trkpt>
      <trkpt lat="43.56855" lon="3.73541">
        <ele>111.5</ele>
        <time>2013-07-26T07:57:13.000Z</time>
      </trkpt>
      <trkpt lat="43.5685" lon="3.73534">
        <ele>111.6</ele>
        <time>2013-07-26T07:57:14.000Z</time>
      </trkpt>
      <trkpt lat="43.56846" lon="3.73528">
        <ele>111.2</ele>
        <time>2013-07-26T07:57:15.000Z</time>
      </trkpt>
      <trkpt lat="43.56842" lon="3.73521">
        <ele>110.8</ele>
        <time>2013-07-26T07:57:16.000Z</time>
      </trkpt>
      <trkpt lat="43.56838" lon="3.73515">
        <ele>112.2</ele>
        <time>2013-07-26T07:57:17.000Z</time>
      </trkpt>
      <trkpt lat="43.56834" lon="3.73508">
        <ele>113.8</ele>
        <time>2013-07-26T07:57:18.000Z</time>
      </trkpt>
      <trkpt lat="43.56829" lon="3.73502">
        <ele>113.9</ele>
        <time>2013-07-26T07:57:19.000Z</time>
      </trkpt>
      <trkpt lat="43.56825" lon="3.73497">
        <ele>113.8</ele>
        <time>2013-07-26T07:57:20.000Z</time>
      </trkpt>
      <trkpt lat="43.56821" lon="3.73491">
        <ele>112.6</ele>
        <time>2013-07-26T07:57:21.000Z</time>
      </trkpt>
      <trkpt lat="43.56816" lon="3.73485">
        <ele>112.3</ele>
        <time>2013-07-26T07:57:22.000Z</time>
      </trkpt>
      <trkpt lat="43.56812" lon="3.73477">
        <ele>113.4</ele>
        <time>2013-07-26T07:57:23.000Z</time>
      </trkpt>
      <trkpt lat="43.56808" lon="3.73471">
        <ele>112.9</ele>
        <time>2013-07-26T07:57:24.000Z</time>
      </trkpt>
      <trkpt lat="43.56804" lon="3.73465">
        <ele>112.3</ele>
        <time>2013-07-26T07:57:25.000Z</time>
      </trkpt>
      <trkpt lat="43.56799" lon="3.73459">
        <ele>112.2</ele>
        <time>2013-07-26T07:57:26.000Z</time>
      </trkpt>
      <trkpt lat="43.56795" lon="3.73452">
        <ele>110.8</ele>
        <time>2013-07-26T07:57:27.000Z</time>
      </trkpt>
      <trkpt lat="43.56792" lon="3.73447">
        <ele>110</ele>
        <time>2013-07-26T07:57:28.000Z</time>
      </trkpt>
      <trkpt lat="43.56787" lon="3.73442">
        <ele>109.3</ele>
        <time>2013-07-26T07:57:29.000Z</time>
      </trkpt>
      <trkpt lat="43.56783" lon="3.73435">
        <ele>109</ele>
        <time>2013-07-26T07:57:30.000Z</time>
      </trkpt>
      <trkpt lat="43.5678" lon="3.73429">
        <ele>109.7</ele>
        <time>2013-07-26T07:57:31.000Z</time>
      </trkpt>
      <trkpt lat="43.56775" lon="3.73425">
        <ele>109.4</ele>
        <time>2013-07-26T07:57:32.000Z</time>
      </trkpt>
      <trkpt lat="43.56771" lon="3.73418">
        <ele>110.6</ele>
        <time>2013-07-26T07:57:33.000Z</time>
      </trkpt>
      <trkpt lat="43.56768" lon="3.73412">
        <ele>111.2</ele>
        <time>2013-07-26T07:57:34.000Z</time>
      </trkpt>
      <trkpt lat="43.56765" lon="3.73407">
        <ele>109.3</ele>
        <time>2013-07-26T07:57:35.000Z</time>
      </trkpt>
      <trkpt lat="43.56761" lon="3.73402">
        <ele>107.8</ele>
        <time>2013-07-26T07:57:36.000Z</time>
      </trkpt>
      <trkpt lat="43.56757" lon="3.73397">
        <ele>106.4</ele>
        <time>2013-07-26T07:57:37.000Z</time>
      </trkpt>
      <trkpt lat="43.56753" lon="3.73393">
        <ele>106.7</ele>
        <time>2013-07-26T07:57:38.000Z</time>
      </trkpt>
      <trkpt lat="43.56749" lon="3.73388">
        <ele>106.2</ele>
        <time>2013-07-26T07:57:39.000Z</time>
      </trkpt>
      <trkpt lat="43.56746" lon="3.73384">
        <ele>105.7</ele>
        <time>2013-07-26T07:57:40.000Z</time>
      </trkpt>
      <trkpt lat="43.56743" lon="3.73379">
        <ele>106.6</ele>
        <time>2013-07-26T07:57:41.000Z</time>
      </trkpt>
      <trkpt lat="43.56739" lon="3.73374">
        <ele>107.3</ele>
        <time>2013-07-26T07:57:42.000Z</time>
      </trkpt>
      <trkpt lat="43.56735" lon="3.73369">
        <ele>108.6</ele>
        <time>2013-07-26T07:57:43.000Z</time>
      </trkpt>
      <trkpt lat="43.56731" lon="3.73364">
        <ele>108.6</ele>
        <time>2013-07-26T07:57:44.000Z</time>
      </trkpt>
      <trkpt lat="43.56727" lon="3.73359">
        <ele>107.6</ele>
        <time>2013-07-26T07:57:45.000Z</time>
      </trkpt>
      <trkpt lat="43.56724" lon="3.73353">
        <ele>109.4</ele>
        <time>2013-07-26T07:57:46.000Z</time>
      </trkpt>
      <trkpt lat="43.5672" lon="3.73348">
        <ele>109.5</ele>
        <time>2013-07-26T07:57:47.000Z</time>
      </trkpt>
      <trkpt lat="43.56716" lon="3.73343">
        <ele>109.2</ele>
        <time>2013-07-26T07:57:48.000Z</time>
      </trkpt>
      <trkpt lat="43.56712" lon="3.7334">
        <ele>110.6</ele>
        <time>2013-07-26T07:57:49.000Z</time>
      </trkpt>
      <trkpt lat="43.56708" lon="3.73335">
        <ele>112.2</ele>
        <time>2013-07-26T07:57:50.000Z</time>
      </trkpt>
      <trkpt lat="43.56705" lon="3.73329">
        <ele>112.6</ele>
        <time>2013-07-26T07:57:51.000Z</time>
      </trkpt>
      <trkpt lat="43.567" lon="3.73323">
        <ele>113.1</ele>
        <time>2013-07-26T07:57:52.000Z</time>
      </trkpt>
      <trkpt lat="43.56695" lon="3.73318">
        <ele>113.3</ele>
        <time>2013-07-26T07:57:53.000Z</time>
      </trkpt>
      <trkpt lat="43.56691" lon="3.73312">
        <ele>113.2</ele>
        <time>2013-07-26T07:57:54.000Z</time>
      </trkpt>
      <trkpt lat="43.56686" lon="3.73306">
        <ele>114.4</ele>
        <time>2013-07-26T07:57:55.000Z</time>
      </trkpt>
      <trkpt lat="43.56682" lon="3.73302">
        <ele>116</ele>
        <time>2013-07-26T07:57:56.000Z</time>
      </trkpt>
      <trkpt lat="43.56678" lon="3.73295">
        <ele>116.8</ele>
        <time>2013-07-26T07:57:57.000Z</time>
      </trkpt>
      <trkpt lat="43.56674" lon="3.7329">
        <ele>116.9</ele>
        <time>2013-07-26T07:57:57.986Z</time>
      </trkpt>
      <trkpt lat="43.5667" lon="3.73283">
        <ele>115.3</ele>
        <time>2013-07-26T07:57:59.000Z</time>
      </trkpt>
      <trkpt lat="43.56663" lon="3.73277">
        <ele>114.9</ele>
        <time>2013-07-26T07:58:00.000Z</time>
      </trkpt>
      <trkpt lat="43.56657" lon="3.73269">
        <ele>114.7</ele>
        <time>2013-07-26T07:58:01.000Z</time>
      </trkpt>
      <trkpt lat="43.56651" lon="3.73262">
        <ele>116.4</ele>
        <time>2013-07-26T07:58:02.000Z</time>
      </trkpt>
      <trkpt lat="43.56644" lon="3.73257">
        <ele>116.7</ele>
        <time>2013-07-26T07:58:03.000Z</time>
      </trkpt>
      <trkpt lat="43.56639" lon="3.73251">
        <ele>116.8</ele>
        <time>2013-07-26T07:58:04.000Z</time>
      </trkpt>
      <trkpt lat="43.56634" lon="3.73245">
        <ele>116</ele>
        <time>2013-07-26T07:58:05.000Z</time>
      </trkpt>
      <trkpt lat="43.56628" lon="3.7324">
        <ele>116.4</ele>
        <time>2013-07-26T07:58:06.000Z</time>
      </trkpt>
      <trkpt lat="43.56623" lon="3.73234">
        <ele>115</ele>
        <time>2013-07-26T07:58:07.000Z</time>
      </trkpt>
      <trkpt lat="43.56618" lon="3.73229">
        <ele>115.2</ele>
        <time>2013-07-26T07:58:08.000Z</time>
      </trkpt>
      <trkpt lat="43.56613" lon="3.73221">
        <ele>114.9</ele>
        <time>2013-07-26T07:58:09.000Z</time>
      </trkpt>
      <trkpt lat="43.56606" lon="3.73214">
        <ele>116.2</ele>
        <time>2013-07-26T07:58:10.000Z</time>
      </trkpt>
      <trkpt lat="43.56602" lon="3.73208">
        <ele>118.2</ele>
        <time>2013-07-26T07:58:11.000Z</time>
      </trkpt>
      <trkpt lat="43.56598" lon="3.73201">
        <ele>117.4</ele>
        <time>2013-07-26T07:58:12.000Z</time>
      </trkpt>
      <trkpt lat="43.56593" lon="3.73194">
        <ele>117</ele>
        <time>2013-07-26T07:58:13.000Z</time>
      </trkpt>
      <trkpt lat="43.56587" lon="3.73188">
        <ele>114.7</ele>
        <time>2013-07-26T07:58:14.000Z</time>
      </trkpt>
      <trkpt lat="43.56583" lon="3.7318">
        <ele>115</ele>
        <time>2013-07-26T07:58:15.000Z</time>
      </trkpt>
      <trkpt lat="43.56577" lon="3.73174">
        <ele>115.6</ele>
        <time>2013-07-26T07:58:16.000Z</time>
      </trkpt>
      <trkpt lat="43.56572" lon="3.73165">
        <ele>116.2</ele>
        <time>2013-07-26T07:58:17.000Z</time>
      </trkpt>
      <trkpt lat="43.56567" lon="3.73159">
        <ele>116</ele>
        <time>2013-07-26T07:58:18.000Z</time>
      </trkpt>
      <trkpt lat="43.56562" lon="3.73153">
        <ele>116</ele>
        <time>2013-07-26T07:58:19.000Z</time>
      </trkpt>
      <trkpt lat="43.56557" lon="3.73147">
        <ele>115.8</ele>
        <time>2013-07-26T07:58:20.000Z</time>
      </trkpt>
      <trkpt lat="43.56552" lon="3.73141">
        <ele>114.8</ele>
        <time>2013-07-26T07:58:21.000Z</time>
      </trkpt>
      <trkpt lat="43.56547" lon="3.73135">
        <ele>114.9</ele>
        <time>2013-07-26T07:58:22.000Z</time>
      </trkpt>
      <trkpt lat="43.56543" lon="3.73129">
        <ele>115.9</ele>
        <time>2013-07-26T07:58:23.000Z</time>
      </trkpt>
      <trkpt lat="43.56539" lon="3.73123">
        <ele>117.1</ele>
        <time>2013-07-26T07:58:24.000Z</time>
      </trkpt>
      <trkpt lat="43.56534" lon="3.73117">
        <ele>117.1</ele>
        <time>2013-07-26T07:58:25.000Z</time>
      </trkpt>
      <trkpt lat="43.5653" lon="3.73112">
        <ele>117.1</ele>
        <time>2013-07-26T07:58:26.000Z</time>
      </trkpt>
      <trkpt lat="43.56525" lon="3.73107">
        <ele>116.6</ele>
        <time>2013-07-26T07:58:27.000Z</time>
      </trkpt>
      <trkpt lat="43.5652" lon="3.73103">
        <ele>116.5</ele>
        <time>2013-07-26T07:58:28.000Z</time>
      </trkpt>
      <trkpt lat="43.56517" lon="3.73096">
        <ele>116.9</ele>
        <time>2013-07-26T07:58:29.000Z</time>
      </trkpt>
      <trkpt lat="43.56514" lon="3.7309">
        <ele>117.4</ele>
        <time>2013-07-26T07:58:30.000Z</time>
      </trkpt>
      <trkpt lat="43.56508" lon="3.73085">
        <ele>116.6</ele>
        <time>2013-07-26T07:58:31.000Z</time>
      </trkpt>
      <trkpt lat="43.56503" lon="3.73079">
        <ele>116.6</ele>
        <time>2013-07-26T07:58:32.000Z</time>
      </trkpt>
      <trkpt lat="43.56499" lon="3.73074">
        <ele>115.8</ele>
        <time>2013-07-26T07:58:33.000Z</time>
      </trkpt>
      <trkpt lat="43.56495" lon="3.73069">
        <ele>115.6</ele>
        <time>2013-07-26T07:58:34.000Z</time>
      </trkpt>
      <trkpt lat="43.56491" lon="3.73064">
        <ele>114.7</ele>
        <time>2013-07-26T07:58:35.000Z</time>
      </trkpt>
      <trkpt lat="43.56485" lon="3.73059">
        <ele>112.8</ele>
        <time>2013-07-26T07:58:36.000Z</time>
      </trkpt>
      <trkpt lat="43.56481" lon="3.73054">
        <ele>111.8</ele>
        <time>2013-07-26T07:58:37.000Z</time>
      </trkpt>
      <trkpt lat="43.56477" lon="3.73048">
        <ele>112.3</ele>
        <time>2013-07-26T07:58:38.000Z</time>
      </trkpt>
      <trkpt lat="43.56472" lon="3.73044">
        <ele>113.2</ele>
        <time>2013-07-26T07:58:39.000Z</time>
      </trkpt>
      <trkpt lat="43.56468" lon="3.7304">
        <ele>111.7</ele>
        <time>2013-07-26T07:58:40.000Z</time>
      </trkpt>
      <trkpt lat="43.56464" lon="3.73034">
        <ele>112.5</ele>
        <time>2013-07-26T07:58:41.000Z</time>
      </trkpt>
      <trkpt lat="43.5646" lon="3.7303">
        <ele>112.1</ele>
        <time>2013-07-26T07:58:42.000Z</time>
      </trkpt>
      <trkpt lat="43.56457" lon="3.73026">
        <ele>111.7</ele>
        <time>2013-07-26T07:58:43.000Z</time>
      </trkpt>
      <trkpt lat="43.56453" lon="3.73021">
        <ele>111.9</ele>
        <time>2013-07-26T07:58:44.000Z</time>
      </trkpt>
      <trkpt lat="43.56449" lon="3.73018">
        <ele>112</ele>
        <time>2013-07-26T07:58:45.000Z</time>
      </trkpt>
      <trkpt lat="43.56445" lon="3.73014">
        <ele>110.6</ele>
        <time>2013-07-26T07:58:46.000Z</time>
      </trkpt>
      <trkpt lat="43.56441" lon="3.7301">
        <ele>110.1</ele>
        <time>2013-07-26T07:58:47.000Z</time>
      </trkpt>
      <trkpt lat="43.56436" lon="3.73007">
        <ele>109.8</ele>
        <time>2013-07-26T07:58:48.000Z</time>
      </trkpt>
      <trkpt lat="43.56433" lon="3.73004">
        <ele>109.6</ele>
        <time>2013-07-26T07:58:49.000Z</time>
      </trkpt>
      <trkpt lat="43.56427" lon="3.73001">
        <ele>109.7</ele>
        <time>2013-07-26T07:58:50.000Z</time>
      </trkpt>
      <trkpt lat="43.56421" lon="3.72997">
        <ele>108.9</ele>
        <time>2013-07-26T07:58:51.000Z</time>
      </trkpt>
      <trkpt lat="43.56416" lon="3.72993">
        <ele>108.3</ele>
        <time>2013-07-26T07:58:52.000Z</time>
      </trkpt>
      <trkpt lat="43.56411" lon="3.7299">
        <ele>107.2</ele>
        <time>2013-07-26T07:58:53.000Z</time>
      </trkpt>
      <trkpt lat="43.56405" lon="3.72986">
        <ele>108.2</ele>
        <time>2013-07-26T07:58:54.000Z</time>
      </trkpt>
      <trkpt lat="43.56401" lon="3.72982">
        <ele>108.4</ele>
        <time>2013-07-26T07:58:55.000Z</time>
      </trkpt>
      <trkpt lat="43.56395" lon="3.72979">
        <ele>108</ele>
        <time>2013-07-26T07:58:56.000Z</time>
      </trkpt>
      <trkpt lat="43.5639" lon="3.72975">
        <ele>108.9</ele>
        <time>2013-07-26T07:58:57.000Z</time>
      </trkpt>
      <trkpt lat="43.56384" lon="3.72971">
        <ele>108.8</ele>
        <time>2013-07-26T07:58:58.016Z</time>
      </trkpt>
      <trkpt lat="43.56379" lon="3.72969">
        <ele>108.1</ele>
        <time>2013-07-26T07:58:59.000Z</time>
      </trkpt>
      <trkpt lat="43.56373" lon="3.72968">
        <ele>107.7</ele>
        <time>2013-07-26T07:59:00.000Z</time>
      </trkpt>
      <trkpt lat="43.56365" lon="3.72968">
        <ele>106</ele>
        <time>2013-07-26T07:59:01.000Z</time>
      </trkpt>
      <trkpt lat="43.56359" lon="3.72967">
        <ele>107</ele>
        <time>2013-07-26T07:59:02.000Z</time>
      </trkpt>
      <trkpt lat="43.56353" lon="3.72964">
        <ele>107.7</ele>
        <time>2013-07-26T07:59:03.000Z</time>
      </trkpt>
      <trkpt lat="43.56346" lon="3.7296">
        <ele>107.1</ele>
        <time>2013-07-26T07:59:04.000Z</time>
      </trkpt>
      <trkpt lat="43.56339" lon="3.72956">
        <ele>107.1</ele>
        <time>2013-07-26T07:59:05.000Z</time>
      </trkpt>
      <trkpt lat="43.56333" lon="3.72953">
        <ele>107.8</ele>
        <time>2013-07-26T07:59:06.000Z</time>
      </trkpt>
      <trkpt lat="43.56326" lon="3.72949">
        <ele>108.1</ele>
        <time>2013-07-26T07:59:07.000Z</time>
      </trkpt>
      <trkpt lat="43.56319" lon="3.72946">
        <ele>108.4</ele>
        <time>2013-07-26T07:59:08.000Z</time>
      </trkpt>
      <trkpt lat="43.56312" lon="3.72941">
        <ele>108.1</ele>
        <time>2013-07-26T07:59:09.000Z</time>
      </trkpt>
      <trkpt lat="43.56304" lon="3.72937">
        <ele>106.8</ele>
        <time>2013-07-26T07:59:10.000Z</time>
      </trkpt>
      <trkpt lat="43.56297" lon="3.72932">
        <ele>106.4</ele>
        <time>2013-07-26T07:59:11.000Z</time>
      </trkpt>
      <trkpt lat="43.5629" lon="3.72929">
        <ele>106.5</ele>
        <time>2013-07-26T07:59:12.000Z</time>
      </trkpt>
      <trkpt lat="43.56283" lon="3.72924">
        <ele>106.6</ele>
        <time>2013-07-26T07:59:13.000Z</time>
      </trkpt>
      <trkpt lat="43.56277" lon="3.7292">
        <ele>103.7</ele>
        <time>2013-07-26T07:59:14.000Z</time>
      </trkpt>
      <trkpt lat="43.56269" lon="3.72916">
        <ele>100.6</ele>
        <time>2013-07-26T07:59:15.000Z</time>
      </trkpt>
      <trkpt lat="43.56263" lon="3.72911">
        <ele>105.2</ele>
        <time>2013-07-26T07:59:16.000Z</time>
      </trkpt>
      <trkpt lat="43.56257" lon="3.72907">
        <ele>105.3</ele>
        <time>2013-07-26T07:59:17.000Z</time>
      </trkpt>
      <trkpt lat="43.56249" lon="3.72905">
        <ele>105</ele>
        <time>2013-07-26T07:59:18.000Z</time>
      </trkpt>
      <trkpt lat="43.56241" lon="3.72903">
        <ele>104.7</ele>
        <time>2013-07-26T07:59:19.000Z</time>
      </trkpt>
      <trkpt lat="43.56233" lon="3.72901">
        <ele>103.3</ele>
        <time>2013-07-26T07:59:20.000Z</time>
      </trkpt>
      <trkpt lat="43.56226" lon="3.72902">
        <ele>103.8</ele>
        <time>2013-07-26T07:59:21.000Z</time>
      </trkpt>
      <trkpt lat="43.56218" lon="3.72902">
        <ele>102.5</ele>
        <time>2013-07-26T07:59:22.000Z</time>
      </trkpt>
      <trkpt lat="43.56209" lon="3.72902">
        <ele>101.6</ele>
        <time>2013-07-26T07:59:23.000Z</time>
      </trkpt>
      <trkpt lat="43.56201" lon="3.72903">
        <ele>100.8</ele>
        <time>2013-07-26T07:59:24.000Z</time>
      </trkpt>
      <trkpt lat="43.56193" lon="3.72904">
        <ele>100.4</ele>
        <time>2013-07-26T07:59:25.000Z</time>
      </trkpt>
      <trkpt lat="43.56186" lon="3.72906">
        <ele>99.9</ele>
        <time>2013-07-26T07:59:26.000Z</time>
      </trkpt>
      <trkpt lat="43.5618" lon="3.72907">
        <ele>101.6</ele>
        <time>2013-07-26T07:59:27.000Z</time>
      </trkpt>
      <trkpt lat="43.56173" lon="3.72908">
        <ele>101.8</ele>
        <time>2013-07-26T07:59:28.000Z</time>
      </trkpt>
      <trkpt lat="43.56166" lon="3.72907">
        <ele>101.8</ele>
        <time>2013-07-26T07:59:29.000Z</time>
      </trkpt>
      <trkpt lat="43.56164" lon="3.72908">
        <ele>101.5</ele>
        <time>2013-07-26T07:59:30.000Z</time>
      </trkpt>
      <trkpt lat="43.56156" lon="3.72905">
        <ele>100.3</ele>
        <time>2013-07-26T07:59:31.000Z</time>
      </trkpt>
      <trkpt lat="43.56149" lon="3.72903">
        <ele>98.7</ele>
        <time>2013-07-26T07:59:32.000Z</time>
      </trkpt>
      <trkpt lat="43.56142" lon="3.72901">
        <ele>97.2</ele>
        <time>2013-07-26T07:59:33.000Z</time>
      </trkpt>
      <trkpt lat="43.56134" lon="3.72899">
        <ele>95.4</ele>
        <time>2013-07-26T07:59:34.000Z</time>
      </trkpt>
      <trkpt lat="43.56126" lon="3.72895">
        <ele>95.6</ele>
        <time>2013-07-26T07:59:35.000Z</time>
      </trkpt>
      <trkpt lat="43.5612" lon="3.72892">
        <ele>94.1</ele>
        <time>2013-07-26T07:59:36.000Z</time>
      </trkpt>
      <trkpt lat="43.56113" lon="3.72888">
        <ele>93.6</ele>
        <time>2013-07-26T07:59:37.000Z</time>
      </trkpt>
      <trkpt lat="43.56107" lon="3.72884">
        <ele>93.4</ele>
        <time>2013-07-26T07:59:38.000Z</time>
      </trkpt>
      <trkpt lat="43.56101" lon="3.72879">
        <ele>93.4</ele>
        <time>2013-07-26T07:59:39.000Z</time>
      </trkpt>
      <trkpt lat="43.56098" lon="3.72875">
        <ele>91.9</ele>
        <time>2013-07-26T07:59:40.000Z</time>
      </trkpt>
      <trkpt lat="43.56095" lon="3.7287">
        <ele>90.8</ele>
        <time>2013-07-26T07:59:41.000Z</time>
      </trkpt>
      <trkpt lat="43.5609" lon="3.72863">
        <ele>90.6</ele>
        <time>2013-07-26T07:59:42.000Z</time>
      </trkpt>
      <trkpt lat="43.56085" lon="3.72859">
        <ele>91</ele>
        <time>2013-07-26T07:59:43.000Z</time>
      </trkpt>
      <trkpt lat="43.56078" lon="3.72854">
        <ele>89.9</ele>
        <time>2013-07-26T07:59:44.000Z</time>
      </trkpt>
      <trkpt lat="43.56074" lon="3.7285">
        <ele>91</ele>
        <time>2013-07-26T07:59:45.000Z</time>
      </trkpt>
      <trkpt lat="43.5607" lon="3.72847">
        <ele>91.6</ele>
        <time>2013-07-26T07:59:46.000Z</time>
      </trkpt>
      <trkpt lat="43.56067" lon="3.72842">
        <ele>91.8</ele>
        <time>2013-07-26T07:59:47.000Z</time>
      </trkpt>
      <trkpt lat="43.56064" lon="3.72839">
        <ele>93.2</ele>
        <time>2013-07-26T07:59:48.000Z</time>
      </trkpt>
      <trkpt lat="43.56059" lon="3.72835">
        <ele>95.6</ele>
        <time>2013-07-26T07:59:49.000Z</time>
      </trkpt>
      <trkpt lat="43.56054" lon="3.72831">
        <ele>96.9</ele>
        <time>2013-07-26T07:59:50.000Z</time>
      </trkpt>
      <trkpt lat="43.56048" lon="3.72829">
        <ele>97.2</ele>
        <time>2013-07-26T07:59:51.000Z</time>
      </trkpt>
      <trkpt lat="43.56042" lon="3.72828">
        <ele>97</ele>
        <time>2013-07-26T07:59:52.000Z</time>
      </trkpt>
      <trkpt lat="43.56037" lon="3.72832">
        <ele>96.5</ele>
        <time>2013-07-26T07:59:53.000Z</time>
      </trkpt>
      <trkpt lat="43.56033" lon="3.72837">
        <ele>96.4</ele>
        <time>2013-07-26T07:59:54.000Z</time>
      </trkpt>
      <trkpt lat="43.5603" lon="3.72842">
        <ele>96.4</ele>
        <time>2013-07-26T07:59:55.000Z</time>
      </trkpt>
      <trkpt lat="43.56026" lon="3.72845">
        <ele>94.7</ele>
        <time>2013-07-26T07:59:56.000Z</time>
      </trkpt>
      <trkpt lat="43.56023" lon="3.72849">
        <ele>94.6</ele>
        <time>2013-07-26T07:59:57.000Z</time>
      </trkpt>
      <trkpt lat="43.56019" lon="3.72844">
        <ele>95.2</ele>
        <time>2013-07-26T07:59:58.003Z</time>
      </trkpt>
      <trkpt lat="43.56015" lon="3.72844">
        <ele>95.5</ele>
        <time>2013-07-26T07:59:59.000Z</time>
      </trkpt>
      <trkpt lat="43.56011" lon="3.72846">
        <ele>96.9</ele>
        <time>2013-07-26T08:00:00.000Z</time>
      </trkpt>
      <trkpt lat="43.56006" lon="3.72847">
        <ele>97.7</ele>
        <time>2013-07-26T08:00:01.000Z</time>
      </trkpt>
      <trkpt lat="43.56003" lon="3.72847">
        <ele>98.2</ele>
        <time>2013-07-26T08:00:02.000Z</time>
      </trkpt>
      <trkpt lat="43.55999" lon="3.72849">
        <ele>98.1</ele>
        <time>2013-07-26T08:00:03.000Z</time>
      </trkpt>
      <trkpt lat="43.55994" lon="3.7285">
        <ele>98.5</ele>
        <time>2013-07-26T08:00:04.000Z</time>
      </trkpt>
      <trkpt lat="43.5599" lon="3.72851">
        <ele>99.6</ele>
        <time>2013-07-26T08:00:05.000Z</time>
      </trkpt>
      <trkpt lat="43.55986" lon="3.7285">
        <ele>98</ele>
        <time>2013-07-26T08:00:06.000Z</time>
      </trkpt>
      <trkpt lat="43.55981" lon="3.72851">
        <ele>97.8</ele>
        <time>2013-07-26T08:00:07.000Z</time>
      </trkpt>
      <trkpt lat="43.55977" lon="3.72852">
        <ele>98.1</ele>
        <time>2013-07-26T08:00:08.000Z</time>
      </trkpt>
      <trkpt lat="43.55973" lon="3.72853">
        <ele>98.3</ele>
        <time>2013-07-26T08:00:09.000Z</time>
      </trkpt>
      <trkpt lat="43.55967" lon="3.72853">
        <ele>98.4</ele>
        <time>2013-07-26T08:00:10.000Z</time>
      </trkpt>
      <trkpt lat="43.55963" lon="3.72854">
        <ele>98.1</ele>
        <time>2013-07-26T08:00:11.000Z</time>
      </trkpt>
      <trkpt lat="43.55959" lon="3.72854">
        <ele>100</ele>
        <time>2013-07-26T08:00:12.000Z</time>
      </trkpt>
      <trkpt lat="43.55954" lon="3.72854">
        <ele>99.2</ele>
        <time>2013-07-26T08:00:13.000Z</time>
      </trkpt>
      <trkpt lat="43.5595" lon="3.72856">
        <ele>99.6</ele>
        <time>2013-07-26T08:00:14.000Z</time>
      </trkpt>
      <trkpt lat="43.55945" lon="3.72856">
        <ele>99.8</ele>
        <time>2013-07-26T08:00:15.000Z</time>
      </trkpt>
      <trkpt lat="43.5594" lon="3.72857">
        <ele>99.1</ele>
        <time>2013-07-26T08:00:16.000Z</time>
      </trkpt>
      <trkpt lat="43.55935" lon="3.72857">
        <ele>99</ele>
        <time>2013-07-26T08:00:17.000Z</time>
      </trkpt>
      <trkpt lat="43.5593" lon="3.72856">
        <ele>99</ele>
        <time>2013-07-26T08:00:18.000Z</time>
      </trkpt>
      <trkpt lat="43.55925" lon="3.72858">
        <ele>99</ele>
        <time>2013-07-26T08:00:19.000Z</time>
      </trkpt>
      <trkpt lat="43.55921" lon="3.72858">
        <ele>99.4</ele>
        <time>2013-07-26T08:00:20.000Z</time>
      </trkpt>
      <trkpt lat="43.55917" lon="3.72859">
        <ele>100.1</ele>
        <time>2013-07-26T08:00:21.000Z</time>
      </trkpt>
      <trkpt lat="43.55912" lon="3.72858">
        <ele>99.8</ele>
        <time>2013-07-26T08:00:22.000Z</time>
      </trkpt>
      <trkpt lat="43.55908" lon="3.72859">
        <ele>99.3</ele>
        <time>2013-07-26T08:00:23.000Z</time>
      </trkpt>
      <trkpt lat="43.55903" lon="3.72858">
        <ele>98.5</ele>
        <time>2013-07-26T08:00:24.000Z</time>
      </trkpt>
      <trkpt lat="43.55897" lon="3.72856">
        <ele>97.1</ele>
        <time>2013-07-26T08:00:25.000Z</time>
      </trkpt>
      <trkpt lat="43.55893" lon="3.72856">
        <ele>96.6</ele>
        <time>2013-07-26T08:00:26.000Z</time>
      </trkpt>
      <trkpt lat="43.55888" lon="3.72857">
        <ele>96.2</ele>
        <time>2013-07-26T08:00:27.000Z</time>
      </trkpt>
      <trkpt lat="43.55883" lon="3.72856">
        <ele>98.8</ele>
        <time>2013-07-26T08:00:28.000Z</time>
      </trkpt>
      <trkpt lat="43.55879" lon="3.72856">
        <ele>100.8</ele>
        <time>2013-07-26T08:00:29.000Z</time>
      </trkpt>
      <trkpt lat="43.55875" lon="3.72857">
        <ele>99</ele>
        <time>2013-07-26T08:00:30.000Z</time>
      </trkpt>
      <trkpt lat="43.55869" lon="3.72858">
        <ele>98.2</ele>
        <time>2013-07-26T08:00:31.000Z</time>
      </trkpt>
      <trkpt lat="43.55864" lon="3.72859">
        <ele>99.2</ele>
        <time>2013-07-26T08:00:32.000Z</time>
      </trkpt>
      <trkpt lat="43.55861" lon="3.72859">
        <ele>99</ele>
        <time>2013-07-26T08:00:33.000Z</time>
      </trkpt>
      <trkpt lat="43.55858" lon="3.7286">
        <ele>98.9</ele>
        <time>2013-07-26T08:00:34.000Z</time>
      </trkpt>
      <trkpt lat="43.55853" lon="3.72861">
        <ele>97.9</ele>
        <time>2013-07-26T08:00:35.000Z</time>
      </trkpt>
      <trkpt lat="43.55848" lon="3.72861">
        <ele>98</ele>
        <time>2013-07-26T08:00:36.000Z</time>
      </trkpt>
      <trkpt lat="43.55843" lon="3.72862">
        <ele>95.6</ele>
        <time>2013-07-26T08:00:37.000Z</time>
      </trkpt>
      <trkpt lat="43.55837" lon="3.72863">
        <ele>93.2</ele>
        <time>2013-07-26T08:00:38.000Z</time>
      </trkpt>
      <trkpt lat="43.55832" lon="3.72864">
        <ele>99.4</ele>
        <time>2013-07-26T08:00:39.000Z</time>
      </trkpt>
      <trkpt lat="43.55828" lon="3.72865">
        <ele>101.9</ele>
        <time>2013-07-26T08:00:40.000Z</time>
      </trkpt>
      <trkpt lat="43.55822" lon="3.72864">
        <ele>99.5</ele>
        <time>2013-07-26T08:00:41.000Z</time>
      </trkpt>
      <trkpt lat="43.55816" lon="3.72863">
        <ele>99.7</ele>
        <time>2013-07-26T08:00:42.000Z</time>
      </trkpt>
      <trkpt lat="43.55812" lon="3.72861">
        <ele>96.2</ele>
        <time>2013-07-26T08:00:43.000Z</time>
      </trkpt>
      <trkpt lat="43.55806" lon="3.72861">
        <ele>98.9</ele>
        <time>2013-07-26T08:00:44.000Z</time>
      </trkpt>
      <trkpt lat="43.55802" lon="3.72861">
        <ele>99.8</ele>
        <time>2013-07-26T08:00:45.000Z</time>
      </trkpt>
      <trkpt lat="43.55798" lon="3.72862">
        <ele>100.2</ele>
        <time>2013-07-26T08:00:46.000Z</time>
      </trkpt>
      <trkpt lat="43.55792" lon="3.72862">
        <ele>101.9</ele>
        <time>2013-07-26T08:00:47.000Z</time>
      </trkpt>
      <trkpt lat="43.55788" lon="3.72862">
        <ele>102.8</ele>
        <time>2013-07-26T08:00:48.000Z</time>
      </trkpt>
      <trkpt lat="43.55782" lon="3.7286">
        <ele>99</ele>
        <time>2013-07-26T08:00:49.000Z</time>
      </trkpt>
      <trkpt lat="43.55778" lon="3.7286">
        <ele>99.7</ele>
        <time>2013-07-26T08:00:50.000Z</time>
      </trkpt>
      <trkpt lat="43.55774" lon="3.7286">
        <ele>98.9</ele>
        <time>2013-07-26T08:00:51.000Z</time>
      </trkpt>
      <trkpt lat="43.55769" lon="3.72859">
        <ele>98.7</ele>
        <time>2013-07-26T08:00:52.000Z</time>
      </trkpt>
      <trkpt lat="43.55765" lon="3.72858">
        <ele>99.6</ele>
        <time>2013-07-26T08:00:53.000Z</time>
      </trkpt>
      <trkpt lat="43.5576" lon="3.72856">
        <ele>99.1</ele>
        <time>2013-07-26T08:00:54.000Z</time>
      </trkpt>
      <trkpt lat="43.55756" lon="3.72853">
        <ele>99.1</ele>
        <time>2013-07-26T08:00:55.000Z</time>
      </trkpt>
      <trkpt lat="43.5575" lon="3.72852">
        <ele>96.9</ele>
        <time>2013-07-26T08:00:56.000Z</time>
      </trkpt>
      <trkpt lat="43.55746" lon="3.72851">
        <ele>96</ele>
        <time>2013-07-26T08:00:57.000Z</time>
      </trkpt>
      <trkpt lat="43.55741" lon="3.72851">
        <ele>95.7</ele>
        <time>2013-07-26T08:00:57.945Z</time>
      </trkpt>
      <trkpt lat="43.55736" lon="3.72853">
        <ele>96.6</ele>
        <time>2013-07-26T08:00:59.000Z</time>
      </trkpt>
      <trkpt lat="43.55732" lon="3.72853">
        <ele>97.1</ele>
        <time>2013-07-26T08:01:00.000Z</time>
      </trkpt>
      <trkpt lat="43.55726" lon="3.72854">
        <ele>96.1</ele>
        <time>2013-07-26T08:01:01.000Z</time>
      </trkpt>
      <trkpt lat="43.55722" lon="3.72854">
        <ele>96.8</ele>
        <time>2013-07-26T08:01:02.000Z</time>
      </trkpt>
      <trkpt lat="43.55717" lon="3.72854">
        <ele>97.3</ele>
        <time>2013-07-26T08:01:03.000Z</time>
      </trkpt>
      <trkpt lat="43.55712" lon="3.72853">
        <ele>97.7</ele>
        <time>2013-07-26T08:01:04.000Z</time>
      </trkpt>
      <trkpt lat="43.55707" lon="3.7285">
        <ele>95.7</ele>
        <time>2013-07-26T08:01:05.000Z</time>
      </trkpt>
      <trkpt lat="43.55702" lon="3.72848">
        <ele>95.9</ele>
        <time>2013-07-26T08:01:06.000Z</time>
      </trkpt>
      <trkpt lat="43.55698" lon="3.72844">
        <ele>96.5</ele>
        <time>2013-07-26T08:01:07.000Z</time>
      </trkpt>
      <trkpt lat="43.55694" lon="3.72843">
        <ele>97.6</ele>
        <time>2013-07-26T08:01:08.000Z</time>
      </trkpt>
      <trkpt lat="43.55689" lon="3.72843">
        <ele>97.6</ele>
        <time>2013-07-26T08:01:09.000Z</time>
      </trkpt>
      <trkpt lat="43.55683" lon="3.72842">
        <ele>99.4</ele>
        <time>2013-07-26T08:01:10.000Z</time>
      </trkpt>
      <trkpt lat="43.55678" lon="3.72841">
        <ele>100.4</ele>
        <time>2013-07-26T08:01:11.000Z</time>
      </trkpt>
      <trkpt lat="43.55673" lon="3.72839">
        <ele>101</ele>
        <time>2013-07-26T08:01:12.000Z</time>
      </trkpt>
      <trkpt lat="43.55668" lon="3.72838">
        <ele>101.4</ele>
        <time>2013-07-26T08:01:13.000Z</time>
      </trkpt>
      <trkpt lat="43.55662" lon="3.72836">
        <ele>102.1</ele>
        <time>2013-07-26T08:01:14.000Z</time>
      </trkpt>
      <trkpt lat="43.55658" lon="3.72834">
        <ele>103.5</ele>
        <time>2013-07-26T08:01:15.000Z</time>
      </trkpt>
      <trkpt lat="43.55652" lon="3.72832">
        <ele>100.3</ele>
        <time>2013-07-26T08:01:16.000Z</time>
      </trkpt>
      <trkpt lat="43.55647" lon="3.72831">
        <ele>100.9</ele>
        <time>2013-07-26T08:01:17.000Z</time>
      </trkpt>
      <trkpt lat="43.55641" lon="3.72827">
        <ele>96.7</ele>
        <time>2013-07-26T08:01:18.000Z</time>
      </trkpt>
      <trkpt lat="43.55636" lon="3.72825">
        <ele>95.9</ele>
        <time>2013-07-26T08:01:19.000Z</time>
      </trkpt>
      <trkpt lat="43.55631" lon="3.72824">
        <ele>96.4</ele>
        <time>2013-07-26T08:01:20.000Z</time>
      </trkpt>
      <trkpt lat="43.55624" lon="3.72823">
        <ele>95.5</ele>
        <time>2013-07-26T08:01:21.000Z</time>
      </trkpt>
      <trkpt lat="43.55619" lon="3.72821">
        <ele>95.6</ele>
        <time>2013-07-26T08:01:22.000Z</time>
      </trkpt>
      <trkpt lat="43.55614" lon="3.72818">
        <ele>95.6</ele>
        <time>2013-07-26T08:01:23.000Z</time>
      </trkpt>
      <trkpt lat="43.55609" lon="3.72816">
        <ele>95.4</ele>
        <time>2013-07-26T08:01:24.000Z</time>
      </trkpt>
      <trkpt lat="43.55605" lon="3.72815">
        <ele>95.4</ele>
        <time>2013-07-26T08:01:25.000Z</time>
      </trkpt>
      <trkpt lat="43.556" lon="3.72811">
        <ele>94.9</ele>
        <time>2013-07-26T08:01:26.000Z</time>
      </trkpt>
      <trkpt lat="43.55595" lon="3.72809">
        <ele>94.8</ele>
        <time>2013-07-26T08:01:27.000Z</time>
      </trkpt>
      <trkpt lat="43.5559" lon="3.72807">
        <ele>93.6</ele>
        <time>2013-07-26T08:01:28.000Z</time>
      </trkpt>
      <trkpt lat="43.55586" lon="3.72806">
        <ele>93.7</ele>
        <time>2013-07-26T08:01:29.000Z</time>
      </trkpt>
      <trkpt lat="43.55581" lon="3.72804">
        <ele>91.7</ele>
        <time>2013-07-26T08:01:30.000Z</time>
      </trkpt>
      <trkpt lat="43.55577" lon="3.72801">
        <ele>93.8</ele>
        <time>2013-07-26T08:01:31.000Z</time>
      </trkpt>
      <trkpt lat="43.55571" lon="3.72799">
        <ele>93.2</ele>
        <time>2013-07-26T08:01:32.000Z</time>
      </trkpt>
      <trkpt lat="43.55567" lon="3.72797">
        <ele>93.5</ele>
        <time>2013-07-26T08:01:33.000Z</time>
      </trkpt>
      <trkpt lat="43.55561" lon="3.72794">
        <ele>92.6</ele>
        <time>2013-07-26T08:01:34.000Z</time>
      </trkpt>
      <trkpt lat="43.55557" lon="3.72792">
        <ele>92.7</ele>
        <time>2013-07-26T08:01:35.000Z</time>
      </trkpt>
      <trkpt lat="43.55553" lon="3.72791">
        <ele>93.2</ele>
        <time>2013-07-26T08:01:36.000Z</time>
      </trkpt>
      <trkpt lat="43.55549" lon="3.72787">
        <ele>94.6</ele>
        <time>2013-07-26T08:01:37.000Z</time>
      </trkpt>
      <trkpt lat="43.55544" lon="3.72784">
        <ele>94.4</ele>
        <time>2013-07-26T08:01:38.000Z</time>
      </trkpt>
      <trkpt lat="43.55539" lon="3.72781">
        <ele>95.8</ele>
        <time>2013-07-26T08:01:39.000Z</time>
      </trkpt>
      <trkpt lat="43.55536" lon="3.72779">
        <ele>95.8</ele>
        <time>2013-07-26T08:01:40.000Z</time>
      </trkpt>
      <trkpt lat="43.55533" lon="3.72776">
        <ele>96.2</ele>
        <time>2013-07-26T08:01:41.000Z</time>
      </trkpt>
      <trkpt lat="43.55527" lon="3.72774">
        <ele>96.8</ele>
        <time>2013-07-26T08:01:42.000Z</time>
      </trkpt>
      <trkpt lat="43.55521" lon="3.72771">
        <ele>96.8</ele>
        <time>2013-07-26T08:01:43.000Z</time>
      </trkpt>
      <trkpt lat="43.55517" lon="3.72768">
        <ele>97.5</ele>
        <time>2013-07-26T08:01:44.000Z</time>
      </trkpt>
      <trkpt lat="43.55511" lon="3.72764">
        <ele>96.5</ele>
        <time>2013-07-26T08:01:45.000Z</time>
      </trkpt>
      <trkpt lat="43.55505" lon="3.72761">
        <ele>95.8</ele>
        <time>2013-07-26T08:01:46.000Z</time>
      </trkpt>
      <trkpt lat="43.555" lon="3.72757">
        <ele>93</ele>
        <time>2013-07-26T08:01:47.000Z</time>
      </trkpt>
      <trkpt lat="43.55495" lon="3.72752">
        <ele>90.5</ele>
        <time>2013-07-26T08:01:48.000Z</time>
      </trkpt>
      <trkpt lat="43.5549" lon="3.7275">
        <ele>91.6</ele>
        <time>2013-07-26T08:01:49.000Z</time>
      </trkpt>
      <trkpt lat="43.55485" lon="3.72748">
        <ele>91.7</ele>
        <time>2013-07-26T08:01:50.000Z</time>
      </trkpt>
      <trkpt lat="43.55481" lon="3.72745">
        <ele>91.6</ele>
        <time>2013-07-26T08:01:51.000Z</time>
      </trkpt>
      <trkpt lat="43.55477" lon="3.72744">
        <ele>91.7</ele>
        <time>2013-07-26T08:01:52.000Z</time>
      </trkpt>
      <trkpt lat="43.55471" lon="3.7274">
        <ele>90.8</ele>
        <time>2013-07-26T08:01:53.000Z</time>
      </trkpt>
      <trkpt lat="43.55467" lon="3.72739">
        <ele>92.3</ele>
        <time>2013-07-26T08:01:54.000Z</time>
      </trkpt>
      <trkpt lat="43.55463" lon="3.72736">
        <ele>93</ele>
        <time>2013-07-26T08:01:55.000Z</time>
      </trkpt>
      <trkpt lat="43.55458" lon="3.72733">
        <ele>94</ele>
        <time>2013-07-26T08:01:56.000Z</time>
      </trkpt>
      <trkpt lat="43.55454" lon="3.7273">
        <ele>92.9</ele>
        <time>2013-07-26T08:01:57.000Z</time>
      </trkpt>
      <trkpt lat="43.55449" lon="3.72727">
        <ele>92.2</ele>
        <time>2013-07-26T08:01:58.000Z</time>
      </trkpt>
      <trkpt lat="43.55443" lon="3.72724">
        <ele>93</ele>
        <time>2013-07-26T08:01:59.000Z</time>
      </trkpt>
      <trkpt lat="43.55439" lon="3.7272">
        <ele>93.2</ele>
        <time>2013-07-26T08:02:00.000Z</time>
      </trkpt>
      <trkpt lat="43.55434" lon="3.72717">
        <ele>92.7</ele>
        <time>2013-07-26T08:02:01.000Z</time>
      </trkpt>
      <trkpt lat="43.5543" lon="3.72713">
        <ele>91.6</ele>
        <time>2013-07-26T08:02:02.000Z</time>
      </trkpt>
      <trkpt lat="43.55425" lon="3.7271">
        <ele>91.6</ele>
        <time>2013-07-26T08:02:03.000Z</time>
      </trkpt>
      <trkpt lat="43.55421" lon="3.72707">
        <ele>92.1</ele>
        <time>2013-07-26T08:02:04.000Z</time>
      </trkpt>
      <trkpt lat="43.55416" lon="3.72702">
        <ele>91.7</ele>
        <time>2013-07-26T08:02:05.000Z</time>
      </trkpt>
      <trkpt lat="43.55412" lon="3.72699">
        <ele>91.7</ele>
        <time>2013-07-26T08:02:06.000Z</time>
      </trkpt>
      <trkpt lat="43.55407" lon="3.72696">
        <ele>92.3</ele>
        <time>2013-07-26T08:02:07.000Z</time>
      </trkpt>
      <trkpt lat="43.55403" lon="3.72692">
        <ele>92.5</ele>
        <time>2013-07-26T08:02:08.000Z</time>
      </trkpt>
      <trkpt lat="43.55398" lon="3.7269">
        <ele>92.6</ele>
        <time>2013-07-26T08:02:09.000Z</time>
      </trkpt>
      <trkpt lat="43.55393" lon="3.72686">
        <ele>94.1</ele>
        <time>2013-07-26T08:02:10.000Z</time>
      </trkpt>
      <trkpt lat="43.55388" lon="3.72683">
        <ele>95.3</ele>
        <time>2013-07-26T08:02:11.000Z</time>
      </trkpt>
      <trkpt lat="43.55384" lon="3.72679">
        <ele>96</ele>
        <time>2013-07-26T08:02:12.000Z</time>
      </trkpt>
      <trkpt lat="43.55379" lon="3.72673">
        <ele>97.4</ele>
        <time>2013-07-26T08:02:13.000Z</time>
      </trkpt>
      <trkpt lat="43.55375" lon="3.72667">
        <ele>96.7</ele>
        <time>2013-07-26T08:02:14.000Z</time>
      </trkpt>
      <trkpt lat="43.5537" lon="3.72663">
        <ele>96.9</ele>
        <time>2013-07-26T08:02:15.000Z</time>
      </trkpt>
      <trkpt lat="43.55366" lon="3.72658">
        <ele>97.5</ele>
        <time>2013-07-26T08:02:16.000Z</time>
      </trkpt>
      <trkpt lat="43.55363" lon="3.72654">
        <ele>97.2</ele>
        <time>2013-07-26T08:02:17.000Z</time>
      </trkpt>
      <trkpt lat="43.55359" lon="3.72651">
        <ele>97.5</ele>
        <time>2013-07-26T08:02:18.000Z</time>
      </trkpt>
      <trkpt lat="43.55356" lon="3.72644">
        <ele>96</ele>
        <time>2013-07-26T08:02:19.000Z</time>
      </trkpt>
      <trkpt lat="43.55352" lon="3.72641">
        <ele>95.8</ele>
        <time>2013-07-26T08:02:20.000Z</time>
      </trkpt>
      <trkpt lat="43.55348" lon="3.72637">
        <ele>94.4</ele>
        <time>2013-07-26T08:02:21.000Z</time>
      </trkpt>
      <trkpt lat="43.55344" lon="3.72633">
        <ele>94.5</ele>
        <time>2013-07-26T08:02:22.000Z</time>
      </trkpt>
      <trkpt lat="43.55339" lon="3.72628">
        <ele>95</ele>
        <time>2013-07-26T08:02:23.000Z</time>
      </trkpt>
      <trkpt lat="43.55335" lon="3.72624">
        <ele>93.3</ele>
        <time>2013-07-26T08:02:24.000Z</time>
      </trkpt>
      <trkpt lat="43.55331" lon="3.7262">
        <ele>92</ele>
        <time>2013-07-26T08:02:25.000Z</time>
      </trkpt>
      <trkpt lat="43.55327" lon="3.72615">
        <ele>91.9</ele>
        <time>2013-07-26T08:02:26.000Z</time>
      </trkpt>
      <trkpt lat="43.55325" lon="3.72609">
        <ele>92.1</ele>
        <time>2013-07-26T08:02:27.000Z</time>
      </trkpt>
      <trkpt lat="43.55323" lon="3.72604">
        <ele>91.5</ele>
        <time>2013-07-26T08:02:28.000Z</time>
      </trkpt>
      <trkpt lat="43.55321" lon="3.72598">
        <ele>92.2</ele>
        <time>2013-07-26T08:02:29.000Z</time>
      </trkpt>
      <trkpt lat="43.55319" lon="3.72593">
        <ele>93.3</ele>
        <time>2013-07-26T08:02:30.000Z</time>
      </trkpt>
      <trkpt lat="43.55316" lon="3.72591">
        <ele>96.5</ele>
        <time>2013-07-26T08:02:31.000Z</time>
      </trkpt>
      <trkpt lat="43.55313" lon="3.72586">
        <ele>97.5</ele>
        <time>2013-07-26T08:02:32.000Z</time>
      </trkpt>
      <trkpt lat="43.5531" lon="3.72583">
        <ele>97.7</ele>
        <time>2013-07-26T08:02:33.000Z</time>
      </trkpt>
      <trkpt lat="43.55307" lon="3.72581">
        <ele>98</ele>
        <time>2013-07-26T08:02:34.000Z</time>
      </trkpt>
      <trkpt lat="43.553" lon="3.72577">
        <ele>95.4</ele>
        <time>2013-07-26T08:02:35.000Z</time>
      </trkpt>
      <trkpt lat="43.55294" lon="3.72574">
        <ele>95.5</ele>
        <time>2013-07-26T08:02:36.000Z</time>
      </trkpt>
      <trkpt lat="43.55292" lon="3.72566">
        <ele>97.5</ele>
        <time>2013-07-26T08:02:37.000Z</time>
      </trkpt>
      <trkpt lat="43.55287" lon="3.72559">
        <ele>98.3</ele>
        <time>2013-07-26T08:02:38.000Z</time>
      </trkpt>
      <trkpt lat="43.55283" lon="3.72552">
        <ele>95.3</ele>
        <time>2013-07-26T08:02:39.000Z</time>
      </trkpt>
      <trkpt lat="43.55278" lon="3.72546">
        <ele>93.4</ele>
        <time>2013-07-26T08:02:40.000Z</time>
      </trkpt>
      <trkpt lat="43.55274" lon="3.72539">
        <ele>91.2</ele>
        <time>2013-07-26T08:02:41.000Z</time>
      </trkpt>
      <trkpt lat="43.55269" lon="3.72533">
        <ele>91</ele>
        <time>2013-07-26T08:02:42.000Z</time>
      </trkpt>
      <trkpt lat="43.55266" lon="3.72526">
        <ele>93.3</ele>
        <time>2013-07-26T08:02:43.000Z</time>
      </trkpt>
      <trkpt lat="43.55262" lon="3.7252">
        <ele>93.6</ele>
        <time>2013-07-26T08:02:44.000Z</time>
      </trkpt>
      <trkpt lat="43.55258" lon="3.72514">
        <ele>93.3</ele>
        <time>2013-07-26T08:02:45.000Z</time>
      </trkpt>
      <trkpt lat="43.55254" lon="3.72509">
        <ele>91.9</ele>
        <time>2013-07-26T08:02:46.000Z</time>
      </trkpt>
      <trkpt lat="43.55251" lon="3.72501">
        <ele>92.4</ele>
        <time>2013-07-26T08:02:47.000Z</time>
      </trkpt>
      <trkpt lat="43.55248" lon="3.72495">
        <ele>93</ele>
        <time>2013-07-26T08:02:48.000Z</time>
      </trkpt>
      <trkpt lat="43.55246" lon="3.72489">
        <ele>91.5</ele>
        <time>2013-07-26T08:02:49.000Z</time>
      </trkpt>
      <trkpt lat="43.55243" lon="3.72483">
        <ele>89.9</ele>
        <time>2013-07-26T08:02:50.000Z</time>
      </trkpt>
      <trkpt lat="43.5524" lon="3.72476">
        <ele>89.4</ele>
        <time>2013-07-26T08:02:51.000Z</time>
      </trkpt>
      <trkpt lat="43.55237" lon="3.7247">
        <ele>88.1</ele>
        <time>2013-07-26T08:02:52.000Z</time>
      </trkpt>
      <trkpt lat="43.55235" lon="3.72464">
        <ele>86.8</ele>
        <time>2013-07-26T08:02:53.000Z</time>
      </trkpt>
      <trkpt lat="43.55232" lon="3.72457">
        <ele>88.2</ele>
        <time>2013-07-26T08:02:54.000Z</time>
      </trkpt>
      <trkpt lat="43.55229" lon="3.7245">
        <ele>88.5</ele>
        <time>2013-07-26T08:02:55.000Z</time>
      </trkpt>
      <trkpt lat="43.55226" lon="3.72444">
        <ele>87.5</ele>
        <time>2013-07-26T08:02:56.000Z</time>
      </trkpt>
      <trkpt lat="43.55223" lon="3.72437">
        <ele>88.6</ele>
        <time>2013-07-26T08:02:57.000Z</time>
      </trkpt>
      <trkpt lat="43.55219" lon="3.72431">
        <ele>89.1</ele>
        <time>2013-07-26T08:02:58.000Z</time>
      </trkpt>
      <trkpt lat="43.55217" lon="3.72424">
        <ele>87</ele>
        <time>2013-07-26T08:02:59.000Z</time>
      </trkpt>
      <trkpt lat="43.55214" lon="3.72417">
        <ele>85.7</ele>
        <time>2013-07-26T08:03:00.000Z</time>
      </trkpt>
      <trkpt lat="43.55211" lon="3.72411">
        <ele>84.4</ele>
        <time>2013-07-26T08:03:01.000Z</time>
      </trkpt>
      <trkpt lat="43.55207" lon="3.72404">
        <ele>86.2</ele>
        <time>2013-07-26T08:03:02.000Z</time>
      </trkpt>
      <trkpt lat="43.55204" lon="3.72398">
        <ele>86.6</ele>
        <time>2013-07-26T08:03:03.000Z</time>
      </trkpt>
      <trkpt lat="43.55201" lon="3.72391">
        <ele>87.4</ele>
        <time>2013-07-26T08:03:04.000Z</time>
      </trkpt>
      <trkpt lat="43.55197" lon="3.72384">
        <ele>85.7</ele>
        <time>2013-07-26T08:03:05.000Z</time>
      </trkpt>
      <trkpt lat="43.55194" lon="3.72378">
        <ele>83.5</ele>
        <time>2013-07-26T08:03:06.000Z</time>
      </trkpt>
      <trkpt lat="43.55191" lon="3.7237">
        <ele>85.4</ele>
        <time>2013-07-26T08:03:07.000Z</time>
      </trkpt>
      <trkpt lat="43.55189" lon="3.72365">
        <ele>85.9</ele>
        <time>2013-07-26T08:03:08.000Z</time>
      </trkpt>
      <trkpt lat="43.55186" lon="3.72358">
        <ele>87.3</ele>
        <time>2013-07-26T08:03:09.000Z</time>
      </trkpt>
      <trkpt lat="43.55184" lon="3.72352">
        <ele>87.7</ele>
        <time>2013-07-26T08:03:10.000Z</time>
      </trkpt>
      <trkpt lat="43.55181" lon="3.72345">
        <ele>87.1</ele>
        <time>2013-07-26T08:03:11.000Z</time>
      </trkpt>
      <trkpt lat="43.55178" lon="3.72339">
        <ele>87.2</ele>
        <time>2013-07-26T08:03:12.000Z</time>
      </trkpt>
      <trkpt lat="43.55176" lon="3.72331">
        <ele>86.7</ele>
        <time>2013-07-26T08:03:13.000Z</time>
      </trkpt>
      <trkpt lat="43.55176" lon="3.72323">
        <ele>87</ele>
        <time>2013-07-26T08:03:14.000Z</time>
      </trkpt>
      <trkpt lat="43.55176" lon="3.72315">
        <ele>87.8</ele>
        <time>2013-07-26T08:03:15.000Z</time>
      </trkpt>
      <trkpt lat="43.55176" lon="3.72307">
        <ele>87.7</ele>
        <time>2013-07-26T08:03:16.000Z</time>
      </trkpt>
      <trkpt lat="43.55175" lon="3.723">
        <ele>90.1</ele>
        <time>2013-07-26T08:03:17.000Z</time>
      </trkpt>
      <trkpt lat="43.55173" lon="3.72292">
        <ele>90.8</ele>
        <time>2013-07-26T08:03:18.000Z</time>
      </trkpt>
      <trkpt lat="43.5517" lon="3.72285">
        <ele>92.4</ele>
        <time>2013-07-26T08:03:19.000Z</time>
      </trkpt>
      <trkpt lat="43.55168" lon="3.72279">
        <ele>92</ele>
        <time>2013-07-26T08:03:20.000Z</time>
      </trkpt>
      <trkpt lat="43.55164" lon="3.72273">
        <ele>93.1</ele>
        <time>2013-07-26T08:03:21.000Z</time>
      </trkpt>
      <trkpt lat="43.55161" lon="3.72267">
        <ele>93.9</ele>
        <time>2013-07-26T08:03:22.000Z</time>
      </trkpt>
      <trkpt lat="43.55158" lon="3.7226">
        <ele>93.8</ele>
        <time>2013-07-26T08:03:23.000Z</time>
      </trkpt>
      <trkpt lat="43.55155" lon="3.72253">
        <ele>94.8</ele>
        <time>2013-07-26T08:03:24.000Z</time>
      </trkpt>
      <trkpt lat="43.55152" lon="3.72247">
        <ele>95.5</ele>
        <time>2013-07-26T08:03:25.000Z</time>
      </trkpt>
      <trkpt lat="43.55148" lon="3.72239">
        <ele>95.5</ele>
        <time>2013-07-26T08:03:26.000Z</time>
      </trkpt>
      <trkpt lat="43.55146" lon="3.72231">
        <ele>96.1</ele>
        <time>2013-07-26T08:03:27.000Z</time>
      </trkpt>
      <trkpt lat="43.55144" lon="3.72224">
        <ele>96</ele>
        <time>2013-07-26T08:03:28.000Z</time>
      </trkpt>
      <trkpt lat="43.55143" lon="3.72215">
        <ele>96.6</ele>
        <time>2013-07-26T08:03:29.000Z</time>
      </trkpt>
      <trkpt lat="43.55141" lon="3.72207">
        <ele>97.7</ele>
        <time>2013-07-26T08:03:30.000Z</time>
      </trkpt>
      <trkpt lat="43.5514" lon="3.72202">
        <ele>99</ele>
        <time>2013-07-26T08:03:31.000Z</time>
      </trkpt>
      <trkpt lat="43.55138" lon="3.72195">
        <ele>99.3</ele>
        <time>2013-07-26T08:03:32.000Z</time>
      </trkpt>
      <trkpt lat="43.55136" lon="3.72187">
        <ele>99.7</ele>
        <time>2013-07-26T08:03:33.000Z</time>
      </trkpt>
      <trkpt lat="43.55135" lon="3.72179">
        <ele>99.9</ele>
        <time>2013-07-26T08:03:34.000Z</time>
      </trkpt>
      <trkpt lat="43.55134" lon="3.72171">
        <ele>99.4</ele>
        <time>2013-07-26T08:03:35.000Z</time>
      </trkpt>
      <trkpt lat="43.55132" lon="3.72163">
        <ele>99.7</ele>
        <time>2013-07-26T08:03:36.000Z</time>
      </trkpt>
      <trkpt lat="43.55129" lon="3.72156">
        <ele>99.8</ele>
        <time>2013-07-26T08:03:37.000Z</time>
      </trkpt>
      <trkpt lat="43.55128" lon="3.72148">
        <ele>100.4</ele>
        <time>2013-07-26T08:03:38.000Z</time>
      </trkpt>
      <trkpt lat="43.55127" lon="3.7214">
        <ele>100.4</ele>
        <time>2013-07-26T08:03:39.000Z</time>
      </trkpt>
      <trkpt lat="43.55126" lon="3.72133">
        <ele>100.7</ele>
        <time>2013-07-26T08:03:40.000Z</time>
      </trkpt>
      <trkpt lat="43.55124" lon="3.72125">
        <ele>101.8</ele>
        <time>2013-07-26T08:03:41.000Z</time>
      </trkpt>
      <trkpt lat="43.55123" lon="3.72117">
        <ele>102.1</ele>
        <time>2013-07-26T08:03:42.000Z</time>
      </trkpt>
      <trkpt lat="43.55121" lon="3.7211">
        <ele>100.7</ele>
        <time>2013-07-26T08:03:43.000Z</time>
      </trkpt>
      <trkpt lat="43.5512" lon="3.72104">
        <ele>98.9</ele>
        <time>2013-07-26T08:03:44.000Z</time>
      </trkpt>
      <trkpt lat="43.55119" lon="3.72096">
        <ele>97.8</ele>
        <time>2013-07-26T08:03:45.000Z</time>
      </trkpt>
      <trkpt lat="43.55118" lon="3.72089">
        <ele>98.5</ele>
        <time>2013-07-26T08:03:46.000Z</time>
      </trkpt>
      <trkpt lat="43.55117" lon="3.72082">
        <ele>98.2</ele>
        <time>2013-07-26T08:03:47.000Z</time>
      </trkpt>
      <trkpt lat="43.55114" lon="3.72074">
        <ele>98.3</ele>
        <time>2013-07-26T08:03:48.000Z</time>
      </trkpt>
      <trkpt lat="43.55113" lon="3.72067">
        <ele>99.6</ele>
        <time>2013-07-26T08:03:49.000Z</time>
      </trkpt>
      <trkpt lat="43.55112" lon="3.7206">
        <ele>99.8</ele>
        <time>2013-07-26T08:03:50.000Z</time>
      </trkpt>
      <trkpt lat="43.55111" lon="3.7205">
        <ele>99.5</ele>
        <time>2013-07-26T08:03:51.000Z</time>
      </trkpt>
      <trkpt lat="43.55109" lon="3.72044">
        <ele>98.6</ele>
        <time>2013-07-26T08:03:52.000Z</time>
      </trkpt>
      <trkpt lat="43.55109" lon="3.72038">
        <ele>97.6</ele>
        <time>2013-07-26T08:03:53.000Z</time>
      </trkpt>
      <trkpt lat="43.55107" lon="3.72031">
        <ele>99</ele>
        <time>2013-07-26T08:03:54.000Z</time>
      </trkpt>
      <trkpt lat="43.55105" lon="3.72023">
        <ele>99.7</ele>
        <time>2013-07-26T08:03:55.000Z</time>
      </trkpt>
      <trkpt lat="43.55104" lon="3.72017">
        <ele>99.1</ele>
        <time>2013-07-26T08:03:56.000Z</time>
      </trkpt>
      <trkpt lat="43.55103" lon="3.72009">
        <ele>99.2</ele>
        <time>2013-07-26T08:03:57.000Z</time>
      </trkpt>
      <trkpt lat="43.55101" lon="3.72001">
        <ele>99.1</ele>
        <time>2013-07-26T08:03:58.048Z</time>
      </trkpt>
      <trkpt lat="43.551" lon="3.71996">
        <ele>100.3</ele>
        <time>2013-07-26T08:03:59.000Z</time>
      </trkpt>
      <trkpt lat="43.55097" lon="3.71988">
        <ele>101.1</ele>
        <time>2013-07-26T08:04:00.000Z</time>
      </trkpt>
      <trkpt lat="43.55096" lon="3.7198">
        <ele>99.6</ele>
        <time>2013-07-26T08:04:01.000Z</time>
      </trkpt>
      <trkpt lat="43.55095" lon="3.71973">
        <ele>98.5</ele>
        <time>2013-07-26T08:04:02.000Z</time>
      </trkpt>
      <trkpt lat="43.55094" lon="3.71963">
        <ele>98.9</ele>
        <time>2013-07-26T08:04:03.000Z</time>
      </trkpt>
      <trkpt lat="43.55093" lon="3.71956">
        <ele>98</ele>
        <time>2013-07-26T08:04:04.000Z</time>
      </trkpt>
      <trkpt lat="43.55092" lon="3.7195">
        <ele>95.2</ele>
        <time>2013-07-26T08:04:05.000Z</time>
      </trkpt>
      <trkpt lat="43.55091" lon="3.71942">
        <ele>96.5</ele>
        <time>2013-07-26T08:04:06.000Z</time>
      </trkpt>
      <trkpt lat="43.55089" lon="3.71933">
        <ele>96</ele>
        <time>2013-07-26T08:04:07.000Z</time>
      </trkpt>
      <trkpt lat="43.55086" lon="3.71926">
        <ele>95.9</ele>
        <time>2013-07-26T08:04:08.000Z</time>
      </trkpt>
      <trkpt lat="43.55084" lon="3.71918">
        <ele>97</ele>
        <time>2013-07-26T08:04:09.000Z</time>
      </trkpt>
      <trkpt lat="43.55082" lon="3.71909">
        <ele>97</ele>
        <time>2013-07-26T08:04:10.000Z</time>
      </trkpt>
      <trkpt lat="43.55081" lon="3.71902">
        <ele>98.8</ele>
        <time>2013-07-26T08:04:11.000Z</time>
      </trkpt>
      <trkpt lat="43.55078" lon="3.71895">
        <ele>100.8</ele>
        <time>2013-07-26T08:04:12.000Z</time>
      </trkpt>
      <trkpt lat="43.55077" lon="3.71887">
        <ele>100.6</ele>
        <time>2013-07-26T08:04:13.000Z</time>
      </trkpt>
      <trkpt lat="43.55075" lon="3.71879">
        <ele>100.1</ele>
        <time>2013-07-26T08:04:14.000Z</time>
      </trkpt>
      <trkpt lat="43.55073" lon="3.71871">
        <ele>100.4</ele>
        <time>2013-07-26T08:04:15.000Z</time>
      </trkpt>
      <trkpt lat="43.55072" lon="3.71864">
        <ele>97.9</ele>
        <time>2013-07-26T08:04:16.000Z</time>
      </trkpt>
      <trkpt lat="43.5507" lon="3.71857">
        <ele>97.3</ele>
        <time>2013-07-26T08:04:17.000Z</time>
      </trkpt>
      <trkpt lat="43.55069" lon="3.71849">
        <ele>95.7</ele>
        <time>2013-07-26T08:04:18.000Z</time>
      </trkpt>
      <trkpt lat="43.55068" lon="3.71842">
        <ele>94.4</ele>
        <time>2013-07-26T08:04:19.000Z</time>
      </trkpt>
      <trkpt lat="43.55066" lon="3.71836">
        <ele>93.4</ele>
        <time>2013-07-26T08:04:20.000Z</time>
      </trkpt>
      <trkpt lat="43.55064" lon="3.71829">
        <ele>94.3</ele>
        <time>2013-07-26T08:04:21.000Z</time>
      </trkpt>
      <trkpt lat="43.55061" lon="3.71823">
        <ele>95.8</ele>
        <time>2013-07-26T08:04:22.000Z</time>
      </trkpt>
      <trkpt lat="43.55061" lon="3.71815">
        <ele>95.8</ele>
        <time>2013-07-26T08:04:23.000Z</time>
      </trkpt>
      <trkpt lat="43.5506" lon="3.71808">
        <ele>94.6</ele>
        <time>2013-07-26T08:04:24.000Z</time>
      </trkpt>
      <trkpt lat="43.55062" lon="3.71802">
        <ele>94.6</ele>
        <time>2013-07-26T08:04:25.000Z</time>
      </trkpt>
      <trkpt lat="43.55061" lon="3.71795">
        <ele>92.7</ele>
        <time>2013-07-26T08:04:26.000Z</time>
      </trkpt>
      <trkpt lat="43.55059" lon="3.71788">
        <ele>90.1</ele>
        <time>2013-07-26T08:04:27.000Z</time>
      </trkpt>
      <trkpt lat="43.55058" lon="3.71781">
        <ele>92</ele>
        <time>2013-07-26T08:04:28.000Z</time>
      </trkpt>
      <trkpt lat="43.55057" lon="3.71774">
        <ele>92</ele>
        <time>2013-07-26T08:04:29.000Z</time>
      </trkpt>
      <trkpt lat="43.55055" lon="3.71765">
        <ele>92.4</ele>
        <time>2013-07-26T08:04:30.000Z</time>
      </trkpt>
      <trkpt lat="43.55054" lon="3.71759">
        <ele>92.2</ele>
        <time>2013-07-26T08:04:31.000Z</time>
      </trkpt>
      <trkpt lat="43.55053" lon="3.71752">
        <ele>92.9</ele>
        <time>2013-07-26T08:04:32.000Z</time>
      </trkpt>
      <trkpt lat="43.55051" lon="3.71743">
        <ele>93.9</ele>
        <time>2013-07-26T08:04:33.000Z</time>
      </trkpt>
      <trkpt lat="43.5505" lon="3.71735">
        <ele>94.8</ele>
        <time>2013-07-26T08:04:34.000Z</time>
      </trkpt>
      <trkpt lat="43.55049" lon="3.71728">
        <ele>95.8</ele>
        <time>2013-07-26T08:04:35.000Z</time>
      </trkpt>
      <trkpt lat="43.55048" lon="3.71721">
        <ele>96.6</ele>
        <time>2013-07-26T08:04:36.000Z</time>
      </trkpt>
      <trkpt lat="43.55048" lon="3.71714">
        <ele>96.8</ele>
        <time>2013-07-26T08:04:37.000Z</time>
      </trkpt>
      <trkpt lat="43.55048" lon="3.71708">
        <ele>97.7</ele>
        <time>2013-07-26T08:04:38.000Z</time>
      </trkpt>
      <trkpt lat="43.55048" lon="3.71701">
        <ele>97.3</ele>
        <time>2013-07-26T08:04:39.000Z</time>
      </trkpt>
      <trkpt lat="43.55048" lon="3.71694">
        <ele>97.9</ele>
        <time>2013-07-26T08:04:40.000Z</time>
      </trkpt>
      <trkpt lat="43.55046" lon="3.71688">
        <ele>98.1</ele>
        <time>2013-07-26T08:04:41.000Z</time>
      </trkpt>
      <trkpt lat="43.55043" lon="3.71684">
        <ele>98.4</ele>
        <time>2013-07-26T08:04:42.000Z</time>
      </trkpt>
      <trkpt lat="43.5504" lon="3.71684">
        <ele>98.7</ele>
        <time>2013-07-26T08:04:43.000Z</time>
      </trkpt>
      <trkpt lat="43.55043" lon="3.71685">
        <ele>100.1</ele>
        <time>2013-07-26T08:04:50.000Z</time>
      </trkpt>
      <trkpt lat="43.55045" lon="3.71687">
        <ele>100.4</ele>
        <time>2013-07-26T08:04:51.000Z</time>
      </trkpt>
      <trkpt lat="43.55047" lon="3.7169">
        <ele>99.7</ele>
        <time>2013-07-26T08:04:52.000Z</time>
      </trkpt>
      <trkpt lat="43.55049" lon="3.71693">
        <ele>99.9</ele>
        <time>2013-07-26T08:04:53.000Z</time>
      </trkpt>
      <trkpt lat="43.55051" lon="3.71697">
        <ele>100.6</ele>
        <time>2013-07-26T08:04:54.000Z</time>
      </trkpt>
      <trkpt lat="43.5505" lon="3.71702">
        <ele>101.3</ele>
        <time>2013-07-26T08:04:55.000Z</time>
      </trkpt>
      <trkpt lat="43.5505" lon="3.71707">
        <ele>101.5</ele>
        <time>2013-07-26T08:04:56.000Z</time>
      </trkpt>
      <trkpt lat="43.5505" lon="3.71711">
        <ele>101.7</ele>
        <time>2013-07-26T08:04:57.000Z</time>
      </trkpt>
      <trkpt lat="43.5505" lon="3.71716">
        <ele>101.8</ele>
        <time>2013-07-26T08:04:58.005Z</time>
      </trkpt>
      <trkpt lat="43.55049" lon="3.7172">
        <ele>102.1</ele>
        <time>2013-07-26T08:04:59.000Z</time>
      </trkpt>
      <trkpt lat="43.5505" lon="3.71724">
        <ele>101.6</ele>
        <time>2013-07-26T08:05:00.000Z</time>
      </trkpt>
      <trkpt lat="43.5505" lon="3.71728">
        <ele>102.4</ele>
        <time>2013-07-26T08:05:01.000Z</time>
      </trkpt>
      <trkpt lat="43.55051" lon="3.71733">
        <ele>102.7</ele>
        <time>2013-07-26T08:05:02.000Z</time>
      </trkpt>
      <trkpt lat="43.55052" lon="3.71737">
        <ele>103.2</ele>
        <time>2013-07-26T08:05:03.000Z</time>
      </trkpt>
      <trkpt lat="43.55052" lon="3.71742">
        <ele>102.6</ele>
        <time>2013-07-26T08:05:04.000Z</time>
      </trkpt>
      <trkpt lat="43.55053" lon="3.71747">
        <ele>101.9</ele>
        <time>2013-07-26T08:05:05.000Z</time>
      </trkpt>
      <trkpt lat="43.55053" lon="3.71752">
        <ele>101.1</ele>
        <time>2013-07-26T08:05:06.000Z</time>
      </trkpt>
      <trkpt lat="43.55053" lon="3.71757">
        <ele>100.8</ele>
        <time>2013-07-26T08:05:07.000Z</time>
      </trkpt>
      <trkpt lat="43.55053" lon="3.71763">
        <ele>100.7</ele>
        <time>2013-07-26T08:05:08.000Z</time>
      </trkpt>
      <trkpt lat="43.55054" lon="3.71769">
        <ele>101.3</ele>
        <time>2013-07-26T08:05:09.000Z</time>
      </trkpt>
      <trkpt lat="43.55056" lon="3.71776">
        <ele>102</ele>
        <time>2013-07-26T08:05:10.000Z</time>
      </trkpt>
      <trkpt lat="43.55057" lon="3.71783">
        <ele>103.4</ele>
        <time>2013-07-26T08:05:11.000Z</time>
      </trkpt>
      <trkpt lat="43.55058" lon="3.71789">
        <ele>102.2</ele>
        <time>2013-07-26T08:05:12.000Z</time>
      </trkpt>
      <trkpt lat="43.55059" lon="3.71797">
        <ele>101.9</ele>
        <time>2013-07-26T08:05:13.000Z</time>
      </trkpt>
      <trkpt lat="43.5506" lon="3.71804">
        <ele>102.8</ele>
        <time>2013-07-26T08:05:14.000Z</time>
      </trkpt>
      <trkpt lat="43.55061" lon="3.71811">
        <ele>102.4</ele>
        <time>2013-07-26T08:05:15.000Z</time>
      </trkpt>
      <trkpt lat="43.55061" lon="3.71817">
        <ele>101.7</ele>
        <time>2013-07-26T08:05:16.000Z</time>
      </trkpt>
      <trkpt lat="43.55062" lon="3.71824">
        <ele>100.7</ele>
        <time>2013-07-26T08:05:17.000Z</time>
      </trkpt>
      <trkpt lat="43.55063" lon="3.71831">
        <ele>100.7</ele>
        <time>2013-07-26T08:05:18.000Z</time>
      </trkpt>
      <trkpt lat="43.55066" lon="3.71839">
        <ele>100.3</ele>
        <time>2013-07-26T08:05:19.000Z</time>
      </trkpt>
      <trkpt lat="43.55068" lon="3.71845">
        <ele>98.6</ele>
        <time>2013-07-26T08:05:20.000Z</time>
      </trkpt>
      <trkpt lat="43.5507" lon="3.71852">
        <ele>97.7</ele>
        <time>2013-07-26T08:05:21.000Z</time>
      </trkpt>
      <trkpt lat="43.55072" lon="3.7186">
        <ele>97.1</ele>
        <time>2013-07-26T08:05:22.000Z</time>
      </trkpt>
      <trkpt lat="43.55074" lon="3.71867">
        <ele>96.8</ele>
        <time>2013-07-26T08:05:23.000Z</time>
      </trkpt>
      <trkpt lat="43.55074" lon="3.71874">
        <ele>97.1</ele>
        <time>2013-07-26T08:05:24.000Z</time>
      </trkpt>
      <trkpt lat="43.55075" lon="3.71882">
        <ele>96.1</ele>
        <time>2013-07-26T08:05:25.000Z</time>
      </trkpt>
      <trkpt lat="43.55075" lon="3.71889">
        <ele>94.6</ele>
        <time>2013-07-26T08:05:26.000Z</time>
      </trkpt>
      <trkpt lat="43.55078" lon="3.71896">
        <ele>95.7</ele>
        <time>2013-07-26T08:05:27.000Z</time>
      </trkpt>
      <trkpt lat="43.5508" lon="3.71904">
        <ele>95.7</ele>
        <time>2013-07-26T08:05:28.000Z</time>
      </trkpt>
      <trkpt lat="43.5508" lon="3.71913">
        <ele>95.5</ele>
        <time>2013-07-26T08:05:29.000Z</time>
      </trkpt>
      <trkpt lat="43.55082" lon="3.7192">
        <ele>95.4</ele>
        <time>2013-07-26T08:05:30.000Z</time>
      </trkpt>
      <trkpt lat="43.55083" lon="3.71927">
        <ele>95.8</ele>
        <time>2013-07-26T08:05:31.000Z</time>
      </trkpt>
      <trkpt lat="43.55085" lon="3.71934">
        <ele>96</ele>
        <time>2013-07-26T08:05:32.000Z</time>
      </trkpt>
      <trkpt lat="43.55088" lon="3.71943">
        <ele>96.2</ele>
        <time>2013-07-26T08:05:33.000Z</time>
      </trkpt>
      <trkpt lat="43.55089" lon="3.71951">
        <ele>96.1</ele>
        <time>2013-07-26T08:05:34.000Z</time>
      </trkpt>
      <trkpt lat="43.55089" lon="3.71959">
        <ele>95.9</ele>
        <time>2013-07-26T08:05:35.000Z</time>
      </trkpt>
      <trkpt lat="43.5509" lon="3.71965">
        <ele>95.6</ele>
        <time>2013-07-26T08:05:36.000Z</time>
      </trkpt>
      <trkpt lat="43.55091" lon="3.71973">
        <ele>95.2</ele>
        <time>2013-07-26T08:05:37.000Z</time>
      </trkpt>
      <trkpt lat="43.55092" lon="3.71981">
        <ele>96.1</ele>
        <time>2013-07-26T08:05:38.000Z</time>
      </trkpt>
      <trkpt lat="43.55094" lon="3.71988">
        <ele>98.4</ele>
        <time>2013-07-26T08:05:39.000Z</time>
      </trkpt>
      <trkpt lat="43.55095" lon="3.71995">
        <ele>98.6</ele>
        <time>2013-07-26T08:05:40.000Z</time>
      </trkpt>
      <trkpt lat="43.55097" lon="3.72003">
        <ele>99.1</ele>
        <time>2013-07-26T08:05:41.000Z</time>
      </trkpt>
      <trkpt lat="43.55098" lon="3.7201">
        <ele>99</ele>
        <time>2013-07-26T08:05:42.000Z</time>
      </trkpt>
      <trkpt lat="43.551" lon="3.72018">
        <ele>98.5</ele>
        <time>2013-07-26T08:05:43.000Z</time>
      </trkpt>
      <trkpt lat="43.55102" lon="3.72024">
        <ele>99.3</ele>
        <time>2013-07-26T08:05:44.000Z</time>
      </trkpt>
      <trkpt lat="43.55102" lon="3.72031">
        <ele>99.7</ele>
        <time>2013-07-26T08:05:45.000Z</time>
      </trkpt>
      <trkpt lat="43.55104" lon="3.7204">
        <ele>100.1</ele>
        <time>2013-07-26T08:05:46.000Z</time>
      </trkpt>
      <trkpt lat="43.55106" lon="3.72047">
        <ele>100.1</ele>
        <time>2013-07-26T08:05:47.000Z</time>
      </trkpt>
      <trkpt lat="43.55107" lon="3.72054">
        <ele>100.2</ele>
        <time>2013-07-26T08:05:48.000Z</time>
      </trkpt>
      <trkpt lat="43.55109" lon="3.72062">
        <ele>100.1</ele>
        <time>2013-07-26T08:05:49.000Z</time>
      </trkpt>
      <trkpt lat="43.5511" lon="3.72069">
        <ele>99.7</ele>
        <time>2013-07-26T08:05:50.000Z</time>
      </trkpt>
      <trkpt lat="43.55112" lon="3.72077">
        <ele>98.9</ele>
        <time>2013-07-26T08:05:51.000Z</time>
      </trkpt>
      <trkpt lat="43.55113" lon="3.72084">
        <ele>98.7</ele>
        <time>2013-07-26T08:05:52.000Z</time>
      </trkpt>
      <trkpt lat="43.55116" lon="3.72092">
        <ele>98.8</ele>
        <time>2013-07-26T08:05:53.000Z</time>
      </trkpt>
      <trkpt lat="43.55118" lon="3.72098">
        <ele>98.8</ele>
        <time>2013-07-26T08:05:54.000Z</time>
      </trkpt>
      <trkpt lat="43.55119" lon="3.72107">
        <ele>98.6</ele>
        <time>2013-07-26T08:05:55.000Z</time>
      </trkpt>
      <trkpt lat="43.55121" lon="3.72113">
        <ele>100.8</ele>
        <time>2013-07-26T08:05:56.000Z</time>
      </trkpt>
      <trkpt lat="43.55121" lon="3.72121">
        <ele>101</ele>
        <time>2013-07-26T08:05:57.000Z</time>
      </trkpt>
      <trkpt lat="43.55122" lon="3.72128">
        <ele>101.2</ele>
        <time>2013-07-26T08:05:58.000Z</time>
      </trkpt>
      <trkpt lat="43.55123" lon="3.72135">
        <ele>101.4</ele>
        <time>2013-07-26T08:05:59.000Z</time>
      </trkpt>
      <trkpt lat="43.55125" lon="3.72141">
        <ele>101.8</ele>
        <time>2013-07-26T08:06:00.000Z</time>
      </trkpt>
      <trkpt lat="43.55127" lon="3.72148">
        <ele>101.7</ele>
        <time>2013-07-26T08:06:01.000Z</time>
      </trkpt>
      <trkpt lat="43.55129" lon="3.72155">
        <ele>101.6</ele>
        <time>2013-07-26T08:06:02.000Z</time>
      </trkpt>
      <trkpt lat="43.55129" lon="3.7216">
        <ele>99.6</ele>
        <time>2013-07-26T08:06:03.000Z</time>
      </trkpt>
      <trkpt lat="43.55131" lon="3.72167">
        <ele>99.8</ele>
        <time>2013-07-26T08:06:04.000Z</time>
      </trkpt>
      <trkpt lat="43.55133" lon="3.72174">
        <ele>100.8</ele>
        <time>2013-07-26T08:06:05.000Z</time>
      </trkpt>
      <trkpt lat="43.55135" lon="3.72181">
        <ele>100.2</ele>
        <time>2013-07-26T08:06:06.000Z</time>
      </trkpt>
      <trkpt lat="43.55136" lon="3.72188">
        <ele>98.9</ele>
        <time>2013-07-26T08:06:07.000Z</time>
      </trkpt>
      <trkpt lat="43.55136" lon="3.72195">
        <ele>98.5</ele>
        <time>2013-07-26T08:06:08.000Z</time>
      </trkpt>
      <trkpt lat="43.55138" lon="3.722">
        <ele>98.6</ele>
        <time>2013-07-26T08:06:09.000Z</time>
      </trkpt>
      <trkpt lat="43.55141" lon="3.72206">
        <ele>98.5</ele>
        <time>2013-07-26T08:06:10.000Z</time>
      </trkpt>
      <trkpt lat="43.55142" lon="3.72213">
        <ele>97.3</ele>
        <time>2013-07-26T08:06:11.000Z</time>
      </trkpt>
      <trkpt lat="43.55144" lon="3.72219">
        <ele>97.6</ele>
        <time>2013-07-26T08:06:12.000Z</time>
      </trkpt>
      <trkpt lat="43.55146" lon="3.72226">
        <ele>98.4</ele>
        <time>2013-07-26T08:06:13.000Z</time>
      </trkpt>
      <trkpt lat="43.55147" lon="3.72232">
        <ele>99.6</ele>
        <time>2013-07-26T08:06:14.000Z</time>
      </trkpt>
      <trkpt lat="43.5515" lon="3.72237">
        <ele>101</ele>
        <time>2013-07-26T08:06:15.000Z</time>
      </trkpt>
      <trkpt lat="43.55151" lon="3.72244">
        <ele>101</ele>
        <time>2013-07-26T08:06:16.000Z</time>
      </trkpt>
      <trkpt lat="43.55153" lon="3.72249">
        <ele>100.9</ele>
        <time>2013-07-26T08:06:17.000Z</time>
      </trkpt>
      <trkpt lat="43.55156" lon="3.72255">
        <ele>100.3</ele>
        <time>2013-07-26T08:06:18.000Z</time>
      </trkpt>
      <trkpt lat="43.55158" lon="3.7226">
        <ele>100.7</ele>
        <time>2013-07-26T08:06:19.000Z</time>
      </trkpt>
      <trkpt lat="43.55162" lon="3.72265">
        <ele>99</ele>
        <time>2013-07-26T08:06:20.000Z</time>
      </trkpt>
      <trkpt lat="43.55163" lon="3.72272">
        <ele>99.1</ele>
        <time>2013-07-26T08:06:21.000Z</time>
      </trkpt>
      <trkpt lat="43.55165" lon="3.72279">
        <ele>98.8</ele>
        <time>2013-07-26T08:06:22.000Z</time>
      </trkpt>
      <trkpt lat="43.55167" lon="3.72285">
        <ele>98.7</ele>
        <time>2013-07-26T08:06:23.000Z</time>
      </trkpt>
      <trkpt lat="43.55167" lon="3.72291">
        <ele>98.2</ele>
        <time>2013-07-26T08:06:24.000Z</time>
      </trkpt>
      <trkpt lat="43.5517" lon="3.72297">
        <ele>98.8</ele>
        <time>2013-07-26T08:06:25.000Z</time>
      </trkpt>
      <trkpt lat="43.55172" lon="3.72303">
        <ele>98.7</ele>
        <time>2013-07-26T08:06:26.000Z</time>
      </trkpt>
      <trkpt lat="43.55172" lon="3.7231">
        <ele>100</ele>
        <time>2013-07-26T08:06:27.000Z</time>
      </trkpt>
      <trkpt lat="43.55173" lon="3.72316">
        <ele>100.2</ele>
        <time>2013-07-26T08:06:28.000Z</time>
      </trkpt>
      <trkpt lat="43.55174" lon="3.72323">
        <ele>99.8</ele>
        <time>2013-07-26T08:06:29.000Z</time>
      </trkpt>
      <trkpt lat="43.55175" lon="3.7233">
        <ele>99.4</ele>
        <time>2013-07-26T08:06:30.000Z</time>
      </trkpt>
      <trkpt lat="43.55176" lon="3.72337">
        <ele>99.4</ele>
        <time>2013-07-26T08:06:31.000Z</time>
      </trkpt>
      <trkpt lat="43.5518" lon="3.72345">
        <ele>99.3</ele>
        <time>2013-07-26T08:06:32.000Z</time>
      </trkpt>
      <trkpt lat="43.55182" lon="3.72352">
        <ele>99.3</ele>
        <time>2013-07-26T08:06:33.000Z</time>
      </trkpt>
      <trkpt lat="43.55188" lon="3.72356">
        <ele>99.8</ele>
        <time>2013-07-26T08:06:34.000Z</time>
      </trkpt>
      <trkpt lat="43.55189" lon="3.72364">
        <ele>99.6</ele>
        <time>2013-07-26T08:06:35.000Z</time>
      </trkpt>
      <trkpt lat="43.55191" lon="3.72368">
        <ele>99.8</ele>
        <time>2013-07-26T08:06:36.000Z</time>
      </trkpt>
      <trkpt lat="43.55193" lon="3.72372">
        <ele>98.8</ele>
        <time>2013-07-26T08:06:37.000Z</time>
      </trkpt>
      <trkpt lat="43.55195" lon="3.7238">
        <ele>98.7</ele>
        <time>2013-07-26T08:06:38.000Z</time>
      </trkpt>
      <trkpt lat="43.55198" lon="3.72386">
        <ele>99</ele>
        <time>2013-07-26T08:06:39.000Z</time>
      </trkpt>
      <trkpt lat="43.55201" lon="3.72392">
        <ele>99.3</ele>
        <time>2013-07-26T08:06:40.000Z</time>
      </trkpt>
      <trkpt lat="43.55203" lon="3.72399">
        <ele>98.6</ele>
        <time>2013-07-26T08:06:41.000Z</time>
      </trkpt>
      <trkpt lat="43.55207" lon="3.72405">
        <ele>98.3</ele>
        <time>2013-07-26T08:06:42.000Z</time>
      </trkpt>
      <trkpt lat="43.55209" lon="3.7241">
        <ele>98.1</ele>
        <time>2013-07-26T08:06:43.000Z</time>
      </trkpt>
      <trkpt lat="43.55212" lon="3.72415">
        <ele>96.2</ele>
        <time>2013-07-26T08:06:44.000Z</time>
      </trkpt>
      <trkpt lat="43.55214" lon="3.72422">
        <ele>96.4</ele>
        <time>2013-07-26T08:06:45.000Z</time>
      </trkpt>
      <trkpt lat="43.55217" lon="3.72428">
        <ele>96</ele>
        <time>2013-07-26T08:06:46.000Z</time>
      </trkpt>
      <trkpt lat="43.5522" lon="3.72435">
        <ele>95.9</ele>
        <time>2013-07-26T08:06:47.000Z</time>
      </trkpt>
      <trkpt lat="43.55223" lon="3.72441">
        <ele>95.8</ele>
        <time>2013-07-26T08:06:48.000Z</time>
      </trkpt>
      <trkpt lat="43.55226" lon="3.72447">
        <ele>95.7</ele>
        <time>2013-07-26T08:06:49.000Z</time>
      </trkpt>
      <trkpt lat="43.55228" lon="3.72452">
        <ele>96.2</ele>
        <time>2013-07-26T08:06:50.000Z</time>
      </trkpt>
      <trkpt lat="43.55231" lon="3.72457">
        <ele>94.3</ele>
        <time>2013-07-26T08:06:51.000Z</time>
      </trkpt>
      <trkpt lat="43.55234" lon="3.72463">
        <ele>93.7</ele>
        <time>2013-07-26T08:06:52.000Z</time>
      </trkpt>
      <trkpt lat="43.55238" lon="3.72469">
        <ele>98.4</ele>
        <time>2013-07-26T08:06:53.000Z</time>
      </trkpt>
      <trkpt lat="43.5524" lon="3.72476">
        <ele>98.7</ele>
        <time>2013-07-26T08:06:54.000Z</time>
      </trkpt>
      <trkpt lat="43.55243" lon="3.72482">
        <ele>99.3</ele>
        <time>2013-07-26T08:06:55.000Z</time>
      </trkpt>
      <trkpt lat="43.55246" lon="3.72487">
        <ele>99.5</ele>
        <time>2013-07-26T08:06:56.000Z</time>
      </trkpt>
      <trkpt lat="43.55249" lon="3.7249">
        <ele>99.5</ele>
        <time>2013-07-26T08:06:57.000Z</time>
      </trkpt>
      <trkpt lat="43.55252" lon="3.72492">
        <ele>99.6</ele>
        <time>2013-07-26T08:06:58.002Z</time>
      </trkpt>
      <trkpt lat="43.55254" lon="3.72497">
        <ele>99.5</ele>
        <time>2013-07-26T08:06:59.000Z</time>
      </trkpt>
      <trkpt lat="43.55256" lon="3.72503">
        <ele>99.8</ele>
        <time>2013-07-26T08:07:00.000Z</time>
      </trkpt>
      <trkpt lat="43.55258" lon="3.72509">
        <ele>100.1</ele>
        <time>2013-07-26T08:07:01.000Z</time>
      </trkpt>
      <trkpt lat="43.55261" lon="3.72514">
        <ele>100.1</ele>
        <time>2013-07-26T08:07:02.000Z</time>
      </trkpt>
      <trkpt lat="43.55265" lon="3.72519">
        <ele>97.9</ele>
        <time>2013-07-26T08:07:03.000Z</time>
      </trkpt>
      <trkpt lat="43.55268" lon="3.72525">
        <ele>97.3</ele>
        <time>2013-07-26T08:07:04.000Z</time>
      </trkpt>
      <trkpt lat="43.5527" lon="3.7253">
        <ele>97.6</ele>
        <time>2013-07-26T08:07:05.000Z</time>
      </trkpt>
      <trkpt lat="43.55274" lon="3.72536">
        <ele>100.3</ele>
        <time>2013-07-26T08:07:06.000Z</time>
      </trkpt>
      <trkpt lat="43.55277" lon="3.72541">
        <ele>102.6</ele>
        <time>2013-07-26T08:07:07.000Z</time>
      </trkpt>
      <trkpt lat="43.5528" lon="3.72547">
        <ele>104.3</ele>
        <time>2013-07-26T08:07:08.000Z</time>
      </trkpt>
      <trkpt lat="43.55284" lon="3.72551">
        <ele>102.9</ele>
        <time>2013-07-26T08:07:09.000Z</time>
      </trkpt>
      <trkpt lat="43.55286" lon="3.72556">
        <ele>104.9</ele>
        <time>2013-07-26T08:07:10.000Z</time>
      </trkpt>
      <trkpt lat="43.5529" lon="3.72562">
        <ele>104.7</ele>
        <time>2013-07-26T08:07:11.000Z</time>
      </trkpt>
      <trkpt lat="43.55293" lon="3.72566">
        <ele>104.5</ele>
        <time>2013-07-26T08:07:12.000Z</time>
      </trkpt>
      <trkpt lat="43.55297" lon="3.72571">
        <ele>104.2</ele>
        <time>2013-07-26T08:07:13.000Z</time>
      </trkpt>
      <trkpt lat="43.55301" lon="3.72575">
        <ele>101.1</ele>
        <time>2013-07-26T08:07:14.000Z</time>
      </trkpt>
      <trkpt lat="43.55304" lon="3.72576">
        <ele>100.1</ele>
        <time>2013-07-26T08:07:15.000Z</time>
      </trkpt>
      <trkpt lat="43.55308" lon="3.72578">
        <ele>98</ele>
        <time>2013-07-26T08:07:16.000Z</time>
      </trkpt>
      <trkpt lat="43.55311" lon="3.7258">
        <ele>96</ele>
        <time>2013-07-26T08:07:17.000Z</time>
      </trkpt>
      <trkpt lat="43.55315" lon="3.72583">
        <ele>94.6</ele>
        <time>2013-07-26T08:07:18.000Z</time>
      </trkpt>
      <trkpt lat="43.55318" lon="3.72587">
        <ele>95.1</ele>
        <time>2013-07-26T08:07:19.000Z</time>
      </trkpt>
      <trkpt lat="43.55321" lon="3.72592">
        <ele>95.3</ele>
        <time>2013-07-26T08:07:20.000Z</time>
      </trkpt>
      <trkpt lat="43.55323" lon="3.72596">
        <ele>95.5</ele>
        <time>2013-07-26T08:07:21.000Z</time>
      </trkpt>
      <trkpt lat="43.55324" lon="3.72604">
        <ele>94.7</ele>
        <time>2013-07-26T08:07:22.000Z</time>
      </trkpt>
      <trkpt lat="43.55326" lon="3.7261">
        <ele>94.5</ele>
        <time>2013-07-26T08:07:23.000Z</time>
      </trkpt>
      <trkpt lat="43.55328" lon="3.72616">
        <ele>95.8</ele>
        <time>2013-07-26T08:07:24.000Z</time>
      </trkpt>
      <trkpt lat="43.55331" lon="3.7262">
        <ele>95.6</ele>
        <time>2013-07-26T08:07:25.000Z</time>
      </trkpt>
      <trkpt lat="43.55335" lon="3.72624">
        <ele>95.4</ele>
        <time>2013-07-26T08:07:26.000Z</time>
      </trkpt>
      <trkpt lat="43.55339" lon="3.72628">
        <ele>95.5</ele>
        <time>2013-07-26T08:07:27.000Z</time>
      </trkpt>
      <trkpt lat="43.55343" lon="3.72633">
        <ele>94.8</ele>
        <time>2013-07-26T08:07:28.000Z</time>
      </trkpt>
      <trkpt lat="43.55349" lon="3.72638">
        <ele>97.2</ele>
        <time>2013-07-26T08:07:29.000Z</time>
      </trkpt>
      <trkpt lat="43.55354" lon="3.72642">
        <ele>98.7</ele>
        <time>2013-07-26T08:07:30.000Z</time>
      </trkpt>
      <trkpt lat="43.55358" lon="3.72646">
        <ele>100</ele>
        <time>2013-07-26T08:07:31.000Z</time>
      </trkpt>
      <trkpt lat="43.55361" lon="3.72651">
        <ele>99.9</ele>
        <time>2013-07-26T08:07:32.000Z</time>
      </trkpt>
      <trkpt lat="43.55365" lon="3.72655">
        <ele>100.7</ele>
        <time>2013-07-26T08:07:33.000Z</time>
      </trkpt>
      <trkpt lat="43.55369" lon="3.72659">
        <ele>100.3</ele>
        <time>2013-07-26T08:07:34.000Z</time>
      </trkpt>
      <trkpt lat="43.55373" lon="3.72663">
        <ele>100.5</ele>
        <time>2013-07-26T08:07:35.000Z</time>
      </trkpt>
      <trkpt lat="43.55378" lon="3.72668">
        <ele>100.2</ele>
        <time>2013-07-26T08:07:36.000Z</time>
      </trkpt>
      <trkpt lat="43.55383" lon="3.72671">
        <ele>99</ele>
        <time>2013-07-26T08:07:37.000Z</time>
      </trkpt>
      <trkpt lat="43.55388" lon="3.72676">
        <ele>97.9</ele>
        <time>2013-07-26T08:07:38.000Z</time>
      </trkpt>
      <trkpt lat="43.55393" lon="3.72681">
        <ele>98.3</ele>
        <time>2013-07-26T08:07:39.000Z</time>
      </trkpt>
      <trkpt lat="43.55397" lon="3.72685">
        <ele>98.3</ele>
        <time>2013-07-26T08:07:40.000Z</time>
      </trkpt>
      <trkpt lat="43.55401" lon="3.72689">
        <ele>98.4</ele>
        <time>2013-07-26T08:07:41.000Z</time>
      </trkpt>
      <trkpt lat="43.55406" lon="3.72693">
        <ele>98.5</ele>
        <time>2013-07-26T08:07:42.000Z</time>
      </trkpt>
      <trkpt lat="43.55411" lon="3.72698">
        <ele>98.2</ele>
        <time>2013-07-26T08:07:43.000Z</time>
      </trkpt>
      <trkpt lat="43.55414" lon="3.72701">
        <ele>99.5</ele>
        <time>2013-07-26T08:07:44.000Z</time>
      </trkpt>
      <trkpt lat="43.55419" lon="3.72707">
        <ele>100.3</ele>
        <time>2013-07-26T08:07:45.000Z</time>
      </trkpt>
      <trkpt lat="43.55422" lon="3.7271">
        <ele>100</ele>
        <time>2013-07-26T08:07:46.000Z</time>
      </trkpt>
      <trkpt lat="43.55427" lon="3.72712">
        <ele>99.1</ele>
        <time>2013-07-26T08:07:47.000Z</time>
      </trkpt>
      <trkpt lat="43.55433" lon="3.72716">
        <ele>98.4</ele>
        <time>2013-07-26T08:07:48.000Z</time>
      </trkpt>
      <trkpt lat="43.55437" lon="3.7272">
        <ele>100.1</ele>
        <time>2013-07-26T08:07:49.000Z</time>
      </trkpt>
      <trkpt lat="43.55442" lon="3.72723">
        <ele>102.2</ele>
        <time>2013-07-26T08:07:50.000Z</time>
      </trkpt>
      <trkpt lat="43.55449" lon="3.72728">
        <ele>102.4</ele>
        <time>2013-07-26T08:07:51.000Z</time>
      </trkpt>
      <trkpt lat="43.55455" lon="3.72731">
        <ele>103.8</ele>
        <time>2013-07-26T08:07:52.000Z</time>
      </trkpt>
      <trkpt lat="43.55462" lon="3.72735">
        <ele>103.4</ele>
        <time>2013-07-26T08:07:53.000Z</time>
      </trkpt>
      <trkpt lat="43.55467" lon="3.72739">
        <ele>102.5</ele>
        <time>2013-07-26T08:07:54.000Z</time>
      </trkpt>
      <trkpt lat="43.55472" lon="3.72743">
        <ele>102.5</ele>
        <time>2013-07-26T08:07:55.000Z</time>
      </trkpt>
      <trkpt lat="43.55478" lon="3.72746">
        <ele>102.1</ele>
        <time>2013-07-26T08:07:56.000Z</time>
      </trkpt>
      <trkpt lat="43.55484" lon="3.7275">
        <ele>102.6</ele>
        <time>2013-07-26T08:07:57.000Z</time>
      </trkpt>
      <trkpt lat="43.5549" lon="3.72755">
        <ele>101.4</ele>
        <time>2013-07-26T08:07:58.000Z</time>
      </trkpt>
      <trkpt lat="43.55496" lon="3.72757">
        <ele>102.2</ele>
        <time>2013-07-26T08:07:59.000Z</time>
      </trkpt>
      <trkpt lat="43.55503" lon="3.7276">
        <ele>101.7</ele>
        <time>2013-07-26T08:08:00.000Z</time>
      </trkpt>
      <trkpt lat="43.55509" lon="3.72764">
        <ele>102.6</ele>
        <time>2013-07-26T08:08:01.000Z</time>
      </trkpt>
      <trkpt lat="43.55516" lon="3.72768">
        <ele>104.2</ele>
        <time>2013-07-26T08:08:02.000Z</time>
      </trkpt>
      <trkpt lat="43.55522" lon="3.72772">
        <ele>104.4</ele>
        <time>2013-07-26T08:08:03.000Z</time>
      </trkpt>
      <trkpt lat="43.55528" lon="3.72776">
        <ele>105.9</ele>
        <time>2013-07-26T08:08:04.000Z</time>
      </trkpt>
      <trkpt lat="43.55535" lon="3.72778">
        <ele>106.3</ele>
        <time>2013-07-26T08:08:05.000Z</time>
      </trkpt>
      <trkpt lat="43.55542" lon="3.72779">
        <ele>106.6</ele>
        <time>2013-07-26T08:08:06.000Z</time>
      </trkpt>
      <trkpt lat="43.55546" lon="3.72783">
        <ele>106</ele>
        <time>2013-07-26T08:08:07.000Z</time>
      </trkpt>
      <trkpt lat="43.5555" lon="3.72786">
        <ele>106.1</ele>
        <time>2013-07-26T08:08:08.000Z</time>
      </trkpt>
      <trkpt lat="43.55557" lon="3.7279">
        <ele>106.9</ele>
        <time>2013-07-26T08:08:09.000Z</time>
      </trkpt>
      <trkpt lat="43.55563" lon="3.72794">
        <ele>107.1</ele>
        <time>2013-07-26T08:08:10.000Z</time>
      </trkpt>
      <trkpt lat="43.55569" lon="3.72799">
        <ele>106.3</ele>
        <time>2013-07-26T08:08:11.000Z</time>
      </trkpt>
      <trkpt lat="43.55573" lon="3.72802">
        <ele>105.8</ele>
        <time>2013-07-26T08:08:12.000Z</time>
      </trkpt>
      <trkpt lat="43.55577" lon="3.72805">
        <ele>105.8</ele>
        <time>2013-07-26T08:08:13.000Z</time>
      </trkpt>
      <trkpt lat="43.55582" lon="3.72807">
        <ele>104.2</ele>
        <time>2013-07-26T08:08:14.000Z</time>
      </trkpt>
      <trkpt lat="43.55586" lon="3.7281">
        <ele>102.4</ele>
        <time>2013-07-26T08:08:15.000Z</time>
      </trkpt>
      <trkpt lat="43.55593" lon="3.72811">
        <ele>100.6</ele>
        <time>2013-07-26T08:08:16.000Z</time>
      </trkpt>
      <trkpt lat="43.55599" lon="3.72814">
        <ele>101.9</ele>
        <time>2013-07-26T08:08:17.000Z</time>
      </trkpt>
      <trkpt lat="43.55605" lon="3.72814">
        <ele>102.2</ele>
        <time>2013-07-26T08:08:18.000Z</time>
      </trkpt>
      <trkpt lat="43.5561" lon="3.72817">
        <ele>102.1</ele>
        <time>2013-07-26T08:08:19.000Z</time>
      </trkpt>
      <trkpt lat="43.55617" lon="3.72818">
        <ele>101</ele>
        <time>2013-07-26T08:08:20.000Z</time>
      </trkpt>
      <trkpt lat="43.55622" lon="3.72821">
        <ele>100.8</ele>
        <time>2013-07-26T08:08:21.000Z</time>
      </trkpt>
      <trkpt lat="43.55627" lon="3.72824">
        <ele>101.5</ele>
        <time>2013-07-26T08:08:22.000Z</time>
      </trkpt>
      <trkpt lat="43.55632" lon="3.72826">
        <ele>101.1</ele>
        <time>2013-07-26T08:08:23.000Z</time>
      </trkpt>
      <trkpt lat="43.55639" lon="3.72829">
        <ele>103</ele>
        <time>2013-07-26T08:08:24.000Z</time>
      </trkpt>
      <trkpt lat="43.55644" lon="3.72831">
        <ele>103.3</ele>
        <time>2013-07-26T08:08:25.000Z</time>
      </trkpt>
      <trkpt lat="43.5565" lon="3.72834">
        <ele>103.7</ele>
        <time>2013-07-26T08:08:26.000Z</time>
      </trkpt>
      <trkpt lat="43.55654" lon="3.72836">
        <ele>104</ele>
        <time>2013-07-26T08:08:27.000Z</time>
      </trkpt>
      <trkpt lat="43.5566" lon="3.72838">
        <ele>103.7</ele>
        <time>2013-07-26T08:08:28.000Z</time>
      </trkpt>
      <trkpt lat="43.55664" lon="3.72838">
        <ele>104.4</ele>
        <time>2013-07-26T08:08:29.000Z</time>
      </trkpt>
      <trkpt lat="43.55672" lon="3.72836">
        <ele>104.7</ele>
        <time>2013-07-26T08:08:30.000Z</time>
      </trkpt>
      <trkpt lat="43.55677" lon="3.72839">
        <ele>104.1</ele>
        <time>2013-07-26T08:08:31.000Z</time>
      </trkpt>
      <trkpt lat="43.55684" lon="3.72843">
        <ele>104.4</ele>
        <time>2013-07-26T08:08:32.000Z</time>
      </trkpt>
      <trkpt lat="43.55689" lon="3.72844">
        <ele>102.9</ele>
        <time>2013-07-26T08:08:33.000Z</time>
      </trkpt>
      <trkpt lat="43.55695" lon="3.72846">
        <ele>103.2</ele>
        <time>2013-07-26T08:08:34.000Z</time>
      </trkpt>
      <trkpt lat="43.557" lon="3.72847">
        <ele>103</ele>
        <time>2013-07-26T08:08:35.000Z</time>
      </trkpt>
      <trkpt lat="43.55704" lon="3.72848">
        <ele>100.9</ele>
        <time>2013-07-26T08:08:36.000Z</time>
      </trkpt>
      <trkpt lat="43.55708" lon="3.72848">
        <ele>98.6</ele>
        <time>2013-07-26T08:08:37.000Z</time>
      </trkpt>
      <trkpt lat="43.55715" lon="3.72849">
        <ele>99.9</ele>
        <time>2013-07-26T08:08:38.000Z</time>
      </trkpt>
      <trkpt lat="43.55721" lon="3.72851">
        <ele>99.2</ele>
        <time>2013-07-26T08:08:39.000Z</time>
      </trkpt>
      <trkpt lat="43.55726" lon="3.72851">
        <ele>98.6</ele>
        <time>2013-07-26T08:08:40.000Z</time>
      </trkpt>
      <trkpt lat="43.55732" lon="3.72853">
        <ele>99.8</ele>
        <time>2013-07-26T08:08:41.000Z</time>
      </trkpt>
      <trkpt lat="43.55738" lon="3.72853">
        <ele>98.5</ele>
        <time>2013-07-26T08:08:42.000Z</time>
      </trkpt>
      <trkpt lat="43.55745" lon="3.72853">
        <ele>98.4</ele>
        <time>2013-07-26T08:08:43.000Z</time>
      </trkpt>
      <trkpt lat="43.5575" lon="3.72853">
        <ele>97.3</ele>
        <time>2013-07-26T08:08:44.000Z</time>
      </trkpt>
      <trkpt lat="43.55756" lon="3.72854">
        <ele>96.8</ele>
        <time>2013-07-26T08:08:45.000Z</time>
      </trkpt>
      <trkpt lat="43.55763" lon="3.72858">
        <ele>97.3</ele>
        <time>2013-07-26T08:08:46.000Z</time>
      </trkpt>
      <trkpt lat="43.55768" lon="3.7286">
        <ele>97.3</ele>
        <time>2013-07-26T08:08:47.000Z</time>
      </trkpt>
      <trkpt lat="43.55775" lon="3.72862">
        <ele>97</ele>
        <time>2013-07-26T08:08:48.000Z</time>
      </trkpt>
      <trkpt lat="43.55782" lon="3.72862">
        <ele>95.5</ele>
        <time>2013-07-26T08:08:49.000Z</time>
      </trkpt>
      <trkpt lat="43.55789" lon="3.72862">
        <ele>96.3</ele>
        <time>2013-07-26T08:08:50.000Z</time>
      </trkpt>
      <trkpt lat="43.55795" lon="3.72863">
        <ele>96.6</ele>
        <time>2013-07-26T08:08:51.000Z</time>
      </trkpt>
      <trkpt lat="43.558" lon="3.72863">
        <ele>96.6</ele>
        <time>2013-07-26T08:08:52.000Z</time>
      </trkpt>
      <trkpt lat="43.55806" lon="3.72864">
        <ele>97.9</ele>
        <time>2013-07-26T08:08:53.000Z</time>
      </trkpt>
      <trkpt lat="43.55814" lon="3.72864">
        <ele>98.3</ele>
        <time>2013-07-26T08:08:54.000Z</time>
      </trkpt>
      <trkpt lat="43.55819" lon="3.72864">
        <ele>99</ele>
        <time>2013-07-26T08:08:55.000Z</time>
      </trkpt>
      <trkpt lat="43.55825" lon="3.72863">
        <ele>98.9</ele>
        <time>2013-07-26T08:08:56.000Z</time>
      </trkpt>
      <trkpt lat="43.55831" lon="3.72863">
        <ele>98.7</ele>
        <time>2013-07-26T08:08:57.000Z</time>
      </trkpt>
      <trkpt lat="43.55836" lon="3.72863">
        <ele>98.9</ele>
        <time>2013-07-26T08:08:58.004Z</time>
      </trkpt>
      <trkpt lat="43.55842" lon="3.72862">
        <ele>99.3</ele>
        <time>2013-07-26T08:08:59.001Z</time>
      </trkpt>
      <trkpt lat="43.55848" lon="3.72862">
        <ele>99.8</ele>
        <time>2013-07-26T08:09:00.000Z</time>
      </trkpt>
      <trkpt lat="43.55853" lon="3.72861">
        <ele>100.1</ele>
        <time>2013-07-26T08:09:01.000Z</time>
      </trkpt>
      <trkpt lat="43.5586" lon="3.7286">
        <ele>99.3</ele>
        <time>2013-07-26T08:09:02.000Z</time>
      </trkpt>
      <trkpt lat="43.55866" lon="3.7286">
        <ele>99.7</ele>
        <time>2013-07-26T08:09:03.000Z</time>
      </trkpt>
      <trkpt lat="43.55871" lon="3.72859">
        <ele>99.9</ele>
        <time>2013-07-26T08:09:04.000Z</time>
      </trkpt>
      <trkpt lat="43.55879" lon="3.72858">
        <ele>98.9</ele>
        <time>2013-07-26T08:09:05.000Z</time>
      </trkpt>
      <trkpt lat="43.55883" lon="3.72857">
        <ele>101.5</ele>
        <time>2013-07-26T08:09:06.000Z</time>
      </trkpt>
      <trkpt lat="43.55889" lon="3.72857">
        <ele>102.6</ele>
        <time>2013-07-26T08:09:07.000Z</time>
      </trkpt>
      <trkpt lat="43.55894" lon="3.72856">
        <ele>102.6</ele>
        <time>2013-07-26T08:09:08.000Z</time>
      </trkpt>
      <trkpt lat="43.55901" lon="3.72857">
        <ele>102</ele>
        <time>2013-07-26T08:09:09.000Z</time>
      </trkpt>
      <trkpt lat="43.55907" lon="3.72857">
        <ele>102.6</ele>
        <time>2013-07-26T08:09:10.000Z</time>
      </trkpt>
      <trkpt lat="43.55913" lon="3.72858">
        <ele>101.9</ele>
        <time>2013-07-26T08:09:11.000Z</time>
      </trkpt>
      <trkpt lat="43.55919" lon="3.72859">
        <ele>103.6</ele>
        <time>2013-07-26T08:09:12.000Z</time>
      </trkpt>
      <trkpt lat="43.55926" lon="3.72857">
        <ele>103.7</ele>
        <time>2013-07-26T08:09:13.000Z</time>
      </trkpt>
      <trkpt lat="43.55932" lon="3.72857">
        <ele>104.2</ele>
        <time>2013-07-26T08:09:14.000Z</time>
      </trkpt>
      <trkpt lat="43.5594" lon="3.72857">
        <ele>105.4</ele>
        <time>2013-07-26T08:09:15.000Z</time>
      </trkpt>
      <trkpt lat="43.55944" lon="3.72858">
        <ele>104</ele>
        <time>2013-07-26T08:09:16.000Z</time>
      </trkpt>
      <trkpt lat="43.55949" lon="3.72856">
        <ele>102.3</ele>
        <time>2013-07-26T08:09:17.000Z</time>
      </trkpt>
      <trkpt lat="43.55956" lon="3.72857">
        <ele>101.3</ele>
        <time>2013-07-26T08:09:18.000Z</time>
      </trkpt>
      <trkpt lat="43.55961" lon="3.72855">
        <ele>101.2</ele>
        <time>2013-07-26T08:09:19.000Z</time>
      </trkpt>
      <trkpt lat="43.55967" lon="3.72852">
        <ele>100.7</ele>
        <time>2013-07-26T08:09:20.000Z</time>
      </trkpt>
      <trkpt lat="43.55973" lon="3.7285">
        <ele>100.6</ele>
        <time>2013-07-26T08:09:21.000Z</time>
      </trkpt>
      <trkpt lat="43.55979" lon="3.72849">
        <ele>101.6</ele>
        <time>2013-07-26T08:09:22.000Z</time>
      </trkpt>
      <trkpt lat="43.55986" lon="3.72848">
        <ele>101.3</ele>
        <time>2013-07-26T08:09:23.000Z</time>
      </trkpt>
      <trkpt lat="43.55992" lon="3.72847">
        <ele>100.8</ele>
        <time>2013-07-26T08:09:24.000Z</time>
      </trkpt>
      <trkpt lat="43.55999" lon="3.72846">
        <ele>100.8</ele>
        <time>2013-07-26T08:09:25.000Z</time>
      </trkpt>
      <trkpt lat="43.56007" lon="3.72845">
        <ele>99.9</ele>
        <time>2013-07-26T08:09:26.000Z</time>
      </trkpt>
      <trkpt lat="43.56012" lon="3.72844">
        <ele>101.2</ele>
        <time>2013-07-26T08:09:27.000Z</time>
      </trkpt>
      <trkpt lat="43.56018" lon="3.72843">
        <ele>102</ele>
        <time>2013-07-26T08:09:28.000Z</time>
      </trkpt>
      <trkpt lat="43.56022" lon="3.72842">
        <ele>101.5</ele>
        <time>2013-07-26T08:09:29.000Z</time>
      </trkpt>
      <trkpt lat="43.56025" lon="3.72842">
        <ele>101.3</ele>
        <time>2013-07-26T08:09:30.000Z</time>
      </trkpt>
      <trkpt lat="43.56029" lon="3.72841">
        <ele>100</ele>
        <time>2013-07-26T08:09:31.000Z</time>
      </trkpt>
      <trkpt lat="43.56032" lon="3.72839">
        <ele>100.2</ele>
        <time>2013-07-26T08:09:32.000Z</time>
      </trkpt>
      <trkpt lat="43.56035" lon="3.72836">
        <ele>100.2</ele>
        <time>2013-07-26T08:09:33.000Z</time>
      </trkpt>
      <trkpt lat="43.56038" lon="3.72833">
        <ele>99.1</ele>
        <time>2013-07-26T08:09:34.000Z</time>
      </trkpt>
      <trkpt lat="43.56041" lon="3.72827">
        <ele>99</ele>
        <time>2013-07-26T08:09:35.000Z</time>
      </trkpt>
      <trkpt lat="43.56042" lon="3.7282">
        <ele>97.6</ele>
        <time>2013-07-26T08:09:36.000Z</time>
      </trkpt>
      <trkpt lat="43.56044" lon="3.72815">
        <ele>97.2</ele>
        <time>2013-07-26T08:09:37.000Z</time>
      </trkpt>
      <trkpt lat="43.56045" lon="3.7281">
        <ele>96.9</ele>
        <time>2013-07-26T08:09:38.000Z</time>
      </trkpt>
      <trkpt lat="43.56047" lon="3.72809">
        <ele>96.9</ele>
        <time>2013-07-26T08:09:39.000Z</time>
      </trkpt>
      <trkpt lat="43.56049" lon="3.72807">
        <ele>96.9</ele>
        <time>2013-07-26T08:09:40.000Z</time>
      </trkpt>
      <trkpt lat="43.56055" lon="3.72811">
        <ele>96.6</ele>
        <time>2013-07-26T08:09:41.000Z</time>
      </trkpt>
      <trkpt lat="43.56057" lon="3.72817">
        <ele>96.6</ele>
        <time>2013-07-26T08:09:42.000Z</time>
      </trkpt>
      <trkpt lat="43.5606" lon="3.72823">
        <ele>95.6</ele>
        <time>2013-07-26T08:09:43.000Z</time>
      </trkpt>
      <trkpt lat="43.56062" lon="3.72829">
        <ele>95.1</ele>
        <time>2013-07-26T08:09:44.000Z</time>
      </trkpt>
      <trkpt lat="43.56065" lon="3.72834">
        <ele>95.8</ele>
        <time>2013-07-26T08:09:45.000Z</time>
      </trkpt>
      <trkpt lat="43.56067" lon="3.72838">
        <ele>94.8</ele>
        <time>2013-07-26T08:09:46.000Z</time>
      </trkpt>
      <trkpt lat="43.56071" lon="3.72843">
        <ele>94.9</ele>
        <time>2013-07-26T08:09:47.000Z</time>
      </trkpt>
      <trkpt lat="43.56074" lon="3.72847">
        <ele>93.8</ele>
        <time>2013-07-26T08:09:48.000Z</time>
      </trkpt>
      <trkpt lat="43.56078" lon="3.72853">
        <ele>93.4</ele>
        <time>2013-07-26T08:09:49.000Z</time>
      </trkpt>
      <trkpt lat="43.56081" lon="3.72858">
        <ele>93.3</ele>
        <time>2013-07-26T08:09:50.000Z</time>
      </trkpt>
      <trkpt lat="43.56084" lon="3.72862">
        <ele>93.9</ele>
        <time>2013-07-26T08:09:51.000Z</time>
      </trkpt>
      <trkpt lat="43.56089" lon="3.72867">
        <ele>93</ele>
        <time>2013-07-26T08:09:52.000Z</time>
      </trkpt>
      <trkpt lat="43.56092" lon="3.72871">
        <ele>92.5</ele>
        <time>2013-07-26T08:09:53.000Z</time>
      </trkpt>
      <trkpt lat="43.56096" lon="3.72874">
        <ele>92.7</ele>
        <time>2013-07-26T08:09:54.000Z</time>
      </trkpt>
      <trkpt lat="43.561" lon="3.72878">
        <ele>92</ele>
        <time>2013-07-26T08:09:55.000Z</time>
      </trkpt>
      <trkpt lat="43.56104" lon="3.72883">
        <ele>90.9</ele>
        <time>2013-07-26T08:09:56.000Z</time>
      </trkpt>
      <trkpt lat="43.56108" lon="3.72886">
        <ele>90.5</ele>
        <time>2013-07-26T08:09:57.000Z</time>
      </trkpt>
      <trkpt lat="43.56114" lon="3.7289">
        <ele>90.7</ele>
        <time>2013-07-26T08:09:57.935Z</time>
      </trkpt>
      <trkpt lat="43.56119" lon="3.72892">
        <ele>91.2</ele>
        <time>2013-07-26T08:09:59.000Z</time>
      </trkpt>
      <trkpt lat="43.56125" lon="3.72895">
        <ele>91.2</ele>
        <time>2013-07-26T08:10:00.000Z</time>
      </trkpt>
      <trkpt lat="43.56131" lon="3.729">
        <ele>91.8</ele>
        <time>2013-07-26T08:10:01.000Z</time>
      </trkpt>
      <trkpt lat="43.56137" lon="3.72902">
        <ele>92.6</ele>
        <time>2013-07-26T08:10:02.000Z</time>
      </trkpt>
      <trkpt lat="43.56142" lon="3.72905">
        <ele>92.6</ele>
        <time>2013-07-26T08:10:03.000Z</time>
      </trkpt>
      <trkpt lat="43.56147" lon="3.72904">
        <ele>93.8</ele>
        <time>2013-07-26T08:10:04.000Z</time>
      </trkpt>
      <trkpt lat="43.56151" lon="3.72903">
        <ele>93.7</ele>
        <time>2013-07-26T08:10:05.000Z</time>
      </trkpt>
      <trkpt lat="43.56155" lon="3.72902">
        <ele>93</ele>
        <time>2013-07-26T08:10:06.000Z</time>
      </trkpt>
      <trkpt lat="43.56159" lon="3.72901">
        <ele>91.9</ele>
        <time>2013-07-26T08:10:07.000Z</time>
      </trkpt>
      <trkpt lat="43.56164" lon="3.729">
        <ele>92.4</ele>
        <time>2013-07-26T08:10:08.000Z</time>
      </trkpt>
      <trkpt lat="43.56169" lon="3.729">
        <ele>92.9</ele>
        <time>2013-07-26T08:10:09.000Z</time>
      </trkpt>
      <trkpt lat="43.56174" lon="3.729">
        <ele>92</ele>
        <time>2013-07-26T08:10:10.000Z</time>
      </trkpt>
      <trkpt lat="43.56179" lon="3.72899">
        <ele>91.7</ele>
        <time>2013-07-26T08:10:11.000Z</time>
      </trkpt>
      <trkpt lat="43.56184" lon="3.72898">
        <ele>91.3</ele>
        <time>2013-07-26T08:10:12.000Z</time>
      </trkpt>
      <trkpt lat="43.56189" lon="3.72898">
        <ele>90.4</ele>
        <time>2013-07-26T08:10:13.000Z</time>
      </trkpt>
      <trkpt lat="43.56193" lon="3.72898">
        <ele>90</ele>
        <time>2013-07-26T08:10:14.000Z</time>
      </trkpt>
      <trkpt lat="43.56198" lon="3.72897">
        <ele>90.5</ele>
        <time>2013-07-26T08:10:15.000Z</time>
      </trkpt>
      <trkpt lat="43.56202" lon="3.72897">
        <ele>89.8</ele>
        <time>2013-07-26T08:10:16.000Z</time>
      </trkpt>
      <trkpt lat="43.56205" lon="3.72898">
        <ele>90.3</ele>
        <time>2013-07-26T08:10:17.000Z</time>
      </trkpt>
      <trkpt lat="43.56208" lon="3.72901">
        <ele>90.3</ele>
        <time>2013-07-26T08:10:18.000Z</time>
      </trkpt>
      <trkpt lat="43.56212" lon="3.72903">
        <ele>89.6</ele>
        <time>2013-07-26T08:10:19.000Z</time>
      </trkpt>
      <trkpt lat="43.56216" lon="3.72905">
        <ele>88.4</ele>
        <time>2013-07-26T08:10:20.000Z</time>
      </trkpt>
      <trkpt lat="43.5622" lon="3.72906">
        <ele>87.7</ele>
        <time>2013-07-26T08:10:21.000Z</time>
      </trkpt>
      <trkpt lat="43.56224" lon="3.72906">
        <ele>85.4</ele>
        <time>2013-07-26T08:10:22.000Z</time>
      </trkpt>
      <trkpt lat="43.56228" lon="3.72907">
        <ele>86.5</ele>
        <time>2013-07-26T08:10:23.000Z</time>
      </trkpt>
      <trkpt lat="43.56232" lon="3.72907">
        <ele>87.6</ele>
        <time>2013-07-26T08:10:24.000Z</time>
      </trkpt>
      <trkpt lat="43.56236" lon="3.72908">
        <ele>89.6</ele>
        <time>2013-07-26T08:10:25.000Z</time>
      </trkpt>
      <trkpt lat="43.5624" lon="3.72909">
        <ele>89.1</ele>
        <time>2013-07-26T08:10:26.000Z</time>
      </trkpt>
      <trkpt lat="43.56244" lon="3.7291">
        <ele>89.5</ele>
        <time>2013-07-26T08:10:27.000Z</time>
      </trkpt>
      <trkpt lat="43.56247" lon="3.72911">
        <ele>88.7</ele>
        <time>2013-07-26T08:10:28.000Z</time>
      </trkpt>
      <trkpt lat="43.56252" lon="3.72912">
        <ele>90</ele>
        <time>2013-07-26T08:10:29.000Z</time>
      </trkpt>
      <trkpt lat="43.56256" lon="3.72914">
        <ele>92.7</ele>
        <time>2013-07-26T08:10:30.000Z</time>
      </trkpt>
      <trkpt lat="43.56261" lon="3.72917">
        <ele>96</ele>
        <time>2013-07-26T08:10:31.000Z</time>
      </trkpt>
      <trkpt lat="43.56265" lon="3.72919">
        <ele>97.6</ele>
        <time>2013-07-26T08:10:32.000Z</time>
      </trkpt>
      <trkpt lat="43.5627" lon="3.72921">
        <ele>98.5</ele>
        <time>2013-07-26T08:10:33.000Z</time>
      </trkpt>
      <trkpt lat="43.56272" lon="3.72924">
        <ele>100.8</ele>
        <time>2013-07-26T08:10:34.000Z</time>
      </trkpt>
      <trkpt lat="43.56276" lon="3.72927">
        <ele>100.7</ele>
        <time>2013-07-26T08:10:35.000Z</time>
      </trkpt>
      <trkpt lat="43.5628" lon="3.7293">
        <ele>100.2</ele>
        <time>2013-07-26T08:10:36.000Z</time>
      </trkpt>
      <trkpt lat="43.56284" lon="3.72932">
        <ele>100.1</ele>
        <time>2013-07-26T08:10:37.000Z</time>
      </trkpt>
      <trkpt lat="43.56287" lon="3.72933">
        <ele>100.6</ele>
        <time>2013-07-26T08:10:38.000Z</time>
      </trkpt>
      <trkpt lat="43.5629" lon="3.72935">
        <ele>98.2</ele>
        <time>2013-07-26T08:10:39.000Z</time>
      </trkpt>
      <trkpt lat="43.56292" lon="3.72938">
        <ele>96.7</ele>
        <time>2013-07-26T08:10:40.000Z</time>
      </trkpt>
      <trkpt lat="43.56296" lon="3.72939">
        <ele>96.9</ele>
        <time>2013-07-26T08:10:41.000Z</time>
      </trkpt>
      <trkpt lat="43.56299" lon="3.72941">
        <ele>96.7</ele>
        <time>2013-07-26T08:10:42.000Z</time>
      </trkpt>
      <trkpt lat="43.56303" lon="3.72943">
        <ele>92.9</ele>
        <time>2013-07-26T08:10:43.000Z</time>
      </trkpt>
      <trkpt lat="43.56306" lon="3.72945">
        <ele>92.1</ele>
        <time>2013-07-26T08:10:44.000Z</time>
      </trkpt>
      <trkpt lat="43.56309" lon="3.72946">
        <ele>91.8</ele>
        <time>2013-07-26T08:10:45.000Z</time>
      </trkpt>
      <trkpt lat="43.56313" lon="3.72947">
        <ele>92.5</ele>
        <time>2013-07-26T08:10:46.000Z</time>
      </trkpt>
      <trkpt lat="43.56317" lon="3.72949">
        <ele>90.4</ele>
        <time>2013-07-26T08:10:47.000Z</time>
      </trkpt>
      <trkpt lat="43.5632" lon="3.7295">
        <ele>89.2</ele>
        <time>2013-07-26T08:10:48.000Z</time>
      </trkpt>
      <trkpt lat="43.56323" lon="3.72951">
        <ele>91.4</ele>
        <time>2013-07-26T08:10:49.000Z</time>
      </trkpt>
      <trkpt lat="43.56325" lon="3.72953">
        <ele>90.8</ele>
        <time>2013-07-26T08:10:50.000Z</time>
      </trkpt>
      <trkpt lat="43.56328" lon="3.72955">
        <ele>91.4</ele>
        <time>2013-07-26T08:10:51.000Z</time>
      </trkpt>
      <trkpt lat="43.56331" lon="3.72957">
        <ele>90.6</ele>
        <time>2013-07-26T08:10:52.000Z</time>
      </trkpt>
      <trkpt lat="43.56334" lon="3.72959">
        <ele>91.5</ele>
        <time>2013-07-26T08:10:53.000Z</time>
      </trkpt>
      <trkpt lat="43.56338" lon="3.72962">
        <ele>92.7</ele>
        <time>2013-07-26T08:10:54.000Z</time>
      </trkpt>
      <trkpt lat="43.56341" lon="3.72963">
        <ele>94.6</ele>
        <time>2013-07-26T08:10:55.000Z</time>
      </trkpt>
      <trkpt lat="43.56345" lon="3.72965">
        <ele>93.8</ele>
        <time>2013-07-26T08:10:56.000Z</time>
      </trkpt>
      <trkpt lat="43.56349" lon="3.72967">
        <ele>93.3</ele>
        <time>2013-07-26T08:10:57.000Z</time>
      </trkpt>
      <trkpt lat="43.56352" lon="3.7297">
        <ele>94.4</ele>
        <time>2013-07-26T08:10:58.000Z</time>
      </trkpt>
      <trkpt lat="43.56356" lon="3.72971">
        <ele>95.8</ele>
        <time>2013-07-26T08:10:59.000Z</time>
      </trkpt>
      <trkpt lat="43.5636" lon="3.72973">
        <ele>96.7</ele>
        <time>2013-07-26T08:11:00.000Z</time>
      </trkpt>
      <trkpt lat="43.56364" lon="3.72974">
        <ele>98</ele>
        <time>2013-07-26T08:11:01.000Z</time>
      </trkpt>
      <trkpt lat="43.56367" lon="3.72973">
        <ele>98.2</ele>
        <time>2013-07-26T08:11:02.000Z</time>
      </trkpt>
      <trkpt lat="43.56371" lon="3.72973">
        <ele>98.4</ele>
        <time>2013-07-26T08:11:03.000Z</time>
      </trkpt>
      <trkpt lat="43.56374" lon="3.72972">
        <ele>98.6</ele>
        <time>2013-07-26T08:11:04.000Z</time>
      </trkpt>
      <trkpt lat="43.56378" lon="3.72972">
        <ele>98.5</ele>
        <time>2013-07-26T08:11:05.000Z</time>
      </trkpt>
      <trkpt lat="43.56381" lon="3.72973">
        <ele>98.8</ele>
        <time>2013-07-26T08:11:06.000Z</time>
      </trkpt>
      <trkpt lat="43.56385" lon="3.72974">
        <ele>99.6</ele>
        <time>2013-07-26T08:11:07.000Z</time>
      </trkpt>
      <trkpt lat="43.56388" lon="3.72977">
        <ele>101</ele>
        <time>2013-07-26T08:11:08.000Z</time>
      </trkpt>
      <trkpt lat="43.56392" lon="3.7298">
        <ele>100.6</ele>
        <time>2013-07-26T08:11:09.000Z</time>
      </trkpt>
      <trkpt lat="43.56395" lon="3.72983">
        <ele>100.9</ele>
        <time>2013-07-26T08:11:10.000Z</time>
      </trkpt>
      <trkpt lat="43.56399" lon="3.72986">
        <ele>101.4</ele>
        <time>2013-07-26T08:11:11.000Z</time>
      </trkpt>
      <trkpt lat="43.56403" lon="3.72988">
        <ele>101.3</ele>
        <time>2013-07-26T08:11:12.000Z</time>
      </trkpt>
      <trkpt lat="43.56406" lon="3.7299">
        <ele>99.2</ele>
        <time>2013-07-26T08:11:13.000Z</time>
      </trkpt>
      <trkpt lat="43.56409" lon="3.72993">
        <ele>99.4</ele>
        <time>2013-07-26T08:11:14.000Z</time>
      </trkpt>
      <trkpt lat="43.56413" lon="3.72995">
        <ele>99.4</ele>
        <time>2013-07-26T08:11:15.000Z</time>
      </trkpt>
      <trkpt lat="43.56416" lon="3.72998">
        <ele>98.5</ele>
        <time>2013-07-26T08:11:16.000Z</time>
      </trkpt>
      <trkpt lat="43.5642" lon="3.73">
        <ele>99.7</ele>
        <time>2013-07-26T08:11:17.000Z</time>
      </trkpt>
      <trkpt lat="43.56423" lon="3.73002">
        <ele>98.5</ele>
        <time>2013-07-26T08:11:18.000Z</time>
      </trkpt>
      <trkpt lat="43.56426" lon="3.73005">
        <ele>98.2</ele>
        <time>2013-07-26T08:11:19.000Z</time>
      </trkpt>
      <trkpt lat="43.56429" lon="3.73008">
        <ele>98.4</ele>
        <time>2013-07-26T08:11:20.000Z</time>
      </trkpt>
      <trkpt lat="43.56433" lon="3.73011">
        <ele>98.9</ele>
        <time>2013-07-26T08:11:21.000Z</time>
      </trkpt>
      <trkpt lat="43.56437" lon="3.73015">
        <ele>99.7</ele>
        <time>2013-07-26T08:11:22.000Z</time>
      </trkpt>
      <trkpt lat="43.56441" lon="3.73018">
        <ele>99.4</ele>
        <time>2013-07-26T08:11:23.000Z</time>
      </trkpt>
      <trkpt lat="43.56444" lon="3.73021">
        <ele>98.9</ele>
        <time>2013-07-26T08:11:24.000Z</time>
      </trkpt>
      <trkpt lat="43.56447" lon="3.73026">
        <ele>97.7</ele>
        <time>2013-07-26T08:11:25.000Z</time>
      </trkpt>
      <trkpt lat="43.56452" lon="3.7303">
        <ele>97.6</ele>
        <time>2013-07-26T08:11:26.000Z</time>
      </trkpt>
      <trkpt lat="43.56457" lon="3.73033">
        <ele>97.6</ele>
        <time>2013-07-26T08:11:27.000Z</time>
      </trkpt>
      <trkpt lat="43.56462" lon="3.73039">
        <ele>97.5</ele>
        <time>2013-07-26T08:11:28.000Z</time>
      </trkpt>
      <trkpt lat="43.56468" lon="3.73043">
        <ele>97.1</ele>
        <time>2013-07-26T08:11:29.000Z</time>
      </trkpt>
      <trkpt lat="43.56473" lon="3.73047">
        <ele>97</ele>
        <time>2013-07-26T08:11:30.000Z</time>
      </trkpt>
      <trkpt lat="43.56477" lon="3.7305">
        <ele>97.1</ele>
        <time>2013-07-26T08:11:31.000Z</time>
      </trkpt>
      <trkpt lat="43.56483" lon="3.73056">
        <ele>97.1</ele>
        <time>2013-07-26T08:11:32.000Z</time>
      </trkpt>
      <trkpt lat="43.56486" lon="3.7306">
        <ele>95.5</ele>
        <time>2013-07-26T08:11:33.000Z</time>
      </trkpt>
      <trkpt lat="43.5649" lon="3.73064">
        <ele>93.8</ele>
        <time>2013-07-26T08:11:34.000Z</time>
      </trkpt>
      <trkpt lat="43.56494" lon="3.73069">
        <ele>94.3</ele>
        <time>2013-07-26T08:11:35.000Z</time>
      </trkpt>
      <trkpt lat="43.56498" lon="3.73075">
        <ele>95</ele>
        <time>2013-07-26T08:11:36.000Z</time>
      </trkpt>
      <trkpt lat="43.56502" lon="3.7308">
        <ele>94.5</ele>
        <time>2013-07-26T08:11:37.000Z</time>
      </trkpt>
      <trkpt lat="43.56506" lon="3.73086">
        <ele>93.9</ele>
        <time>2013-07-26T08:11:38.000Z</time>
      </trkpt>
      <trkpt lat="43.56511" lon="3.73092">
        <ele>92.8</ele>
        <time>2013-07-26T08:11:39.000Z</time>
      </trkpt>
      <trkpt lat="43.56515" lon="3.73097">
        <ele>94.2</ele>
        <time>2013-07-26T08:11:40.000Z</time>
      </trkpt>
      <trkpt lat="43.5652" lon="3.73103">
        <ele>93.8</ele>
        <time>2013-07-26T08:11:41.000Z</time>
      </trkpt>
      <trkpt lat="43.56524" lon="3.7311">
        <ele>93.3</ele>
        <time>2013-07-26T08:11:42.000Z</time>
      </trkpt>
      <trkpt lat="43.56529" lon="3.73116">
        <ele>93.6</ele>
        <time>2013-07-26T08:11:43.000Z</time>
      </trkpt>
      <trkpt lat="43.56533" lon="3.7312">
        <ele>93.6</ele>
        <time>2013-07-26T08:11:44.000Z</time>
      </trkpt>
      <trkpt lat="43.56537" lon="3.73127">
        <ele>93.8</ele>
        <time>2013-07-26T08:11:45.000Z</time>
      </trkpt>
      <trkpt lat="43.56541" lon="3.73134">
        <ele>95</ele>
        <time>2013-07-26T08:11:46.000Z</time>
      </trkpt>
      <trkpt lat="43.56546" lon="3.73139">
        <ele>95.2</ele>
        <time>2013-07-26T08:11:47.000Z</time>
      </trkpt>
      <trkpt lat="43.56549" lon="3.73144">
        <ele>96</ele>
        <time>2013-07-26T08:11:48.000Z</time>
      </trkpt>
      <trkpt lat="43.56553" lon="3.7315">
        <ele>95.5</ele>
        <time>2013-07-26T08:11:49.000Z</time>
      </trkpt>
      <trkpt lat="43.56559" lon="3.73156">
        <ele>95.9</ele>
        <time>2013-07-26T08:11:50.000Z</time>
      </trkpt>
      <trkpt lat="43.56563" lon="3.73162">
        <ele>97.3</ele>
        <time>2013-07-26T08:11:51.000Z</time>
      </trkpt>
      <trkpt lat="43.56567" lon="3.73167">
        <ele>97.8</ele>
        <time>2013-07-26T08:11:52.000Z</time>
      </trkpt>
      <trkpt lat="43.56571" lon="3.73172">
        <ele>96.7</ele>
        <time>2013-07-26T08:11:53.000Z</time>
      </trkpt>
      <trkpt lat="43.56574" lon="3.73178">
        <ele>96.4</ele>
        <time>2013-07-26T08:11:54.000Z</time>
      </trkpt>
      <trkpt lat="43.56577" lon="3.73182">
        <ele>97.4</ele>
        <time>2013-07-26T08:11:55.000Z</time>
      </trkpt>
      <trkpt lat="43.56579" lon="3.73187">
        <ele>97</ele>
        <time>2013-07-26T08:11:56.000Z</time>
      </trkpt>
      <trkpt lat="43.56588" lon="3.73198">
        <ele>96</ele>
        <time>2013-07-26T08:11:58.000Z</time>
      </trkpt>
      <trkpt lat="43.56591" lon="3.73203">
        <ele>95.6</ele>
        <time>2013-07-26T08:11:59.000Z</time>
      </trkpt>
      <trkpt lat="43.56595" lon="3.73207">
        <ele>97.6</ele>
        <time>2013-07-26T08:12:00.000Z</time>
      </trkpt>
      <trkpt lat="43.56599" lon="3.73213">
        <ele>98</ele>
        <time>2013-07-26T08:12:01.000Z</time>
      </trkpt>
      <trkpt lat="43.56604" lon="3.73217">
        <ele>99.2</ele>
        <time>2013-07-26T08:12:02.000Z</time>
      </trkpt>
      <trkpt lat="43.56608" lon="3.73222">
        <ele>98.6</ele>
        <time>2013-07-26T08:12:03.000Z</time>
      </trkpt>
      <trkpt lat="43.56611" lon="3.73226">
        <ele>97.4</ele>
        <time>2013-07-26T08:12:04.000Z</time>
      </trkpt>
      <trkpt lat="43.56616" lon="3.73232">
        <ele>98.2</ele>
        <time>2013-07-26T08:12:05.000Z</time>
      </trkpt>
      <trkpt lat="43.56621" lon="3.73238">
        <ele>98.8</ele>
        <time>2013-07-26T08:12:06.000Z</time>
      </trkpt>
      <trkpt lat="43.56624" lon="3.73241">
        <ele>99.9</ele>
        <time>2013-07-26T08:12:07.000Z</time>
      </trkpt>
      <trkpt lat="43.56628" lon="3.73245">
        <ele>100.7</ele>
        <time>2013-07-26T08:12:08.000Z</time>
      </trkpt>
      <trkpt lat="43.56633" lon="3.73249">
        <ele>101.4</ele>
        <time>2013-07-26T08:12:09.000Z</time>
      </trkpt>
      <trkpt lat="43.56636" lon="3.73254">
        <ele>100.5</ele>
        <time>2013-07-26T08:12:10.000Z</time>
      </trkpt>
      <trkpt lat="43.5664" lon="3.73258">
        <ele>100.2</ele>
        <time>2013-07-26T08:12:11.000Z</time>
      </trkpt>
      <trkpt lat="43.56643" lon="3.73262">
        <ele>101.3</ele>
        <time>2013-07-26T08:12:12.000Z</time>
      </trkpt>
      <trkpt lat="43.56645" lon="3.73265">
        <ele>101.9</ele>
        <time>2013-07-26T08:12:13.000Z</time>
      </trkpt>
      <trkpt lat="43.56649" lon="3.7327">
        <ele>102.7</ele>
        <time>2013-07-26T08:12:14.000Z</time>
      </trkpt>
      <trkpt lat="43.56653" lon="3.73276">
        <ele>102</ele>
        <time>2013-07-26T08:12:15.000Z</time>
      </trkpt>
      <trkpt lat="43.56657" lon="3.7328">
        <ele>101.1</ele>
        <time>2013-07-26T08:12:16.000Z</time>
      </trkpt>
      <trkpt lat="43.5666" lon="3.73284">
        <ele>101.4</ele>
        <time>2013-07-26T08:12:17.000Z</time>
      </trkpt>
      <trkpt lat="43.56662" lon="3.73287">
        <ele>101.9</ele>
        <time>2013-07-26T08:12:18.000Z</time>
      </trkpt>
      <trkpt lat="43.56666" lon="3.73291">
        <ele>101.6</ele>
        <time>2013-07-26T08:12:19.000Z</time>
      </trkpt>
      <trkpt lat="43.5667" lon="3.73294">
        <ele>101.4</ele>
        <time>2013-07-26T08:12:20.000Z</time>
      </trkpt>
      <trkpt lat="43.56672" lon="3.73298">
        <ele>99.9</ele>
        <time>2013-07-26T08:12:21.000Z</time>
      </trkpt>
      <trkpt lat="43.56675" lon="3.73302">
        <ele>98.9</ele>
        <time>2013-07-26T08:12:22.000Z</time>
      </trkpt>
      <trkpt lat="43.56679" lon="3.73305">
        <ele>99.4</ele>
        <time>2013-07-26T08:12:23.000Z</time>
      </trkpt>
      <trkpt lat="43.56682" lon="3.73309">
        <ele>99.4</ele>
        <time>2013-07-26T08:12:24.000Z</time>
      </trkpt>
      <trkpt lat="43.56685" lon="3.73313">
        <ele>99.1</ele>
        <time>2013-07-26T08:12:25.000Z</time>
      </trkpt>
      <trkpt lat="43.56688" lon="3.73316">
        <ele>99.1</ele>
        <time>2013-07-26T08:12:26.000Z</time>
      </trkpt>
      <trkpt lat="43.56691" lon="3.7332">
        <ele>99</ele>
        <time>2013-07-26T08:12:27.000Z</time>
      </trkpt>
      <trkpt lat="43.56694" lon="3.73324">
        <ele>98.5</ele>
        <time>2013-07-26T08:12:28.000Z</time>
      </trkpt>
      <trkpt lat="43.56697" lon="3.73329">
        <ele>99.6</ele>
        <time>2013-07-26T08:12:29.000Z</time>
      </trkpt>
      <trkpt lat="43.56701" lon="3.73334">
        <ele>100.2</ele>
        <time>2013-07-26T08:12:30.000Z</time>
      </trkpt>
      <trkpt lat="43.56705" lon="3.73339">
        <ele>100.1</ele>
        <time>2013-07-26T08:12:31.000Z</time>
      </trkpt>
      <trkpt lat="43.56708" lon="3.73342">
        <ele>99.6</ele>
        <time>2013-07-26T08:12:32.000Z</time>
      </trkpt>
      <trkpt lat="43.56711" lon="3.73346">
        <ele>99.9</ele>
        <time>2013-07-26T08:12:33.000Z</time>
      </trkpt>
      <trkpt lat="43.56713" lon="3.7335">
        <ele>99.1</ele>
        <time>2013-07-26T08:12:34.000Z</time>
      </trkpt>
      <trkpt lat="43.56716" lon="3.73355">
        <ele>99.7</ele>
        <time>2013-07-26T08:12:35.000Z</time>
      </trkpt>
      <trkpt lat="43.56721" lon="3.7336">
        <ele>99.8</ele>
        <time>2013-07-26T08:12:36.000Z</time>
      </trkpt>
      <trkpt lat="43.56725" lon="3.73365">
        <ele>99.7</ele>
        <time>2013-07-26T08:12:37.000Z</time>
      </trkpt>
      <trkpt lat="43.5673" lon="3.73369">
        <ele>99.6</ele>
        <time>2013-07-26T08:12:38.000Z</time>
      </trkpt>
      <trkpt lat="43.56734" lon="3.73375">
        <ele>100.8</ele>
        <time>2013-07-26T08:12:39.000Z</time>
      </trkpt>
      <trkpt lat="43.56738" lon="3.73379">
        <ele>101.9</ele>
        <time>2013-07-26T08:12:40.000Z</time>
      </trkpt>
      <trkpt lat="43.56741" lon="3.73385">
        <ele>101.5</ele>
        <time>2013-07-26T08:12:41.000Z</time>
      </trkpt>
      <trkpt lat="43.56745" lon="3.7339">
        <ele>100.9</ele>
        <time>2013-07-26T08:12:42.000Z</time>
      </trkpt>
      <trkpt lat="43.5675" lon="3.73396">
        <ele>99.7</ele>
        <time>2013-07-26T08:12:43.000Z</time>
      </trkpt>
      <trkpt lat="43.56754" lon="3.73401">
        <ele>99.7</ele>
        <time>2013-07-26T08:12:44.000Z</time>
      </trkpt>
      <trkpt lat="43.56758" lon="3.73407">
        <ele>99.3</ele>
        <time>2013-07-26T08:12:45.000Z</time>
      </trkpt>
      <trkpt lat="43.56763" lon="3.73413">
        <ele>99.6</ele>
        <time>2013-07-26T08:12:46.000Z</time>
      </trkpt>
      <trkpt lat="43.56767" lon="3.73418">
        <ele>100.2</ele>
        <time>2013-07-26T08:12:47.000Z</time>
      </trkpt>
      <trkpt lat="43.56772" lon="3.73423">
        <ele>100.3</ele>
        <time>2013-07-26T08:12:48.000Z</time>
      </trkpt>
      <trkpt lat="43.56776" lon="3.73431">
        <ele>100.2</ele>
        <time>2013-07-26T08:12:49.000Z</time>
      </trkpt>
      <trkpt lat="43.56782" lon="3.73437">
        <ele>102.2</ele>
        <time>2013-07-26T08:12:50.000Z</time>
      </trkpt>
      <trkpt lat="43.56787" lon="3.73443">
        <ele>103</ele>
        <time>2013-07-26T08:12:51.000Z</time>
      </trkpt>
      <trkpt lat="43.56791" lon="3.7345">
        <ele>101.6</ele>
        <time>2013-07-26T08:12:52.000Z</time>
      </trkpt>
      <trkpt lat="43.56795" lon="3.73457">
        <ele>101.9</ele>
        <time>2013-07-26T08:12:53.000Z</time>
      </trkpt>
      <trkpt lat="43.568" lon="3.73463">
        <ele>101.4</ele>
        <time>2013-07-26T08:12:54.000Z</time>
      </trkpt>
      <trkpt lat="43.56804" lon="3.73469">
        <ele>100.2</ele>
        <time>2013-07-26T08:12:55.000Z</time>
      </trkpt>
      <trkpt lat="43.56808" lon="3.73475">
        <ele>100.1</ele>
        <time>2013-07-26T08:12:56.000Z</time>
      </trkpt>
      <trkpt lat="43.56813" lon="3.73481">
        <ele>99.1</ele>
        <time>2013-07-26T08:12:57.000Z</time>
      </trkpt>
      <trkpt lat="43.56818" lon="3.73488">
        <ele>98.5</ele>
        <time>2013-07-26T08:12:58.185Z</time>
      </trkpt>
      <trkpt lat="43.56821" lon="3.73493">
        <ele>98.7</ele>
        <time>2013-07-26T08:12:59.000Z</time>
      </trkpt>
      <trkpt lat="43.56824" lon="3.73499">
        <ele>98.9</ele>
        <time>2013-07-26T08:13:00.000Z</time>
      </trkpt>
      <trkpt lat="43.56828" lon="3.73505">
        <ele>99.2</ele>
        <time>2013-07-26T08:13:01.000Z</time>
      </trkpt>
      <trkpt lat="43.56831" lon="3.73513">
        <ele>99.6</ele>
        <time>2013-07-26T08:13:02.000Z</time>
      </trkpt>
      <trkpt lat="43.56836" lon="3.73518">
        <ele>98</ele>
        <time>2013-07-26T08:13:03.000Z</time>
      </trkpt>
      <trkpt lat="43.5684" lon="3.73524">
        <ele>97.8</ele>
        <time>2013-07-26T08:13:04.000Z</time>
      </trkpt>
      <trkpt lat="43.56844" lon="3.7353">
        <ele>97.1</ele>
        <time>2013-07-26T08:13:05.000Z</time>
      </trkpt>
      <trkpt lat="43.56848" lon="3.73538">
        <ele>97.6</ele>
        <time>2013-07-26T08:13:06.000Z</time>
      </trkpt>
      <trkpt lat="43.56853" lon="3.73545">
        <ele>98</ele>
        <time>2013-07-26T08:13:07.000Z</time>
      </trkpt>
      <trkpt lat="43.56858" lon="3.7355">
        <ele>98.8</ele>
        <time>2013-07-26T08:13:08.000Z</time>
      </trkpt>
      <trkpt lat="43.56862" lon="3.73557">
        <ele>98.9</ele>
        <time>2013-07-26T08:13:09.000Z</time>
      </trkpt>
      <trkpt lat="43.56866" lon="3.73563">
        <ele>98.9</ele>
        <time>2013-07-26T08:13:10.000Z</time>
      </trkpt>
      <trkpt lat="43.5687" lon="3.73568">
        <ele>97.8</ele>
        <time>2013-07-26T08:13:11.000Z</time>
      </trkpt>
      <trkpt lat="43.56874" lon="3.73573">
        <ele>96.8</ele>
        <time>2013-07-26T08:13:12.000Z</time>
      </trkpt>
      <trkpt lat="43.56877" lon="3.73579">
        <ele>95.6</ele>
        <time>2013-07-26T08:13:13.000Z</time>
      </trkpt>
      <trkpt lat="43.56882" lon="3.73584">
        <ele>95.2</ele>
        <time>2013-07-26T08:13:14.000Z</time>
      </trkpt>
      <trkpt lat="43.56886" lon="3.7359">
        <ele>96.4</ele>
        <time>2013-07-26T08:13:15.000Z</time>
      </trkpt>
      <trkpt lat="43.5689" lon="3.73595">
        <ele>97</ele>
        <time>2013-07-26T08:13:16.000Z</time>
      </trkpt>
      <trkpt lat="43.56893" lon="3.736">
        <ele>96</ele>
        <time>2013-07-26T08:13:17.000Z</time>
      </trkpt>
      <trkpt lat="43.56897" lon="3.73607">
        <ele>95.7</ele>
        <time>2013-07-26T08:13:18.000Z</time>
      </trkpt>
      <trkpt lat="43.56901" lon="3.73612">
        <ele>95.4</ele>
        <time>2013-07-26T08:13:19.000Z</time>
      </trkpt>
      <trkpt lat="43.56904" lon="3.73617">
        <ele>96.2</ele>
        <time>2013-07-26T08:13:20.000Z</time>
      </trkpt>
      <trkpt lat="43.56908" lon="3.73622">
        <ele>97</ele>
        <time>2013-07-26T08:13:21.000Z</time>
      </trkpt>
      <trkpt lat="43.56912" lon="3.73627">
        <ele>96.4</ele>
        <time>2013-07-26T08:13:22.000Z</time>
      </trkpt>
      <trkpt lat="43.56915" lon="3.73633">
        <ele>93.8</ele>
        <time>2013-07-26T08:13:23.000Z</time>
      </trkpt>
      <trkpt lat="43.56919" lon="3.73638">
        <ele>94.3</ele>
        <time>2013-07-26T08:13:24.000Z</time>
      </trkpt>
      <trkpt lat="43.56922" lon="3.73645">
        <ele>94.1</ele>
        <time>2013-07-26T08:13:25.000Z</time>
      </trkpt>
      <trkpt lat="43.56926" lon="3.7365">
        <ele>95.2</ele>
        <time>2013-07-26T08:13:26.000Z</time>
      </trkpt>
      <trkpt lat="43.56929" lon="3.73656">
        <ele>94.7</ele>
        <time>2013-07-26T08:13:27.000Z</time>
      </trkpt>
      <trkpt lat="43.56933" lon="3.73661">
        <ele>94.2</ele>
        <time>2013-07-26T08:13:28.000Z</time>
      </trkpt>
      <trkpt lat="43.56937" lon="3.73667">
        <ele>94.3</ele>
        <time>2013-07-26T08:13:29.000Z</time>
      </trkpt>
      <trkpt lat="43.5694" lon="3.73673">
        <ele>95</ele>
        <time>2013-07-26T08:13:30.000Z</time>
      </trkpt>
      <trkpt lat="43.56944" lon="3.73679">
        <ele>96.6</ele>
        <time>2013-07-26T08:13:31.000Z</time>
      </trkpt>
      <trkpt lat="43.56947" lon="3.73684">
        <ele>96</ele>
        <time>2013-07-26T08:13:32.000Z</time>
      </trkpt>
      <trkpt lat="43.5695" lon="3.7369">
        <ele>94.9</ele>
        <time>2013-07-26T08:13:33.000Z</time>
      </trkpt>
      <trkpt lat="43.56954" lon="3.73697">
        <ele>94.3</ele>
        <time>2013-07-26T08:13:34.000Z</time>
      </trkpt>
      <trkpt lat="43.56958" lon="3.73704">
        <ele>94.2</ele>
        <time>2013-07-26T08:13:35.000Z</time>
      </trkpt>
      <trkpt lat="43.56961" lon="3.7371">
        <ele>94.4</ele>
        <time>2013-07-26T08:13:36.000Z</time>
      </trkpt>
      <trkpt lat="43.56965" lon="3.73716">
        <ele>94.4</ele>
        <time>2013-07-26T08:13:37.000Z</time>
      </trkpt>
      <trkpt lat="43.56968" lon="3.73721">
        <ele>94.1</ele>
        <time>2013-07-26T08:13:38.000Z</time>
      </trkpt>
      <trkpt lat="43.56972" lon="3.73728">
        <ele>95</ele>
        <time>2013-07-26T08:13:39.000Z</time>
      </trkpt>
      <trkpt lat="43.56977" lon="3.73733">
        <ele>95.6</ele>
        <time>2013-07-26T08:13:40.000Z</time>
      </trkpt>
      <trkpt lat="43.56981" lon="3.73738">
        <ele>96.1</ele>
        <time>2013-07-26T08:13:41.000Z</time>
      </trkpt>
      <trkpt lat="43.56984" lon="3.73743">
        <ele>96.2</ele>
        <time>2013-07-26T08:13:42.000Z</time>
      </trkpt>
      <trkpt lat="43.56986" lon="3.73748">
        <ele>95.8</ele>
        <time>2013-07-26T08:13:43.000Z</time>
      </trkpt>
      <trkpt lat="43.5699" lon="3.73754">
        <ele>95.9</ele>
        <time>2013-07-26T08:13:44.000Z</time>
      </trkpt>
      <trkpt lat="43.56994" lon="3.73759">
        <ele>96.6</ele>
        <time>2013-07-26T08:13:45.000Z</time>
      </trkpt>
      <trkpt lat="43.56997" lon="3.73763">
        <ele>96.2</ele>
        <time>2013-07-26T08:13:46.000Z</time>
      </trkpt>
      <trkpt lat="43.57" lon="3.73767">
        <ele>96.5</ele>
        <time>2013-07-26T08:13:47.000Z</time>
      </trkpt>
      <trkpt lat="43.57003" lon="3.73772">
        <ele>96.3</ele>
        <time>2013-07-26T08:13:48.000Z</time>
      </trkpt>
      <trkpt lat="43.57007" lon="3.73777">
        <ele>96.8</ele>
        <time>2013-07-26T08:13:49.000Z</time>
      </trkpt>
      <trkpt lat="43.5701" lon="3.73783">
        <ele>97.4</ele>
        <time>2013-07-26T08:13:50.000Z</time>
      </trkpt>
      <trkpt lat="43.57013" lon="3.73788">
        <ele>98.1</ele>
        <time>2013-07-26T08:13:51.000Z</time>
      </trkpt>
      <trkpt lat="43.57016" lon="3.73793">
        <ele>97.8</ele>
        <time>2013-07-26T08:13:52.000Z</time>
      </trkpt>
      <trkpt lat="43.57018" lon="3.73798">
        <ele>97.7</ele>
        <time>2013-07-26T08:13:53.000Z</time>
      </trkpt>
      <trkpt lat="43.57022" lon="3.73801">
        <ele>100.7</ele>
        <time>2013-07-26T08:13:54.000Z</time>
      </trkpt>
      <trkpt lat="43.57025" lon="3.73805">
        <ele>101.8</ele>
        <time>2013-07-26T08:13:55.000Z</time>
      </trkpt>
      <trkpt lat="43.57029" lon="3.7381">
        <ele>101.4</ele>
        <time>2013-07-26T08:13:56.000Z</time>
      </trkpt>
      <trkpt lat="43.57032" lon="3.73815">
        <ele>100.4</ele>
        <time>2013-07-26T08:13:57.000Z</time>
      </trkpt>
      <trkpt lat="43.57037" lon="3.73822">
        <ele>100.9</ele>
        <time>2013-07-26T08:13:58.301Z</time>
      </trkpt>
      <trkpt lat="43.57046" lon="3.7383">
        <ele>101</ele>
        <time>2013-07-26T08:14:00.000Z</time>
      </trkpt>
      <trkpt lat="43.57049" lon="3.73836">
        <ele>100.7</ele>
        <time>2013-07-26T08:14:01.000Z</time>
      </trkpt>
      <trkpt lat="43.57052" lon="3.73841">
        <ele>100.9</ele>
        <time>2013-07-26T08:14:02.000Z</time>
      </trkpt>
      <trkpt lat="43.57055" lon="3.73846">
        <ele>101.6</ele>
        <time>2013-07-26T08:14:03.000Z</time>
      </trkpt>
      <trkpt lat="43.5706" lon="3.73853">
        <ele>101.8</ele>
        <time>2013-07-26T08:14:04.000Z</time>
      </trkpt>
      <trkpt lat="43.57064" lon="3.73858">
        <ele>102.5</ele>
        <time>2013-07-26T08:14:05.000Z</time>
      </trkpt>
      <trkpt lat="43.57066" lon="3.73863">
        <ele>102.7</ele>
        <time>2013-07-26T08:14:06.000Z</time>
      </trkpt>
      <trkpt lat="43.5707" lon="3.73868">
        <ele>101</ele>
        <time>2013-07-26T08:14:07.000Z</time>
      </trkpt>
      <trkpt lat="43.57074" lon="3.73872">
        <ele>99.7</ele>
        <time>2013-07-26T08:14:08.000Z</time>
      </trkpt>
      <trkpt lat="43.57078" lon="3.73877">
        <ele>99.4</ele>
        <time>2013-07-26T08:14:09.000Z</time>
      </trkpt>
      <trkpt lat="43.57082" lon="3.73882">
        <ele>99.2</ele>
        <time>2013-07-26T08:14:10.000Z</time>
      </trkpt>
      <trkpt lat="43.57085" lon="3.73886">
        <ele>96.9</ele>
        <time>2013-07-26T08:14:11.000Z</time>
      </trkpt>
      <trkpt lat="43.57089" lon="3.73892">
        <ele>95.5</ele>
        <time>2013-07-26T08:14:12.000Z</time>
      </trkpt>
      <trkpt lat="43.57093" lon="3.73897">
        <ele>94.7</ele>
        <time>2013-07-26T08:14:13.000Z</time>
      </trkpt>
      <trkpt lat="43.57097" lon="3.73902">
        <ele>95.3</ele>
        <time>2013-07-26T08:14:14.000Z</time>
      </trkpt>
      <trkpt lat="43.57101" lon="3.73906">
        <ele>95.2</ele>
        <time>2013-07-26T08:14:15.000Z</time>
      </trkpt>
      <trkpt lat="43.57105" lon="3.73911">
        <ele>95.4</ele>
        <time>2013-07-26T08:14:16.000Z</time>
      </trkpt>
      <trkpt lat="43.57108" lon="3.73916">
        <ele>95.9</ele>
        <time>2013-07-26T08:14:17.000Z</time>
      </trkpt>
      <trkpt lat="43.57112" lon="3.73922">
        <ele>95.8</ele>
        <time>2013-07-26T08:14:18.000Z</time>
      </trkpt>
      <trkpt lat="43.57116" lon="3.73928">
        <ele>95.6</ele>
        <time>2013-07-26T08:14:19.000Z</time>
      </trkpt>
      <trkpt lat="43.57121" lon="3.73932">
        <ele>96.4</ele>
        <time>2013-07-26T08:14:20.000Z</time>
      </trkpt>
      <trkpt lat="43.57125" lon="3.73938">
        <ele>96.9</ele>
        <time>2013-07-26T08:14:21.000Z</time>
      </trkpt>
      <trkpt lat="43.57129" lon="3.73944">
        <ele>97.4</ele>
        <time>2013-07-26T08:14:22.000Z</time>
      </trkpt>
      <trkpt lat="43.57134" lon="3.73949">
        <ele>97</ele>
        <time>2013-07-26T08:14:23.000Z</time>
      </trkpt>
      <trkpt lat="43.57138" lon="3.73952">
        <ele>97.5</ele>
        <time>2013-07-26T08:14:24.000Z</time>
      </trkpt>
      <trkpt lat="43.57143" lon="3.73957">
        <ele>97.8</ele>
        <time>2013-07-26T08:14:25.000Z</time>
      </trkpt>
      <trkpt lat="43.57147" lon="3.73961">
        <ele>98.6</ele>
        <time>2013-07-26T08:14:26.000Z</time>
      </trkpt>
      <trkpt lat="43.57151" lon="3.73967">
        <ele>100.1</ele>
        <time>2013-07-26T08:14:27.000Z</time>
      </trkpt>
      <trkpt lat="43.57155" lon="3.73971">
        <ele>100.3</ele>
        <time>2013-07-26T08:14:28.000Z</time>
      </trkpt>
      <trkpt lat="43.57159" lon="3.73976">
        <ele>100.9</ele>
        <time>2013-07-26T08:14:29.000Z</time>
      </trkpt>
      <trkpt lat="43.57164" lon="3.7398">
        <ele>100.4</ele>
        <time>2013-07-26T08:14:30.000Z</time>
      </trkpt>
      <trkpt lat="43.57168" lon="3.73985">
        <ele>100.2</ele>
        <time>2013-07-26T08:14:31.000Z</time>
      </trkpt>
      <trkpt lat="43.57173" lon="3.7399">
        <ele>99.3</ele>
        <time>2013-07-26T08:14:32.000Z</time>
      </trkpt>
      <trkpt lat="43.57176" lon="3.73995">
        <ele>99.3</ele>
        <time>2013-07-26T08:14:33.000Z</time>
      </trkpt>
      <trkpt lat="43.5718" lon="3.74">
        <ele>98.3</ele>
        <time>2013-07-26T08:14:34.000Z</time>
      </trkpt>
      <trkpt lat="43.57184" lon="3.74005">
        <ele>98.2</ele>
        <time>2013-07-26T08:14:35.000Z</time>
      </trkpt>
      <trkpt lat="43.57188" lon="3.7401">
        <ele>99</ele>
        <time>2013-07-26T08:14:36.000Z</time>
      </trkpt>
      <trkpt lat="43.57191" lon="3.74014">
        <ele>99.1</ele>
        <time>2013-07-26T08:14:37.000Z</time>
      </trkpt>
      <trkpt lat="43.57195" lon="3.74019">
        <ele>98</ele>
        <time>2013-07-26T08:14:38.000Z</time>
      </trkpt>
      <trkpt lat="43.57198" lon="3.74023">
        <ele>98.2</ele>
        <time>2013-07-26T08:14:39.000Z</time>
      </trkpt>
      <trkpt lat="43.57203" lon="3.74028">
        <ele>98.5</ele>
        <time>2013-07-26T08:14:40.000Z</time>
      </trkpt>
      <trkpt lat="43.57207" lon="3.74032">
        <ele>98.5</ele>
        <time>2013-07-26T08:14:41.000Z</time>
      </trkpt>
      <trkpt lat="43.57211" lon="3.74037">
        <ele>97.7</ele>
        <time>2013-07-26T08:14:42.000Z</time>
      </trkpt>
      <trkpt lat="43.57216" lon="3.74041">
        <ele>98</ele>
        <time>2013-07-26T08:14:43.000Z</time>
      </trkpt>
      <trkpt lat="43.5722" lon="3.74044">
        <ele>98.1</ele>
        <time>2013-07-26T08:14:44.000Z</time>
      </trkpt>
      <trkpt lat="43.57224" lon="3.74049">
        <ele>98.6</ele>
        <time>2013-07-26T08:14:45.000Z</time>
      </trkpt>
      <trkpt lat="43.57228" lon="3.74053">
        <ele>98.3</ele>
        <time>2013-07-26T08:14:46.000Z</time>
      </trkpt>
      <trkpt lat="43.57232" lon="3.74056">
        <ele>101.1</ele>
        <time>2013-07-26T08:14:47.000Z</time>
      </trkpt>
      <trkpt lat="43.57237" lon="3.74059">
        <ele>101.3</ele>
        <time>2013-07-26T08:14:48.000Z</time>
      </trkpt>
      <trkpt lat="43.5724" lon="3.74062">
        <ele>101.9</ele>
        <time>2013-07-26T08:14:49.000Z</time>
      </trkpt>
      <trkpt lat="43.57244" lon="3.74068">
        <ele>102.4</ele>
        <time>2013-07-26T08:14:50.000Z</time>
      </trkpt>
      <trkpt lat="43.57248" lon="3.74072">
        <ele>102.6</ele>
        <time>2013-07-26T08:14:51.000Z</time>
      </trkpt>
      <trkpt lat="43.5725" lon="3.74078">
        <ele>102.2</ele>
        <time>2013-07-26T08:14:52.000Z</time>
      </trkpt>
      <trkpt lat="43.57254" lon="3.74082">
        <ele>102.4</ele>
        <time>2013-07-26T08:14:53.000Z</time>
      </trkpt>
      <trkpt lat="43.57259" lon="3.74087">
        <ele>102.7</ele>
        <time>2013-07-26T08:14:54.000Z</time>
      </trkpt>
      <trkpt lat="43.57263" lon="3.74092">
        <ele>101.6</ele>
        <time>2013-07-26T08:14:55.000Z</time>
      </trkpt>
      <trkpt lat="43.57267" lon="3.74096">
        <ele>100.8</ele>
        <time>2013-07-26T08:14:56.000Z</time>
      </trkpt>
      <trkpt lat="43.5727" lon="3.74102">
        <ele>101.3</ele>
        <time>2013-07-26T08:14:57.000Z</time>
      </trkpt>
      <trkpt lat="43.57274" lon="3.74108">
        <ele>101.5</ele>
        <time>2013-07-26T08:14:58.177Z</time>
      </trkpt>
      <trkpt lat="43.57277" lon="3.74112">
        <ele>102.1</ele>
        <time>2013-07-26T08:14:59.000Z</time>
      </trkpt>
      <trkpt lat="43.57281" lon="3.74116">
        <ele>103.1</ele>
        <time>2013-07-26T08:15:00.000Z</time>
      </trkpt>
      <trkpt lat="43.57284" lon="3.74121">
        <ele>103</ele>
        <time>2013-07-26T08:15:01.000Z</time>
      </trkpt>
      <trkpt lat="43.57287" lon="3.74128">
        <ele>104.6</ele>
        <time>2013-07-26T08:15:02.000Z</time>
      </trkpt>
      <trkpt lat="43.5729" lon="3.74134">
        <ele>104</ele>
        <time>2013-07-26T08:15:03.000Z</time>
      </trkpt>
      <trkpt lat="43.57293" lon="3.74139">
        <ele>104.1</ele>
        <time>2013-07-26T08:15:04.000Z</time>
      </trkpt>
      <trkpt lat="43.57298" lon="3.74145">
        <ele>103.5</ele>
        <time>2013-07-26T08:15:05.000Z</time>
      </trkpt>
      <trkpt lat="43.57302" lon="3.74151">
        <ele>102.8</ele>
        <time>2013-07-26T08:15:06.000Z</time>
      </trkpt>
      <trkpt lat="43.57305" lon="3.74156">
        <ele>102.1</ele>
        <time>2013-07-26T08:15:07.000Z</time>
      </trkpt>
      <trkpt lat="43.57308" lon="3.74161">
        <ele>102.6</ele>
        <time>2013-07-26T08:15:08.000Z</time>
      </trkpt>
      <trkpt lat="43.57311" lon="3.74167">
        <ele>102.1</ele>
        <time>2013-07-26T08:15:09.000Z</time>
      </trkpt>
      <trkpt lat="43.57314" lon="3.74172">
        <ele>102.1</ele>
        <time>2013-07-26T08:15:10.000Z</time>
      </trkpt>
      <trkpt lat="43.57318" lon="3.74178">
        <ele>102.5</ele>
        <time>2013-07-26T08:15:11.000Z</time>
      </trkpt>
      <trkpt lat="43.5732" lon="3.74184">
        <ele>102.7</ele>
        <time>2013-07-26T08:15:12.000Z</time>
      </trkpt>
      <trkpt lat="43.57322" lon="3.74189">
        <ele>102.4</ele>
        <time>2013-07-26T08:15:13.000Z</time>
      </trkpt>
      <trkpt lat="43.57326" lon="3.74194">
        <ele>103</ele>
        <time>2013-07-26T08:15:14.000Z</time>
      </trkpt>
      <trkpt lat="43.57329" lon="3.742">
        <ele>101.8</ele>
        <time>2013-07-26T08:15:15.000Z</time>
      </trkpt>
      <trkpt lat="43.57332" lon="3.74205">
        <ele>101.4</ele>
        <time>2013-07-26T08:15:16.000Z</time>
      </trkpt>
      <trkpt lat="43.57335" lon="3.7421">
        <ele>102.1</ele>
        <time>2013-07-26T08:15:17.000Z</time>
      </trkpt>
      <trkpt lat="43.57337" lon="3.74215">
        <ele>101.6</ele>
        <time>2013-07-26T08:15:18.000Z</time>
      </trkpt>
      <trkpt lat="43.57339" lon="3.74221">
        <ele>100.9</ele>
        <time>2013-07-26T08:15:19.000Z</time>
      </trkpt>
      <trkpt lat="43.5734" lon="3.74227">
        <ele>101</ele>
        <time>2013-07-26T08:15:20.000Z</time>
      </trkpt>
      <trkpt lat="43.57342" lon="3.74234">
        <ele>101.5</ele>
        <time>2013-07-26T08:15:21.000Z</time>
      </trkpt>
      <trkpt lat="43.57341" lon="3.74241">
        <ele>101.4</ele>
        <time>2013-07-26T08:15:22.000Z</time>
      </trkpt>
      <trkpt lat="43.57341" lon="3.74248">
        <ele>102</ele>
        <time>2013-07-26T08:15:23.000Z</time>
      </trkpt>
      <trkpt lat="43.57343" lon="3.74255">
        <ele>102</ele>
        <time>2013-07-26T08:15:24.000Z</time>
      </trkpt>
      <trkpt lat="43.57343" lon="3.74262">
        <ele>101.4</ele>
        <time>2013-07-26T08:15:25.000Z</time>
      </trkpt>
      <trkpt lat="43.57344" lon="3.7427">
        <ele>100.7</ele>
        <time>2013-07-26T08:15:26.000Z</time>
      </trkpt>
      <trkpt lat="43.57346" lon="3.74276">
        <ele>100.6</ele>
        <time>2013-07-26T08:15:27.000Z</time>
      </trkpt>
      <trkpt lat="43.57347" lon="3.74282">
        <ele>102</ele>
        <time>2013-07-26T08:15:28.000Z</time>
      </trkpt>
      <trkpt lat="43.57348" lon="3.74288">
        <ele>101</ele>
        <time>2013-07-26T08:15:29.000Z</time>
      </trkpt>
      <trkpt lat="43.5735" lon="3.74293">
        <ele>101.2</ele>
        <time>2013-07-26T08:15:30.000Z</time>
      </trkpt>
      <trkpt lat="43.57351" lon="3.74299">
        <ele>100.5</ele>
        <time>2013-07-26T08:15:31.000Z</time>
      </trkpt>
      <trkpt lat="43.57353" lon="3.74305">
        <ele>101</ele>
        <time>2013-07-26T08:15:32.000Z</time>
      </trkpt>
      <trkpt lat="43.57354" lon="3.74311">
        <ele>101</ele>
        <time>2013-07-26T08:15:33.000Z</time>
      </trkpt>
      <trkpt lat="43.57356" lon="3.74317">
        <ele>100.3</ele>
        <time>2013-07-26T08:15:34.000Z</time>
      </trkpt>
      <trkpt lat="43.57358" lon="3.74323">
        <ele>99.9</ele>
        <time>2013-07-26T08:15:35.000Z</time>
      </trkpt>
      <trkpt lat="43.57359" lon="3.7433">
        <ele>99.1</ele>
        <time>2013-07-26T08:15:36.000Z</time>
      </trkpt>
      <trkpt lat="43.5736" lon="3.74337">
        <ele>99.5</ele>
        <time>2013-07-26T08:15:37.000Z</time>
      </trkpt>
      <trkpt lat="43.57362" lon="3.74345">
        <ele>99.7</ele>
        <time>2013-07-26T08:15:38.000Z</time>
      </trkpt>
      <trkpt lat="43.57362" lon="3.74353">
        <ele>99.4</ele>
        <time>2013-07-26T08:15:39.000Z</time>
      </trkpt>
      <trkpt lat="43.57364" lon="3.7436">
        <ele>100</ele>
        <time>2013-07-26T08:15:40.000Z</time>
      </trkpt>
      <trkpt lat="43.57366" lon="3.74368">
        <ele>100.5</ele>
        <time>2013-07-26T08:15:41.000Z</time>
      </trkpt>
      <trkpt lat="43.57368" lon="3.74377">
        <ele>100.6</ele>
        <time>2013-07-26T08:15:42.000Z</time>
      </trkpt>
      <trkpt lat="43.57371" lon="3.74383">
        <ele>100.8</ele>
        <time>2013-07-26T08:15:43.000Z</time>
      </trkpt>
      <trkpt lat="43.57373" lon="3.7439">
        <ele>99.6</ele>
        <time>2013-07-26T08:15:44.000Z</time>
      </trkpt>
      <trkpt lat="43.57375" lon="3.74397">
        <ele>99.6</ele>
        <time>2013-07-26T08:15:45.000Z</time>
      </trkpt>
      <trkpt lat="43.57377" lon="3.74404">
        <ele>99.1</ele>
        <time>2013-07-26T08:15:46.000Z</time>
      </trkpt>
      <trkpt lat="43.57379" lon="3.74412">
        <ele>100.4</ele>
        <time>2013-07-26T08:15:47.000Z</time>
      </trkpt>
      <trkpt lat="43.57381" lon="3.7442">
        <ele>99.4</ele>
        <time>2013-07-26T08:15:48.000Z</time>
      </trkpt>
      <trkpt lat="43.57383" lon="3.74428">
        <ele>99.9</ele>
        <time>2013-07-26T08:15:49.000Z</time>
      </trkpt>
      <trkpt lat="43.57386" lon="3.74435">
        <ele>100.6</ele>
        <time>2013-07-26T08:15:50.000Z</time>
      </trkpt>
      <trkpt lat="43.57389" lon="3.74442">
        <ele>101</ele>
        <time>2013-07-26T08:15:51.000Z</time>
      </trkpt>
      <trkpt lat="43.57392" lon="3.74448">
        <ele>101.7</ele>
        <time>2013-07-26T08:15:52.000Z</time>
      </trkpt>
      <trkpt lat="43.57394" lon="3.74456">
        <ele>101.4</ele>
        <time>2013-07-26T08:15:53.000Z</time>
      </trkpt>
      <trkpt lat="43.57396" lon="3.74462">
        <ele>100.3</ele>
        <time>2013-07-26T08:15:54.000Z</time>
      </trkpt>
      <trkpt lat="43.57399" lon="3.74469">
        <ele>100.5</ele>
        <time>2013-07-26T08:15:55.000Z</time>
      </trkpt>
      <trkpt lat="43.574" lon="3.74475">
        <ele>100.1</ele>
        <time>2013-07-26T08:15:56.000Z</time>
      </trkpt>
      <trkpt lat="43.57402" lon="3.74482">
        <ele>100</ele>
        <time>2013-07-26T08:15:57.000Z</time>
      </trkpt>
      <trkpt lat="43.57405" lon="3.7449">
        <ele>100</ele>
        <time>2013-07-26T08:15:58.126Z</time>
      </trkpt>
      <trkpt lat="43.57407" lon="3.74493">
        <ele>101.3</ele>
        <time>2013-07-26T08:15:59.000Z</time>
      </trkpt>
      <trkpt lat="43.5741" lon="3.74499">
        <ele>101.4</ele>
        <time>2013-07-26T08:16:00.000Z</time>
      </trkpt>
      <trkpt lat="43.57413" lon="3.74505">
        <ele>101.4</ele>
        <time>2013-07-26T08:16:01.000Z</time>
      </trkpt>
      <trkpt lat="43.57415" lon="3.7451">
        <ele>101.1</ele>
        <time>2013-07-26T08:16:02.000Z</time>
      </trkpt>
      <trkpt lat="43.57418" lon="3.74516">
        <ele>100.6</ele>
        <time>2013-07-26T08:16:03.000Z</time>
      </trkpt>
      <trkpt lat="43.57421" lon="3.74521">
        <ele>100.4</ele>
        <time>2013-07-26T08:16:04.000Z</time>
      </trkpt>
      <trkpt lat="43.57424" lon="3.74528">
        <ele>100.7</ele>
        <time>2013-07-26T08:16:05.000Z</time>
      </trkpt>
      <trkpt lat="43.57426" lon="3.74534">
        <ele>100.2</ele>
        <time>2013-07-26T08:16:06.000Z</time>
      </trkpt>
      <trkpt lat="43.5743" lon="3.74539">
        <ele>99.8</ele>
        <time>2013-07-26T08:16:07.000Z</time>
      </trkpt>
      <trkpt lat="43.57433" lon="3.74545">
        <ele>100.2</ele>
        <time>2013-07-26T08:16:08.000Z</time>
      </trkpt>
      <trkpt lat="43.57437" lon="3.74552">
        <ele>101</ele>
        <time>2013-07-26T08:16:09.000Z</time>
      </trkpt>
      <trkpt lat="43.57441" lon="3.74558">
        <ele>100.2</ele>
        <time>2013-07-26T08:16:10.000Z</time>
      </trkpt>
      <trkpt lat="43.57444" lon="3.74563">
        <ele>100.8</ele>
        <time>2013-07-26T08:16:11.000Z</time>
      </trkpt>
      <trkpt lat="43.57447" lon="3.7457">
        <ele>100.9</ele>
        <time>2013-07-26T08:16:12.000Z</time>
      </trkpt>
      <trkpt lat="43.5745" lon="3.74575">
        <ele>99.9</ele>
        <time>2013-07-26T08:16:13.000Z</time>
      </trkpt>
      <trkpt lat="43.57454" lon="3.74582">
        <ele>99</ele>
        <time>2013-07-26T08:16:14.000Z</time>
      </trkpt>
      <trkpt lat="43.57458" lon="3.74588">
        <ele>98.9</ele>
        <time>2013-07-26T08:16:15.000Z</time>
      </trkpt>
      <trkpt lat="43.57462" lon="3.74595">
        <ele>97.8</ele>
        <time>2013-07-26T08:16:16.000Z</time>
      </trkpt>
      <trkpt lat="43.57466" lon="3.74601">
        <ele>98.6</ele>
        <time>2013-07-26T08:16:17.000Z</time>
      </trkpt>
      <trkpt lat="43.57469" lon="3.74608">
        <ele>99</ele>
        <time>2013-07-26T08:16:18.000Z</time>
      </trkpt>
      <trkpt lat="43.57473" lon="3.74613">
        <ele>99.4</ele>
        <time>2013-07-26T08:16:19.000Z</time>
      </trkpt>
      <trkpt lat="43.57477" lon="3.74619">
        <ele>98.8</ele>
        <time>2013-07-26T08:16:20.000Z</time>
      </trkpt>
      <trkpt lat="43.5748" lon="3.74626">
        <ele>99.4</ele>
        <time>2013-07-26T08:16:21.000Z</time>
      </trkpt>
      <trkpt lat="43.57484" lon="3.74631">
        <ele>100.5</ele>
        <time>2013-07-26T08:16:22.000Z</time>
      </trkpt>
      <trkpt lat="43.57488" lon="3.74637">
        <ele>101.1</ele>
        <time>2013-07-26T08:16:23.000Z</time>
      </trkpt>
      <trkpt lat="43.57491" lon="3.74643">
        <ele>101.2</ele>
        <time>2013-07-26T08:16:24.000Z</time>
      </trkpt>
      <trkpt lat="43.57495" lon="3.74649">
        <ele>101.9</ele>
        <time>2013-07-26T08:16:25.000Z</time>
      </trkpt>
      <trkpt lat="43.57498" lon="3.74655">
        <ele>101.7</ele>
        <time>2013-07-26T08:16:26.000Z</time>
      </trkpt>
      <trkpt lat="43.57502" lon="3.74661">
        <ele>102.4</ele>
        <time>2013-07-26T08:16:27.000Z</time>
      </trkpt>
      <trkpt lat="43.57505" lon="3.74668">
        <ele>102.5</ele>
        <time>2013-07-26T08:16:28.000Z</time>
      </trkpt>
      <trkpt lat="43.57508" lon="3.74674">
        <ele>102.5</ele>
        <time>2013-07-26T08:16:29.000Z</time>
      </trkpt>
      <trkpt lat="43.5751" lon="3.74682">
        <ele>102.8</ele>
        <time>2013-07-26T08:16:30.000Z</time>
      </trkpt>
      <trkpt lat="43.5751" lon="3.7469">
        <ele>103.3</ele>
        <time>2013-07-26T08:16:31.000Z</time>
      </trkpt>
      <trkpt lat="43.57512" lon="3.74696">
        <ele>102.7</ele>
        <time>2013-07-26T08:16:32.000Z</time>
      </trkpt>
      <trkpt lat="43.57515" lon="3.74702">
        <ele>101.9</ele>
        <time>2013-07-26T08:16:33.000Z</time>
      </trkpt>
      <trkpt lat="43.57518" lon="3.74707">
        <ele>101.1</ele>
        <time>2013-07-26T08:16:34.000Z</time>
      </trkpt>
      <trkpt lat="43.57522" lon="3.74713">
        <ele>100.5</ele>
        <time>2013-07-26T08:16:35.000Z</time>
      </trkpt>
      <trkpt lat="43.57525" lon="3.74719">
        <ele>100</ele>
        <time>2013-07-26T08:16:36.000Z</time>
      </trkpt>
      <trkpt lat="43.57528" lon="3.74726">
        <ele>99.9</ele>
        <time>2013-07-26T08:16:37.000Z</time>
      </trkpt>
      <trkpt lat="43.57531" lon="3.74732">
        <ele>100.3</ele>
        <time>2013-07-26T08:16:38.000Z</time>
      </trkpt>
      <trkpt lat="43.57533" lon="3.74738">
        <ele>99.2</ele>
        <time>2013-07-26T08:16:39.000Z</time>
      </trkpt>
      <trkpt lat="43.57536" lon="3.74743">
        <ele>98.5</ele>
        <time>2013-07-26T08:16:40.000Z</time>
      </trkpt>
      <trkpt lat="43.57538" lon="3.7475">
        <ele>98.4</ele>
        <time>2013-07-26T08:16:41.000Z</time>
      </trkpt>
      <trkpt lat="43.5754" lon="3.74756">
        <ele>97.9</ele>
        <time>2013-07-26T08:16:42.000Z</time>
      </trkpt>
      <trkpt lat="43.57542" lon="3.74763">
        <ele>98.3</ele>
        <time>2013-07-26T08:16:43.000Z</time>
      </trkpt>
      <trkpt lat="43.57545" lon="3.74768">
        <ele>98.2</ele>
        <time>2013-07-26T08:16:44.000Z</time>
      </trkpt>
      <trkpt lat="43.57547" lon="3.74775">
        <ele>98.1</ele>
        <time>2013-07-26T08:16:45.000Z</time>
      </trkpt>
      <trkpt lat="43.57549" lon="3.74781">
        <ele>99.5</ele>
        <time>2013-07-26T08:16:46.000Z</time>
      </trkpt>
      <trkpt lat="43.57551" lon="3.74787">
        <ele>99.8</ele>
        <time>2013-07-26T08:16:47.000Z</time>
      </trkpt>
      <trkpt lat="43.57553" lon="3.74793">
        <ele>100.2</ele>
        <time>2013-07-26T08:16:48.000Z</time>
      </trkpt>
      <trkpt lat="43.57554" lon="3.748">
        <ele>100.1</ele>
        <time>2013-07-26T08:16:49.000Z</time>
      </trkpt>
      <trkpt lat="43.57556" lon="3.74806">
        <ele>100.8</ele>
        <time>2013-07-26T08:16:50.000Z</time>
      </trkpt>
      <trkpt lat="43.57558" lon="3.74812">
        <ele>100.3</ele>
        <time>2013-07-26T08:16:51.000Z</time>
      </trkpt>
      <trkpt lat="43.5756" lon="3.74818">
        <ele>99.9</ele>
        <time>2013-07-26T08:16:52.000Z</time>
      </trkpt>
      <trkpt lat="43.57562" lon="3.74824">
        <ele>100.4</ele>
        <time>2013-07-26T08:16:53.000Z</time>
      </trkpt>
      <trkpt lat="43.57564" lon="3.74829">
        <ele>100.3</ele>
        <time>2013-07-26T08:16:54.000Z</time>
      </trkpt>
      <trkpt lat="43.57566" lon="3.74835">
        <ele>100.9</ele>
        <time>2013-07-26T08:16:55.000Z</time>
      </trkpt>
      <trkpt lat="43.57568" lon="3.74841">
        <ele>100.7</ele>
        <time>2013-07-26T08:16:56.000Z</time>
      </trkpt>
      <trkpt lat="43.5757" lon="3.74847">
        <ele>101.7</ele>
        <time>2013-07-26T08:16:57.000Z</time>
      </trkpt>
      <trkpt lat="43.57572" lon="3.74855">
        <ele>101.8</ele>
        <time>2013-07-26T08:16:58.214Z</time>
      </trkpt>
      <trkpt lat="43.57573" lon="3.74859">
        <ele>101.9</ele>
        <time>2013-07-26T08:16:59.000Z</time>
      </trkpt>
      <trkpt lat="43.57574" lon="3.74866">
        <ele>101.9</ele>
        <time>2013-07-26T08:17:00.000Z</time>
      </trkpt>
      <trkpt lat="43.57575" lon="3.74874">
        <ele>101.2</ele>
        <time>2013-07-26T08:17:01.000Z</time>
      </trkpt>
      <trkpt lat="43.57577" lon="3.74881">
        <ele>99.8</ele>
        <time>2013-07-26T08:17:02.000Z</time>
      </trkpt>
      <trkpt lat="43.5758" lon="3.74889">
        <ele>100.1</ele>
        <time>2013-07-26T08:17:03.000Z</time>
      </trkpt>
      <trkpt lat="43.57582" lon="3.74897">
        <ele>100.4</ele>
        <time>2013-07-26T08:17:04.000Z</time>
      </trkpt>
      <trkpt lat="43.57584" lon="3.74904">
        <ele>99.7</ele>
        <time>2013-07-26T08:17:05.000Z</time>
      </trkpt>
      <trkpt lat="43.57586" lon="3.74912">
        <ele>101</ele>
        <time>2013-07-26T08:17:06.000Z</time>
      </trkpt>
      <trkpt lat="43.57588" lon="3.74918">
        <ele>102.4</ele>
        <time>2013-07-26T08:17:07.000Z</time>
      </trkpt>
      <trkpt lat="43.57591" lon="3.74923">
        <ele>102.1</ele>
        <time>2013-07-26T08:17:08.000Z</time>
      </trkpt>
      <trkpt lat="43.57592" lon="3.74932">
        <ele>101.7</ele>
        <time>2013-07-26T08:17:09.000Z</time>
      </trkpt>
      <trkpt lat="43.57594" lon="3.7494">
        <ele>102.2</ele>
        <time>2013-07-26T08:17:10.000Z</time>
      </trkpt>
      <trkpt lat="43.57596" lon="3.74947">
        <ele>100.8</ele>
        <time>2013-07-26T08:17:11.000Z</time>
      </trkpt>
      <trkpt lat="43.57598" lon="3.74954">
        <ele>101.1</ele>
        <time>2013-07-26T08:17:12.000Z</time>
      </trkpt>
      <trkpt lat="43.576" lon="3.7496">
        <ele>100</ele>
        <time>2013-07-26T08:17:13.000Z</time>
      </trkpt>
      <trkpt lat="43.57602" lon="3.74969">
        <ele>99.6</ele>
        <time>2013-07-26T08:17:14.000Z</time>
      </trkpt>
      <trkpt lat="43.57604" lon="3.74976">
        <ele>99.2</ele>
        <time>2013-07-26T08:17:15.000Z</time>
      </trkpt>
      <trkpt lat="43.57605" lon="3.74983">
        <ele>98.6</ele>
        <time>2013-07-26T08:17:16.000Z</time>
      </trkpt>
      <trkpt lat="43.57607" lon="3.74991">
        <ele>98.5</ele>
        <time>2013-07-26T08:17:17.000Z</time>
      </trkpt>
      <trkpt lat="43.5761" lon="3.74998">
        <ele>98.4</ele>
        <time>2013-07-26T08:17:18.000Z</time>
      </trkpt>
      <trkpt lat="43.57613" lon="3.75004">
        <ele>98.2</ele>
        <time>2013-07-26T08:17:19.000Z</time>
      </trkpt>
      <trkpt lat="43.57615" lon="3.75009">
        <ele>98.6</ele>
        <time>2013-07-26T08:17:20.000Z</time>
      </trkpt>
      <trkpt lat="43.57618" lon="3.75016">
        <ele>98.7</ele>
        <time>2013-07-26T08:17:21.000Z</time>
      </trkpt>
      <trkpt lat="43.57621" lon="3.75022">
        <ele>100</ele>
        <time>2013-07-26T08:17:22.000Z</time>
      </trkpt>
      <trkpt lat="43.57624" lon="3.75029">
        <ele>101</ele>
        <time>2013-07-26T08:17:23.000Z</time>
      </trkpt>
      <trkpt lat="43.57626" lon="3.75035">
        <ele>101.2</ele>
        <time>2013-07-26T08:17:24.000Z</time>
      </trkpt>
      <trkpt lat="43.57629" lon="3.75044">
        <ele>100.4</ele>
        <time>2013-07-26T08:17:25.000Z</time>
      </trkpt>
      <trkpt lat="43.57633" lon="3.75051">
        <ele>99.5</ele>
        <time>2013-07-26T08:17:26.000Z</time>
      </trkpt>
      <trkpt lat="43.57635" lon="3.75058">
        <ele>99.5</ele>
        <time>2013-07-26T08:17:27.000Z</time>
      </trkpt>
      <trkpt lat="43.57638" lon="3.75065">
        <ele>98.7</ele>
        <time>2013-07-26T08:17:28.000Z</time>
      </trkpt>
      <trkpt lat="43.57641" lon="3.75071">
        <ele>97.9</ele>
        <time>2013-07-26T08:17:29.000Z</time>
      </trkpt>
      <trkpt lat="43.57644" lon="3.75077">
        <ele>98.6</ele>
        <time>2013-07-26T08:17:30.000Z</time>
      </trkpt>
      <trkpt lat="43.57647" lon="3.75083">
        <ele>98.9</ele>
        <time>2013-07-26T08:17:31.000Z</time>
      </trkpt>
      <trkpt lat="43.57651" lon="3.75089">
        <ele>99</ele>
        <time>2013-07-26T08:17:32.000Z</time>
      </trkpt>
      <trkpt lat="43.57654" lon="3.75095">
        <ele>98</ele>
        <time>2013-07-26T08:17:33.000Z</time>
      </trkpt>
      <trkpt lat="43.57657" lon="3.75102">
        <ele>96.8</ele>
        <time>2013-07-26T08:17:34.000Z</time>
      </trkpt>
      <trkpt lat="43.5766" lon="3.75109">
        <ele>95.8</ele>
        <time>2013-07-26T08:17:35.000Z</time>
      </trkpt>
      <trkpt lat="43.57662" lon="3.75116">
        <ele>95.4</ele>
        <time>2013-07-26T08:17:36.000Z</time>
      </trkpt>
      <trkpt lat="43.57665" lon="3.75124">
        <ele>95.4</ele>
        <time>2013-07-26T08:17:37.000Z</time>
      </trkpt>
      <trkpt lat="43.57667" lon="3.75131">
        <ele>95.6</ele>
        <time>2013-07-26T08:17:38.000Z</time>
      </trkpt>
      <trkpt lat="43.57673" lon="3.75137">
        <ele>93.8</ele>
        <time>2013-07-26T08:17:39.000Z</time>
      </trkpt>
      <trkpt lat="43.57675" lon="3.75144">
        <ele>93.7</ele>
        <time>2013-07-26T08:17:40.000Z</time>
      </trkpt>
      <trkpt lat="43.57677" lon="3.7515">
        <ele>94</ele>
        <time>2013-07-26T08:17:41.000Z</time>
      </trkpt>
      <trkpt lat="43.57681" lon="3.75156">
        <ele>94.1</ele>
        <time>2013-07-26T08:17:42.000Z</time>
      </trkpt>
      <trkpt lat="43.57684" lon="3.75163">
        <ele>95.5</ele>
        <time>2013-07-26T08:17:43.000Z</time>
      </trkpt>
      <trkpt lat="43.57687" lon="3.75169">
        <ele>96.1</ele>
        <time>2013-07-26T08:17:44.000Z</time>
      </trkpt>
      <trkpt lat="43.57689" lon="3.75176">
        <ele>95.2</ele>
        <time>2013-07-26T08:17:45.000Z</time>
      </trkpt>
      <trkpt lat="43.57691" lon="3.75184">
        <ele>96.3</ele>
        <time>2013-07-26T08:17:46.000Z</time>
      </trkpt>
      <trkpt lat="43.57693" lon="3.75192">
        <ele>95.4</ele>
        <time>2013-07-26T08:17:47.000Z</time>
      </trkpt>
      <trkpt lat="43.57694" lon="3.75199">
        <ele>96.2</ele>
        <time>2013-07-26T08:17:48.000Z</time>
      </trkpt>
      <trkpt lat="43.57696" lon="3.75205">
        <ele>97.3</ele>
        <time>2013-07-26T08:17:49.000Z</time>
      </trkpt>
      <trkpt lat="43.57699" lon="3.75213">
        <ele>97</ele>
        <time>2013-07-26T08:17:50.000Z</time>
      </trkpt>
      <trkpt lat="43.57703" lon="3.75218">
        <ele>96.9</ele>
        <time>2013-07-26T08:17:51.000Z</time>
      </trkpt>
      <trkpt lat="43.57706" lon="3.75224">
        <ele>97.6</ele>
        <time>2013-07-26T08:17:52.000Z</time>
      </trkpt>
      <trkpt lat="43.57709" lon="3.75232">
        <ele>97.4</ele>
        <time>2013-07-26T08:17:53.000Z</time>
      </trkpt>
      <trkpt lat="43.57712" lon="3.75238">
        <ele>97.3</ele>
        <time>2013-07-26T08:17:54.000Z</time>
      </trkpt>
      <trkpt lat="43.57715" lon="3.75244">
        <ele>98.4</ele>
        <time>2013-07-26T08:17:55.000Z</time>
      </trkpt>
      <trkpt lat="43.57718" lon="3.7525">
        <ele>98.7</ele>
        <time>2013-07-26T08:17:56.000Z</time>
      </trkpt>
      <trkpt lat="43.57721" lon="3.75255">
        <ele>99.6</ele>
        <time>2013-07-26T08:17:57.000Z</time>
      </trkpt>
      <trkpt lat="43.57724" lon="3.75262">
        <ele>99.7</ele>
        <time>2013-07-26T08:17:58.169Z</time>
      </trkpt>
      <trkpt lat="43.57726" lon="3.75267">
        <ele>99.5</ele>
        <time>2013-07-26T08:17:59.000Z</time>
      </trkpt>
      <trkpt lat="43.57729" lon="3.75271">
        <ele>100.1</ele>
        <time>2013-07-26T08:18:00.000Z</time>
      </trkpt>
      <trkpt lat="43.57732" lon="3.75278">
        <ele>99.6</ele>
        <time>2013-07-26T08:18:01.000Z</time>
      </trkpt>
      <trkpt lat="43.57736" lon="3.75284">
        <ele>99.9</ele>
        <time>2013-07-26T08:18:02.000Z</time>
      </trkpt>
      <trkpt lat="43.57739" lon="3.75289">
        <ele>100.1</ele>
        <time>2013-07-26T08:18:03.000Z</time>
      </trkpt>
      <trkpt lat="43.57742" lon="3.75295">
        <ele>100</ele>
        <time>2013-07-26T08:18:04.000Z</time>
      </trkpt>
      <trkpt lat="43.57744" lon="3.75301">
        <ele>100.6</ele>
        <time>2013-07-26T08:18:05.000Z</time>
      </trkpt>
      <trkpt lat="43.57747" lon="3.75306">
        <ele>99.6</ele>
        <time>2013-07-26T08:18:06.000Z</time>
      </trkpt>
      <trkpt lat="43.57749" lon="3.75312">
        <ele>100.5</ele>
        <time>2013-07-26T08:18:07.000Z</time>
      </trkpt>
      <trkpt lat="43.57752" lon="3.75318">
        <ele>100.6</ele>
        <time>2013-07-26T08:18:08.000Z</time>
      </trkpt>
      <trkpt lat="43.57755" lon="3.75323">
        <ele>100.2</ele>
        <time>2013-07-26T08:18:09.000Z</time>
      </trkpt>
      <trkpt lat="43.57758" lon="3.75328">
        <ele>99.7</ele>
        <time>2013-07-26T08:18:10.000Z</time>
      </trkpt>
      <trkpt lat="43.57761" lon="3.75333">
        <ele>99.8</ele>
        <time>2013-07-26T08:18:11.000Z</time>
      </trkpt>
      <trkpt lat="43.57765" lon="3.75337">
        <ele>99.8</ele>
        <time>2013-07-26T08:18:12.000Z</time>
      </trkpt>
      <trkpt lat="43.57769" lon="3.75341">
        <ele>100.1</ele>
        <time>2013-07-26T08:18:13.000Z</time>
      </trkpt>
      <trkpt lat="43.57773" lon="3.75345">
        <ele>100.4</ele>
        <time>2013-07-26T08:18:14.000Z</time>
      </trkpt>
      <trkpt lat="43.57775" lon="3.75353">
        <ele>100.4</ele>
        <time>2013-07-26T08:18:15.000Z</time>
      </trkpt>
      <trkpt lat="43.57776" lon="3.7536">
        <ele>98.7</ele>
        <time>2013-07-26T08:18:16.000Z</time>
      </trkpt>
      <trkpt lat="43.57777" lon="3.75366">
        <ele>98.5</ele>
        <time>2013-07-26T08:18:17.000Z</time>
      </trkpt>
      <trkpt lat="43.57778" lon="3.75372">
        <ele>99.6</ele>
        <time>2013-07-26T08:18:18.000Z</time>
      </trkpt>
      <trkpt lat="43.5778" lon="3.75377">
        <ele>99.4</ele>
        <time>2013-07-26T08:18:19.000Z</time>
      </trkpt>
      <trkpt lat="43.57782" lon="3.75384">
        <ele>99</ele>
        <time>2013-07-26T08:18:20.000Z</time>
      </trkpt>
      <trkpt lat="43.57783" lon="3.75392">
        <ele>97.8</ele>
        <time>2013-07-26T08:18:21.000Z</time>
      </trkpt>
      <trkpt lat="43.57784" lon="3.75397">
        <ele>97.1</ele>
        <time>2013-07-26T08:18:22.000Z</time>
      </trkpt>
      <trkpt lat="43.57786" lon="3.75402">
        <ele>96.8</ele>
        <time>2013-07-26T08:18:23.000Z</time>
      </trkpt>
      <trkpt lat="43.57789" lon="3.75408">
        <ele>96.4</ele>
        <time>2013-07-26T08:18:24.000Z</time>
      </trkpt>
      <trkpt lat="43.57792" lon="3.75414">
        <ele>96.6</ele>
        <time>2013-07-26T08:18:25.000Z</time>
      </trkpt>
      <trkpt lat="43.57794" lon="3.75419">
        <ele>97.4</ele>
        <time>2013-07-26T08:18:26.000Z</time>
      </trkpt>
      <trkpt lat="43.57797" lon="3.75424">
        <ele>96.8</ele>
        <time>2013-07-26T08:18:27.000Z</time>
      </trkpt>
      <trkpt lat="43.57799" lon="3.75429">
        <ele>97</ele>
        <time>2013-07-26T08:18:28.000Z</time>
      </trkpt>
      <trkpt lat="43.57802" lon="3.75435">
        <ele>96.8</ele>
        <time>2013-07-26T08:18:29.000Z</time>
      </trkpt>
      <trkpt lat="43.57805" lon="3.75442">
        <ele>96.7</ele>
        <time>2013-07-26T08:18:30.000Z</time>
      </trkpt>
      <trkpt lat="43.57806" lon="3.75446">
        <ele>96.6</ele>
        <time>2013-07-26T08:18:31.000Z</time>
      </trkpt>
      <trkpt lat="43.57808" lon="3.75453">
        <ele>95.7</ele>
        <time>2013-07-26T08:18:32.000Z</time>
      </trkpt>
      <trkpt lat="43.5781" lon="3.75458">
        <ele>95.6</ele>
        <time>2013-07-26T08:18:33.000Z</time>
      </trkpt>
      <trkpt lat="43.57811" lon="3.75464">
        <ele>94.7</ele>
        <time>2013-07-26T08:18:34.000Z</time>
      </trkpt>
      <trkpt lat="43.57813" lon="3.7547">
        <ele>94.6</ele>
        <time>2013-07-26T08:18:35.000Z</time>
      </trkpt>
      <trkpt lat="43.57815" lon="3.75477">
        <ele>94.8</ele>
        <time>2013-07-26T08:18:36.000Z</time>
      </trkpt>
      <trkpt lat="43.57817" lon="3.75483">
        <ele>95.7</ele>
        <time>2013-07-26T08:18:37.000Z</time>
      </trkpt>
      <trkpt lat="43.57819" lon="3.75488">
        <ele>95</ele>
        <time>2013-07-26T08:18:38.000Z</time>
      </trkpt>
      <trkpt lat="43.57822" lon="3.75494">
        <ele>94</ele>
        <time>2013-07-26T08:18:39.000Z</time>
      </trkpt>
      <trkpt lat="43.57824" lon="3.755">
        <ele>94.4</ele>
        <time>2013-07-26T08:18:40.000Z</time>
      </trkpt>
      <trkpt lat="43.57826" lon="3.75507">
        <ele>94.7</ele>
        <time>2013-07-26T08:18:41.000Z</time>
      </trkpt>
      <trkpt lat="43.57827" lon="3.75514">
        <ele>94.8</ele>
        <time>2013-07-26T08:18:42.000Z</time>
      </trkpt>
      <trkpt lat="43.57828" lon="3.7552">
        <ele>95.1</ele>
        <time>2013-07-26T08:18:43.000Z</time>
      </trkpt>
      <trkpt lat="43.5783" lon="3.75525">
        <ele>95.1</ele>
        <time>2013-07-26T08:18:44.000Z</time>
      </trkpt>
      <trkpt lat="43.57831" lon="3.75532">
        <ele>96</ele>
        <time>2013-07-26T08:18:45.000Z</time>
      </trkpt>
      <trkpt lat="43.57833" lon="3.75539">
        <ele>96.9</ele>
        <time>2013-07-26T08:18:46.000Z</time>
      </trkpt>
      <trkpt lat="43.57835" lon="3.75545">
        <ele>96.8</ele>
        <time>2013-07-26T08:18:47.000Z</time>
      </trkpt>
      <trkpt lat="43.57836" lon="3.7555">
        <ele>97.2</ele>
        <time>2013-07-26T08:18:48.000Z</time>
      </trkpt>
      <trkpt lat="43.57837" lon="3.75556">
        <ele>97.3</ele>
        <time>2013-07-26T08:18:49.000Z</time>
      </trkpt>
      <trkpt lat="43.57839" lon="3.75562">
        <ele>98.7</ele>
        <time>2013-07-26T08:18:50.000Z</time>
      </trkpt>
      <trkpt lat="43.5784" lon="3.75567">
        <ele>99.7</ele>
        <time>2013-07-26T08:18:51.000Z</time>
      </trkpt>
      <trkpt lat="43.57841" lon="3.75572">
        <ele>100</ele>
        <time>2013-07-26T08:18:52.000Z</time>
      </trkpt>
      <trkpt lat="43.57842" lon="3.75578">
        <ele>100.3</ele>
        <time>2013-07-26T08:18:53.000Z</time>
      </trkpt>
      <trkpt lat="43.57844" lon="3.75584">
        <ele>100.5</ele>
        <time>2013-07-26T08:18:54.000Z</time>
      </trkpt>
      <trkpt lat="43.57847" lon="3.75588">
        <ele>100.9</ele>
        <time>2013-07-26T08:18:55.000Z</time>
      </trkpt>
      <trkpt lat="43.5785" lon="3.7559">
        <ele>100.4</ele>
        <time>2013-07-26T08:18:56.000Z</time>
      </trkpt>
      <trkpt lat="43.57853" lon="3.75592">
        <ele>100.2</ele>
        <time>2013-07-26T08:18:57.000Z</time>
      </trkpt>
      <trkpt lat="43.57856" lon="3.75596">
        <ele>100.5</ele>
        <time>2013-07-26T08:18:58.000Z</time>
      </trkpt>
      <trkpt lat="43.57858" lon="3.75599">
        <ele>100.8</ele>
        <time>2013-07-26T08:18:59.000Z</time>
      </trkpt>
      <trkpt lat="43.5786" lon="3.75602">
        <ele>101</ele>
        <time>2013-07-26T08:19:00.000Z</time>
      </trkpt>
      <trkpt lat="43.57862" lon="3.75605">
        <ele>100.3</ele>
        <time>2013-07-26T08:19:01.000Z</time>
      </trkpt>
      <trkpt lat="43.57864" lon="3.75608">
        <ele>99.7</ele>
        <time>2013-07-26T08:19:02.000Z</time>
      </trkpt>
      <trkpt lat="43.57865" lon="3.75612">
        <ele>99.9</ele>
        <time>2013-07-26T08:19:03.000Z</time>
      </trkpt>
      <trkpt lat="43.57866" lon="3.75617">
        <ele>100.2</ele>
        <time>2013-07-26T08:19:04.000Z</time>
      </trkpt>
      <trkpt lat="43.57866" lon="3.75621">
        <ele>100.7</ele>
        <time>2013-07-26T08:19:05.000Z</time>
      </trkpt>
      <trkpt lat="43.57867" lon="3.75626">
        <ele>100.6</ele>
        <time>2013-07-26T08:19:06.000Z</time>
      </trkpt>
      <trkpt lat="43.57868" lon="3.7563">
        <ele>100.7</ele>
        <time>2013-07-26T08:19:07.000Z</time>
      </trkpt>
      <trkpt lat="43.57868" lon="3.75633">
        <ele>101.1</ele>
        <time>2013-07-26T08:19:08.000Z</time>
      </trkpt>
      <trkpt lat="43.57869" lon="3.75636">
        <ele>100.9</ele>
        <time>2013-07-26T08:19:09.000Z</time>
      </trkpt>
      <trkpt lat="43.5787" lon="3.75639">
        <ele>100.1</ele>
        <time>2013-07-26T08:19:10.000Z</time>
      </trkpt>
      <trkpt lat="43.57869" lon="3.75643">
        <ele>100.3</ele>
        <time>2013-07-26T08:19:11.000Z</time>
      </trkpt>
      <trkpt lat="43.57868" lon="3.75647">
        <ele>99.3</ele>
        <time>2013-07-26T08:19:12.000Z</time>
      </trkpt>
      <trkpt lat="43.57866" lon="3.75652">
        <ele>98.3</ele>
        <time>2013-07-26T08:19:13.000Z</time>
      </trkpt>
      <trkpt lat="43.57863" lon="3.75656">
        <ele>97.8</ele>
        <time>2013-07-26T08:19:14.000Z</time>
      </trkpt>
      <trkpt lat="43.57861" lon="3.75661">
        <ele>97.6</ele>
        <time>2013-07-26T08:19:15.000Z</time>
      </trkpt>
      <trkpt lat="43.57858" lon="3.75665">
        <ele>97.8</ele>
        <time>2013-07-26T08:19:16.000Z</time>
      </trkpt>
      <trkpt lat="43.57856" lon="3.75671">
        <ele>99.2</ele>
        <time>2013-07-26T08:19:17.000Z</time>
      </trkpt>
      <trkpt lat="43.57855" lon="3.75677">
        <ele>98.8</ele>
        <time>2013-07-26T08:19:18.000Z</time>
      </trkpt>
      <trkpt lat="43.57855" lon="3.75687">
        <ele>98.7</ele>
        <time>2013-07-26T08:19:19.000Z</time>
      </trkpt>
      <trkpt lat="43.57854" lon="3.75694">
        <ele>98.4</ele>
        <time>2013-07-26T08:19:20.000Z</time>
      </trkpt>
      <trkpt lat="43.57854" lon="3.75701">
        <ele>98.1</ele>
        <time>2013-07-26T08:19:21.000Z</time>
      </trkpt>
      <trkpt lat="43.57854" lon="3.75708">
        <ele>97.6</ele>
        <time>2013-07-26T08:19:22.000Z</time>
      </trkpt>
      <trkpt lat="43.57854" lon="3.75716">
        <ele>97.7</ele>
        <time>2013-07-26T08:19:23.000Z</time>
      </trkpt>
      <trkpt lat="43.57852" lon="3.75722">
        <ele>97.2</ele>
        <time>2013-07-26T08:19:24.000Z</time>
      </trkpt>
      <trkpt lat="43.5785" lon="3.75729">
        <ele>96.5</ele>
        <time>2013-07-26T08:19:25.000Z</time>
      </trkpt>
      <trkpt lat="43.5785" lon="3.75736">
        <ele>96.6</ele>
        <time>2013-07-26T08:19:26.000Z</time>
      </trkpt>
      <trkpt lat="43.5785" lon="3.75744">
        <ele>96.4</ele>
        <time>2013-07-26T08:19:27.000Z</time>
      </trkpt>
      <trkpt lat="43.57849" lon="3.75751">
        <ele>96.3</ele>
        <time>2013-07-26T08:19:28.000Z</time>
      </trkpt>
      <trkpt lat="43.57848" lon="3.7576">
        <ele>96.5</ele>
        <time>2013-07-26T08:19:29.000Z</time>
      </trkpt>
      <trkpt lat="43.57847" lon="3.75767">
        <ele>97.4</ele>
        <time>2013-07-26T08:19:30.000Z</time>
      </trkpt>
      <trkpt lat="43.57846" lon="3.75774">
        <ele>97.6</ele>
        <time>2013-07-26T08:19:31.000Z</time>
      </trkpt>
      <trkpt lat="43.57846" lon="3.75782">
        <ele>97.1</ele>
        <time>2013-07-26T08:19:32.000Z</time>
      </trkpt>
      <trkpt lat="43.57844" lon="3.75789">
        <ele>97.1</ele>
        <time>2013-07-26T08:19:33.000Z</time>
      </trkpt>
      <trkpt lat="43.57844" lon="3.75796">
        <ele>97</ele>
        <time>2013-07-26T08:19:34.000Z</time>
      </trkpt>
      <trkpt lat="43.57843" lon="3.75804">
        <ele>96.8</ele>
        <time>2013-07-26T08:19:35.000Z</time>
      </trkpt>
      <trkpt lat="43.57841" lon="3.75812">
        <ele>97</ele>
        <time>2013-07-26T08:19:36.000Z</time>
      </trkpt>
      <trkpt lat="43.57841" lon="3.75819">
        <ele>96.7</ele>
        <time>2013-07-26T08:19:37.000Z</time>
      </trkpt>
      <trkpt lat="43.57839" lon="3.75827">
        <ele>96.6</ele>
        <time>2013-07-26T08:19:38.000Z</time>
      </trkpt>
      <trkpt lat="43.57838" lon="3.75835">
        <ele>96.8</ele>
        <time>2013-07-26T08:19:39.000Z</time>
      </trkpt>
      <trkpt lat="43.57837" lon="3.75843">
        <ele>97.2</ele>
        <time>2013-07-26T08:19:40.000Z</time>
      </trkpt>
      <trkpt lat="43.57836" lon="3.75851">
        <ele>96.5</ele>
        <time>2013-07-26T08:19:41.000Z</time>
      </trkpt>
      <trkpt lat="43.57835" lon="3.75859">
        <ele>96.7</ele>
        <time>2013-07-26T08:19:42.000Z</time>
      </trkpt>
      <trkpt lat="43.57834" lon="3.75868">
        <ele>96.5</ele>
        <time>2013-07-26T08:19:43.000Z</time>
      </trkpt>
      <trkpt lat="43.57833" lon="3.75877">
        <ele>96.5</ele>
        <time>2013-07-26T08:19:44.000Z</time>
      </trkpt>
      <trkpt lat="43.57832" lon="3.75886">
        <ele>96.6</ele>
        <time>2013-07-26T08:19:45.000Z</time>
      </trkpt>
      <trkpt lat="43.57831" lon="3.75895">
        <ele>96.7</ele>
        <time>2013-07-26T08:19:46.000Z</time>
      </trkpt>
      <trkpt lat="43.5783" lon="3.75903">
        <ele>97</ele>
        <time>2013-07-26T08:19:47.000Z</time>
      </trkpt>
      <trkpt lat="43.57828" lon="3.75912">
        <ele>96.7</ele>
        <time>2013-07-26T08:19:48.000Z</time>
      </trkpt>
      <trkpt lat="43.57827" lon="3.75921">
        <ele>96.4</ele>
        <time>2013-07-26T08:19:49.000Z</time>
      </trkpt>
      <trkpt lat="43.57826" lon="3.7593">
        <ele>96</ele>
        <time>2013-07-26T08:19:50.000Z</time>
      </trkpt>
      <trkpt lat="43.57824" lon="3.75939">
        <ele>96.4</ele>
        <time>2013-07-26T08:19:51.000Z</time>
      </trkpt>
      <trkpt lat="43.57823" lon="3.75947">
        <ele>95.9</ele>
        <time>2013-07-26T08:19:52.000Z</time>
      </trkpt>
      <trkpt lat="43.57822" lon="3.75956">
        <ele>97</ele>
        <time>2013-07-26T08:19:53.000Z</time>
      </trkpt>
      <trkpt lat="43.5782" lon="3.75964">
        <ele>97.1</ele>
        <time>2013-07-26T08:19:54.000Z</time>
      </trkpt>
      <trkpt lat="43.5782" lon="3.75972">
        <ele>96.7</ele>
        <time>2013-07-26T08:19:55.000Z</time>
      </trkpt>
      <trkpt lat="43.57819" lon="3.75982">
        <ele>96.4</ele>
        <time>2013-07-26T08:19:56.000Z</time>
      </trkpt>
      <trkpt lat="43.57819" lon="3.7599">
        <ele>95.6</ele>
        <time>2013-07-26T08:19:57.000Z</time>
      </trkpt>
      <trkpt lat="43.57818" lon="3.76002">
        <ele>95.5</ele>
        <time>2013-07-26T08:19:58.198Z</time>
      </trkpt>
      <trkpt lat="43.57817" lon="3.76008">
        <ele>95.3</ele>
        <time>2013-07-26T08:19:59.000Z</time>
      </trkpt>
      <trkpt lat="43.57816" lon="3.76015">
        <ele>94.9</ele>
        <time>2013-07-26T08:20:00.000Z</time>
      </trkpt>
      <trkpt lat="43.57815" lon="3.76023">
        <ele>94.7</ele>
        <time>2013-07-26T08:20:01.000Z</time>
      </trkpt>
      <trkpt lat="43.57813" lon="3.76031">
        <ele>94.2</ele>
        <time>2013-07-26T08:20:02.000Z</time>
      </trkpt>
      <trkpt lat="43.57813" lon="3.7604">
        <ele>93.1</ele>
        <time>2013-07-26T08:20:03.000Z</time>
      </trkpt>
      <trkpt lat="43.57812" lon="3.76049">
        <ele>92.8</ele>
        <time>2013-07-26T08:20:04.000Z</time>
      </trkpt>
      <trkpt lat="43.5781" lon="3.76057">
        <ele>91.6</ele>
        <time>2013-07-26T08:20:05.000Z</time>
      </trkpt>
      <trkpt lat="43.57809" lon="3.76065">
        <ele>91.4</ele>
        <time>2013-07-26T08:20:06.000Z</time>
      </trkpt>
      <trkpt lat="43.57808" lon="3.76073">
        <ele>91.9</ele>
        <time>2013-07-26T08:20:07.000Z</time>
      </trkpt>
      <trkpt lat="43.57808" lon="3.76081">
        <ele>91.1</ele>
        <time>2013-07-26T08:20:08.000Z</time>
      </trkpt>
      <trkpt lat="43.57808" lon="3.76089">
        <ele>90.9</ele>
        <time>2013-07-26T08:20:09.000Z</time>
      </trkpt>
      <trkpt lat="43.57808" lon="3.76097">
        <ele>90.7</ele>
        <time>2013-07-26T08:20:10.000Z</time>
      </trkpt>
      <trkpt lat="43.57809" lon="3.76105">
        <ele>90.8</ele>
        <time>2013-07-26T08:20:11.000Z</time>
      </trkpt>
      <trkpt lat="43.57811" lon="3.76113">
        <ele>90.3</ele>
        <time>2013-07-26T08:20:12.000Z</time>
      </trkpt>
      <trkpt lat="43.57813" lon="3.76121">
        <ele>90.9</ele>
        <time>2013-07-26T08:20:13.000Z</time>
      </trkpt>
      <trkpt lat="43.57815" lon="3.7613">
        <ele>90.2</ele>
        <time>2013-07-26T08:20:14.000Z</time>
      </trkpt>
      <trkpt lat="43.57816" lon="3.76141">
        <ele>89.6</ele>
        <time>2013-07-26T08:20:15.000Z</time>
      </trkpt>
      <trkpt lat="43.57814" lon="3.76148">
        <ele>88.8</ele>
        <time>2013-07-26T08:20:16.000Z</time>
      </trkpt>
      <trkpt lat="43.57811" lon="3.76155">
        <ele>88.8</ele>
        <time>2013-07-26T08:20:17.000Z</time>
      </trkpt>
      <trkpt lat="43.57809" lon="3.76164">
        <ele>89.2</ele>
        <time>2013-07-26T08:20:18.000Z</time>
      </trkpt>
      <trkpt lat="43.57808" lon="3.76173">
        <ele>89.3</ele>
        <time>2013-07-26T08:20:19.000Z</time>
      </trkpt>
      <trkpt lat="43.57806" lon="3.76181">
        <ele>89.5</ele>
        <time>2013-07-26T08:20:20.000Z</time>
      </trkpt>
      <trkpt lat="43.57806" lon="3.76189">
        <ele>89.8</ele>
        <time>2013-07-26T08:20:21.000Z</time>
      </trkpt>
      <trkpt lat="43.57805" lon="3.76197">
        <ele>90.1</ele>
        <time>2013-07-26T08:20:22.000Z</time>
      </trkpt>
      <trkpt lat="43.57806" lon="3.76205">
        <ele>90.3</ele>
        <time>2013-07-26T08:20:23.000Z</time>
      </trkpt>
      <trkpt lat="43.57806" lon="3.76213">
        <ele>90.6</ele>
        <time>2013-07-26T08:20:24.000Z</time>
      </trkpt>
      <trkpt lat="43.57807" lon="3.76221">
        <ele>90.9</ele>
        <time>2013-07-26T08:20:25.000Z</time>
      </trkpt>
      <trkpt lat="43.57808" lon="3.76229">
        <ele>90.7</ele>
        <time>2013-07-26T08:20:26.000Z</time>
      </trkpt>
      <trkpt lat="43.57807" lon="3.76237">
        <ele>91.3</ele>
        <time>2013-07-26T08:20:27.000Z</time>
      </trkpt>
      <trkpt lat="43.57808" lon="3.76245">
        <ele>90</ele>
        <time>2013-07-26T08:20:28.000Z</time>
      </trkpt>
      <trkpt lat="43.57808" lon="3.76253">
        <ele>90</ele>
        <time>2013-07-26T08:20:29.000Z</time>
      </trkpt>
      <trkpt lat="43.57808" lon="3.76261">
        <ele>89.5</ele>
        <time>2013-07-26T08:20:30.000Z</time>
      </trkpt>
      <trkpt lat="43.57809" lon="3.76268">
        <ele>88.7</ele>
        <time>2013-07-26T08:20:31.000Z</time>
      </trkpt>
      <trkpt lat="43.57811" lon="3.76275">
        <ele>88.6</ele>
        <time>2013-07-26T08:20:32.000Z</time>
      </trkpt>
      <trkpt lat="43.57811" lon="3.76283">
        <ele>89.2</ele>
        <time>2013-07-26T08:20:33.000Z</time>
      </trkpt>
      <trkpt lat="43.57812" lon="3.76291">
        <ele>89</ele>
        <time>2013-07-26T08:20:34.000Z</time>
      </trkpt>
      <trkpt lat="43.57811" lon="3.76297">
        <ele>89.1</ele>
        <time>2013-07-26T08:20:35.000Z</time>
      </trkpt>
      <trkpt lat="43.57812" lon="3.76304">
        <ele>89.1</ele>
        <time>2013-07-26T08:20:36.000Z</time>
      </trkpt>
      <trkpt lat="43.57812" lon="3.76312">
        <ele>88</ele>
        <time>2013-07-26T08:20:37.000Z</time>
      </trkpt>
      <trkpt lat="43.57813" lon="3.7632">
        <ele>88</ele>
        <time>2013-07-26T08:20:38.000Z</time>
      </trkpt>
      <trkpt lat="43.57814" lon="3.76327">
        <ele>87.7</ele>
        <time>2013-07-26T08:20:39.000Z</time>
      </trkpt>
      <trkpt lat="43.57813" lon="3.76334">
        <ele>88.2</ele>
        <time>2013-07-26T08:20:40.000Z</time>
      </trkpt>
      <trkpt lat="43.57814" lon="3.76341">
        <ele>88</ele>
        <time>2013-07-26T08:20:41.000Z</time>
      </trkpt>
      <trkpt lat="43.57815" lon="3.76347">
        <ele>88.1</ele>
        <time>2013-07-26T08:20:42.000Z</time>
      </trkpt>
      <trkpt lat="43.57816" lon="3.76354">
        <ele>88.2</ele>
        <time>2013-07-26T08:20:43.000Z</time>
      </trkpt>
      <trkpt lat="43.57817" lon="3.76359">
        <ele>88.2</ele>
        <time>2013-07-26T08:20:44.000Z</time>
      </trkpt>
      <trkpt lat="43.57818" lon="3.76365">
        <ele>88.1</ele>
        <time>2013-07-26T08:20:45.000Z</time>
      </trkpt>
      <trkpt lat="43.57818" lon="3.76372">
        <ele>87.9</ele>
        <time>2013-07-26T08:20:46.000Z</time>
      </trkpt>
      <trkpt lat="43.5782" lon="3.76379">
        <ele>87.6</ele>
        <time>2013-07-26T08:20:47.000Z</time>
      </trkpt>
      <trkpt lat="43.5782" lon="3.76386">
        <ele>87.4</ele>
        <time>2013-07-26T08:20:48.000Z</time>
      </trkpt>
      <trkpt lat="43.57821" lon="3.76393">
        <ele>87.1</ele>
        <time>2013-07-26T08:20:49.000Z</time>
      </trkpt>
      <trkpt lat="43.57822" lon="3.76398">
        <ele>85.3</ele>
        <time>2013-07-26T08:20:50.000Z</time>
      </trkpt>
      <trkpt lat="43.57824" lon="3.76405">
        <ele>84.1</ele>
        <time>2013-07-26T08:20:51.000Z</time>
      </trkpt>
      <trkpt lat="43.57825" lon="3.76412">
        <ele>84.9</ele>
        <time>2013-07-26T08:20:52.000Z</time>
      </trkpt>
      <trkpt lat="43.57827" lon="3.76418">
        <ele>85.7</ele>
        <time>2013-07-26T08:20:53.000Z</time>
      </trkpt>
      <trkpt lat="43.57829" lon="3.76425">
        <ele>83.9</ele>
        <time>2013-07-26T08:20:54.000Z</time>
      </trkpt>
      <trkpt lat="43.57829" lon="3.76432">
        <ele>83.6</ele>
        <time>2013-07-26T08:20:55.000Z</time>
      </trkpt>
      <trkpt lat="43.57831" lon="3.76438">
        <ele>83.4</ele>
        <time>2013-07-26T08:20:56.000Z</time>
      </trkpt>
      <trkpt lat="43.57833" lon="3.76444">
        <ele>84.3</ele>
        <time>2013-07-26T08:20:57.000Z</time>
      </trkpt>
      <trkpt lat="43.57835" lon="3.76452">
        <ele>84.1</ele>
        <time>2013-07-26T08:20:58.206Z</time>
      </trkpt>
      <trkpt lat="43.57836" lon="3.76457">
        <ele>84.1</ele>
        <time>2013-07-26T08:20:59.000Z</time>
      </trkpt>
      <trkpt lat="43.57839" lon="3.76463">
        <ele>84</ele>
        <time>2013-07-26T08:21:00.000Z</time>
      </trkpt>
      <trkpt lat="43.57841" lon="3.76468">
        <ele>84.8</ele>
        <time>2013-07-26T08:21:01.000Z</time>
      </trkpt>
      <trkpt lat="43.57845" lon="3.76474">
        <ele>84</ele>
        <time>2013-07-26T08:21:02.000Z</time>
      </trkpt>
      <trkpt lat="43.57846" lon="3.7648">
        <ele>83.8</ele>
        <time>2013-07-26T08:21:03.000Z</time>
      </trkpt>
      <trkpt lat="43.57848" lon="3.76486">
        <ele>86</ele>
        <time>2013-07-26T08:21:04.000Z</time>
      </trkpt>
      <trkpt lat="43.57849" lon="3.76492">
        <ele>86.8</ele>
        <time>2013-07-26T08:21:05.000Z</time>
      </trkpt>
      <trkpt lat="43.57852" lon="3.765">
        <ele>86.2</ele>
        <time>2013-07-26T08:21:06.000Z</time>
      </trkpt>
      <trkpt lat="43.57855" lon="3.76507">
        <ele>86.2</ele>
        <time>2013-07-26T08:21:07.000Z</time>
      </trkpt>
      <trkpt lat="43.57856" lon="3.76514">
        <ele>86.7</ele>
        <time>2013-07-26T08:21:08.000Z</time>
      </trkpt>
      <trkpt lat="43.57858" lon="3.76519">
        <ele>87.4</ele>
        <time>2013-07-26T08:21:09.000Z</time>
      </trkpt>
      <trkpt lat="43.5786" lon="3.76527">
        <ele>87.7</ele>
        <time>2013-07-26T08:21:10.000Z</time>
      </trkpt>
      <trkpt lat="43.57862" lon="3.76532">
        <ele>86.6</ele>
        <time>2013-07-26T08:21:11.000Z</time>
      </trkpt>
      <trkpt lat="43.57865" lon="3.76539">
        <ele>86.3</ele>
        <time>2013-07-26T08:21:12.000Z</time>
      </trkpt>
      <trkpt lat="43.57868" lon="3.76546">
        <ele>86.7</ele>
        <time>2013-07-26T08:21:13.000Z</time>
      </trkpt>
      <trkpt lat="43.5787" lon="3.76552">
        <ele>86.9</ele>
        <time>2013-07-26T08:21:14.000Z</time>
      </trkpt>
      <trkpt lat="43.57873" lon="3.76558">
        <ele>87.7</ele>
        <time>2013-07-26T08:21:15.000Z</time>
      </trkpt>
      <trkpt lat="43.57875" lon="3.76564">
        <ele>87.5</ele>
        <time>2013-07-26T08:21:16.000Z</time>
      </trkpt>
      <trkpt lat="43.57877" lon="3.76569">
        <ele>88.5</ele>
        <time>2013-07-26T08:21:17.000Z</time>
      </trkpt>
      <trkpt lat="43.57879" lon="3.76575">
        <ele>89.3</ele>
        <time>2013-07-26T08:21:18.000Z</time>
      </trkpt>
      <trkpt lat="43.57882" lon="3.7658">
        <ele>91</ele>
        <time>2013-07-26T08:21:19.000Z</time>
      </trkpt>
      <trkpt lat="43.57884" lon="3.76586">
        <ele>91.1</ele>
        <time>2013-07-26T08:21:20.000Z</time>
      </trkpt>
      <trkpt lat="43.57887" lon="3.76592">
        <ele>90.2</ele>
        <time>2013-07-26T08:21:21.000Z</time>
      </trkpt>
      <trkpt lat="43.5789" lon="3.76598">
        <ele>90.2</ele>
        <time>2013-07-26T08:21:22.000Z</time>
      </trkpt>
      <trkpt lat="43.57893" lon="3.76603">
        <ele>90.1</ele>
        <time>2013-07-26T08:21:23.000Z</time>
      </trkpt>
      <trkpt lat="43.57896" lon="3.76609">
        <ele>90.6</ele>
        <time>2013-07-26T08:21:24.000Z</time>
      </trkpt>
      <trkpt lat="43.57899" lon="3.76616">
        <ele>90.6</ele>
        <time>2013-07-26T08:21:25.000Z</time>
      </trkpt>
      <trkpt lat="43.57902" lon="3.76622">
        <ele>90.7</ele>
        <time>2013-07-26T08:21:26.000Z</time>
      </trkpt>
      <trkpt lat="43.57904" lon="3.76628">
        <ele>91.1</ele>
        <time>2013-07-26T08:21:27.000Z</time>
      </trkpt>
      <trkpt lat="43.57908" lon="3.76635">
        <ele>91.4</ele>
        <time>2013-07-26T08:21:28.000Z</time>
      </trkpt>
      <trkpt lat="43.5791" lon="3.7664">
        <ele>90.4</ele>
        <time>2013-07-26T08:21:29.000Z</time>
      </trkpt>
      <trkpt lat="43.57914" lon="3.76645">
        <ele>88.7</ele>
        <time>2013-07-26T08:21:30.000Z</time>
      </trkpt>
      <trkpt lat="43.57915" lon="3.76652">
        <ele>90.7</ele>
        <time>2013-07-26T08:21:31.000Z</time>
      </trkpt>
      <trkpt lat="43.57919" lon="3.76658">
        <ele>90.5</ele>
        <time>2013-07-26T08:21:32.000Z</time>
      </trkpt>
      <trkpt lat="43.57921" lon="3.76664">
        <ele>91.8</ele>
        <time>2013-07-26T08:21:33.000Z</time>
      </trkpt>
      <trkpt lat="43.57924" lon="3.7667">
        <ele>91.7</ele>
        <time>2013-07-26T08:21:34.000Z</time>
      </trkpt>
      <trkpt lat="43.57928" lon="3.76675">
        <ele>91.5</ele>
        <time>2013-07-26T08:21:35.000Z</time>
      </trkpt>
      <trkpt lat="43.57931" lon="3.76681">
        <ele>91.3</ele>
        <time>2013-07-26T08:21:36.000Z</time>
      </trkpt>
      <trkpt lat="43.57933" lon="3.76686">
        <ele>91.1</ele>
        <time>2013-07-26T08:21:37.000Z</time>
      </trkpt>
      <trkpt lat="43.57936" lon="3.76692">
        <ele>91.8</ele>
        <time>2013-07-26T08:21:38.000Z</time>
      </trkpt>
      <trkpt lat="43.57939" lon="3.76698">
        <ele>92.5</ele>
        <time>2013-07-26T08:21:39.000Z</time>
      </trkpt>
      <trkpt lat="43.57942" lon="3.76701">
        <ele>92.2</ele>
        <time>2013-07-26T08:21:40.000Z</time>
      </trkpt>
      <trkpt lat="43.57946" lon="3.76707">
        <ele>91.7</ele>
        <time>2013-07-26T08:21:41.000Z</time>
      </trkpt>
      <trkpt lat="43.57949" lon="3.76713">
        <ele>91</ele>
        <time>2013-07-26T08:21:42.000Z</time>
      </trkpt>
      <trkpt lat="43.57952" lon="3.76719">
        <ele>91</ele>
        <time>2013-07-26T08:21:43.000Z</time>
      </trkpt>
      <trkpt lat="43.57955" lon="3.76724">
        <ele>89.5</ele>
        <time>2013-07-26T08:21:44.000Z</time>
      </trkpt>
      <trkpt lat="43.57959" lon="3.76727">
        <ele>89.6</ele>
        <time>2013-07-26T08:21:45.000Z</time>
      </trkpt>
      <trkpt lat="43.57963" lon="3.76731">
        <ele>89.8</ele>
        <time>2013-07-26T08:21:46.000Z</time>
      </trkpt>
      <trkpt lat="43.57968" lon="3.76735">
        <ele>90.8</ele>
        <time>2013-07-26T08:21:47.000Z</time>
      </trkpt>
      <trkpt lat="43.57972" lon="3.76738">
        <ele>90.2</ele>
        <time>2013-07-26T08:21:48.000Z</time>
      </trkpt>
      <trkpt lat="43.57976" lon="3.7674">
        <ele>90.6</ele>
        <time>2013-07-26T08:21:49.000Z</time>
      </trkpt>
      <trkpt lat="43.57982" lon="3.76742">
        <ele>90.5</ele>
        <time>2013-07-26T08:21:50.000Z</time>
      </trkpt>
      <trkpt lat="43.57986" lon="3.76744">
        <ele>90.1</ele>
        <time>2013-07-26T08:21:51.000Z</time>
      </trkpt>
      <trkpt lat="43.57991" lon="3.76747">
        <ele>90.2</ele>
        <time>2013-07-26T08:21:52.000Z</time>
      </trkpt>
      <trkpt lat="43.57995" lon="3.76749">
        <ele>89.5</ele>
        <time>2013-07-26T08:21:53.000Z</time>
      </trkpt>
      <trkpt lat="43.57999" lon="3.76752">
        <ele>89.3</ele>
        <time>2013-07-26T08:21:54.000Z</time>
      </trkpt>
      <trkpt lat="43.58004" lon="3.76754">
        <ele>90</ele>
        <time>2013-07-26T08:21:55.000Z</time>
      </trkpt>
      <trkpt lat="43.58009" lon="3.76754">
        <ele>91.2</ele>
        <time>2013-07-26T08:21:56.000Z</time>
      </trkpt>
      <trkpt lat="43.58013" lon="3.76752">
        <ele>90.9</ele>
        <time>2013-07-26T08:21:57.000Z</time>
      </trkpt>
      <trkpt lat="43.58018" lon="3.76749">
        <ele>90.7</ele>
        <time>2013-07-26T08:21:58.169Z</time>
      </trkpt>
      <trkpt lat="43.58021" lon="3.76746">
        <ele>90.7</ele>
        <time>2013-07-26T08:21:59.000Z</time>
      </trkpt>
      <trkpt lat="43.58022" lon="3.7674">
        <ele>91</ele>
        <time>2013-07-26T08:22:00.000Z</time>
      </trkpt>
      <trkpt lat="43.58021" lon="3.76736">
        <ele>91.2</ele>
        <time>2013-07-26T08:22:01.000Z</time>
      </trkpt>
      <trkpt lat="43.58019" lon="3.76735">
        <ele>90.9</ele>
        <time>2013-07-26T08:22:02.000Z</time>
      </trkpt>
      <trkpt lat="43.58015" lon="3.76735">
        <ele>91.2</ele>
        <time>2013-07-26T08:22:03.000Z</time>
      </trkpt>
      <trkpt lat="43.58013" lon="3.76734">
        <ele>91.2</ele>
        <time>2013-07-26T08:22:04.000Z</time>
      </trkpt>
      <trkpt lat="43.5801" lon="3.76735">
        <ele>91.3</ele>
        <time>2013-07-26T08:22:05.000Z</time>
      </trkpt>
      <trkpt lat="43.58007" lon="3.76731">
        <ele>93</ele>
        <time>2013-07-26T08:22:06.000Z</time>
      </trkpt>
      <trkpt lat="43.58003" lon="3.7673">
        <ele>93.5</ele>
        <time>2013-07-26T08:22:07.000Z</time>
      </trkpt>
      <trkpt lat="43.58" lon="3.76728">
        <ele>92.4</ele>
        <time>2013-07-26T08:22:08.000Z</time>
      </trkpt>
      <trkpt lat="43.57997" lon="3.76726">
        <ele>91.4</ele>
        <time>2013-07-26T08:22:09.000Z</time>
      </trkpt>
      <trkpt lat="43.57993" lon="3.76724">
        <ele>91.7</ele>
        <time>2013-07-26T08:22:10.000Z</time>
      </trkpt>
      <trkpt lat="43.57989" lon="3.76723">
        <ele>91.2</ele>
        <time>2013-07-26T08:22:11.000Z</time>
      </trkpt>
      <trkpt lat="43.57986" lon="3.76721">
        <ele>91.2</ele>
        <time>2013-07-26T08:22:12.000Z</time>
      </trkpt>
      <trkpt lat="43.57982" lon="3.76719">
        <ele>92.7</ele>
        <time>2013-07-26T08:22:13.000Z</time>
      </trkpt>
      <trkpt lat="43.57979" lon="3.76718">
        <ele>94.6</ele>
        <time>2013-07-26T08:22:14.000Z</time>
      </trkpt>
      <trkpt lat="43.57977" lon="3.76715">
        <ele>95.6</ele>
        <time>2013-07-26T08:22:15.000Z</time>
      </trkpt>
      <trkpt lat="43.57974" lon="3.76713">
        <ele>94.6</ele>
        <time>2013-07-26T08:22:16.000Z</time>
      </trkpt>
      <trkpt lat="43.57972" lon="3.7671">
        <ele>93.1</ele>
        <time>2013-07-26T08:22:17.000Z</time>
      </trkpt>
      <trkpt lat="43.57971" lon="3.76708">
        <ele>93.1</ele>
        <time>2013-07-26T08:22:18.000Z</time>
      </trkpt>
      <trkpt lat="43.57969" lon="3.76704">
        <ele>90.2</ele>
        <time>2013-07-26T08:22:19.000Z</time>
      </trkpt>
      <trkpt lat="43.57968" lon="3.76701">
        <ele>89.2</ele>
        <time>2013-07-26T08:22:20.000Z</time>
      </trkpt>
      <trkpt lat="43.57969" lon="3.76695">
        <ele>91.6</ele>
        <time>2013-07-26T08:22:22.000Z</time>
      </trkpt>
      <trkpt lat="43.5797" lon="3.76694">
        <ele>91.6</ele>
        <time>2013-07-26T08:22:23.000Z</time>
      </trkpt>
      <trkpt lat="43.57968" lon="3.76699">
        <ele>95.1</ele>
        <time>2013-07-26T08:24:18.000Z</time>
      </trkpt>
      <trkpt lat="43.57968" lon="3.76702">
        <ele>95.5</ele>
        <time>2013-07-26T08:24:19.000Z</time>
      </trkpt>
      <trkpt lat="43.57969" lon="3.76705">
        <ele>94.6</ele>
        <time>2013-07-26T08:24:20.000Z</time>
      </trkpt>
      <trkpt lat="43.5797" lon="3.76708">
        <ele>93.4</ele>
        <time>2013-07-26T08:24:21.000Z</time>
      </trkpt>
      <trkpt lat="43.57971" lon="3.76712">
        <ele>93.5</ele>
        <time>2013-07-26T08:24:22.000Z</time>
      </trkpt>
      <trkpt lat="43.57972" lon="3.76716">
        <ele>93.8</ele>
        <time>2013-07-26T08:24:23.000Z</time>
      </trkpt>
      <trkpt lat="43.57974" lon="3.76719">
        <ele>92.9</ele>
        <time>2013-07-26T08:24:24.000Z</time>
      </trkpt>
      <trkpt lat="43.57977" lon="3.76722">
        <ele>91.9</ele>
        <time>2013-07-26T08:24:25.000Z</time>
      </trkpt>
      <trkpt lat="43.5798" lon="3.76724">
        <ele>91.5</ele>
        <time>2013-07-26T08:24:26.000Z</time>
      </trkpt>
      <trkpt lat="43.57984" lon="3.76725">
        <ele>91.5</ele>
        <time>2013-07-26T08:24:27.000Z</time>
      </trkpt>
      <trkpt lat="43.57988" lon="3.76727">
        <ele>91.2</ele>
        <time>2013-07-26T08:24:28.000Z</time>
      </trkpt>
      <trkpt lat="43.57992" lon="3.76728">
        <ele>91</ele>
        <time>2013-07-26T08:24:29.000Z</time>
      </trkpt>
      <trkpt lat="43.57996" lon="3.7673">
        <ele>90.3</ele>
        <time>2013-07-26T08:24:30.000Z</time>
      </trkpt>
      <trkpt lat="43.58001" lon="3.76731">
        <ele>90.3</ele>
        <time>2013-07-26T08:24:31.000Z</time>
      </trkpt>
      <trkpt lat="43.58005" lon="3.76732">
        <ele>90.3</ele>
        <time>2013-07-26T08:24:32.000Z</time>
      </trkpt>
      <trkpt lat="43.5801" lon="3.76732">
        <ele>90.7</ele>
        <time>2013-07-26T08:24:33.000Z</time>
      </trkpt>
      <trkpt lat="43.58014" lon="3.76732">
        <ele>90.9</ele>
        <time>2013-07-26T08:24:34.000Z</time>
      </trkpt>
      <trkpt lat="43.58019" lon="3.76732">
        <ele>90.7</ele>
        <time>2013-07-26T08:24:35.000Z</time>
      </trkpt>
      <trkpt lat="43.58022" lon="3.76733">
        <ele>90.2</ele>
        <time>2013-07-26T08:24:36.000Z</time>
      </trkpt>
      <trkpt lat="43.58025" lon="3.76735">
        <ele>90.8</ele>
        <time>2013-07-26T08:24:37.000Z</time>
      </trkpt>
      <trkpt lat="43.58026" lon="3.76739">
        <ele>91.5</ele>
        <time>2013-07-26T08:24:38.000Z</time>
      </trkpt>
      <trkpt lat="43.58026" lon="3.76743">
        <ele>91.1</ele>
        <time>2013-07-26T08:24:39.000Z</time>
      </trkpt>
      <trkpt lat="43.58024" lon="3.76746">
        <ele>91.4</ele>
        <time>2013-07-26T08:24:40.000Z</time>
      </trkpt>
      <trkpt lat="43.58021" lon="3.76749">
        <ele>91.7</ele>
        <time>2013-07-26T08:24:41.000Z</time>
      </trkpt>
      <trkpt lat="43.58017" lon="3.76751">
        <ele>92.5</ele>
        <time>2013-07-26T08:24:42.000Z</time>
      </trkpt>
      <trkpt lat="43.58013" lon="3.76753">
        <ele>92.7</ele>
        <time>2013-07-26T08:24:43.000Z</time>
      </trkpt>
      <trkpt lat="43.5801" lon="3.76754">
        <ele>93</ele>
        <time>2013-07-26T08:24:44.000Z</time>
      </trkpt>
      <trkpt lat="43.58007" lon="3.76755">
        <ele>92.9</ele>
        <time>2013-07-26T08:24:45.000Z</time>
      </trkpt>
      <trkpt lat="43.58004" lon="3.76754">
        <ele>93</ele>
        <time>2013-07-26T08:24:46.000Z</time>
      </trkpt>
      <trkpt lat="43.58" lon="3.76752">
        <ele>93.8</ele>
        <time>2013-07-26T08:24:47.000Z</time>
      </trkpt>
      <trkpt lat="43.57996" lon="3.76749">
        <ele>93.5</ele>
        <time>2013-07-26T08:24:48.000Z</time>
      </trkpt>
      <trkpt lat="43.57992" lon="3.76745">
        <ele>94</ele>
        <time>2013-07-26T08:24:49.000Z</time>
      </trkpt>
      <trkpt lat="43.57987" lon="3.76743">
        <ele>94.1</ele>
        <time>2013-07-26T08:24:50.000Z</time>
      </trkpt>
      <trkpt lat="43.57983" lon="3.76741">
        <ele>93.5</ele>
        <time>2013-07-26T08:24:51.000Z</time>
      </trkpt>
      <trkpt lat="43.57979" lon="3.76739">
        <ele>93.3</ele>
        <time>2013-07-26T08:24:52.000Z</time>
      </trkpt>
      <trkpt lat="43.57975" lon="3.76737">
        <ele>93.4</ele>
        <time>2013-07-26T08:24:53.000Z</time>
      </trkpt>
      <trkpt lat="43.57971" lon="3.76736">
        <ele>93.5</ele>
        <time>2013-07-26T08:24:54.000Z</time>
      </trkpt>
      <trkpt lat="43.57967" lon="3.76735">
        <ele>93.4</ele>
        <time>2013-07-26T08:24:55.000Z</time>
      </trkpt>
      <trkpt lat="43.57964" lon="3.76735">
        <ele>94</ele>
        <time>2013-07-26T08:24:56.000Z</time>
      </trkpt>
      <trkpt lat="43.57962" lon="3.76737">
        <ele>93.9</ele>
        <time>2013-07-26T08:24:57.000Z</time>
      </trkpt>
      <trkpt lat="43.57964" lon="3.76741">
        <ele>93.9</ele>
        <time>2013-07-26T08:25:00.000Z</time>
      </trkpt>
      <trkpt lat="43.57963" lon="3.76744">
        <ele>94.1</ele>
        <time>2013-07-26T08:25:01.000Z</time>
      </trkpt>
      <trkpt lat="43.57962" lon="3.76748">
        <ele>94.4</ele>
        <time>2013-07-26T08:25:03.000Z</time>
      </trkpt>
      <trkpt lat="43.57961" lon="3.76751">
        <ele>94.6</ele>
        <time>2013-07-26T08:25:04.000Z</time>
      </trkpt>
      <trkpt lat="43.57959" lon="3.76753">
        <ele>94.2</ele>
        <time>2013-07-26T08:25:05.000Z</time>
      </trkpt>
      <trkpt lat="43.57957" lon="3.76755">
        <ele>94.5</ele>
        <time>2013-07-26T08:25:06.000Z</time>
      </trkpt>
      <trkpt lat="43.57955" lon="3.76757">
        <ele>94.8</ele>
        <time>2013-07-26T08:25:07.000Z</time>
      </trkpt>
      <trkpt lat="43.57953" lon="3.76759">
        <ele>94.7</ele>
        <time>2013-07-26T08:25:08.000Z</time>
      </trkpt>
      <trkpt lat="43.57951" lon="3.76761">
        <ele>94.4</ele>
        <time>2013-07-26T08:25:09.000Z</time>
      </trkpt>
      <trkpt lat="43.5795" lon="3.76765">
        <ele>94.5</ele>
        <time>2013-07-26T08:25:10.000Z</time>
      </trkpt>
      <trkpt lat="43.5795" lon="3.76768">
        <ele>94.9</ele>
        <time>2013-07-26T08:25:11.000Z</time>
      </trkpt>
      <trkpt lat="43.57949" lon="3.76772">
        <ele>95.7</ele>
        <time>2013-07-26T08:25:12.000Z</time>
      </trkpt>
      <trkpt lat="43.57949" lon="3.76777">
        <ele>96</ele>
        <time>2013-07-26T08:25:13.000Z</time>
      </trkpt>
      <trkpt lat="43.57948" lon="3.76781">
        <ele>96.1</ele>
        <time>2013-07-26T08:25:14.000Z</time>
      </trkpt>
      <trkpt lat="43.57946" lon="3.76785">
        <ele>95.7</ele>
        <time>2013-07-26T08:25:15.000Z</time>
      </trkpt>
      <trkpt lat="43.57944" lon="3.76788">
        <ele>95.8</ele>
        <time>2013-07-26T08:25:16.000Z</time>
      </trkpt>
      <trkpt lat="43.57942" lon="3.76791">
        <ele>96.2</ele>
        <time>2013-07-26T08:25:17.000Z</time>
      </trkpt>
      <trkpt lat="43.57938" lon="3.76794">
        <ele>95.3</ele>
        <time>2013-07-26T08:25:18.000Z</time>
      </trkpt>
      <trkpt lat="43.57935" lon="3.76796">
        <ele>95.5</ele>
        <time>2013-07-26T08:25:19.000Z</time>
      </trkpt>
      <trkpt lat="43.57931" lon="3.76797">
        <ele>95.3</ele>
        <time>2013-07-26T08:25:20.000Z</time>
      </trkpt>
      <trkpt lat="43.57927" lon="3.76799">
        <ele>95</ele>
        <time>2013-07-26T08:25:21.000Z</time>
      </trkpt>
      <trkpt lat="43.57923" lon="3.768">
        <ele>95</ele>
        <time>2013-07-26T08:25:22.000Z</time>
      </trkpt>
      <trkpt lat="43.57918" lon="3.76801">
        <ele>94.7</ele>
        <time>2013-07-26T08:25:23.000Z</time>
      </trkpt>
      <trkpt lat="43.57911" lon="3.76801">
        <ele>94.3</ele>
        <time>2013-07-26T08:25:24.000Z</time>
      </trkpt>
      <trkpt lat="43.57907" lon="3.76801">
        <ele>94.3</ele>
        <time>2013-07-26T08:25:25.000Z</time>
      </trkpt>
      <trkpt lat="43.57902" lon="3.76803">
        <ele>94.6</ele>
        <time>2013-07-26T08:25:26.000Z</time>
      </trkpt>
      <trkpt lat="43.57896" lon="3.76804">
        <ele>94.3</ele>
        <time>2013-07-26T08:25:27.000Z</time>
      </trkpt>
      <trkpt lat="43.57891" lon="3.76803">
        <ele>93.8</ele>
        <time>2013-07-26T08:25:28.000Z</time>
      </trkpt>
      <trkpt lat="43.57886" lon="3.76803">
        <ele>94.5</ele>
        <time>2013-07-26T08:25:29.000Z</time>
      </trkpt>
      <trkpt lat="43.5788" lon="3.76802">
        <ele>94.2</ele>
        <time>2013-07-26T08:25:30.000Z</time>
      </trkpt>
      <trkpt lat="43.57874" lon="3.76802">
        <ele>94</ele>
        <time>2013-07-26T08:25:31.000Z</time>
      </trkpt>
      <trkpt lat="43.57869" lon="3.76802">
        <ele>94.1</ele>
        <time>2013-07-26T08:25:32.000Z</time>
      </trkpt>
      <trkpt lat="43.57863" lon="3.76801">
        <ele>93.4</ele>
        <time>2013-07-26T08:25:33.000Z</time>
      </trkpt>
      <trkpt lat="43.57857" lon="3.76802">
        <ele>93.1</ele>
        <time>2013-07-26T08:25:34.000Z</time>
      </trkpt>
      <trkpt lat="43.57852" lon="3.76803">
        <ele>92.4</ele>
        <time>2013-07-26T08:25:35.000Z</time>
      </trkpt>
      <trkpt lat="43.57847" lon="3.76805">
        <ele>92.1</ele>
        <time>2013-07-26T08:25:36.000Z</time>
      </trkpt>
      <trkpt lat="43.57842" lon="3.76809">
        <ele>91.8</ele>
        <time>2013-07-26T08:25:37.000Z</time>
      </trkpt>
      <trkpt lat="43.57838" lon="3.76814">
        <ele>91.9</ele>
        <time>2013-07-26T08:25:38.000Z</time>
      </trkpt>
      <trkpt lat="43.57833" lon="3.76819">
        <ele>92.2</ele>
        <time>2013-07-26T08:25:39.000Z</time>
      </trkpt>
      <trkpt lat="43.57829" lon="3.76824">
        <ele>91.4</ele>
        <time>2013-07-26T08:25:40.000Z</time>
      </trkpt>
      <trkpt lat="43.57825" lon="3.76829">
        <ele>91.6</ele>
        <time>2013-07-26T08:25:41.000Z</time>
      </trkpt>
      <trkpt lat="43.57821" lon="3.76834">
        <ele>91.6</ele>
        <time>2013-07-26T08:25:42.000Z</time>
      </trkpt>
      <trkpt lat="43.57817" lon="3.76839">
        <ele>91.9</ele>
        <time>2013-07-26T08:25:43.000Z</time>
      </trkpt>
      <trkpt lat="43.57812" lon="3.76845">
        <ele>92</ele>
        <time>2013-07-26T08:25:44.000Z</time>
      </trkpt>
      <trkpt lat="43.57808" lon="3.7685">
        <ele>91.9</ele>
        <time>2013-07-26T08:25:45.000Z</time>
      </trkpt>
      <trkpt lat="43.57805" lon="3.76855">
        <ele>92</ele>
        <time>2013-07-26T08:25:46.000Z</time>
      </trkpt>
      <trkpt lat="43.57801" lon="3.76861">
        <ele>91.8</ele>
        <time>2013-07-26T08:25:47.000Z</time>
      </trkpt>
      <trkpt lat="43.57797" lon="3.76866">
        <ele>91.8</ele>
        <time>2013-07-26T08:25:48.000Z</time>
      </trkpt>
      <trkpt lat="43.57794" lon="3.76873">
        <ele>91.9</ele>
        <time>2013-07-26T08:25:49.000Z</time>
      </trkpt>
      <trkpt lat="43.5779" lon="3.76879">
        <ele>92.4</ele>
        <time>2013-07-26T08:25:50.000Z</time>
      </trkpt>
      <trkpt lat="43.57786" lon="3.76884">
        <ele>91.3</ele>
        <time>2013-07-26T08:25:51.000Z</time>
      </trkpt>
      <trkpt lat="43.57782" lon="3.76889">
        <ele>91.3</ele>
        <time>2013-07-26T08:25:52.000Z</time>
      </trkpt>
      <trkpt lat="43.57779" lon="3.76894">
        <ele>91</ele>
        <time>2013-07-26T08:25:53.000Z</time>
      </trkpt>
      <trkpt lat="43.57775" lon="3.769">
        <ele>91.5</ele>
        <time>2013-07-26T08:25:54.000Z</time>
      </trkpt>
      <trkpt lat="43.57771" lon="3.76906">
        <ele>91.2</ele>
        <time>2013-07-26T08:25:55.000Z</time>
      </trkpt>
      <trkpt lat="43.57767" lon="3.76912">
        <ele>90.8</ele>
        <time>2013-07-26T08:25:56.000Z</time>
      </trkpt>
      <trkpt lat="43.57763" lon="3.76917">
        <ele>90.2</ele>
        <time>2013-07-26T08:25:57.000Z</time>
      </trkpt>
      <trkpt lat="43.57759" lon="3.76923">
        <ele>90.2</ele>
        <time>2013-07-26T08:25:58.143Z</time>
      </trkpt>
      <trkpt lat="43.57755" lon="3.76928">
        <ele>90.3</ele>
        <time>2013-07-26T08:25:59.000Z</time>
      </trkpt>
      <trkpt lat="43.57752" lon="3.76932">
        <ele>90.2</ele>
        <time>2013-07-26T08:26:00.000Z</time>
      </trkpt>
      <trkpt lat="43.57747" lon="3.76937">
        <ele>89.8</ele>
        <time>2013-07-26T08:26:01.000Z</time>
      </trkpt>
      <trkpt lat="43.57743" lon="3.76942">
        <ele>89.5</ele>
        <time>2013-07-26T08:26:02.000Z</time>
      </trkpt>
      <trkpt lat="43.57738" lon="3.76947">
        <ele>89</ele>
        <time>2013-07-26T08:26:03.000Z</time>
      </trkpt>
      <trkpt lat="43.57735" lon="3.76952">
        <ele>88.9</ele>
        <time>2013-07-26T08:26:04.000Z</time>
      </trkpt>
      <trkpt lat="43.57731" lon="3.76956">
        <ele>89.3</ele>
        <time>2013-07-26T08:26:05.000Z</time>
      </trkpt>
      <trkpt lat="43.57727" lon="3.76962">
        <ele>89.6</ele>
        <time>2013-07-26T08:26:06.000Z</time>
      </trkpt>
      <trkpt lat="43.57722" lon="3.76966">
        <ele>89.3</ele>
        <time>2013-07-26T08:26:07.000Z</time>
      </trkpt>
      <trkpt lat="43.57718" lon="3.7697">
        <ele>89.1</ele>
        <time>2013-07-26T08:26:08.000Z</time>
      </trkpt>
      <trkpt lat="43.57714" lon="3.76975">
        <ele>89.3</ele>
        <time>2013-07-26T08:26:09.000Z</time>
      </trkpt>
      <trkpt lat="43.57709" lon="3.7698">
        <ele>89.9</ele>
        <time>2013-07-26T08:26:10.000Z</time>
      </trkpt>
      <trkpt lat="43.57705" lon="3.76986">
        <ele>90</ele>
        <time>2013-07-26T08:26:11.000Z</time>
      </trkpt>
      <trkpt lat="43.57701" lon="3.76991">
        <ele>89.2</ele>
        <time>2013-07-26T08:26:12.000Z</time>
      </trkpt>
      <trkpt lat="43.57697" lon="3.76996">
        <ele>88.6</ele>
        <time>2013-07-26T08:26:13.000Z</time>
      </trkpt>
      <trkpt lat="43.57693" lon="3.77">
        <ele>88.4</ele>
        <time>2013-07-26T08:26:14.000Z</time>
      </trkpt>
      <trkpt lat="43.57688" lon="3.77005">
        <ele>88.9</ele>
        <time>2013-07-26T08:26:15.000Z</time>
      </trkpt>
      <trkpt lat="43.57684" lon="3.77009">
        <ele>88.7</ele>
        <time>2013-07-26T08:26:16.000Z</time>
      </trkpt>
      <trkpt lat="43.57679" lon="3.77014">
        <ele>88.9</ele>
        <time>2013-07-26T08:26:17.000Z</time>
      </trkpt>
      <trkpt lat="43.57674" lon="3.77018">
        <ele>88.4</ele>
        <time>2013-07-26T08:26:18.000Z</time>
      </trkpt>
      <trkpt lat="43.57669" lon="3.77022">
        <ele>87.1</ele>
        <time>2013-07-26T08:26:19.000Z</time>
      </trkpt>
      <trkpt lat="43.57665" lon="3.77026">
        <ele>87.3</ele>
        <time>2013-07-26T08:26:20.000Z</time>
      </trkpt>
      <trkpt lat="43.57661" lon="3.7703">
        <ele>87.1</ele>
        <time>2013-07-26T08:26:21.000Z</time>
      </trkpt>
      <trkpt lat="43.57656" lon="3.77034">
        <ele>86.7</ele>
        <time>2013-07-26T08:26:22.000Z</time>
      </trkpt>
      <trkpt lat="43.57651" lon="3.77038">
        <ele>86</ele>
        <time>2013-07-26T08:26:23.000Z</time>
      </trkpt>
      <trkpt lat="43.57646" lon="3.77042">
        <ele>86.2</ele>
        <time>2013-07-26T08:26:24.000Z</time>
      </trkpt>
      <trkpt lat="43.57642" lon="3.77045">
        <ele>85.3</ele>
        <time>2013-07-26T08:26:25.000Z</time>
      </trkpt>
      <trkpt lat="43.57637" lon="3.7705">
        <ele>85.6</ele>
        <time>2013-07-26T08:26:26.000Z</time>
      </trkpt>
      <trkpt lat="43.57632" lon="3.77054">
        <ele>87.6</ele>
        <time>2013-07-26T08:26:27.000Z</time>
      </trkpt>
      <trkpt lat="43.57628" lon="3.77058">
        <ele>87.8</ele>
        <time>2013-07-26T08:26:28.000Z</time>
      </trkpt>
      <trkpt lat="43.57624" lon="3.77062">
        <ele>90.3</ele>
        <time>2013-07-26T08:26:29.000Z</time>
      </trkpt>
      <trkpt lat="43.57619" lon="3.77065">
        <ele>92</ele>
        <time>2013-07-26T08:26:30.000Z</time>
      </trkpt>
      <trkpt lat="43.57615" lon="3.77069">
        <ele>91.9</ele>
        <time>2013-07-26T08:26:31.000Z</time>
      </trkpt>
      <trkpt lat="43.5761" lon="3.77072">
        <ele>91.8</ele>
        <time>2013-07-26T08:26:32.000Z</time>
      </trkpt>
      <trkpt lat="43.57604" lon="3.77075">
        <ele>91.1</ele>
        <time>2013-07-26T08:26:33.000Z</time>
      </trkpt>
      <trkpt lat="43.576" lon="3.77078">
        <ele>91</ele>
        <time>2013-07-26T08:26:34.000Z</time>
      </trkpt>
      <trkpt lat="43.57595" lon="3.77082">
        <ele>90.2</ele>
        <time>2013-07-26T08:26:35.000Z</time>
      </trkpt>
      <trkpt lat="43.57588" lon="3.77085">
        <ele>87.2</ele>
        <time>2013-07-26T08:26:36.000Z</time>
      </trkpt>
      <trkpt lat="43.57583" lon="3.77089">
        <ele>86.7</ele>
        <time>2013-07-26T08:26:37.000Z</time>
      </trkpt>
      <trkpt lat="43.57578" lon="3.77092">
        <ele>86</ele>
        <time>2013-07-26T08:26:38.000Z</time>
      </trkpt>
      <trkpt lat="43.57572" lon="3.77095">
        <ele>84.6</ele>
        <time>2013-07-26T08:26:39.000Z</time>
      </trkpt>
      <trkpt lat="43.57567" lon="3.77098">
        <ele>84.8</ele>
        <time>2013-07-26T08:26:40.000Z</time>
      </trkpt>
      <trkpt lat="43.57562" lon="3.77102">
        <ele>85.1</ele>
        <time>2013-07-26T08:26:41.000Z</time>
      </trkpt>
      <trkpt lat="43.57557" lon="3.77105">
        <ele>85.4</ele>
        <time>2013-07-26T08:26:42.000Z</time>
      </trkpt>
      <trkpt lat="43.57552" lon="3.77107">
        <ele>86.2</ele>
        <time>2013-07-26T08:26:43.000Z</time>
      </trkpt>
      <trkpt lat="43.57547" lon="3.7711">
        <ele>86.1</ele>
        <time>2013-07-26T08:26:44.000Z</time>
      </trkpt>
      <trkpt lat="43.57542" lon="3.77112">
        <ele>86.1</ele>
        <time>2013-07-26T08:26:45.000Z</time>
      </trkpt>
      <trkpt lat="43.57537" lon="3.77114">
        <ele>85.3</ele>
        <time>2013-07-26T08:26:46.000Z</time>
      </trkpt>
      <trkpt lat="43.57531" lon="3.77115">
        <ele>84.8</ele>
        <time>2013-07-26T08:26:47.000Z</time>
      </trkpt>
      <trkpt lat="43.57527" lon="3.77118">
        <ele>85.5</ele>
        <time>2013-07-26T08:26:48.000Z</time>
      </trkpt>
      <trkpt lat="43.57522" lon="3.77119">
        <ele>86.7</ele>
        <time>2013-07-26T08:26:49.000Z</time>
      </trkpt>
      <trkpt lat="43.57517" lon="3.77122">
        <ele>87</ele>
        <time>2013-07-26T08:26:50.000Z</time>
      </trkpt>
      <trkpt lat="43.57513" lon="3.77123">
        <ele>87</ele>
        <time>2013-07-26T08:26:51.000Z</time>
      </trkpt>
      <trkpt lat="43.57508" lon="3.77126">
        <ele>86.8</ele>
        <time>2013-07-26T08:26:52.000Z</time>
      </trkpt>
      <trkpt lat="43.57503" lon="3.77127">
        <ele>87</ele>
        <time>2013-07-26T08:26:53.000Z</time>
      </trkpt>
      <trkpt lat="43.57498" lon="3.77129">
        <ele>86.9</ele>
        <time>2013-07-26T08:26:54.000Z</time>
      </trkpt>
      <trkpt lat="43.57495" lon="3.7713">
        <ele>87</ele>
        <time>2013-07-26T08:26:55.000Z</time>
      </trkpt>
      <trkpt lat="43.5749" lon="3.77132">
        <ele>87.2</ele>
        <time>2013-07-26T08:26:56.000Z</time>
      </trkpt>
      <trkpt lat="43.57486" lon="3.77134">
        <ele>88.2</ele>
        <time>2013-07-26T08:26:57.000Z</time>
      </trkpt>
      <trkpt lat="43.57481" lon="3.77135">
        <ele>88.5</ele>
        <time>2013-07-26T08:26:58.165Z</time>
      </trkpt>
      <trkpt lat="43.57478" lon="3.77137">
        <ele>88.2</ele>
        <time>2013-07-26T08:26:59.000Z</time>
      </trkpt>
      <trkpt lat="43.57473" lon="3.77139">
        <ele>88.4</ele>
        <time>2013-07-26T08:27:00.000Z</time>
      </trkpt>
      <trkpt lat="43.57469" lon="3.77141">
        <ele>88.4</ele>
        <time>2013-07-26T08:27:01.000Z</time>
      </trkpt>
      <trkpt lat="43.57463" lon="3.77143">
        <ele>88.4</ele>
        <time>2013-07-26T08:27:02.000Z</time>
      </trkpt>
      <trkpt lat="43.57459" lon="3.77145">
        <ele>88.2</ele>
        <time>2013-07-26T08:27:03.000Z</time>
      </trkpt>
      <trkpt lat="43.57453" lon="3.77147">
        <ele>86.2</ele>
        <time>2013-07-26T08:27:04.000Z</time>
      </trkpt>
      <trkpt lat="43.57449" lon="3.77149">
        <ele>85.5</ele>
        <time>2013-07-26T08:27:05.000Z</time>
      </trkpt>
      <trkpt lat="43.57444" lon="3.7715">
        <ele>85.5</ele>
        <time>2013-07-26T08:27:06.000Z</time>
      </trkpt>
      <trkpt lat="43.5744" lon="3.77152">
        <ele>85.9</ele>
        <time>2013-07-26T08:27:07.000Z</time>
      </trkpt>
      <trkpt lat="43.57435" lon="3.77154">
        <ele>85.7</ele>
        <time>2013-07-26T08:27:08.000Z</time>
      </trkpt>
      <trkpt lat="43.5743" lon="3.77157">
        <ele>85.4</ele>
        <time>2013-07-26T08:27:09.000Z</time>
      </trkpt>
      <trkpt lat="43.57425" lon="3.77159">
        <ele>85.6</ele>
        <time>2013-07-26T08:27:10.000Z</time>
      </trkpt>
      <trkpt lat="43.5742" lon="3.77161">
        <ele>86.4</ele>
        <time>2013-07-26T08:27:11.000Z</time>
      </trkpt>
      <trkpt lat="43.57415" lon="3.77163">
        <ele>88.2</ele>
        <time>2013-07-26T08:27:12.000Z</time>
      </trkpt>
      <trkpt lat="43.57411" lon="3.77165">
        <ele>88.8</ele>
        <time>2013-07-26T08:27:13.000Z</time>
      </trkpt>
      <trkpt lat="43.57406" lon="3.77167">
        <ele>89.4</ele>
        <time>2013-07-26T08:27:14.000Z</time>
      </trkpt>
      <trkpt lat="43.57401" lon="3.77169">
        <ele>89.6</ele>
        <time>2013-07-26T08:27:15.000Z</time>
      </trkpt>
      <trkpt lat="43.57396" lon="3.77171">
        <ele>89.7</ele>
        <time>2013-07-26T08:27:16.000Z</time>
      </trkpt>
      <trkpt lat="43.57391" lon="3.77172">
        <ele>90.1</ele>
        <time>2013-07-26T08:27:17.000Z</time>
      </trkpt>
      <trkpt lat="43.57387" lon="3.77174">
        <ele>90.7</ele>
        <time>2013-07-26T08:27:18.000Z</time>
      </trkpt>
      <trkpt lat="43.57382" lon="3.77177">
        <ele>90.5</ele>
        <time>2013-07-26T08:27:19.000Z</time>
      </trkpt>
      <trkpt lat="43.57377" lon="3.77178">
        <ele>90.3</ele>
        <time>2013-07-26T08:27:20.000Z</time>
      </trkpt>
      <trkpt lat="43.57373" lon="3.7718">
        <ele>90.6</ele>
        <time>2013-07-26T08:27:21.000Z</time>
      </trkpt>
      <trkpt lat="43.57368" lon="3.77182">
        <ele>90</ele>
        <time>2013-07-26T08:27:22.000Z</time>
      </trkpt>
      <trkpt lat="43.57363" lon="3.77184">
        <ele>90</ele>
        <time>2013-07-26T08:27:23.000Z</time>
      </trkpt>
      <trkpt lat="43.57359" lon="3.77185">
        <ele>90.3</ele>
        <time>2013-07-26T08:27:24.000Z</time>
      </trkpt>
      <trkpt lat="43.57355" lon="3.77186">
        <ele>90.9</ele>
        <time>2013-07-26T08:27:25.000Z</time>
      </trkpt>
      <trkpt lat="43.57351" lon="3.77188">
        <ele>91.1</ele>
        <time>2013-07-26T08:27:26.000Z</time>
      </trkpt>
      <trkpt lat="43.57346" lon="3.77189">
        <ele>91.2</ele>
        <time>2013-07-26T08:27:27.000Z</time>
      </trkpt>
      <trkpt lat="43.57342" lon="3.77191">
        <ele>91.5</ele>
        <time>2013-07-26T08:27:28.000Z</time>
      </trkpt>
      <trkpt lat="43.57338" lon="3.77193">
        <ele>91.6</ele>
        <time>2013-07-26T08:27:29.000Z</time>
      </trkpt>
      <trkpt lat="43.57334" lon="3.77194">
        <ele>91.6</ele>
        <time>2013-07-26T08:27:30.000Z</time>
      </trkpt>
      <trkpt lat="43.5733" lon="3.77195">
        <ele>92.4</ele>
        <time>2013-07-26T08:27:31.000Z</time>
      </trkpt>
      <trkpt lat="43.57327" lon="3.77196">
        <ele>93.1</ele>
        <time>2013-07-26T08:27:32.000Z</time>
      </trkpt>
      <trkpt lat="43.57322" lon="3.77198">
        <ele>92.6</ele>
        <time>2013-07-26T08:27:33.000Z</time>
      </trkpt>
      <trkpt lat="43.57319" lon="3.77199">
        <ele>92.7</ele>
        <time>2013-07-26T08:27:34.000Z</time>
      </trkpt>
      <trkpt lat="43.57315" lon="3.77201">
        <ele>92.9</ele>
        <time>2013-07-26T08:27:35.000Z</time>
      </trkpt>
      <trkpt lat="43.57311" lon="3.77202">
        <ele>92.8</ele>
        <time>2013-07-26T08:27:36.000Z</time>
      </trkpt>
      <trkpt lat="43.57308" lon="3.77204">
        <ele>93</ele>
        <time>2013-07-26T08:27:37.000Z</time>
      </trkpt>
      <trkpt lat="43.57305" lon="3.77206">
        <ele>92.7</ele>
        <time>2013-07-26T08:27:38.000Z</time>
      </trkpt>
      <trkpt lat="43.57302" lon="3.77208">
        <ele>93.2</ele>
        <time>2013-07-26T08:27:39.000Z</time>
      </trkpt>
      <trkpt lat="43.57298" lon="3.77209">
        <ele>92.9</ele>
        <time>2013-07-26T08:27:40.000Z</time>
      </trkpt>
      <trkpt lat="43.57295" lon="3.7721">
        <ele>92.3</ele>
        <time>2013-07-26T08:27:41.000Z</time>
      </trkpt>
      <trkpt lat="43.57292" lon="3.7721">
        <ele>93.5</ele>
        <time>2013-07-26T08:27:42.000Z</time>
      </trkpt>
      <trkpt lat="43.5729" lon="3.7721">
        <ele>92.9</ele>
        <time>2013-07-26T08:27:43.000Z</time>
      </trkpt>
      <trkpt lat="43.57288" lon="3.77208">
        <ele>90.8</ele>
        <time>2013-07-26T08:27:44.000Z</time>
      </trkpt>
      <trkpt lat="43.57286" lon="3.77207">
        <ele>89.2</ele>
        <time>2013-07-26T08:27:45.000Z</time>
      </trkpt>
      <trkpt lat="43.57286" lon="3.77201">
        <ele>89.6</ele>
        <time>2013-07-26T08:27:46.000Z</time>
      </trkpt>
      <trkpt lat="43.57285" lon="3.77196">
        <ele>88.3</ele>
        <time>2013-07-26T08:27:47.000Z</time>
      </trkpt>
      <trkpt lat="43.57285" lon="3.77191">
        <ele>87.4</ele>
        <time>2013-07-26T08:27:48.000Z</time>
      </trkpt>
      <trkpt lat="43.57285" lon="3.77187">
        <ele>86.5</ele>
        <time>2013-07-26T08:27:49.000Z</time>
      </trkpt>
      <trkpt lat="43.57284" lon="3.77182">
        <ele>88.8</ele>
        <time>2013-07-26T08:27:50.000Z</time>
      </trkpt>
      <trkpt lat="43.57282" lon="3.77178">
        <ele>89.4</ele>
        <time>2013-07-26T08:27:51.000Z</time>
      </trkpt>
      <trkpt lat="43.57281" lon="3.77175">
        <ele>89.7</ele>
        <time>2013-07-26T08:27:52.000Z</time>
      </trkpt>
      <trkpt lat="43.57279" lon="3.77171">
        <ele>90.4</ele>
        <time>2013-07-26T08:27:53.000Z</time>
      </trkpt>
      <trkpt lat="43.57277" lon="3.77167">
        <ele>90.7</ele>
        <time>2013-07-26T08:27:54.000Z</time>
      </trkpt>
      <trkpt lat="43.57275" lon="3.77164">
        <ele>90.5</ele>
        <time>2013-07-26T08:27:55.000Z</time>
      </trkpt>
      <trkpt lat="43.57273" lon="3.7716">
        <ele>90.3</ele>
        <time>2013-07-26T08:27:56.000Z</time>
      </trkpt>
      <trkpt lat="43.57271" lon="3.77157">
        <ele>89.7</ele>
        <time>2013-07-26T08:27:57.000Z</time>
      </trkpt>
      <trkpt lat="43.57268" lon="3.77153">
        <ele>88.8</ele>
        <time>2013-07-26T08:27:58.124Z</time>
      </trkpt>
      <trkpt lat="43.57266" lon="3.7715">
        <ele>88.4</ele>
        <time>2013-07-26T08:27:59.000Z</time>
      </trkpt>
      <trkpt lat="43.57264" lon="3.77146">
        <ele>89.8</ele>
        <time>2013-07-26T08:28:00.000Z</time>
      </trkpt>
      <trkpt lat="43.57261" lon="3.77143">
        <ele>90.1</ele>
        <time>2013-07-26T08:28:01.000Z</time>
      </trkpt>
      <trkpt lat="43.57258" lon="3.77141">
        <ele>90.3</ele>
        <time>2013-07-26T08:28:02.000Z</time>
      </trkpt>
      <trkpt lat="43.57255" lon="3.77139">
        <ele>91.9</ele>
        <time>2013-07-26T08:28:03.000Z</time>
      </trkpt>
      <trkpt lat="43.57253" lon="3.77136">
        <ele>92.3</ele>
        <time>2013-07-26T08:28:04.000Z</time>
      </trkpt>
      <trkpt lat="43.5725" lon="3.77133">
        <ele>92.7</ele>
        <time>2013-07-26T08:28:05.000Z</time>
      </trkpt>
      <trkpt lat="43.57248" lon="3.7713">
        <ele>92.6</ele>
        <time>2013-07-26T08:28:06.000Z</time>
      </trkpt>
      <trkpt lat="43.57245" lon="3.77127">
        <ele>92.3</ele>
        <time>2013-07-26T08:28:07.000Z</time>
      </trkpt>
      <trkpt lat="43.57242" lon="3.77125">
        <ele>92.1</ele>
        <time>2013-07-26T08:28:08.000Z</time>
      </trkpt>
      <trkpt lat="43.57239" lon="3.77123">
        <ele>92.2</ele>
        <time>2013-07-26T08:28:09.000Z</time>
      </trkpt>
      <trkpt lat="43.57236" lon="3.7712">
        <ele>92.3</ele>
        <time>2013-07-26T08:28:10.000Z</time>
      </trkpt>
      <trkpt lat="43.57233" lon="3.77118">
        <ele>92.6</ele>
        <time>2013-07-26T08:28:11.000Z</time>
      </trkpt>
      <trkpt lat="43.5723" lon="3.77116">
        <ele>92.7</ele>
        <time>2013-07-26T08:28:12.000Z</time>
      </trkpt>
      <trkpt lat="43.57227" lon="3.77113">
        <ele>92.8</ele>
        <time>2013-07-26T08:28:13.000Z</time>
      </trkpt>
      <trkpt lat="43.57224" lon="3.7711">
        <ele>93.1</ele>
        <time>2013-07-26T08:28:14.000Z</time>
      </trkpt>
      <trkpt lat="43.57221" lon="3.77107">
        <ele>93.4</ele>
        <time>2013-07-26T08:28:15.000Z</time>
      </trkpt>
      <trkpt lat="43.57218" lon="3.77104">
        <ele>93.2</ele>
        <time>2013-07-26T08:28:16.000Z</time>
      </trkpt>
      <trkpt lat="43.57214" lon="3.77101">
        <ele>93.3</ele>
        <time>2013-07-26T08:28:17.000Z</time>
      </trkpt>
      <trkpt lat="43.57211" lon="3.77098">
        <ele>93.2</ele>
        <time>2013-07-26T08:28:18.000Z</time>
      </trkpt>
      <trkpt lat="43.57208" lon="3.77096">
        <ele>93.1</ele>
        <time>2013-07-26T08:28:19.000Z</time>
      </trkpt>
      <trkpt lat="43.57203" lon="3.77094">
        <ele>93</ele>
        <time>2013-07-26T08:28:20.000Z</time>
      </trkpt>
      <trkpt lat="43.57199" lon="3.77092">
        <ele>92.7</ele>
        <time>2013-07-26T08:28:21.000Z</time>
      </trkpt>
      <trkpt lat="43.57195" lon="3.77092">
        <ele>92.9</ele>
        <time>2013-07-26T08:28:22.000Z</time>
      </trkpt>
      <trkpt lat="43.57191" lon="3.77091">
        <ele>92.7</ele>
        <time>2013-07-26T08:28:23.000Z</time>
      </trkpt>
      <trkpt lat="43.57187" lon="3.77094">
        <ele>93.9</ele>
        <time>2013-07-26T08:28:24.000Z</time>
      </trkpt>
      <trkpt lat="43.57184" lon="3.77099">
        <ele>93.3</ele>
        <time>2013-07-26T08:28:25.000Z</time>
      </trkpt>
      <trkpt lat="43.57181" lon="3.77104">
        <ele>92.7</ele>
        <time>2013-07-26T08:28:26.000Z</time>
      </trkpt>
      <trkpt lat="43.57179" lon="3.77116">
        <ele>93.4</ele>
        <time>2013-07-26T08:28:27.000Z</time>
      </trkpt>
      <trkpt lat="43.57177" lon="3.77121">
        <ele>94</ele>
        <time>2013-07-26T08:28:28.000Z</time>
      </trkpt>
      <trkpt lat="43.57174" lon="3.77126">
        <ele>94</ele>
        <time>2013-07-26T08:28:29.000Z</time>
      </trkpt>
      <trkpt lat="43.57172" lon="3.77132">
        <ele>94.2</ele>
        <time>2013-07-26T08:28:30.000Z</time>
      </trkpt>
      <trkpt lat="43.57168" lon="3.77136">
        <ele>94.9</ele>
        <time>2013-07-26T08:28:31.000Z</time>
      </trkpt>
      <trkpt lat="43.57166" lon="3.77141">
        <ele>95.4</ele>
        <time>2013-07-26T08:28:32.000Z</time>
      </trkpt>
      <trkpt lat="43.57162" lon="3.77147">
        <ele>94.9</ele>
        <time>2013-07-26T08:28:33.000Z</time>
      </trkpt>
      <trkpt lat="43.57158" lon="3.77151">
        <ele>95.5</ele>
        <time>2013-07-26T08:28:34.000Z</time>
      </trkpt>
      <trkpt lat="43.57154" lon="3.77156">
        <ele>95.5</ele>
        <time>2013-07-26T08:28:35.000Z</time>
      </trkpt>
      <trkpt lat="43.57151" lon="3.77158">
        <ele>94.7</ele>
        <time>2013-07-26T08:28:36.000Z</time>
      </trkpt>
      <trkpt lat="43.57147" lon="3.77162">
        <ele>94.5</ele>
        <time>2013-07-26T08:28:37.000Z</time>
      </trkpt>
      <trkpt lat="43.57146" lon="3.77165">
        <ele>94.9</ele>
        <time>2013-07-26T08:28:38.000Z</time>
      </trkpt>
      <trkpt lat="43.57143" lon="3.77165">
        <ele>95.7</ele>
        <time>2013-07-26T08:28:39.000Z</time>
      </trkpt>
      <trkpt lat="43.57139" lon="3.77166">
        <ele>96</ele>
        <time>2013-07-26T08:28:40.000Z</time>
      </trkpt>
      <trkpt lat="43.57137" lon="3.77166">
        <ele>96.4</ele>
        <time>2013-07-26T08:28:41.000Z</time>
      </trkpt>
      <trkpt lat="43.57134" lon="3.77166">
        <ele>96.6</ele>
        <time>2013-07-26T08:28:42.000Z</time>
      </trkpt>
      <trkpt lat="43.57133" lon="3.7716">
        <ele>101.7</ele>
        <time>2013-07-26T08:28:43.000Z</time>
      </trkpt>
      <trkpt lat="43.57131" lon="3.77158">
        <ele>102.7</ele>
        <time>2013-07-26T08:28:44.000Z</time>
      </trkpt>
      <trkpt lat="43.57131" lon="3.77153">
        <ele>102.9</ele>
        <time>2013-07-26T08:28:45.000Z</time>
      </trkpt>
      <trkpt lat="43.57129" lon="3.7715">
        <ele>103.3</ele>
        <time>2013-07-26T08:28:46.000Z</time>
      </trkpt>
      <trkpt lat="43.57128" lon="3.77146">
        <ele>103.8</ele>
        <time>2013-07-26T08:28:47.000Z</time>
      </trkpt>
      <trkpt lat="43.57126" lon="3.77144">
        <ele>104.7</ele>
        <time>2013-07-26T08:28:48.000Z</time>
      </trkpt>
      <trkpt lat="43.57124" lon="3.7714">
        <ele>105.6</ele>
        <time>2013-07-26T08:28:49.000Z</time>
      </trkpt>
      <trkpt lat="43.57122" lon="3.77137">
        <ele>105.4</ele>
        <time>2013-07-26T08:28:50.000Z</time>
      </trkpt>
      <trkpt lat="43.5712" lon="3.77134">
        <ele>105</ele>
        <time>2013-07-26T08:28:51.000Z</time>
      </trkpt>
      <trkpt lat="43.57117" lon="3.7713">
        <ele>102.5</ele>
        <time>2013-07-26T08:28:53.000Z</time>
      </trkpt>
      <trkpt lat="43.57115" lon="3.77128">
        <ele>101.9</ele>
        <time>2013-07-26T08:28:54.000Z</time>
      </trkpt>
      <trkpt lat="43.57112" lon="3.77131">
        <ele>98.2</ele>
        <time>2013-07-26T08:29:17.000Z</time>
      </trkpt>
    </trkseg>
  </trk>
</gpx>